<?xml version="1.0" encoding="UTF-8" standalone="no" ?>
<gpx xmlns="http://www.topografix.com/GPX/1/1" xmlns:xsi="http://www.w3.org/2001/XMLSchema-instance" xsi:schemaLocation="http://www.topografix.com/GPX/1/1 http://www.topografix.com/GPX/1/1/gpx.xsd" version="1.1" creator="VisuGPX - https://www.visugpx.com">
  <metadata>
    <name>Parcours de ski du 31 mars 2010 à Montalbert</name>
    <desc><![CDATA[Parcours de ski du 31 mars 2010 sur le domaine de La Plagne. Séjour à Montalbert.]]></desc>
  </metadata>
  <trk>
    <name><![CDATA[31_03_2010 09_06_40_montalbert_fred on GPSies.com]]></name>
    <trkseg>
      <trkpt lat="45.53273" lon="6.63649">
        <ele>1404</ele>
        <time>2010-03-31T07:06:40Z</time>
      </trkpt>
      <trkpt lat="45.53244" lon="6.63647">
        <ele>1420</ele>
        <time>2010-03-31T07:06:49Z</time>
      </trkpt>
      <trkpt lat="45.53222" lon="6.63646">
        <ele>1424</ele>
        <time>2010-03-31T07:06:56Z</time>
      </trkpt>
      <trkpt lat="45.53202" lon="6.63645">
        <ele>1429</ele>
        <time>2010-03-31T07:07:02Z</time>
      </trkpt>
      <trkpt lat="45.53176" lon="6.63644">
        <ele>1435</ele>
        <time>2010-03-31T07:07:10Z</time>
      </trkpt>
      <trkpt lat="45.53153" lon="6.63642">
        <ele>1456</ele>
        <time>2010-03-31T07:07:17Z</time>
      </trkpt>
      <trkpt lat="45.53131" lon="6.63641">
        <ele>1461</ele>
        <time>2010-03-31T07:07:24Z</time>
      </trkpt>
      <trkpt lat="45.53108" lon="6.63639">
        <ele>1466</ele>
        <time>2010-03-31T07:07:31Z</time>
      </trkpt>
      <trkpt lat="45.53092" lon="6.63638">
        <ele>1469</ele>
        <time>2010-03-31T07:07:37Z</time>
      </trkpt>
      <trkpt lat="45.53077" lon="6.63637">
        <ele>1491</ele>
        <time>2010-03-31T07:07:46Z</time>
      </trkpt>
      <trkpt lat="45.53058" lon="6.63636">
        <ele>1494</ele>
        <time>2010-03-31T07:07:57Z</time>
      </trkpt>
      <trkpt lat="45.53038" lon="6.63635">
        <ele>1499</ele>
        <time>2010-03-31T07:08:09Z</time>
      </trkpt>
      <trkpt lat="45.53019" lon="6.63634">
        <ele>1503</ele>
        <time>2010-03-31T07:08:20Z</time>
      </trkpt>
      <trkpt lat="45.53002" lon="6.63633">
        <ele>1505</ele>
        <time>2010-03-31T07:08:30Z</time>
      </trkpt>
      <trkpt lat="45.52979" lon="6.63632">
        <ele>1534</ele>
        <time>2010-03-31T07:08:43Z</time>
      </trkpt>
      <trkpt lat="45.52955" lon="6.63629">
        <ele>1540</ele>
        <time>2010-03-31T07:08:57Z</time>
      </trkpt>
      <trkpt lat="45.52932" lon="6.63628">
        <ele>1546</ele>
        <time>2010-03-31T07:09:11Z</time>
      </trkpt>
      <trkpt lat="45.5291" lon="6.63626">
        <ele>1573</ele>
        <time>2010-03-31T07:09:24Z</time>
      </trkpt>
      <trkpt lat="45.52891" lon="6.63625">
        <ele>1576</ele>
        <time>2010-03-31T07:09:30Z</time>
      </trkpt>
      <trkpt lat="45.52862" lon="6.63623">
        <ele>1582</ele>
        <time>2010-03-31T07:09:39Z</time>
      </trkpt>
      <trkpt lat="45.52837" lon="6.63623">
        <ele>1586</ele>
        <time>2010-03-31T07:09:47Z</time>
      </trkpt>
      <trkpt lat="45.52817" lon="6.63622">
        <ele>1602</ele>
        <time>2010-03-31T07:09:53Z</time>
      </trkpt>
      <trkpt lat="45.52797" lon="6.63621">
        <ele>1604</ele>
        <time>2010-03-31T07:09:59Z</time>
      </trkpt>
      <trkpt lat="45.52776" lon="6.6362">
        <ele>1606</ele>
        <time>2010-03-31T07:10:05Z</time>
      </trkpt>
      <trkpt lat="45.52758" lon="6.63619">
        <ele>1607</ele>
        <time>2010-03-31T07:10:11Z</time>
      </trkpt>
      <trkpt lat="45.52753" lon="6.63621">
        <ele>1607</ele>
        <time>2010-03-31T07:10:15Z</time>
      </trkpt>
      <trkpt lat="45.5275" lon="6.63623">
        <ele>1607</ele>
        <time>2010-03-31T07:10:16Z</time>
      </trkpt>
      <trkpt lat="45.52738" lon="6.63648">
        <ele>1615</ele>
        <time>2010-03-31T07:10:21Z</time>
      </trkpt>
      <trkpt lat="45.52731" lon="6.63651">
        <ele>1616</ele>
        <time>2010-03-31T07:10:25Z</time>
      </trkpt>
      <trkpt lat="45.52729" lon="6.63647">
        <ele>1617</ele>
        <time>2010-03-31T07:10:31Z</time>
      </trkpt>
      <trkpt lat="45.52727" lon="6.63643">
        <ele>1617</ele>
        <time>2010-03-31T07:10:38Z</time>
      </trkpt>
      <trkpt lat="45.52724" lon="6.6364">
        <ele>1618</ele>
        <time>2010-03-31T07:10:45Z</time>
      </trkpt>
      <trkpt lat="45.52723" lon="6.63639">
        <ele>1618</ele>
        <time>2010-03-31T07:10:52Z</time>
      </trkpt>
      <trkpt lat="45.52722" lon="6.63639">
        <ele>1618</ele>
        <time>2010-03-31T07:10:59Z</time>
      </trkpt>
      <trkpt lat="45.52721" lon="6.6364">
        <ele>1618</ele>
        <time>2010-03-31T07:11:02Z</time>
      </trkpt>
      <trkpt lat="45.52718" lon="6.63643">
        <ele>1618</ele>
        <time>2010-03-31T07:11:09Z</time>
      </trkpt>
      <trkpt lat="45.52715" lon="6.63647">
        <ele>1619</ele>
        <time>2010-03-31T07:11:13Z</time>
      </trkpt>
      <trkpt lat="45.52709" lon="6.63652">
        <ele>1620</ele>
        <time>2010-03-31T07:11:16Z</time>
      </trkpt>
      <trkpt lat="45.52703" lon="6.63659">
        <ele>1621</ele>
        <time>2010-03-31T07:11:20Z</time>
      </trkpt>
      <trkpt lat="45.52699" lon="6.63665">
        <ele>1622</ele>
        <time>2010-03-31T07:11:23Z</time>
      </trkpt>
      <trkpt lat="45.52693" lon="6.63672">
        <ele>1628</ele>
        <time>2010-03-31T07:11:27Z</time>
      </trkpt>
      <trkpt lat="45.52686" lon="6.63681">
        <ele>1629</ele>
        <time>2010-03-31T07:11:32Z</time>
      </trkpt>
      <trkpt lat="45.52678" lon="6.63691">
        <ele>1631</ele>
        <time>2010-03-31T07:11:38Z</time>
      </trkpt>
      <trkpt lat="45.52669" lon="6.63703">
        <ele>1632</ele>
        <time>2010-03-31T07:11:45Z</time>
      </trkpt>
      <trkpt lat="45.52656" lon="6.63721">
        <ele>1655</ele>
        <time>2010-03-31T07:11:56Z</time>
      </trkpt>
      <trkpt lat="45.52647" lon="6.63733">
        <ele>1656</ele>
        <time>2010-03-31T07:12:03Z</time>
      </trkpt>
      <trkpt lat="45.52632" lon="6.63752">
        <ele>1671</ele>
        <time>2010-03-31T07:12:14Z</time>
      </trkpt>
      <trkpt lat="45.52617" lon="6.63771">
        <ele>1676</ele>
        <time>2010-03-31T07:12:25Z</time>
      </trkpt>
      <trkpt lat="45.52606" lon="6.63786">
        <ele>1679</ele>
        <time>2010-03-31T07:12:34Z</time>
      </trkpt>
      <trkpt lat="45.52589" lon="6.63809">
        <ele>1685</ele>
        <time>2010-03-31T07:12:47Z</time>
      </trkpt>
      <trkpt lat="45.52569" lon="6.63835">
        <ele>1706</ele>
        <time>2010-03-31T07:13:01Z</time>
      </trkpt>
      <trkpt lat="45.52548" lon="6.63861">
        <ele>1716</ele>
        <time>2010-03-31T07:13:16Z</time>
      </trkpt>
      <trkpt lat="45.52527" lon="6.63889">
        <ele>1722</ele>
        <time>2010-03-31T07:13:32Z</time>
      </trkpt>
      <trkpt lat="45.52505" lon="6.63918">
        <ele>1735</ele>
        <time>2010-03-31T07:13:48Z</time>
      </trkpt>
      <trkpt lat="45.52483" lon="6.63946">
        <ele>1749</ele>
        <time>2010-03-31T07:14:04Z</time>
      </trkpt>
      <trkpt lat="45.52462" lon="6.63972">
        <ele>1753</ele>
        <time>2010-03-31T07:14:19Z</time>
      </trkpt>
      <trkpt lat="45.52444" lon="6.63995">
        <ele>1758</ele>
        <time>2010-03-31T07:14:32Z</time>
      </trkpt>
      <trkpt lat="45.52421" lon="6.64026">
        <ele>1763</ele>
        <time>2010-03-31T07:14:49Z</time>
      </trkpt>
      <trkpt lat="45.52401" lon="6.64053">
        <ele>1782</ele>
        <time>2010-03-31T07:15:04Z</time>
      </trkpt>
      <trkpt lat="45.52383" lon="6.64077">
        <ele>1785</ele>
        <time>2010-03-31T07:15:17Z</time>
      </trkpt>
      <trkpt lat="45.5236" lon="6.64107">
        <ele>1789</ele>
        <time>2010-03-31T07:15:33Z</time>
      </trkpt>
      <trkpt lat="45.52347" lon="6.64125">
        <ele>1790</ele>
        <time>2010-03-31T07:15:43Z</time>
      </trkpt>
      <trkpt lat="45.52327" lon="6.6415">
        <ele>1806</ele>
        <time>2010-03-31T07:15:57Z</time>
      </trkpt>
      <trkpt lat="45.52307" lon="6.64175">
        <ele>1807</ele>
        <time>2010-03-31T07:16:11Z</time>
      </trkpt>
      <trkpt lat="45.52287" lon="6.64202">
        <ele>1811</ele>
        <time>2010-03-31T07:16:26Z</time>
      </trkpt>
      <trkpt lat="45.52261" lon="6.64235">
        <ele>1813</ele>
        <time>2010-03-31T07:16:44Z</time>
      </trkpt>
      <trkpt lat="45.52238" lon="6.64265">
        <ele>1817</ele>
        <time>2010-03-31T07:17:00Z</time>
      </trkpt>
      <trkpt lat="45.52224" lon="6.64283">
        <ele>1817</ele>
        <time>2010-03-31T07:17:10Z</time>
      </trkpt>
      <trkpt lat="45.52199" lon="6.64318">
        <ele>1820</ele>
        <time>2010-03-31T07:17:28Z</time>
      </trkpt>
      <trkpt lat="45.52168" lon="6.64358">
        <ele>1823</ele>
        <time>2010-03-31T07:17:50Z</time>
      </trkpt>
      <trkpt lat="45.52153" lon="6.64377">
        <ele>1843</ele>
        <time>2010-03-31T07:18:01Z</time>
      </trkpt>
      <trkpt lat="45.52132" lon="6.64403">
        <ele>1846</ele>
        <time>2010-03-31T07:18:16Z</time>
      </trkpt>
      <trkpt lat="45.52104" lon="6.6444">
        <ele>1856</ele>
        <time>2010-03-31T07:18:37Z</time>
      </trkpt>
      <trkpt lat="45.52082" lon="6.64468">
        <ele>1877</ele>
        <time>2010-03-31T07:18:54Z</time>
      </trkpt>
      <trkpt lat="45.52063" lon="6.64492">
        <ele>1878</ele>
        <time>2010-03-31T07:19:08Z</time>
      </trkpt>
      <trkpt lat="45.52038" lon="6.64524">
        <ele>1894</ele>
        <time>2010-03-31T07:19:26Z</time>
      </trkpt>
      <trkpt lat="45.52014" lon="6.64555">
        <ele>1902</ele>
        <time>2010-03-31T07:19:44Z</time>
      </trkpt>
      <trkpt lat="45.51992" lon="6.64584">
        <ele>1927</ele>
        <time>2010-03-31T07:20:01Z</time>
      </trkpt>
      <trkpt lat="45.51976" lon="6.64605">
        <ele>1934</ele>
        <time>2010-03-31T07:20:13Z</time>
      </trkpt>
      <trkpt lat="45.51953" lon="6.64636">
        <ele>1940</ele>
        <time>2010-03-31T07:20:30Z</time>
      </trkpt>
      <trkpt lat="45.5193" lon="6.64666">
        <ele>1948</ele>
        <time>2010-03-31T07:20:47Z</time>
      </trkpt>
      <trkpt lat="45.51913" lon="6.64689">
        <ele>1951</ele>
        <time>2010-03-31T07:20:59Z</time>
      </trkpt>
      <trkpt lat="45.51893" lon="6.64715">
        <ele>1949</ele>
        <time>2010-03-31T07:21:13Z</time>
      </trkpt>
      <trkpt lat="45.51885" lon="6.64726">
        <ele>1949</ele>
        <time>2010-03-31T07:21:19Z</time>
      </trkpt>
      <trkpt lat="45.51857" lon="6.64762">
        <ele>1950</ele>
        <time>2010-03-31T07:21:38Z</time>
      </trkpt>
      <trkpt lat="45.51838" lon="6.64787">
        <ele>1950</ele>
        <time>2010-03-31T07:21:51Z</time>
      </trkpt>
      <trkpt lat="45.51814" lon="6.64819">
        <ele>1950</ele>
        <time>2010-03-31T07:22:08Z</time>
      </trkpt>
      <trkpt lat="45.51788" lon="6.64852">
        <ele>1952</ele>
        <time>2010-03-31T07:22:26Z</time>
      </trkpt>
      <trkpt lat="45.51767" lon="6.6488">
        <ele>1953</ele>
        <time>2010-03-31T07:22:41Z</time>
      </trkpt>
      <trkpt lat="45.51743" lon="6.64912">
        <ele>1957</ele>
        <time>2010-03-31T07:22:58Z</time>
      </trkpt>
      <trkpt lat="45.51723" lon="6.64936">
        <ele>1962</ele>
        <time>2010-03-31T07:23:12Z</time>
      </trkpt>
      <trkpt lat="45.51705" lon="6.64959">
        <ele>1965</ele>
        <time>2010-03-31T07:23:25Z</time>
      </trkpt>
      <trkpt lat="45.51692" lon="6.64976">
        <ele>1967</ele>
        <time>2010-03-31T07:23:34Z</time>
      </trkpt>
      <trkpt lat="45.51681" lon="6.64992">
        <ele>1970</ele>
        <time>2010-03-31T07:23:42Z</time>
      </trkpt>
      <trkpt lat="45.51673" lon="6.65004">
        <ele>1973</ele>
        <time>2010-03-31T07:23:47Z</time>
      </trkpt>
      <trkpt lat="45.51668" lon="6.65017">
        <ele>1971</ele>
        <time>2010-03-31T07:23:50Z</time>
      </trkpt>
      <trkpt lat="45.51669" lon="6.65029">
        <ele>1970</ele>
        <time>2010-03-31T07:23:56Z</time>
      </trkpt>
      <trkpt lat="45.5167" lon="6.6503">
        <ele>1970</ele>
        <time>2010-03-31T07:24:06Z</time>
      </trkpt>
      <trkpt lat="45.5167" lon="6.6503">
        <ele>1970</ele>
        <time>2010-03-31T07:24:18Z</time>
      </trkpt>
      <trkpt lat="45.5167" lon="6.65032">
        <ele>1969</ele>
        <time>2010-03-31T07:24:31Z</time>
      </trkpt>
      <trkpt lat="45.5167" lon="6.65034">
        <ele>1969</ele>
        <time>2010-03-31T07:24:38Z</time>
      </trkpt>
      <trkpt lat="45.51671" lon="6.65034">
        <ele>1969</ele>
        <time>2010-03-31T07:24:45Z</time>
      </trkpt>
      <trkpt lat="45.51672" lon="6.65036">
        <ele>1969</ele>
        <time>2010-03-31T07:24:58Z</time>
      </trkpt>
      <trkpt lat="45.51675" lon="6.65042">
        <ele>1969</ele>
        <time>2010-03-31T07:25:03Z</time>
      </trkpt>
      <trkpt lat="45.51672" lon="6.65049">
        <ele>1969</ele>
        <time>2010-03-31T07:25:08Z</time>
      </trkpt>
      <trkpt lat="45.51672" lon="6.65051">
        <ele>1969</ele>
        <time>2010-03-31T07:25:16Z</time>
      </trkpt>
      <trkpt lat="45.51673" lon="6.65052">
        <ele>1969</ele>
        <time>2010-03-31T07:26:22Z</time>
      </trkpt>
      <trkpt lat="45.51676" lon="6.65052">
        <ele>1969</ele>
        <time>2010-03-31T07:26:24Z</time>
      </trkpt>
      <trkpt lat="45.51688" lon="6.65059">
        <ele>1968</ele>
        <time>2010-03-31T07:26:31Z</time>
      </trkpt>
      <trkpt lat="45.517" lon="6.6507">
        <ele>1967</ele>
        <time>2010-03-31T07:26:35Z</time>
      </trkpt>
      <trkpt lat="45.51714" lon="6.65085">
        <ele>1965</ele>
        <time>2010-03-31T07:26:38Z</time>
      </trkpt>
      <trkpt lat="45.5174" lon="6.65124">
        <ele>1964</ele>
        <time>2010-03-31T07:26:44Z</time>
      </trkpt>
      <trkpt lat="45.51758" lon="6.65154">
        <ele>1959</ele>
        <time>2010-03-31T07:26:48Z</time>
      </trkpt>
      <trkpt lat="45.51767" lon="6.65169">
        <ele>1958</ele>
        <time>2010-03-31T07:26:50Z</time>
      </trkpt>
      <trkpt lat="45.51793" lon="6.65197">
        <ele>1953</ele>
        <time>2010-03-31T07:26:54Z</time>
      </trkpt>
      <trkpt lat="45.51807" lon="6.65209">
        <ele>1951</ele>
        <time>2010-03-31T07:26:56Z</time>
      </trkpt>
      <trkpt lat="45.51831" lon="6.65205">
        <ele>1950</ele>
        <time>2010-03-31T07:26:59Z</time>
      </trkpt>
      <trkpt lat="45.51861" lon="6.6521">
        <ele>1937</ele>
        <time>2010-03-31T07:27:02Z</time>
      </trkpt>
      <trkpt lat="45.5188" lon="6.65231">
        <ele>1935</ele>
        <time>2010-03-31T07:27:04Z</time>
      </trkpt>
      <trkpt lat="45.51888" lon="6.65259">
        <ele>1934</ele>
        <time>2010-03-31T07:27:06Z</time>
      </trkpt>
      <trkpt lat="45.51902" lon="6.65318">
        <ele>1933</ele>
        <time>2010-03-31T07:27:11Z</time>
      </trkpt>
      <trkpt lat="45.51907" lon="6.65368">
        <ele>1933</ele>
        <time>2010-03-31T07:27:16Z</time>
      </trkpt>
      <trkpt lat="45.51909" lon="6.65407">
        <ele>1929</ele>
        <time>2010-03-31T07:27:21Z</time>
      </trkpt>
      <trkpt lat="45.51909" lon="6.65414">
        <ele>1928</ele>
        <time>2010-03-31T07:27:22Z</time>
      </trkpt>
      <trkpt lat="45.51904" lon="6.6547">
        <ele>1929</ele>
        <time>2010-03-31T07:27:30Z</time>
      </trkpt>
      <trkpt lat="45.51896" lon="6.65541">
        <ele>1925</ele>
        <time>2010-03-31T07:27:39Z</time>
      </trkpt>
      <trkpt lat="45.51896" lon="6.65549">
        <ele>1924</ele>
        <time>2010-03-31T07:27:40Z</time>
      </trkpt>
      <trkpt lat="45.51897" lon="6.65589">
        <ele>1915</ele>
        <time>2010-03-31T07:27:45Z</time>
      </trkpt>
      <trkpt lat="45.51905" lon="6.65613">
        <ele>1913</ele>
        <time>2010-03-31T07:27:48Z</time>
      </trkpt>
      <trkpt lat="45.51921" lon="6.65677">
        <ele>1899</ele>
        <time>2010-03-31T07:27:54Z</time>
      </trkpt>
      <trkpt lat="45.51918" lon="6.65709">
        <ele>1893</ele>
        <time>2010-03-31T07:27:57Z</time>
      </trkpt>
      <trkpt lat="45.51909" lon="6.65724">
        <ele>1891</ele>
        <time>2010-03-31T07:28:00Z</time>
      </trkpt>
      <trkpt lat="45.51913" lon="6.65741">
        <ele>1888</ele>
        <time>2010-03-31T07:28:03Z</time>
      </trkpt>
      <trkpt lat="45.51918" lon="6.65749">
        <ele>1887</ele>
        <time>2010-03-31T07:28:06Z</time>
      </trkpt>
      <trkpt lat="45.51923" lon="6.65756">
        <ele>1884</ele>
        <time>2010-03-31T07:28:10Z</time>
      </trkpt>
      <trkpt lat="45.51923" lon="6.65768">
        <ele>1882</ele>
        <time>2010-03-31T07:28:13Z</time>
      </trkpt>
      <trkpt lat="45.51924" lon="6.65768">
        <ele>1882</ele>
        <time>2010-03-31T07:28:21Z</time>
      </trkpt>
      <trkpt lat="45.51924" lon="6.65769">
        <ele>1882</ele>
        <time>2010-03-31T07:28:33Z</time>
      </trkpt>
      <trkpt lat="45.51925" lon="6.65791">
        <ele>1878</ele>
        <time>2010-03-31T07:28:37Z</time>
      </trkpt>
      <trkpt lat="45.51935" lon="6.65825">
        <ele>1873</ele>
        <time>2010-03-31T07:28:40Z</time>
      </trkpt>
      <trkpt lat="45.51947" lon="6.65859">
        <ele>1859</ele>
        <time>2010-03-31T07:28:43Z</time>
      </trkpt>
      <trkpt lat="45.51947" lon="6.65868">
        <ele>1858</ele>
        <time>2010-03-31T07:28:44Z</time>
      </trkpt>
      <trkpt lat="45.51947" lon="6.65883">
        <ele>1856</ele>
        <time>2010-03-31T07:28:49Z</time>
      </trkpt>
      <trkpt lat="45.51949" lon="6.65888">
        <ele>1855</ele>
        <time>2010-03-31T07:28:50Z</time>
      </trkpt>
      <trkpt lat="45.51953" lon="6.65927">
        <ele>1838</ele>
        <time>2010-03-31T07:28:54Z</time>
      </trkpt>
      <trkpt lat="45.51944" lon="6.65941">
        <ele>1837</ele>
        <time>2010-03-31T07:28:56Z</time>
      </trkpt>
      <trkpt lat="45.51928" lon="6.65946">
        <ele>1836</ele>
        <time>2010-03-31T07:28:59Z</time>
      </trkpt>
      <trkpt lat="45.51925" lon="6.65959">
        <ele>1834</ele>
        <time>2010-03-31T07:29:01Z</time>
      </trkpt>
      <trkpt lat="45.51917" lon="6.65984">
        <ele>1824</ele>
        <time>2010-03-31T07:29:04Z</time>
      </trkpt>
      <trkpt lat="45.51884" lon="6.6601">
        <ele>1810</ele>
        <time>2010-03-31T07:29:09Z</time>
      </trkpt>
      <trkpt lat="45.51865" lon="6.66012">
        <ele>1808</ele>
        <time>2010-03-31T07:29:12Z</time>
      </trkpt>
      <trkpt lat="45.5185" lon="6.66008">
        <ele>1808</ele>
        <time>2010-03-31T07:29:14Z</time>
      </trkpt>
      <trkpt lat="45.51804" lon="6.65988">
        <ele>1810</ele>
        <time>2010-03-31T07:29:19Z</time>
      </trkpt>
      <trkpt lat="45.51773" lon="6.65956">
        <ele>1810</ele>
        <time>2010-03-31T07:29:23Z</time>
      </trkpt>
      <trkpt lat="45.51767" lon="6.65946">
        <ele>1810</ele>
        <time>2010-03-31T07:29:25Z</time>
      </trkpt>
      <trkpt lat="45.51763" lon="6.65946">
        <ele>1810</ele>
        <time>2010-03-31T07:29:28Z</time>
      </trkpt>
      <trkpt lat="45.51763" lon="6.6595">
        <ele>1810</ele>
        <time>2010-03-31T07:29:31Z</time>
      </trkpt>
      <trkpt lat="45.51764" lon="6.6595">
        <ele>1810</ele>
        <time>2010-03-31T07:29:37Z</time>
      </trkpt>
      <trkpt lat="45.51764" lon="6.65951">
        <ele>1810</ele>
        <time>2010-03-31T07:29:51Z</time>
      </trkpt>
      <trkpt lat="45.51764" lon="6.65951">
        <ele>1810</ele>
        <time>2010-03-31T07:29:58Z</time>
      </trkpt>
      <trkpt lat="45.51765" lon="6.65952">
        <ele>1809</ele>
        <time>2010-03-31T07:30:08Z</time>
      </trkpt>
      <trkpt lat="45.51765" lon="6.65953">
        <ele>1809</ele>
        <time>2010-03-31T07:30:15Z</time>
      </trkpt>
      <trkpt lat="45.51768" lon="6.65966">
        <ele>1808</ele>
        <time>2010-03-31T07:30:18Z</time>
      </trkpt>
      <trkpt lat="45.51756" lon="6.65983">
        <ele>1803</ele>
        <time>2010-03-31T07:30:22Z</time>
      </trkpt>
      <trkpt lat="45.51745" lon="6.66006">
        <ele>1797</ele>
        <time>2010-03-31T07:30:25Z</time>
      </trkpt>
      <trkpt lat="45.51738" lon="6.66018">
        <ele>1799</ele>
        <time>2010-03-31T07:30:27Z</time>
      </trkpt>
      <trkpt lat="45.51734" lon="6.66028">
        <ele>1800</ele>
        <time>2010-03-31T07:30:29Z</time>
      </trkpt>
      <trkpt lat="45.51729" lon="6.66036">
        <ele>1800</ele>
        <time>2010-03-31T07:30:33Z</time>
      </trkpt>
      <trkpt lat="45.51727" lon="6.66032">
        <ele>1801</ele>
        <time>2010-03-31T07:30:40Z</time>
      </trkpt>
      <trkpt lat="45.51725" lon="6.66027">
        <ele>1801</ele>
        <time>2010-03-31T07:30:46Z</time>
      </trkpt>
      <trkpt lat="45.51723" lon="6.66023">
        <ele>1801</ele>
        <time>2010-03-31T07:30:52Z</time>
      </trkpt>
      <trkpt lat="45.5172" lon="6.66021">
        <ele>1801</ele>
        <time>2010-03-31T07:30:58Z</time>
      </trkpt>
      <trkpt lat="45.51718" lon="6.66018">
        <ele>1801</ele>
        <time>2010-03-31T07:31:05Z</time>
      </trkpt>
      <trkpt lat="45.51717" lon="6.66019">
        <ele>1801</ele>
        <time>2010-03-31T07:31:12Z</time>
      </trkpt>
      <trkpt lat="45.51715" lon="6.66019">
        <ele>1802</ele>
        <time>2010-03-31T07:31:19Z</time>
      </trkpt>
      <trkpt lat="45.51713" lon="6.6602">
        <ele>1802</ele>
        <time>2010-03-31T07:31:24Z</time>
      </trkpt>
      <trkpt lat="45.51709" lon="6.6602">
        <ele>1802</ele>
        <time>2010-03-31T07:31:29Z</time>
      </trkpt>
      <trkpt lat="45.51703" lon="6.66021">
        <ele>1803</ele>
        <time>2010-03-31T07:31:32Z</time>
      </trkpt>
      <trkpt lat="45.51696" lon="6.66023">
        <ele>1804</ele>
        <time>2010-03-31T07:31:36Z</time>
      </trkpt>
      <trkpt lat="45.51691" lon="6.66025">
        <ele>1804</ele>
        <time>2010-03-31T07:31:39Z</time>
      </trkpt>
      <trkpt lat="45.51684" lon="6.66028">
        <ele>1805</ele>
        <time>2010-03-31T07:31:43Z</time>
      </trkpt>
      <trkpt lat="45.51679" lon="6.66029">
        <ele>1805</ele>
        <time>2010-03-31T07:31:46Z</time>
      </trkpt>
      <trkpt lat="45.51673" lon="6.66032">
        <ele>1806</ele>
        <time>2010-03-31T07:31:50Z</time>
      </trkpt>
      <trkpt lat="45.51667" lon="6.66034">
        <ele>1806</ele>
        <time>2010-03-31T07:31:54Z</time>
      </trkpt>
      <trkpt lat="45.51659" lon="6.66036">
        <ele>1821</ele>
        <time>2010-03-31T07:31:59Z</time>
      </trkpt>
      <trkpt lat="45.51651" lon="6.66039">
        <ele>1822</ele>
        <time>2010-03-31T07:32:04Z</time>
      </trkpt>
      <trkpt lat="45.51641" lon="6.66043">
        <ele>1824</ele>
        <time>2010-03-31T07:32:10Z</time>
      </trkpt>
      <trkpt lat="45.51629" lon="6.66046">
        <ele>1826</ele>
        <time>2010-03-31T07:32:17Z</time>
      </trkpt>
      <trkpt lat="45.51607" lon="6.66053">
        <ele>1831</ele>
        <time>2010-03-31T07:32:29Z</time>
      </trkpt>
      <trkpt lat="45.51592" lon="6.66058">
        <ele>1834</ele>
        <time>2010-03-31T07:32:38Z</time>
      </trkpt>
      <trkpt lat="45.51573" lon="6.66065">
        <ele>1849</ele>
        <time>2010-03-31T07:32:49Z</time>
      </trkpt>
      <trkpt lat="45.51549" lon="6.66072">
        <ele>1852</ele>
        <time>2010-03-31T07:33:02Z</time>
      </trkpt>
      <trkpt lat="45.5152" lon="6.66082">
        <ele>1859</ele>
        <time>2010-03-31T07:33:19Z</time>
      </trkpt>
      <trkpt lat="45.51489" lon="6.66093">
        <ele>1883</ele>
        <time>2010-03-31T07:33:37Z</time>
      </trkpt>
      <trkpt lat="45.51461" lon="6.66102">
        <ele>1898</ele>
        <time>2010-03-31T07:33:54Z</time>
      </trkpt>
      <trkpt lat="45.51441" lon="6.66109">
        <ele>1904</ele>
        <time>2010-03-31T07:34:05Z</time>
      </trkpt>
      <trkpt lat="45.5141" lon="6.66118">
        <ele>1936</ele>
        <time>2010-03-31T07:34:23Z</time>
      </trkpt>
      <trkpt lat="45.51386" lon="6.66124">
        <ele>1943</ele>
        <time>2010-03-31T07:34:37Z</time>
      </trkpt>
      <trkpt lat="45.51368" lon="6.66131">
        <ele>1948</ele>
        <time>2010-03-31T07:34:48Z</time>
      </trkpt>
      <trkpt lat="45.5135" lon="6.66137">
        <ele>1954</ele>
        <time>2010-03-31T07:35:00Z</time>
      </trkpt>
      <trkpt lat="45.51327" lon="6.66144">
        <ele>1984</ele>
        <time>2010-03-31T07:35:16Z</time>
      </trkpt>
      <trkpt lat="45.51306" lon="6.66152">
        <ele>1989</ele>
        <time>2010-03-31T07:35:31Z</time>
      </trkpt>
      <trkpt lat="45.51289" lon="6.66157">
        <ele>1995</ele>
        <time>2010-03-31T07:35:42Z</time>
      </trkpt>
      <trkpt lat="45.51264" lon="6.66166">
        <ele>2010</ele>
        <time>2010-03-31T07:35:59Z</time>
      </trkpt>
      <trkpt lat="45.51244" lon="6.66172">
        <ele>2032</ele>
        <time>2010-03-31T07:36:11Z</time>
      </trkpt>
      <trkpt lat="45.51215" lon="6.66182">
        <ele>2046</ele>
        <time>2010-03-31T07:36:28Z</time>
      </trkpt>
      <trkpt lat="45.51187" lon="6.66191">
        <ele>2053</ele>
        <time>2010-03-31T07:36:45Z</time>
      </trkpt>
      <trkpt lat="45.51166" lon="6.66198">
        <ele>2068</ele>
        <time>2010-03-31T07:36:57Z</time>
      </trkpt>
      <trkpt lat="45.51135" lon="6.66208">
        <ele>2072</ele>
        <time>2010-03-31T07:37:14Z</time>
      </trkpt>
      <trkpt lat="45.51104" lon="6.66219">
        <ele>2077</ele>
        <time>2010-03-31T07:37:32Z</time>
      </trkpt>
      <trkpt lat="45.51081" lon="6.66227">
        <ele>2090</ele>
        <time>2010-03-31T07:37:45Z</time>
      </trkpt>
      <trkpt lat="45.5105" lon="6.66237">
        <ele>2093</ele>
        <time>2010-03-31T07:38:02Z</time>
      </trkpt>
      <trkpt lat="45.51035" lon="6.66242">
        <ele>2096</ele>
        <time>2010-03-31T07:38:11Z</time>
      </trkpt>
      <trkpt lat="45.51019" lon="6.66247">
        <ele>2100</ele>
        <time>2010-03-31T07:38:20Z</time>
      </trkpt>
      <trkpt lat="45.51003" lon="6.66252">
        <ele>2108</ele>
        <time>2010-03-31T07:38:29Z</time>
      </trkpt>
      <trkpt lat="45.50993" lon="6.66256">
        <ele>2114</ele>
        <time>2010-03-31T07:38:35Z</time>
      </trkpt>
      <trkpt lat="45.50982" lon="6.6626">
        <ele>2118</ele>
        <time>2010-03-31T07:38:41Z</time>
      </trkpt>
      <trkpt lat="45.50945" lon="6.66272">
        <ele>2125</ele>
        <time>2010-03-31T07:39:02Z</time>
      </trkpt>
      <trkpt lat="45.50914" lon="6.66282">
        <ele>2148</ele>
        <time>2010-03-31T07:39:20Z</time>
      </trkpt>
      <trkpt lat="45.50888" lon="6.6629">
        <ele>2154</ele>
        <time>2010-03-31T07:39:36Z</time>
      </trkpt>
      <trkpt lat="45.50871" lon="6.66297">
        <ele>2159</ele>
        <time>2010-03-31T07:39:46Z</time>
      </trkpt>
      <trkpt lat="45.50839" lon="6.66308">
        <ele>2167</ele>
        <time>2010-03-31T07:40:06Z</time>
      </trkpt>
      <trkpt lat="45.50815" lon="6.66316">
        <ele>2195</ele>
        <time>2010-03-31T07:40:21Z</time>
      </trkpt>
      <trkpt lat="45.50792" lon="6.66324">
        <ele>2202</ele>
        <time>2010-03-31T07:40:35Z</time>
      </trkpt>
      <trkpt lat="45.50778" lon="6.66328">
        <ele>2208</ele>
        <time>2010-03-31T07:40:43Z</time>
      </trkpt>
      <trkpt lat="45.50753" lon="6.66337">
        <ele>2217</ele>
        <time>2010-03-31T07:40:57Z</time>
      </trkpt>
      <trkpt lat="45.50737" lon="6.66342">
        <ele>2219</ele>
        <time>2010-03-31T07:41:06Z</time>
      </trkpt>
      <trkpt lat="45.50711" lon="6.66351">
        <ele>2218</ele>
        <time>2010-03-31T07:41:20Z</time>
      </trkpt>
      <trkpt lat="45.50694" lon="6.66358">
        <ele>2219</ele>
        <time>2010-03-31T07:41:28Z</time>
      </trkpt>
      <trkpt lat="45.50688" lon="6.66364">
        <ele>2218</ele>
        <time>2010-03-31T07:41:30Z</time>
      </trkpt>
      <trkpt lat="45.50687" lon="6.66375">
        <ele>2217</ele>
        <time>2010-03-31T07:41:35Z</time>
      </trkpt>
      <trkpt lat="45.50687" lon="6.66376">
        <ele>2217</ele>
        <time>2010-03-31T07:41:49Z</time>
      </trkpt>
      <trkpt lat="45.50687" lon="6.66376">
        <ele>2217</ele>
        <time>2010-03-31T07:41:58Z</time>
      </trkpt>
      <trkpt lat="45.50687" lon="6.66375">
        <ele>2217</ele>
        <time>2010-03-31T07:42:10Z</time>
      </trkpt>
      <trkpt lat="45.50686" lon="6.66375">
        <ele>2217</ele>
        <time>2010-03-31T07:42:26Z</time>
      </trkpt>
      <trkpt lat="45.50686" lon="6.66374">
        <ele>2217</ele>
        <time>2010-03-31T07:42:37Z</time>
      </trkpt>
      <trkpt lat="45.50686" lon="6.66375">
        <ele>2217</ele>
        <time>2010-03-31T07:43:06Z</time>
      </trkpt>
      <trkpt lat="45.50686" lon="6.66375">
        <ele>2217</ele>
        <time>2010-03-31T07:43:12Z</time>
      </trkpt>
      <trkpt lat="45.50687" lon="6.66374">
        <ele>2217</ele>
        <time>2010-03-31T07:43:29Z</time>
      </trkpt>
      <trkpt lat="45.50689" lon="6.66377">
        <ele>2216</ele>
        <time>2010-03-31T07:43:37Z</time>
      </trkpt>
      <trkpt lat="45.50691" lon="6.66382">
        <ele>2216</ele>
        <time>2010-03-31T07:43:39Z</time>
      </trkpt>
      <trkpt lat="45.50711" lon="6.66391">
        <ele>2215</ele>
        <time>2010-03-31T07:43:44Z</time>
      </trkpt>
      <trkpt lat="45.50736" lon="6.66399">
        <ele>2213</ele>
        <time>2010-03-31T07:43:48Z</time>
      </trkpt>
      <trkpt lat="45.5076" lon="6.66395">
        <ele>2203</ele>
        <time>2010-03-31T07:43:52Z</time>
      </trkpt>
      <trkpt lat="45.50781" lon="6.66396">
        <ele>2199</ele>
        <time>2010-03-31T07:43:55Z</time>
      </trkpt>
      <trkpt lat="45.508" lon="6.66398">
        <ele>2195</ele>
        <time>2010-03-31T07:43:58Z</time>
      </trkpt>
      <trkpt lat="45.50821" lon="6.66395">
        <ele>2191</ele>
        <time>2010-03-31T07:44:01Z</time>
      </trkpt>
      <trkpt lat="45.50844" lon="6.66393">
        <ele>2169</ele>
        <time>2010-03-31T07:44:04Z</time>
      </trkpt>
      <trkpt lat="45.50865" lon="6.66398">
        <ele>2164</ele>
        <time>2010-03-31T07:44:07Z</time>
      </trkpt>
      <trkpt lat="45.50898" lon="6.66408">
        <ele>2153</ele>
        <time>2010-03-31T07:44:11Z</time>
      </trkpt>
      <trkpt lat="45.50927" lon="6.66409">
        <ele>2138</ele>
        <time>2010-03-31T07:44:14Z</time>
      </trkpt>
      <trkpt lat="45.50948" lon="6.66417">
        <ele>2133</ele>
        <time>2010-03-31T07:44:16Z</time>
      </trkpt>
      <trkpt lat="45.50959" lon="6.66432">
        <ele>2130</ele>
        <time>2010-03-31T07:44:18Z</time>
      </trkpt>
      <trkpt lat="45.50972" lon="6.66444">
        <ele>2128</ele>
        <time>2010-03-31T07:44:20Z</time>
      </trkpt>
      <trkpt lat="45.50987" lon="6.66456">
        <ele>2127</ele>
        <time>2010-03-31T07:44:22Z</time>
      </trkpt>
      <trkpt lat="45.50989" lon="6.66467">
        <ele>2126</ele>
        <time>2010-03-31T07:44:24Z</time>
      </trkpt>
      <trkpt lat="45.50988" lon="6.66473">
        <ele>2125</ele>
        <time>2010-03-31T07:44:27Z</time>
      </trkpt>
      <trkpt lat="45.50988" lon="6.66478">
        <ele>2125</ele>
        <time>2010-03-31T07:44:29Z</time>
      </trkpt>
      <trkpt lat="45.50985" lon="6.66492">
        <ele>2124</ele>
        <time>2010-03-31T07:44:33Z</time>
      </trkpt>
      <trkpt lat="45.50987" lon="6.66493">
        <ele>2123</ele>
        <time>2010-03-31T07:44:37Z</time>
      </trkpt>
      <trkpt lat="45.50986" lon="6.66493">
        <ele>2123</ele>
        <time>2010-03-31T07:44:41Z</time>
      </trkpt>
      <trkpt lat="45.50987" lon="6.66494">
        <ele>2123</ele>
        <time>2010-03-31T07:44:53Z</time>
      </trkpt>
      <trkpt lat="45.50986" lon="6.66494">
        <ele>2123</ele>
        <time>2010-03-31T07:45:00Z</time>
      </trkpt>
      <trkpt lat="45.50991" lon="6.66496">
        <ele>2122</ele>
        <time>2010-03-31T07:45:06Z</time>
      </trkpt>
      <trkpt lat="45.50996" lon="6.66498">
        <ele>2120</ele>
        <time>2010-03-31T07:45:08Z</time>
      </trkpt>
      <trkpt lat="45.50998" lon="6.6652">
        <ele>2117</ele>
        <time>2010-03-31T07:45:12Z</time>
      </trkpt>
      <trkpt lat="45.50994" lon="6.66545">
        <ele>2116</ele>
        <time>2010-03-31T07:45:15Z</time>
      </trkpt>
      <trkpt lat="45.50975" lon="6.66588">
        <ele>2105</ele>
        <time>2010-03-31T07:45:20Z</time>
      </trkpt>
      <trkpt lat="45.50949" lon="6.66639">
        <ele>2101</ele>
        <time>2010-03-31T07:45:25Z</time>
      </trkpt>
      <trkpt lat="45.50914" lon="6.667">
        <ele>2093</ele>
        <time>2010-03-31T07:45:31Z</time>
      </trkpt>
      <trkpt lat="45.5089" lon="6.66757">
        <ele>2085</ele>
        <time>2010-03-31T07:45:36Z</time>
      </trkpt>
      <trkpt lat="45.5087" lon="6.6681">
        <ele>2082</ele>
        <time>2010-03-31T07:45:41Z</time>
      </trkpt>
      <trkpt lat="45.50866" lon="6.6682">
        <ele>2082</ele>
        <time>2010-03-31T07:45:42Z</time>
      </trkpt>
      <trkpt lat="45.50864" lon="6.66854">
        <ele>2074</ele>
        <time>2010-03-31T07:45:46Z</time>
      </trkpt>
      <trkpt lat="45.50862" lon="6.66859">
        <ele>2074</ele>
        <time>2010-03-31T07:45:47Z</time>
      </trkpt>
      <trkpt lat="45.5085" lon="6.66877">
        <ele>2072</ele>
        <time>2010-03-31T07:45:53Z</time>
      </trkpt>
      <trkpt lat="45.50845" lon="6.6688">
        <ele>2072</ele>
        <time>2010-03-31T07:45:59Z</time>
      </trkpt>
      <trkpt lat="45.50844" lon="6.66878">
        <ele>2072</ele>
        <time>2010-03-31T07:46:05Z</time>
      </trkpt>
      <trkpt lat="45.50844" lon="6.66876">
        <ele>2072</ele>
        <time>2010-03-31T07:46:14Z</time>
      </trkpt>
      <trkpt lat="45.50842" lon="6.66872">
        <ele>2073</ele>
        <time>2010-03-31T07:46:23Z</time>
      </trkpt>
      <trkpt lat="45.50841" lon="6.66868">
        <ele>2073</ele>
        <time>2010-03-31T07:46:30Z</time>
      </trkpt>
      <trkpt lat="45.5084" lon="6.66865">
        <ele>2073</ele>
        <time>2010-03-31T07:46:36Z</time>
      </trkpt>
      <trkpt lat="45.50839" lon="6.66863">
        <ele>2074</ele>
        <time>2010-03-31T07:46:42Z</time>
      </trkpt>
      <trkpt lat="45.50836" lon="6.66856">
        <ele>2074</ele>
        <time>2010-03-31T07:46:48Z</time>
      </trkpt>
      <trkpt lat="45.50832" lon="6.66849">
        <ele>2076</ele>
        <time>2010-03-31T07:46:52Z</time>
      </trkpt>
      <trkpt lat="45.50828" lon="6.6684">
        <ele>2077</ele>
        <time>2010-03-31T07:46:56Z</time>
      </trkpt>
      <trkpt lat="45.50823" lon="6.66831">
        <ele>2081</ele>
        <time>2010-03-31T07:47:00Z</time>
      </trkpt>
      <trkpt lat="45.50819" lon="6.66822">
        <ele>2082</ele>
        <time>2010-03-31T07:47:04Z</time>
      </trkpt>
      <trkpt lat="45.50816" lon="6.66815">
        <ele>2084</ele>
        <time>2010-03-31T07:47:08Z</time>
      </trkpt>
      <trkpt lat="45.50811" lon="6.66805">
        <ele>2085</ele>
        <time>2010-03-31T07:47:13Z</time>
      </trkpt>
      <trkpt lat="45.50807" lon="6.66794">
        <ele>2086</ele>
        <time>2010-03-31T07:47:18Z</time>
      </trkpt>
      <trkpt lat="45.508" lon="6.66782">
        <ele>2087</ele>
        <time>2010-03-31T07:47:24Z</time>
      </trkpt>
      <trkpt lat="45.50792" lon="6.66764">
        <ele>2088</ele>
        <time>2010-03-31T07:47:33Z</time>
      </trkpt>
      <trkpt lat="45.5078" lon="6.6674">
        <ele>2100</ele>
        <time>2010-03-31T07:47:45Z</time>
      </trkpt>
      <trkpt lat="45.50769" lon="6.66717">
        <ele>2103</ele>
        <time>2010-03-31T07:47:57Z</time>
      </trkpt>
      <trkpt lat="45.50756" lon="6.6669">
        <ele>2110</ele>
        <time>2010-03-31T07:48:11Z</time>
      </trkpt>
      <trkpt lat="45.50746" lon="6.6667">
        <ele>2122</ele>
        <time>2010-03-31T07:48:22Z</time>
      </trkpt>
      <trkpt lat="45.50736" lon="6.66649">
        <ele>2134</ele>
        <time>2010-03-31T07:48:33Z</time>
      </trkpt>
      <trkpt lat="45.5073" lon="6.66638">
        <ele>2138</ele>
        <time>2010-03-31T07:48:39Z</time>
      </trkpt>
      <trkpt lat="45.50717" lon="6.66613">
        <ele>2143</ele>
        <time>2010-03-31T07:48:52Z</time>
      </trkpt>
      <trkpt lat="45.50707" lon="6.66592">
        <ele>2146</ele>
        <time>2010-03-31T07:49:02Z</time>
      </trkpt>
      <trkpt lat="45.5069" lon="6.66557">
        <ele>2166</ele>
        <time>2010-03-31T07:49:20Z</time>
      </trkpt>
      <trkpt lat="45.50672" lon="6.66522">
        <ele>2173</ele>
        <time>2010-03-31T07:49:38Z</time>
      </trkpt>
      <trkpt lat="45.50658" lon="6.66492">
        <ele>2184</ele>
        <time>2010-03-31T07:49:53Z</time>
      </trkpt>
      <trkpt lat="45.50642" lon="6.6646">
        <ele>2190</ele>
        <time>2010-03-31T07:50:09Z</time>
      </trkpt>
      <trkpt lat="45.50631" lon="6.66437">
        <ele>2193</ele>
        <time>2010-03-31T07:50:21Z</time>
      </trkpt>
      <trkpt lat="45.50611" lon="6.66396">
        <ele>2210</ele>
        <time>2010-03-31T07:50:42Z</time>
      </trkpt>
      <trkpt lat="45.50606" lon="6.66387">
        <ele>2211</ele>
        <time>2010-03-31T07:50:47Z</time>
      </trkpt>
      <trkpt lat="45.50589" lon="6.66352">
        <ele>2217</ele>
        <time>2010-03-31T07:51:04Z</time>
      </trkpt>
      <trkpt lat="45.50576" lon="6.66325">
        <ele>2229</ele>
        <time>2010-03-31T07:51:17Z</time>
      </trkpt>
      <trkpt lat="45.5056" lon="6.66295">
        <ele>2240</ele>
        <time>2010-03-31T07:51:33Z</time>
      </trkpt>
      <trkpt lat="45.50549" lon="6.66273">
        <ele>2245</ele>
        <time>2010-03-31T07:51:45Z</time>
      </trkpt>
      <trkpt lat="45.5053" lon="6.66237">
        <ele>2271</ele>
        <time>2010-03-31T07:52:04Z</time>
      </trkpt>
      <trkpt lat="45.50516" lon="6.6621">
        <ele>2277</ele>
        <time>2010-03-31T07:52:19Z</time>
      </trkpt>
      <trkpt lat="45.50502" lon="6.66181">
        <ele>2290</ele>
        <time>2010-03-31T07:52:35Z</time>
      </trkpt>
      <trkpt lat="45.50491" lon="6.6616">
        <ele>2303</ele>
        <time>2010-03-31T07:52:46Z</time>
      </trkpt>
      <trkpt lat="45.50483" lon="6.66141">
        <ele>2305</ele>
        <time>2010-03-31T07:52:55Z</time>
      </trkpt>
      <trkpt lat="45.50476" lon="6.66126">
        <ele>2305</ele>
        <time>2010-03-31T07:53:01Z</time>
      </trkpt>
      <trkpt lat="45.50471" lon="6.66116">
        <ele>2306</ele>
        <time>2010-03-31T07:53:03Z</time>
      </trkpt>
      <trkpt lat="45.50465" lon="6.66113">
        <ele>2306</ele>
        <time>2010-03-31T07:53:07Z</time>
      </trkpt>
      <trkpt lat="45.50464" lon="6.66111">
        <ele>2306</ele>
        <time>2010-03-31T07:53:13Z</time>
      </trkpt>
      <trkpt lat="45.50464" lon="6.6611">
        <ele>2306</ele>
        <time>2010-03-31T07:53:20Z</time>
      </trkpt>
      <trkpt lat="45.50463" lon="6.6611">
        <ele>2306</ele>
        <time>2010-03-31T07:53:28Z</time>
      </trkpt>
      <trkpt lat="45.50462" lon="6.66117">
        <ele>2306</ele>
        <time>2010-03-31T07:53:35Z</time>
      </trkpt>
      <trkpt lat="45.5046" lon="6.66123">
        <ele>2306</ele>
        <time>2010-03-31T07:53:41Z</time>
      </trkpt>
      <trkpt lat="45.50457" lon="6.6613">
        <ele>2306</ele>
        <time>2010-03-31T07:53:48Z</time>
      </trkpt>
      <trkpt lat="45.50455" lon="6.66133">
        <ele>2306</ele>
        <time>2010-03-31T07:53:50Z</time>
      </trkpt>
      <trkpt lat="45.50442" lon="6.66151">
        <ele>2306</ele>
        <time>2010-03-31T07:53:55Z</time>
      </trkpt>
      <trkpt lat="45.50423" lon="6.66165">
        <ele>2306</ele>
        <time>2010-03-31T07:53:58Z</time>
      </trkpt>
      <trkpt lat="45.50402" lon="6.66175">
        <ele>2299</ele>
        <time>2010-03-31T07:54:01Z</time>
      </trkpt>
      <trkpt lat="45.50391" lon="6.66201">
        <ele>2292</ele>
        <time>2010-03-31T07:54:04Z</time>
      </trkpt>
      <trkpt lat="45.50379" lon="6.6621">
        <ele>2291</ele>
        <time>2010-03-31T07:54:06Z</time>
      </trkpt>
      <trkpt lat="45.5037" lon="6.66224">
        <ele>2288</ele>
        <time>2010-03-31T07:54:08Z</time>
      </trkpt>
      <trkpt lat="45.50372" lon="6.6625">
        <ele>2267</ele>
        <time>2010-03-31T07:54:10Z</time>
      </trkpt>
      <trkpt lat="45.50365" lon="6.66274">
        <ele>2265</ele>
        <time>2010-03-31T07:54:12Z</time>
      </trkpt>
      <trkpt lat="45.50346" lon="6.66282">
        <ele>2265</ele>
        <time>2010-03-31T07:54:14Z</time>
      </trkpt>
      <trkpt lat="45.50334" lon="6.66303">
        <ele>2261</ele>
        <time>2010-03-31T07:54:16Z</time>
      </trkpt>
      <trkpt lat="45.50333" lon="6.66333">
        <ele>2255</ele>
        <time>2010-03-31T07:54:18Z</time>
      </trkpt>
      <trkpt lat="45.50343" lon="6.66353">
        <ele>2242</ele>
        <time>2010-03-31T07:54:20Z</time>
      </trkpt>
      <trkpt lat="45.50345" lon="6.66365">
        <ele>2238</ele>
        <time>2010-03-31T07:54:24Z</time>
      </trkpt>
      <trkpt lat="45.50345" lon="6.66364">
        <ele>2238</ele>
        <time>2010-03-31T07:54:25Z</time>
      </trkpt>
      <trkpt lat="45.50345" lon="6.66363">
        <ele>2239</ele>
        <time>2010-03-31T07:54:36Z</time>
      </trkpt>
      <trkpt lat="45.50345" lon="6.66364">
        <ele>2238</ele>
        <time>2010-03-31T07:54:43Z</time>
      </trkpt>
      <trkpt lat="45.50344" lon="6.66364">
        <ele>2238</ele>
        <time>2010-03-31T07:54:49Z</time>
      </trkpt>
      <trkpt lat="45.50345" lon="6.66364">
        <ele>2238</ele>
        <time>2010-03-31T07:54:57Z</time>
      </trkpt>
      <trkpt lat="45.50344" lon="6.66365">
        <ele>2238</ele>
        <time>2010-03-31T07:55:03Z</time>
      </trkpt>
      <trkpt lat="45.50345" lon="6.66365">
        <ele>2238</ele>
        <time>2010-03-31T07:55:15Z</time>
      </trkpt>
      <trkpt lat="45.50341" lon="6.66373">
        <ele>2236</ele>
        <time>2010-03-31T07:55:24Z</time>
      </trkpt>
      <trkpt lat="45.50338" lon="6.66381">
        <ele>2235</ele>
        <time>2010-03-31T07:55:25Z</time>
      </trkpt>
      <trkpt lat="45.50327" lon="6.66398">
        <ele>2240</ele>
        <time>2010-03-31T07:55:27Z</time>
      </trkpt>
      <trkpt lat="45.50322" lon="6.66433">
        <ele>2227</ele>
        <time>2010-03-31T07:55:30Z</time>
      </trkpt>
      <trkpt lat="45.50318" lon="6.66444">
        <ele>2225</ele>
        <time>2010-03-31T07:55:31Z</time>
      </trkpt>
      <trkpt lat="45.50334" lon="6.66486">
        <ele>2206</ele>
        <time>2010-03-31T07:55:35Z</time>
      </trkpt>
      <trkpt lat="45.50338" lon="6.66508">
        <ele>2199</ele>
        <time>2010-03-31T07:55:37Z</time>
      </trkpt>
      <trkpt lat="45.50357" lon="6.66568">
        <ele>2180</ele>
        <time>2010-03-31T07:55:42Z</time>
      </trkpt>
      <trkpt lat="45.50362" lon="6.66595">
        <ele>2169</ele>
        <time>2010-03-31T07:55:44Z</time>
      </trkpt>
      <trkpt lat="45.50383" lon="6.66623">
        <ele>2164</ele>
        <time>2010-03-31T07:55:47Z</time>
      </trkpt>
      <trkpt lat="45.50396" lon="6.66626">
        <ele>2162</ele>
        <time>2010-03-31T07:55:48Z</time>
      </trkpt>
      <trkpt lat="45.50439" lon="6.66657">
        <ele>2148</ele>
        <time>2010-03-31T07:55:52Z</time>
      </trkpt>
      <trkpt lat="45.50465" lon="6.6667">
        <ele>2137</ele>
        <time>2010-03-31T07:55:55Z</time>
      </trkpt>
      <trkpt lat="45.50488" lon="6.66668">
        <ele>2134</ele>
        <time>2010-03-31T07:55:57Z</time>
      </trkpt>
      <trkpt lat="45.50526" lon="6.66681">
        <ele>2125</ele>
        <time>2010-03-31T07:56:00Z</time>
      </trkpt>
      <trkpt lat="45.50535" lon="6.66713">
        <ele>2122</ele>
        <time>2010-03-31T07:56:02Z</time>
      </trkpt>
      <trkpt lat="45.50565" lon="6.66748">
        <ele>2115</ele>
        <time>2010-03-31T07:56:07Z</time>
      </trkpt>
      <trkpt lat="45.50565" lon="6.66747">
        <ele>2115</ele>
        <time>2010-03-31T07:56:10Z</time>
      </trkpt>
      <trkpt lat="45.50564" lon="6.66748">
        <ele>2115</ele>
        <time>2010-03-31T07:56:23Z</time>
      </trkpt>
      <trkpt lat="45.50564" lon="6.66748">
        <ele>2115</ele>
        <time>2010-03-31T07:56:40Z</time>
      </trkpt>
      <trkpt lat="45.50565" lon="6.66749">
        <ele>2115</ele>
        <time>2010-03-31T07:56:48Z</time>
      </trkpt>
      <trkpt lat="45.50565" lon="6.66749">
        <ele>2115</ele>
        <time>2010-03-31T07:56:56Z</time>
      </trkpt>
      <trkpt lat="45.50566" lon="6.6675">
        <ele>2107</ele>
        <time>2010-03-31T07:56:57Z</time>
      </trkpt>
      <trkpt lat="45.50561" lon="6.66757">
        <ele>2106</ele>
        <time>2010-03-31T07:57:01Z</time>
      </trkpt>
      <trkpt lat="45.50561" lon="6.66757">
        <ele>2106</ele>
        <time>2010-03-31T07:57:07Z</time>
      </trkpt>
      <trkpt lat="45.50561" lon="6.66758">
        <ele>2106</ele>
        <time>2010-03-31T07:57:17Z</time>
      </trkpt>
      <trkpt lat="45.50563" lon="6.66757">
        <ele>2106</ele>
        <time>2010-03-31T07:57:42Z</time>
      </trkpt>
      <trkpt lat="45.50563" lon="6.66758">
        <ele>2106</ele>
        <time>2010-03-31T07:57:56Z</time>
      </trkpt>
      <trkpt lat="45.50563" lon="6.66757">
        <ele>2106</ele>
        <time>2010-03-31T07:58:15Z</time>
      </trkpt>
      <trkpt lat="45.50562" lon="6.66759">
        <ele>2106</ele>
        <time>2010-03-31T07:58:41Z</time>
      </trkpt>
      <trkpt lat="45.50562" lon="6.66759">
        <ele>2106</ele>
        <time>2010-03-31T07:58:50Z</time>
      </trkpt>
      <trkpt lat="45.50562" lon="6.66758">
        <ele>2106</ele>
        <time>2010-03-31T07:59:10Z</time>
      </trkpt>
      <trkpt lat="45.50561" lon="6.66758">
        <ele>2106</ele>
        <time>2010-03-31T07:59:21Z</time>
      </trkpt>
      <trkpt lat="45.50561" lon="6.66757">
        <ele>2106</ele>
        <time>2010-03-31T07:59:31Z</time>
      </trkpt>
      <trkpt lat="45.5056" lon="6.66757">
        <ele>2106</ele>
        <time>2010-03-31T07:59:49Z</time>
      </trkpt>
      <trkpt lat="45.50561" lon="6.66757">
        <ele>2106</ele>
        <time>2010-03-31T08:00:01Z</time>
      </trkpt>
      <trkpt lat="45.5056" lon="6.66758">
        <ele>2106</ele>
        <time>2010-03-31T08:00:12Z</time>
      </trkpt>
      <trkpt lat="45.50561" lon="6.66757">
        <ele>2106</ele>
        <time>2010-03-31T08:00:33Z</time>
      </trkpt>
      <trkpt lat="45.50561" lon="6.66756">
        <ele>2106</ele>
        <time>2010-03-31T08:00:43Z</time>
      </trkpt>
      <trkpt lat="45.50561" lon="6.66757">
        <ele>2106</ele>
        <time>2010-03-31T08:00:55Z</time>
      </trkpt>
      <trkpt lat="45.50561" lon="6.66757">
        <ele>2106</ele>
        <time>2010-03-31T08:01:08Z</time>
      </trkpt>
      <trkpt lat="45.50561" lon="6.66759">
        <ele>2106</ele>
        <time>2010-03-31T08:01:10Z</time>
      </trkpt>
      <trkpt lat="45.50569" lon="6.66783">
        <ele>2104</ele>
        <time>2010-03-31T08:01:14Z</time>
      </trkpt>
      <trkpt lat="45.50566" lon="6.66807">
        <ele>2101</ele>
        <time>2010-03-31T08:01:16Z</time>
      </trkpt>
      <trkpt lat="45.50553" lon="6.6684">
        <ele>2089</ele>
        <time>2010-03-31T08:01:19Z</time>
      </trkpt>
      <trkpt lat="45.50561" lon="6.66858">
        <ele>2087</ele>
        <time>2010-03-31T08:01:21Z</time>
      </trkpt>
      <trkpt lat="45.50568" lon="6.66878">
        <ele>2084</ele>
        <time>2010-03-31T08:01:23Z</time>
      </trkpt>
      <trkpt lat="45.50578" lon="6.66913">
        <ele>2072</ele>
        <time>2010-03-31T08:01:28Z</time>
      </trkpt>
      <trkpt lat="45.50577" lon="6.66946">
        <ele>2064</ele>
        <time>2010-03-31T08:01:31Z</time>
      </trkpt>
      <trkpt lat="45.50579" lon="6.66979">
        <ele>2054</ele>
        <time>2010-03-31T08:01:34Z</time>
      </trkpt>
      <trkpt lat="45.5057" lon="6.66995">
        <ele>2051</ele>
        <time>2010-03-31T08:01:36Z</time>
      </trkpt>
      <trkpt lat="45.50569" lon="6.67017">
        <ele>2042</ele>
        <time>2010-03-31T08:01:38Z</time>
      </trkpt>
      <trkpt lat="45.50569" lon="6.67056">
        <ele>2037</ele>
        <time>2010-03-31T08:01:41Z</time>
      </trkpt>
      <trkpt lat="45.50561" lon="6.67071">
        <ele>2035</ele>
        <time>2010-03-31T08:01:43Z</time>
      </trkpt>
      <trkpt lat="45.50557" lon="6.67099">
        <ele>2024</ele>
        <time>2010-03-31T08:01:46Z</time>
      </trkpt>
      <trkpt lat="45.50547" lon="6.67123">
        <ele>2023</ele>
        <time>2010-03-31T08:01:49Z</time>
      </trkpt>
      <trkpt lat="45.50527" lon="6.67174">
        <ele>2010</ele>
        <time>2010-03-31T08:01:54Z</time>
      </trkpt>
      <trkpt lat="45.50513" lon="6.67214">
        <ele>2006</ele>
        <time>2010-03-31T08:01:58Z</time>
      </trkpt>
      <trkpt lat="45.50508" lon="6.67245">
        <ele>2002</ele>
        <time>2010-03-31T08:02:01Z</time>
      </trkpt>
      <trkpt lat="45.50507" lon="6.6727">
        <ele>1996</ele>
        <time>2010-03-31T08:02:03Z</time>
      </trkpt>
      <trkpt lat="45.50499" lon="6.67348">
        <ele>1994</ele>
        <time>2010-03-31T08:02:08Z</time>
      </trkpt>
      <trkpt lat="45.50488" lon="6.67398">
        <ele>1994</ele>
        <time>2010-03-31T08:02:12Z</time>
      </trkpt>
      <trkpt lat="45.50489" lon="6.67447">
        <ele>1994</ele>
        <time>2010-03-31T08:02:17Z</time>
      </trkpt>
      <trkpt lat="45.50491" lon="6.67465">
        <ele>1994</ele>
        <time>2010-03-31T08:02:19Z</time>
      </trkpt>
      <trkpt lat="45.50501" lon="6.67505">
        <ele>1987</ele>
        <time>2010-03-31T08:02:24Z</time>
      </trkpt>
      <trkpt lat="45.50503" lon="6.67513">
        <ele>1987</ele>
        <time>2010-03-31T08:02:25Z</time>
      </trkpt>
      <trkpt lat="45.50511" lon="6.67549">
        <ele>1987</ele>
        <time>2010-03-31T08:02:30Z</time>
      </trkpt>
      <trkpt lat="45.50514" lon="6.67563">
        <ele>1987</ele>
        <time>2010-03-31T08:02:32Z</time>
      </trkpt>
      <trkpt lat="45.50518" lon="6.67594">
        <ele>1986</ele>
        <time>2010-03-31T08:02:37Z</time>
      </trkpt>
      <trkpt lat="45.50523" lon="6.67616">
        <ele>1986</ele>
        <time>2010-03-31T08:02:42Z</time>
      </trkpt>
      <trkpt lat="45.50527" lon="6.67632">
        <ele>1986</ele>
        <time>2010-03-31T08:02:46Z</time>
      </trkpt>
      <trkpt lat="45.50529" lon="6.67649">
        <ele>1986</ele>
        <time>2010-03-31T08:02:52Z</time>
      </trkpt>
      <trkpt lat="45.50529" lon="6.67657">
        <ele>1986</ele>
        <time>2010-03-31T08:02:57Z</time>
      </trkpt>
      <trkpt lat="45.50532" lon="6.67666">
        <ele>1986</ele>
        <time>2010-03-31T08:03:04Z</time>
      </trkpt>
      <trkpt lat="45.50533" lon="6.67673">
        <ele>1987</ele>
        <time>2010-03-31T08:03:09Z</time>
      </trkpt>
      <trkpt lat="45.50534" lon="6.6768">
        <ele>1987</ele>
        <time>2010-03-31T08:03:16Z</time>
      </trkpt>
      <trkpt lat="45.50536" lon="6.67688">
        <ele>1987</ele>
        <time>2010-03-31T08:03:24Z</time>
      </trkpt>
      <trkpt lat="45.50537" lon="6.67693">
        <ele>1987</ele>
        <time>2010-03-31T08:03:32Z</time>
      </trkpt>
      <trkpt lat="45.50538" lon="6.67703">
        <ele>1987</ele>
        <time>2010-03-31T08:03:37Z</time>
      </trkpt>
      <trkpt lat="45.50541" lon="6.6771">
        <ele>1987</ele>
        <time>2010-03-31T08:03:41Z</time>
      </trkpt>
      <trkpt lat="45.50543" lon="6.67725">
        <ele>1987</ele>
        <time>2010-03-31T08:03:49Z</time>
      </trkpt>
      <trkpt lat="45.50543" lon="6.67728">
        <ele>1987</ele>
        <time>2010-03-31T08:03:50Z</time>
      </trkpt>
      <trkpt lat="45.5054" lon="6.67737">
        <ele>1987</ele>
        <time>2010-03-31T08:03:55Z</time>
      </trkpt>
      <trkpt lat="45.50537" lon="6.67739">
        <ele>1987</ele>
        <time>2010-03-31T08:04:00Z</time>
      </trkpt>
      <trkpt lat="45.50537" lon="6.6774">
        <ele>1987</ele>
        <time>2010-03-31T08:04:08Z</time>
      </trkpt>
      <trkpt lat="45.50538" lon="6.6774">
        <ele>1987</ele>
        <time>2010-03-31T08:04:16Z</time>
      </trkpt>
      <trkpt lat="45.50538" lon="6.67741">
        <ele>1987</ele>
        <time>2010-03-31T08:04:24Z</time>
      </trkpt>
      <trkpt lat="45.50537" lon="6.6774">
        <ele>1987</ele>
        <time>2010-03-31T08:04:31Z</time>
      </trkpt>
      <trkpt lat="45.50536" lon="6.67742">
        <ele>1987</ele>
        <time>2010-03-31T08:04:37Z</time>
      </trkpt>
      <trkpt lat="45.50532" lon="6.67742">
        <ele>1988</ele>
        <time>2010-03-31T08:04:59Z</time>
      </trkpt>
      <trkpt lat="45.50525" lon="6.67744">
        <ele>1988</ele>
        <time>2010-03-31T08:05:07Z</time>
      </trkpt>
      <trkpt lat="45.50524" lon="6.6774">
        <ele>1988</ele>
        <time>2010-03-31T08:05:13Z</time>
      </trkpt>
      <trkpt lat="45.50528" lon="6.67738">
        <ele>1988</ele>
        <time>2010-03-31T08:05:19Z</time>
      </trkpt>
      <trkpt lat="45.50532" lon="6.67734">
        <ele>1987</ele>
        <time>2010-03-31T08:05:27Z</time>
      </trkpt>
      <trkpt lat="45.50535" lon="6.67731">
        <ele>1987</ele>
        <time>2010-03-31T08:05:32Z</time>
      </trkpt>
      <trkpt lat="45.50534" lon="6.67729">
        <ele>1987</ele>
        <time>2010-03-31T08:05:38Z</time>
      </trkpt>
      <trkpt lat="45.50539" lon="6.67723">
        <ele>1987</ele>
        <time>2010-03-31T08:05:54Z</time>
      </trkpt>
      <trkpt lat="45.50544" lon="6.67725">
        <ele>1987</ele>
        <time>2010-03-31T08:06:33Z</time>
      </trkpt>
      <trkpt lat="45.50542" lon="6.67722">
        <ele>1987</ele>
        <time>2010-03-31T08:06:44Z</time>
      </trkpt>
      <trkpt lat="45.50543" lon="6.67719">
        <ele>1987</ele>
        <time>2010-03-31T08:06:59Z</time>
      </trkpt>
      <trkpt lat="45.50541" lon="6.6772">
        <ele>1987</ele>
        <time>2010-03-31T08:07:15Z</time>
      </trkpt>
      <trkpt lat="45.50543" lon="6.67708">
        <ele>1987</ele>
        <time>2010-03-31T08:07:43Z</time>
      </trkpt>
      <trkpt lat="45.50545" lon="6.67709">
        <ele>1987</ele>
        <time>2010-03-31T08:07:54Z</time>
      </trkpt>
      <trkpt lat="45.50543" lon="6.67711">
        <ele>1987</ele>
        <time>2010-03-31T08:08:00Z</time>
      </trkpt>
      <trkpt lat="45.5054" lon="6.67709">
        <ele>1987</ele>
        <time>2010-03-31T08:08:02Z</time>
      </trkpt>
      <trkpt lat="45.50507" lon="6.67731">
        <ele>1989</ele>
        <time>2010-03-31T08:08:06Z</time>
      </trkpt>
      <trkpt lat="45.50466" lon="6.67751">
        <ele>1996</ele>
        <time>2010-03-31T08:08:12Z</time>
      </trkpt>
      <trkpt lat="45.50439" lon="6.67767">
        <ele>1998</ele>
        <time>2010-03-31T08:08:17Z</time>
      </trkpt>
      <trkpt lat="45.50391" lon="6.67791">
        <ele>2010</ele>
        <time>2010-03-31T08:08:26Z</time>
      </trkpt>
      <trkpt lat="45.50335" lon="6.6782">
        <ele>2018</ele>
        <time>2010-03-31T08:08:37Z</time>
      </trkpt>
      <trkpt lat="45.50306" lon="6.67835">
        <ele>2033</ele>
        <time>2010-03-31T08:08:43Z</time>
      </trkpt>
      <trkpt lat="45.5025" lon="6.67865">
        <ele>2055</ele>
        <time>2010-03-31T08:08:54Z</time>
      </trkpt>
      <trkpt lat="45.50192" lon="6.67895">
        <ele>2065</ele>
        <time>2010-03-31T08:09:05Z</time>
      </trkpt>
      <trkpt lat="45.50126" lon="6.6793">
        <ele>2087</ele>
        <time>2010-03-31T08:09:18Z</time>
      </trkpt>
      <trkpt lat="45.50091" lon="6.67949">
        <ele>2090</ele>
        <time>2010-03-31T08:09:25Z</time>
      </trkpt>
      <trkpt lat="45.50038" lon="6.67975">
        <ele>2102</ele>
        <time>2010-03-31T08:09:35Z</time>
      </trkpt>
      <trkpt lat="45.49975" lon="6.68008">
        <ele>2123</ele>
        <time>2010-03-31T08:09:47Z</time>
      </trkpt>
      <trkpt lat="45.49902" lon="6.68046">
        <ele>2155</ele>
        <time>2010-03-31T08:10:01Z</time>
      </trkpt>
      <trkpt lat="45.49834" lon="6.68081">
        <ele>2179</ele>
        <time>2010-03-31T08:10:14Z</time>
      </trkpt>
      <trkpt lat="45.498" lon="6.68101">
        <ele>2188</ele>
        <time>2010-03-31T08:10:21Z</time>
      </trkpt>
      <trkpt lat="45.49762" lon="6.68125">
        <ele>2191</ele>
        <time>2010-03-31T08:10:29Z</time>
      </trkpt>
      <trkpt lat="45.49689" lon="6.68161">
        <ele>2203</ele>
        <time>2010-03-31T08:10:43Z</time>
      </trkpt>
      <trkpt lat="45.49609" lon="6.68198">
        <ele>2219</ele>
        <time>2010-03-31T08:10:58Z</time>
      </trkpt>
      <trkpt lat="45.4957" lon="6.6822">
        <ele>2235</ele>
        <time>2010-03-31T08:11:06Z</time>
      </trkpt>
      <trkpt lat="45.49517" lon="6.68251">
        <ele>2255</ele>
        <time>2010-03-31T08:11:17Z</time>
      </trkpt>
      <trkpt lat="45.49468" lon="6.68276">
        <ele>2295</ele>
        <time>2010-03-31T08:11:27Z</time>
      </trkpt>
      <trkpt lat="45.49432" lon="6.68292">
        <ele>2310</ele>
        <time>2010-03-31T08:11:34Z</time>
      </trkpt>
      <trkpt lat="45.494" lon="6.68311">
        <ele>2356</ele>
        <time>2010-03-31T08:11:41Z</time>
      </trkpt>
      <trkpt lat="45.4937" lon="6.68321">
        <ele>2369</ele>
        <time>2010-03-31T08:11:47Z</time>
      </trkpt>
      <trkpt lat="45.49353" lon="6.68329">
        <ele>2381</ele>
        <time>2010-03-31T08:11:51Z</time>
      </trkpt>
      <trkpt lat="45.49317" lon="6.68351">
        <ele>2424</ele>
        <time>2010-03-31T08:11:59Z</time>
      </trkpt>
      <trkpt lat="45.4928" lon="6.68375">
        <ele>2440</ele>
        <time>2010-03-31T08:12:07Z</time>
      </trkpt>
      <trkpt lat="45.49245" lon="6.68393">
        <ele>2471</ele>
        <time>2010-03-31T08:12:14Z</time>
      </trkpt>
      <trkpt lat="45.492" lon="6.68416">
        <ele>2479</ele>
        <time>2010-03-31T08:12:23Z</time>
      </trkpt>
      <trkpt lat="45.49192" lon="6.6842">
        <ele>2484</ele>
        <time>2010-03-31T08:12:26Z</time>
      </trkpt>
      <trkpt lat="45.49185" lon="6.68419">
        <ele>2486</ele>
        <time>2010-03-31T08:12:28Z</time>
      </trkpt>
      <trkpt lat="45.49185" lon="6.68414">
        <ele>2484</ele>
        <time>2010-03-31T08:12:32Z</time>
      </trkpt>
      <trkpt lat="45.49174" lon="6.68419">
        <ele>2490</ele>
        <time>2010-03-31T08:12:42Z</time>
      </trkpt>
      <trkpt lat="45.49166" lon="6.68422">
        <ele>2490</ele>
        <time>2010-03-31T08:12:50Z</time>
      </trkpt>
      <trkpt lat="45.49165" lon="6.68428">
        <ele>2488</ele>
        <time>2010-03-31T08:12:57Z</time>
      </trkpt>
      <trkpt lat="45.49161" lon="6.68425">
        <ele>2488</ele>
        <time>2010-03-31T08:13:01Z</time>
      </trkpt>
      <trkpt lat="45.49157" lon="6.68423">
        <ele>2487</ele>
        <time>2010-03-31T08:13:04Z</time>
      </trkpt>
      <trkpt lat="45.49151" lon="6.6843">
        <ele>2484</ele>
        <time>2010-03-31T08:13:13Z</time>
      </trkpt>
      <trkpt lat="45.49148" lon="6.68431">
        <ele>2483</ele>
        <time>2010-03-31T08:13:20Z</time>
      </trkpt>
      <trkpt lat="45.49148" lon="6.6843">
        <ele>2483</ele>
        <time>2010-03-31T08:13:26Z</time>
      </trkpt>
      <trkpt lat="45.49149" lon="6.68429">
        <ele>2483</ele>
        <time>2010-03-31T08:13:32Z</time>
      </trkpt>
      <trkpt lat="45.49151" lon="6.68429">
        <ele>2484</ele>
        <time>2010-03-31T08:14:04Z</time>
      </trkpt>
      <trkpt lat="45.49151" lon="6.6843">
        <ele>2484</ele>
        <time>2010-03-31T08:14:16Z</time>
      </trkpt>
      <trkpt lat="45.49153" lon="6.68427">
        <ele>2485</ele>
        <time>2010-03-31T08:14:40Z</time>
      </trkpt>
      <trkpt lat="45.49153" lon="6.68428">
        <ele>2485</ele>
        <time>2010-03-31T08:15:01Z</time>
      </trkpt>
      <trkpt lat="45.49152" lon="6.68428">
        <ele>2484</ele>
        <time>2010-03-31T08:15:20Z</time>
      </trkpt>
      <trkpt lat="45.49152" lon="6.68428">
        <ele>2485</ele>
        <time>2010-03-31T08:15:29Z</time>
      </trkpt>
      <trkpt lat="45.49153" lon="6.68428">
        <ele>2485</ele>
        <time>2010-03-31T08:15:54Z</time>
      </trkpt>
      <trkpt lat="45.49154" lon="6.68427">
        <ele>2485</ele>
        <time>2010-03-31T08:16:02Z</time>
      </trkpt>
      <trkpt lat="45.49154" lon="6.68428">
        <ele>2485</ele>
        <time>2010-03-31T08:16:11Z</time>
      </trkpt>
      <trkpt lat="45.49154" lon="6.68428">
        <ele>2485</ele>
        <time>2010-03-31T08:16:19Z</time>
      </trkpt>
      <trkpt lat="45.49154" lon="6.68428">
        <ele>2485</ele>
        <time>2010-03-31T08:16:31Z</time>
      </trkpt>
      <trkpt lat="45.49155" lon="6.68427">
        <ele>2485</ele>
        <time>2010-03-31T08:16:47Z</time>
      </trkpt>
      <trkpt lat="45.49153" lon="6.68428">
        <ele>2485</ele>
        <time>2010-03-31T08:17:00Z</time>
      </trkpt>
      <trkpt lat="45.49151" lon="6.68433">
        <ele>2483</ele>
        <time>2010-03-31T08:17:12Z</time>
      </trkpt>
      <trkpt lat="45.49148" lon="6.68446">
        <ele>2480</ele>
        <time>2010-03-31T08:17:21Z</time>
      </trkpt>
      <trkpt lat="45.49148" lon="6.68451">
        <ele>2480</ele>
        <time>2010-03-31T08:17:28Z</time>
      </trkpt>
      <trkpt lat="45.49152" lon="6.6846">
        <ele>2479</ele>
        <time>2010-03-31T08:17:35Z</time>
      </trkpt>
      <trkpt lat="45.49162" lon="6.68477">
        <ele>2480</ele>
        <time>2010-03-31T08:17:39Z</time>
      </trkpt>
      <trkpt lat="45.49163" lon="6.68498">
        <ele>2484</ele>
        <time>2010-03-31T08:17:42Z</time>
      </trkpt>
      <trkpt lat="45.49163" lon="6.6851">
        <ele>2475</ele>
        <time>2010-03-31T08:17:44Z</time>
      </trkpt>
      <trkpt lat="45.49164" lon="6.68527">
        <ele>2468</ele>
        <time>2010-03-31T08:17:47Z</time>
      </trkpt>
      <trkpt lat="45.49163" lon="6.68545">
        <ele>2463</ele>
        <time>2010-03-31T08:17:50Z</time>
      </trkpt>
      <trkpt lat="45.49165" lon="6.68552">
        <ele>2463</ele>
        <time>2010-03-31T08:17:51Z</time>
      </trkpt>
      <trkpt lat="45.49172" lon="6.68591">
        <ele>2461</ele>
        <time>2010-03-31T08:17:55Z</time>
      </trkpt>
      <trkpt lat="45.49172" lon="6.6862">
        <ele>2453</ele>
        <time>2010-03-31T08:17:58Z</time>
      </trkpt>
      <trkpt lat="45.49172" lon="6.68641">
        <ele>2451</ele>
        <time>2010-03-31T08:18:00Z</time>
      </trkpt>
      <trkpt lat="45.49169" lon="6.68698">
        <ele>2435</ele>
        <time>2010-03-31T08:18:05Z</time>
      </trkpt>
      <trkpt lat="45.49168" lon="6.68707">
        <ele>2433</ele>
        <time>2010-03-31T08:18:06Z</time>
      </trkpt>
      <trkpt lat="45.49164" lon="6.68734">
        <ele>2428</ele>
        <time>2010-03-31T08:18:11Z</time>
      </trkpt>
      <trkpt lat="45.49162" lon="6.68743">
        <ele>2429</ele>
        <time>2010-03-31T08:18:13Z</time>
      </trkpt>
      <trkpt lat="45.49156" lon="6.68762">
        <ele>2420</ele>
        <time>2010-03-31T08:18:18Z</time>
      </trkpt>
      <trkpt lat="45.4915" lon="6.68769">
        <ele>2415</ele>
        <time>2010-03-31T08:18:23Z</time>
      </trkpt>
      <trkpt lat="45.49149" lon="6.6877">
        <ele>2415</ele>
        <time>2010-03-31T08:18:28Z</time>
      </trkpt>
      <trkpt lat="45.49148" lon="6.68771">
        <ele>2414</ele>
        <time>2010-03-31T08:18:48Z</time>
      </trkpt>
      <trkpt lat="45.49147" lon="6.68774">
        <ele>2413</ele>
        <time>2010-03-31T08:18:50Z</time>
      </trkpt>
      <trkpt lat="45.49156" lon="6.68792">
        <ele>2411</ele>
        <time>2010-03-31T08:18:54Z</time>
      </trkpt>
      <trkpt lat="45.49155" lon="6.68816">
        <ele>2408</ele>
        <time>2010-03-31T08:18:56Z</time>
      </trkpt>
      <trkpt lat="45.49156" lon="6.68869">
        <ele>2393</ele>
        <time>2010-03-31T08:19:00Z</time>
      </trkpt>
      <trkpt lat="45.49161" lon="6.68895">
        <ele>2391</ele>
        <time>2010-03-31T08:19:02Z</time>
      </trkpt>
      <trkpt lat="45.49165" lon="6.68923">
        <ele>2387</ele>
        <time>2010-03-31T08:19:05Z</time>
      </trkpt>
      <trkpt lat="45.49164" lon="6.68926">
        <ele>2386</ele>
        <time>2010-03-31T08:19:07Z</time>
      </trkpt>
      <trkpt lat="45.49164" lon="6.68926">
        <ele>2386</ele>
        <time>2010-03-31T08:19:13Z</time>
      </trkpt>
      <trkpt lat="45.49165" lon="6.68927">
        <ele>2385</ele>
        <time>2010-03-31T08:19:21Z</time>
      </trkpt>
      <trkpt lat="45.49166" lon="6.68927">
        <ele>2386</ele>
        <time>2010-03-31T08:19:31Z</time>
      </trkpt>
      <trkpt lat="45.49167" lon="6.68927">
        <ele>2386</ele>
        <time>2010-03-31T08:19:35Z</time>
      </trkpt>
      <trkpt lat="45.49175" lon="6.68918">
        <ele>2387</ele>
        <time>2010-03-31T08:19:40Z</time>
      </trkpt>
      <trkpt lat="45.49191" lon="6.68903">
        <ele>2390</ele>
        <time>2010-03-31T08:19:43Z</time>
      </trkpt>
      <trkpt lat="45.49203" lon="6.68895">
        <ele>2388</ele>
        <time>2010-03-31T08:19:45Z</time>
      </trkpt>
      <trkpt lat="45.49217" lon="6.6891">
        <ele>2385</ele>
        <time>2010-03-31T08:19:49Z</time>
      </trkpt>
      <trkpt lat="45.49224" lon="6.68915">
        <ele>2383</ele>
        <time>2010-03-31T08:19:51Z</time>
      </trkpt>
      <trkpt lat="45.49234" lon="6.68931">
        <ele>2372</ele>
        <time>2010-03-31T08:19:54Z</time>
      </trkpt>
      <trkpt lat="45.49245" lon="6.68947">
        <ele>2370</ele>
        <time>2010-03-31T08:19:57Z</time>
      </trkpt>
      <trkpt lat="45.49256" lon="6.68965">
        <ele>2349</ele>
        <time>2010-03-31T08:20:00Z</time>
      </trkpt>
      <trkpt lat="45.4927" lon="6.68977">
        <ele>2347</ele>
        <time>2010-03-31T08:20:03Z</time>
      </trkpt>
      <trkpt lat="45.4928" lon="6.68995">
        <ele>2344</ele>
        <time>2010-03-31T08:20:06Z</time>
      </trkpt>
      <trkpt lat="45.49291" lon="6.68998">
        <ele>2341</ele>
        <time>2010-03-31T08:20:08Z</time>
      </trkpt>
      <trkpt lat="45.49307" lon="6.69008">
        <ele>2332</ele>
        <time>2010-03-31T08:20:11Z</time>
      </trkpt>
      <trkpt lat="45.49317" lon="6.69014">
        <ele>2330</ele>
        <time>2010-03-31T08:20:13Z</time>
      </trkpt>
      <trkpt lat="45.49326" lon="6.69041">
        <ele>2331</ele>
        <time>2010-03-31T08:20:16Z</time>
      </trkpt>
      <trkpt lat="45.49327" lon="6.69049">
        <ele>2331</ele>
        <time>2010-03-31T08:20:17Z</time>
      </trkpt>
      <trkpt lat="45.49339" lon="6.69064">
        <ele>2313</ele>
        <time>2010-03-31T08:20:21Z</time>
      </trkpt>
      <trkpt lat="45.49367" lon="6.69071">
        <ele>2309</ele>
        <time>2010-03-31T08:20:24Z</time>
      </trkpt>
      <trkpt lat="45.49408" lon="6.69063">
        <ele>2303</ele>
        <time>2010-03-31T08:20:28Z</time>
      </trkpt>
      <trkpt lat="45.49417" lon="6.69059">
        <ele>2295</ele>
        <time>2010-03-31T08:20:29Z</time>
      </trkpt>
      <trkpt lat="45.49433" lon="6.6906">
        <ele>2294</ele>
        <time>2010-03-31T08:20:32Z</time>
      </trkpt>
      <trkpt lat="45.49432" lon="6.6906">
        <ele>2294</ele>
        <time>2010-03-31T08:20:37Z</time>
      </trkpt>
      <trkpt lat="45.49432" lon="6.6906">
        <ele>2294</ele>
        <time>2010-03-31T08:20:43Z</time>
      </trkpt>
      <trkpt lat="45.49432" lon="6.6906">
        <ele>2294</ele>
        <time>2010-03-31T08:20:49Z</time>
      </trkpt>
      <trkpt lat="45.49432" lon="6.6906">
        <ele>2294</ele>
        <time>2010-03-31T08:20:56Z</time>
      </trkpt>
      <trkpt lat="45.49432" lon="6.6906">
        <ele>2294</ele>
        <time>2010-03-31T08:21:08Z</time>
      </trkpt>
      <trkpt lat="45.49433" lon="6.69063">
        <ele>2294</ele>
        <time>2010-03-31T08:21:16Z</time>
      </trkpt>
      <trkpt lat="45.49443" lon="6.69072">
        <ele>2294</ele>
        <time>2010-03-31T08:21:21Z</time>
      </trkpt>
      <trkpt lat="45.49459" lon="6.69078">
        <ele>2292</ele>
        <time>2010-03-31T08:21:25Z</time>
      </trkpt>
      <trkpt lat="45.49489" lon="6.69085">
        <ele>2288</ele>
        <time>2010-03-31T08:21:31Z</time>
      </trkpt>
      <trkpt lat="45.49496" lon="6.69086">
        <ele>2287</ele>
        <time>2010-03-31T08:21:32Z</time>
      </trkpt>
      <trkpt lat="45.4952" lon="6.69101">
        <ele>2282</ele>
        <time>2010-03-31T08:21:36Z</time>
      </trkpt>
      <trkpt lat="45.49536" lon="6.6911">
        <ele>2281</ele>
        <time>2010-03-31T08:21:40Z</time>
      </trkpt>
      <trkpt lat="45.49553" lon="6.69125">
        <ele>2279</ele>
        <time>2010-03-31T08:21:44Z</time>
      </trkpt>
      <trkpt lat="45.49558" lon="6.69129">
        <ele>2279</ele>
        <time>2010-03-31T08:21:45Z</time>
      </trkpt>
      <trkpt lat="45.49581" lon="6.69168">
        <ele>2272</ele>
        <time>2010-03-31T08:21:50Z</time>
      </trkpt>
      <trkpt lat="45.49598" lon="6.69194">
        <ele>2264</ele>
        <time>2010-03-31T08:21:54Z</time>
      </trkpt>
      <trkpt lat="45.49609" lon="6.69208">
        <ele>2262</ele>
        <time>2010-03-31T08:21:56Z</time>
      </trkpt>
      <trkpt lat="45.49636" lon="6.6922">
        <ele>2260</ele>
        <time>2010-03-31T08:22:00Z</time>
      </trkpt>
      <trkpt lat="45.49642" lon="6.69223">
        <ele>2259</ele>
        <time>2010-03-31T08:22:01Z</time>
      </trkpt>
      <trkpt lat="45.49661" lon="6.69223">
        <ele>2258</ele>
        <time>2010-03-31T08:22:05Z</time>
      </trkpt>
      <trkpt lat="45.49673" lon="6.69229">
        <ele>2250</ele>
        <time>2010-03-31T08:22:07Z</time>
      </trkpt>
      <trkpt lat="45.49678" lon="6.69231">
        <ele>2249</ele>
        <time>2010-03-31T08:22:08Z</time>
      </trkpt>
      <trkpt lat="45.49723" lon="6.69222">
        <ele>2244</ele>
        <time>2010-03-31T08:22:13Z</time>
      </trkpt>
      <trkpt lat="45.49766" lon="6.69206">
        <ele>2232</ele>
        <time>2010-03-31T08:22:17Z</time>
      </trkpt>
      <trkpt lat="45.49774" lon="6.69204">
        <ele>2232</ele>
        <time>2010-03-31T08:22:18Z</time>
      </trkpt>
      <trkpt lat="45.49822" lon="6.6918">
        <ele>2229</ele>
        <time>2010-03-31T08:22:24Z</time>
      </trkpt>
      <trkpt lat="45.4986" lon="6.69152">
        <ele>2223</ele>
        <time>2010-03-31T08:22:29Z</time>
      </trkpt>
      <trkpt lat="45.49877" lon="6.69145">
        <ele>2220</ele>
        <time>2010-03-31T08:22:31Z</time>
      </trkpt>
      <trkpt lat="45.49898" lon="6.69127">
        <ele>2219</ele>
        <time>2010-03-31T08:22:35Z</time>
      </trkpt>
      <trkpt lat="45.49904" lon="6.69124">
        <ele>2219</ele>
        <time>2010-03-31T08:22:37Z</time>
      </trkpt>
      <trkpt lat="45.49904" lon="6.69124">
        <ele>2219</ele>
        <time>2010-03-31T08:22:40Z</time>
      </trkpt>
      <trkpt lat="45.49902" lon="6.69125">
        <ele>2219</ele>
        <time>2010-03-31T08:22:45Z</time>
      </trkpt>
      <trkpt lat="45.49903" lon="6.69126">
        <ele>2219</ele>
        <time>2010-03-31T08:22:51Z</time>
      </trkpt>
      <trkpt lat="45.49902" lon="6.69126">
        <ele>2219</ele>
        <time>2010-03-31T08:22:58Z</time>
      </trkpt>
      <trkpt lat="45.49902" lon="6.69126">
        <ele>2219</ele>
        <time>2010-03-31T08:23:09Z</time>
      </trkpt>
      <trkpt lat="45.49902" lon="6.69126">
        <ele>2219</ele>
        <time>2010-03-31T08:23:13Z</time>
      </trkpt>
      <trkpt lat="45.49902" lon="6.69126">
        <ele>2219</ele>
        <time>2010-03-31T08:23:19Z</time>
      </trkpt>
      <trkpt lat="45.49902" lon="6.69127">
        <ele>2219</ele>
        <time>2010-03-31T08:23:28Z</time>
      </trkpt>
      <trkpt lat="45.49907" lon="6.69138">
        <ele>2217</ele>
        <time>2010-03-31T08:23:31Z</time>
      </trkpt>
      <trkpt lat="45.49912" lon="6.69146">
        <ele>2216</ele>
        <time>2010-03-31T08:23:32Z</time>
      </trkpt>
      <trkpt lat="45.49941" lon="6.69167">
        <ele>2207</ele>
        <time>2010-03-31T08:23:35Z</time>
      </trkpt>
      <trkpt lat="45.49979" lon="6.69203">
        <ele>2202</ele>
        <time>2010-03-31T08:23:39Z</time>
      </trkpt>
      <trkpt lat="45.49999" lon="6.69222">
        <ele>2201</ele>
        <time>2010-03-31T08:23:41Z</time>
      </trkpt>
      <trkpt lat="45.50044" lon="6.69245">
        <ele>2193</ele>
        <time>2010-03-31T08:23:45Z</time>
      </trkpt>
      <trkpt lat="45.50064" lon="6.69247">
        <ele>2191</ele>
        <time>2010-03-31T08:23:47Z</time>
      </trkpt>
      <trkpt lat="45.50115" lon="6.69243">
        <ele>2183</ele>
        <time>2010-03-31T08:23:52Z</time>
      </trkpt>
      <trkpt lat="45.50126" lon="6.69242">
        <ele>2182</ele>
        <time>2010-03-31T08:23:53Z</time>
      </trkpt>
      <trkpt lat="45.50142" lon="6.69245">
        <ele>2179</ele>
        <time>2010-03-31T08:23:55Z</time>
      </trkpt>
      <trkpt lat="45.50175" lon="6.69266">
        <ele>2170</ele>
        <time>2010-03-31T08:23:59Z</time>
      </trkpt>
      <trkpt lat="45.50212" lon="6.69301">
        <ele>2165</ele>
        <time>2010-03-31T08:24:03Z</time>
      </trkpt>
      <trkpt lat="45.50232" lon="6.69323">
        <ele>2163</ele>
        <time>2010-03-31T08:24:06Z</time>
      </trkpt>
      <trkpt lat="45.50252" lon="6.6933">
        <ele>2159</ele>
        <time>2010-03-31T08:24:09Z</time>
      </trkpt>
      <trkpt lat="45.50272" lon="6.69343">
        <ele>2154</ele>
        <time>2010-03-31T08:24:12Z</time>
      </trkpt>
      <trkpt lat="45.5028" lon="6.69349">
        <ele>2152</ele>
        <time>2010-03-31T08:24:13Z</time>
      </trkpt>
      <trkpt lat="45.50295" lon="6.69362">
        <ele>2150</ele>
        <time>2010-03-31T08:24:15Z</time>
      </trkpt>
      <trkpt lat="45.50327" lon="6.69368">
        <ele>2148</ele>
        <time>2010-03-31T08:24:19Z</time>
      </trkpt>
      <trkpt lat="45.50345" lon="6.69377">
        <ele>2140</ele>
        <time>2010-03-31T08:24:21Z</time>
      </trkpt>
      <trkpt lat="45.50373" lon="6.69407">
        <ele>2137</ele>
        <time>2010-03-31T08:24:24Z</time>
      </trkpt>
      <trkpt lat="45.50383" lon="6.69456">
        <ele>2131</ele>
        <time>2010-03-31T08:24:27Z</time>
      </trkpt>
      <trkpt lat="45.50402" lon="6.6951">
        <ele>2126</ele>
        <time>2010-03-31T08:24:32Z</time>
      </trkpt>
      <trkpt lat="45.50418" lon="6.69513">
        <ele>2122</ele>
        <time>2010-03-31T08:24:35Z</time>
      </trkpt>
      <trkpt lat="45.50431" lon="6.69512">
        <ele>2121</ele>
        <time>2010-03-31T08:24:37Z</time>
      </trkpt>
      <trkpt lat="45.50474" lon="6.69528">
        <ele>2116</ele>
        <time>2010-03-31T08:24:42Z</time>
      </trkpt>
      <trkpt lat="45.50533" lon="6.69548">
        <ele>2113</ele>
        <time>2010-03-31T08:24:48Z</time>
      </trkpt>
      <trkpt lat="45.50563" lon="6.69563">
        <ele>2113</ele>
        <time>2010-03-31T08:24:52Z</time>
      </trkpt>
      <trkpt lat="45.50575" lon="6.69569">
        <ele>2113</ele>
        <time>2010-03-31T08:24:54Z</time>
      </trkpt>
      <trkpt lat="45.506" lon="6.69579">
        <ele>2113</ele>
        <time>2010-03-31T08:24:59Z</time>
      </trkpt>
      <trkpt lat="45.50624" lon="6.69595">
        <ele>2109</ele>
        <time>2010-03-31T08:25:04Z</time>
      </trkpt>
      <trkpt lat="45.50628" lon="6.69604">
        <ele>2109</ele>
        <time>2010-03-31T08:25:08Z</time>
      </trkpt>
      <trkpt lat="45.50628" lon="6.69606">
        <ele>2109</ele>
        <time>2010-03-31T08:25:11Z</time>
      </trkpt>
      <trkpt lat="45.50629" lon="6.6961">
        <ele>2109</ele>
        <time>2010-03-31T08:25:18Z</time>
      </trkpt>
      <trkpt lat="45.50632" lon="6.69621">
        <ele>2109</ele>
        <time>2010-03-31T08:25:23Z</time>
      </trkpt>
      <trkpt lat="45.50639" lon="6.69637">
        <ele>2108</ele>
        <time>2010-03-31T08:25:27Z</time>
      </trkpt>
      <trkpt lat="45.50642" lon="6.6964">
        <ele>2108</ele>
        <time>2010-03-31T08:25:28Z</time>
      </trkpt>
      <trkpt lat="45.50645" lon="6.69645">
        <ele>2108</ele>
        <time>2010-03-31T08:25:32Z</time>
      </trkpt>
      <trkpt lat="45.50644" lon="6.69644">
        <ele>2108</ele>
        <time>2010-03-31T08:25:51Z</time>
      </trkpt>
      <trkpt lat="45.50643" lon="6.69644">
        <ele>2108</ele>
        <time>2010-03-31T08:26:11Z</time>
      </trkpt>
      <trkpt lat="45.50644" lon="6.69653">
        <ele>2108</ele>
        <time>2010-03-31T08:26:16Z</time>
      </trkpt>
      <trkpt lat="45.50651" lon="6.69672">
        <ele>2105</ele>
        <time>2010-03-31T08:26:19Z</time>
      </trkpt>
      <trkpt lat="45.5067" lon="6.69702">
        <ele>2098</ele>
        <time>2010-03-31T08:26:23Z</time>
      </trkpt>
      <trkpt lat="45.50687" lon="6.69743">
        <ele>2095</ele>
        <time>2010-03-31T08:26:27Z</time>
      </trkpt>
      <trkpt lat="45.50702" lon="6.69762">
        <ele>2086</ele>
        <time>2010-03-31T08:26:30Z</time>
      </trkpt>
      <trkpt lat="45.50715" lon="6.69785">
        <ele>2083</ele>
        <time>2010-03-31T08:26:35Z</time>
      </trkpt>
      <trkpt lat="45.50714" lon="6.69805">
        <ele>2082</ele>
        <time>2010-03-31T08:26:38Z</time>
      </trkpt>
      <trkpt lat="45.5072" lon="6.6982">
        <ele>2079</ele>
        <time>2010-03-31T08:26:41Z</time>
      </trkpt>
      <trkpt lat="45.50724" lon="6.69827">
        <ele>2078</ele>
        <time>2010-03-31T08:26:42Z</time>
      </trkpt>
      <trkpt lat="45.5074" lon="6.69866">
        <ele>2067</ele>
        <time>2010-03-31T08:26:47Z</time>
      </trkpt>
      <trkpt lat="45.50751" lon="6.69896">
        <ele>2049</ele>
        <time>2010-03-31T08:26:50Z</time>
      </trkpt>
      <trkpt lat="45.50768" lon="6.69918">
        <ele>2042</ele>
        <time>2010-03-31T08:26:53Z</time>
      </trkpt>
      <trkpt lat="45.50792" lon="6.69928">
        <ele>2036</ele>
        <time>2010-03-31T08:26:56Z</time>
      </trkpt>
      <trkpt lat="45.50803" lon="6.69925">
        <ele>2034</ele>
        <time>2010-03-31T08:26:58Z</time>
      </trkpt>
      <trkpt lat="45.50816" lon="6.69925">
        <ele>2031</ele>
        <time>2010-03-31T08:27:00Z</time>
      </trkpt>
      <trkpt lat="45.50829" lon="6.69915">
        <ele>2030</ele>
        <time>2010-03-31T08:27:03Z</time>
      </trkpt>
      <trkpt lat="45.50834" lon="6.69913">
        <ele>2026</ele>
        <time>2010-03-31T08:27:04Z</time>
      </trkpt>
      <trkpt lat="45.50847" lon="6.69908">
        <ele>2022</ele>
        <time>2010-03-31T08:27:06Z</time>
      </trkpt>
      <trkpt lat="45.50871" lon="6.69904">
        <ele>2016</ele>
        <time>2010-03-31T08:27:10Z</time>
      </trkpt>
      <trkpt lat="45.50885" lon="6.69917">
        <ele>2005</ele>
        <time>2010-03-31T08:27:12Z</time>
      </trkpt>
      <trkpt lat="45.50905" lon="6.69936">
        <ele>2001</ele>
        <time>2010-03-31T08:27:15Z</time>
      </trkpt>
      <trkpt lat="45.50914" lon="6.69939">
        <ele>2000</ele>
        <time>2010-03-31T08:27:16Z</time>
      </trkpt>
      <trkpt lat="45.5095" lon="6.69932">
        <ele>1982</ele>
        <time>2010-03-31T08:27:20Z</time>
      </trkpt>
      <trkpt lat="45.50975" lon="6.69936">
        <ele>1977</ele>
        <time>2010-03-31T08:27:23Z</time>
      </trkpt>
      <trkpt lat="45.50997" lon="6.69932">
        <ele>1974</ele>
        <time>2010-03-31T08:27:26Z</time>
      </trkpt>
      <trkpt lat="45.51013" lon="6.69934">
        <ele>1964</ele>
        <time>2010-03-31T08:27:28Z</time>
      </trkpt>
      <trkpt lat="45.51046" lon="6.69948">
        <ele>1960</ele>
        <time>2010-03-31T08:27:31Z</time>
      </trkpt>
      <trkpt lat="45.51095" lon="6.69945">
        <ele>1948</ele>
        <time>2010-03-31T08:27:35Z</time>
      </trkpt>
      <trkpt lat="45.51119" lon="6.69936">
        <ele>1946</ele>
        <time>2010-03-31T08:27:37Z</time>
      </trkpt>
      <trkpt lat="45.51161" lon="6.69929">
        <ele>1942</ele>
        <time>2010-03-31T08:27:41Z</time>
      </trkpt>
      <trkpt lat="45.51169" lon="6.69926">
        <ele>1940</ele>
        <time>2010-03-31T08:27:42Z</time>
      </trkpt>
      <trkpt lat="45.51199" lon="6.69899">
        <ele>1937</ele>
        <time>2010-03-31T08:27:47Z</time>
      </trkpt>
      <trkpt lat="45.51203" lon="6.69891">
        <ele>1937</ele>
        <time>2010-03-31T08:27:48Z</time>
      </trkpt>
      <trkpt lat="45.51213" lon="6.69868">
        <ele>1936</ele>
        <time>2010-03-31T08:27:51Z</time>
      </trkpt>
      <trkpt lat="45.51223" lon="6.69859">
        <ele>1936</ele>
        <time>2010-03-31T08:27:55Z</time>
      </trkpt>
      <trkpt lat="45.51225" lon="6.69859">
        <ele>1936</ele>
        <time>2010-03-31T08:28:01Z</time>
      </trkpt>
      <trkpt lat="45.51228" lon="6.6986">
        <ele>1936</ele>
        <time>2010-03-31T08:28:08Z</time>
      </trkpt>
      <trkpt lat="45.51231" lon="6.69862">
        <ele>1936</ele>
        <time>2010-03-31T08:28:16Z</time>
      </trkpt>
      <trkpt lat="45.51234" lon="6.69866">
        <ele>1936</ele>
        <time>2010-03-31T08:28:22Z</time>
      </trkpt>
      <trkpt lat="45.51236" lon="6.69869">
        <ele>1936</ele>
        <time>2010-03-31T08:28:30Z</time>
      </trkpt>
      <trkpt lat="45.51236" lon="6.6987">
        <ele>1936</ele>
        <time>2010-03-31T08:28:37Z</time>
      </trkpt>
      <trkpt lat="45.51236" lon="6.69869">
        <ele>1936</ele>
        <time>2010-03-31T08:28:45Z</time>
      </trkpt>
      <trkpt lat="45.51237" lon="6.69874">
        <ele>1936</ele>
        <time>2010-03-31T08:28:53Z</time>
      </trkpt>
      <trkpt lat="45.51236" lon="6.69875">
        <ele>1936</ele>
        <time>2010-03-31T08:29:24Z</time>
      </trkpt>
      <trkpt lat="45.51237" lon="6.69876">
        <ele>1936</ele>
        <time>2010-03-31T08:29:32Z</time>
      </trkpt>
      <trkpt lat="45.51237" lon="6.69877">
        <ele>1936</ele>
        <time>2010-03-31T08:29:39Z</time>
      </trkpt>
      <trkpt lat="45.51238" lon="6.69877">
        <ele>1936</ele>
        <time>2010-03-31T08:29:50Z</time>
      </trkpt>
      <trkpt lat="45.51238" lon="6.69878">
        <ele>1936</ele>
        <time>2010-03-31T08:29:59Z</time>
      </trkpt>
      <trkpt lat="45.5124" lon="6.6988">
        <ele>1936</ele>
        <time>2010-03-31T08:30:09Z</time>
      </trkpt>
      <trkpt lat="45.51241" lon="6.69881">
        <ele>1936</ele>
        <time>2010-03-31T08:30:19Z</time>
      </trkpt>
      <trkpt lat="45.51241" lon="6.69883">
        <ele>1936</ele>
        <time>2010-03-31T08:30:31Z</time>
      </trkpt>
      <trkpt lat="45.51242" lon="6.69885">
        <ele>1936</ele>
        <time>2010-03-31T08:30:39Z</time>
      </trkpt>
      <trkpt lat="45.51243" lon="6.69887">
        <ele>1937</ele>
        <time>2010-03-31T08:30:48Z</time>
      </trkpt>
      <trkpt lat="45.51245" lon="6.69889">
        <ele>1937</ele>
        <time>2010-03-31T08:30:59Z</time>
      </trkpt>
      <trkpt lat="45.51246" lon="6.69889">
        <ele>1937</ele>
        <time>2010-03-31T08:31:08Z</time>
      </trkpt>
      <trkpt lat="45.51248" lon="6.69889">
        <ele>1937</ele>
        <time>2010-03-31T08:31:15Z</time>
      </trkpt>
      <trkpt lat="45.51249" lon="6.6989">
        <ele>1937</ele>
        <time>2010-03-31T08:31:25Z</time>
      </trkpt>
      <trkpt lat="45.51251" lon="6.69892">
        <ele>1936</ele>
        <time>2010-03-31T08:31:35Z</time>
      </trkpt>
      <trkpt lat="45.51252" lon="6.69895">
        <ele>1936</ele>
        <time>2010-03-31T08:31:41Z</time>
      </trkpt>
      <trkpt lat="45.51254" lon="6.699">
        <ele>1937</ele>
        <time>2010-03-31T08:31:47Z</time>
      </trkpt>
      <trkpt lat="45.51255" lon="6.69904">
        <ele>1937</ele>
        <time>2010-03-31T08:31:52Z</time>
      </trkpt>
      <trkpt lat="45.51258" lon="6.69906">
        <ele>1937</ele>
        <time>2010-03-31T08:31:59Z</time>
      </trkpt>
      <trkpt lat="45.51273" lon="6.69931">
        <ele>1942</ele>
        <time>2010-03-31T08:32:05Z</time>
      </trkpt>
      <trkpt lat="45.51288" lon="6.69957">
        <ele>1944</ele>
        <time>2010-03-31T08:32:11Z</time>
      </trkpt>
      <trkpt lat="45.51303" lon="6.69984">
        <ele>1946</ele>
        <time>2010-03-31T08:32:17Z</time>
      </trkpt>
      <trkpt lat="45.5132" lon="6.70015">
        <ele>1953</ele>
        <time>2010-03-31T08:32:24Z</time>
      </trkpt>
      <trkpt lat="45.5134" lon="6.70051">
        <ele>1966</ele>
        <time>2010-03-31T08:32:32Z</time>
      </trkpt>
      <trkpt lat="45.51358" lon="6.70082">
        <ele>1968</ele>
        <time>2010-03-31T08:32:39Z</time>
      </trkpt>
      <trkpt lat="45.51379" lon="6.7012">
        <ele>1990</ele>
        <time>2010-03-31T08:32:48Z</time>
      </trkpt>
      <trkpt lat="45.514" lon="6.70158">
        <ele>2002</ele>
        <time>2010-03-31T08:32:57Z</time>
      </trkpt>
      <trkpt lat="45.51416" lon="6.70186">
        <ele>2017</ele>
        <time>2010-03-31T08:33:04Z</time>
      </trkpt>
      <trkpt lat="45.51432" lon="6.70214">
        <ele>2043</ele>
        <time>2010-03-31T08:33:11Z</time>
      </trkpt>
      <trkpt lat="45.51449" lon="6.70245">
        <ele>2049</ele>
        <time>2010-03-31T08:33:19Z</time>
      </trkpt>
      <trkpt lat="45.51466" lon="6.70274">
        <ele>2069</ele>
        <time>2010-03-31T08:33:27Z</time>
      </trkpt>
      <trkpt lat="45.51483" lon="6.70303">
        <ele>2075</ele>
        <time>2010-03-31T08:33:35Z</time>
      </trkpt>
      <trkpt lat="45.51498" lon="6.70331">
        <ele>2091</ele>
        <time>2010-03-31T08:33:42Z</time>
      </trkpt>
      <trkpt lat="45.51508" lon="6.70348">
        <ele>2104</ele>
        <time>2010-03-31T08:33:46Z</time>
      </trkpt>
      <trkpt lat="45.51523" lon="6.70373">
        <ele>2111</ele>
        <time>2010-03-31T08:33:52Z</time>
      </trkpt>
      <trkpt lat="45.51544" lon="6.70411">
        <ele>2118</ele>
        <time>2010-03-31T08:34:01Z</time>
      </trkpt>
      <trkpt lat="45.51574" lon="6.70464">
        <ele>2134</ele>
        <time>2010-03-31T08:34:14Z</time>
      </trkpt>
      <trkpt lat="45.51587" lon="6.70486">
        <ele>2149</ele>
        <time>2010-03-31T08:34:19Z</time>
      </trkpt>
      <trkpt lat="45.51612" lon="6.70529">
        <ele>2160</ele>
        <time>2010-03-31T08:34:29Z</time>
      </trkpt>
      <trkpt lat="45.51636" lon="6.70572">
        <ele>2166</ele>
        <time>2010-03-31T08:34:39Z</time>
      </trkpt>
      <trkpt lat="45.51652" lon="6.70598">
        <ele>2169</ele>
        <time>2010-03-31T08:34:45Z</time>
      </trkpt>
      <trkpt lat="45.51682" lon="6.70651">
        <ele>2177</ele>
        <time>2010-03-31T08:34:57Z</time>
      </trkpt>
      <trkpt lat="45.51712" lon="6.70704">
        <ele>2175</ele>
        <time>2010-03-31T08:35:09Z</time>
      </trkpt>
      <trkpt lat="45.51745" lon="6.70762">
        <ele>2178</ele>
        <time>2010-03-31T08:35:22Z</time>
      </trkpt>
      <trkpt lat="45.51775" lon="6.70815">
        <ele>2189</ele>
        <time>2010-03-31T08:35:34Z</time>
      </trkpt>
      <trkpt lat="45.518" lon="6.70859">
        <ele>2195</ele>
        <time>2010-03-31T08:35:44Z</time>
      </trkpt>
      <trkpt lat="45.51838" lon="6.70925">
        <ele>2205</ele>
        <time>2010-03-31T08:35:59Z</time>
      </trkpt>
      <trkpt lat="45.51868" lon="6.70977">
        <ele>2214</ele>
        <time>2010-03-31T08:36:11Z</time>
      </trkpt>
      <trkpt lat="45.51899" lon="6.71033">
        <ele>2227</ele>
        <time>2010-03-31T08:36:24Z</time>
      </trkpt>
      <trkpt lat="45.51926" lon="6.7108">
        <ele>2237</ele>
        <time>2010-03-31T08:36:35Z</time>
      </trkpt>
      <trkpt lat="45.51955" lon="6.71131">
        <ele>2254</ele>
        <time>2010-03-31T08:36:47Z</time>
      </trkpt>
      <trkpt lat="45.51979" lon="6.71173">
        <ele>2270</ele>
        <time>2010-03-31T08:36:57Z</time>
      </trkpt>
      <trkpt lat="45.52004" lon="6.71216">
        <ele>2280</ele>
        <time>2010-03-31T08:37:07Z</time>
      </trkpt>
      <trkpt lat="45.52034" lon="6.71269">
        <ele>2291</ele>
        <time>2010-03-31T08:37:19Z</time>
      </trkpt>
      <trkpt lat="45.52076" lon="6.71342">
        <ele>2304</ele>
        <time>2010-03-31T08:37:36Z</time>
      </trkpt>
      <trkpt lat="45.52091" lon="6.71369">
        <ele>2310</ele>
        <time>2010-03-31T08:37:42Z</time>
      </trkpt>
      <trkpt lat="45.52137" lon="6.71449">
        <ele>2316</ele>
        <time>2010-03-31T08:38:00Z</time>
      </trkpt>
      <trkpt lat="45.52172" lon="6.71511">
        <ele>2324</ele>
        <time>2010-03-31T08:38:14Z</time>
      </trkpt>
      <trkpt lat="45.52215" lon="6.71586">
        <ele>2332</ele>
        <time>2010-03-31T08:38:31Z</time>
      </trkpt>
      <trkpt lat="45.5224" lon="6.7163">
        <ele>2335</ele>
        <time>2010-03-31T08:38:41Z</time>
      </trkpt>
      <trkpt lat="45.52253" lon="6.71653">
        <ele>2340</ele>
        <time>2010-03-31T08:38:46Z</time>
      </trkpt>
      <trkpt lat="45.52261" lon="6.71666">
        <ele>2340</ele>
        <time>2010-03-31T08:38:50Z</time>
      </trkpt>
      <trkpt lat="45.52261" lon="6.71667">
        <ele>2341</ele>
        <time>2010-03-31T08:38:51Z</time>
      </trkpt>
      <trkpt lat="45.52265" lon="6.71676">
        <ele>2340</ele>
        <time>2010-03-31T08:38:57Z</time>
      </trkpt>
      <trkpt lat="45.52268" lon="6.71689">
        <ele>2340</ele>
        <time>2010-03-31T08:39:02Z</time>
      </trkpt>
      <trkpt lat="45.52268" lon="6.71693">
        <ele>2340</ele>
        <time>2010-03-31T08:39:07Z</time>
      </trkpt>
      <trkpt lat="45.52268" lon="6.71693">
        <ele>2340</ele>
        <time>2010-03-31T08:39:13Z</time>
      </trkpt>
      <trkpt lat="45.52268" lon="6.71694">
        <ele>2340</ele>
        <time>2010-03-31T08:39:23Z</time>
      </trkpt>
      <trkpt lat="45.52265" lon="6.71695">
        <ele>2340</ele>
        <time>2010-03-31T08:39:31Z</time>
      </trkpt>
      <trkpt lat="45.52258" lon="6.71701">
        <ele>2340</ele>
        <time>2010-03-31T08:39:38Z</time>
      </trkpt>
      <trkpt lat="45.52257" lon="6.71703">
        <ele>2341</ele>
        <time>2010-03-31T08:39:39Z</time>
      </trkpt>
      <trkpt lat="45.52254" lon="6.71702">
        <ele>2341</ele>
        <time>2010-03-31T08:39:45Z</time>
      </trkpt>
      <trkpt lat="45.52255" lon="6.71702">
        <ele>2341</ele>
        <time>2010-03-31T08:39:55Z</time>
      </trkpt>
      <trkpt lat="45.52252" lon="6.717">
        <ele>2341</ele>
        <time>2010-03-31T08:40:04Z</time>
      </trkpt>
      <trkpt lat="45.52251" lon="6.71699">
        <ele>2341</ele>
        <time>2010-03-31T08:40:13Z</time>
      </trkpt>
      <trkpt lat="45.52251" lon="6.717">
        <ele>2341</ele>
        <time>2010-03-31T08:40:22Z</time>
      </trkpt>
      <trkpt lat="45.52251" lon="6.71699">
        <ele>2341</ele>
        <time>2010-03-31T08:40:29Z</time>
      </trkpt>
      <trkpt lat="45.52251" lon="6.71698">
        <ele>2341</ele>
        <time>2010-03-31T08:40:42Z</time>
      </trkpt>
      <trkpt lat="45.5225" lon="6.71697">
        <ele>2342</ele>
        <time>2010-03-31T08:40:52Z</time>
      </trkpt>
      <trkpt lat="45.52246" lon="6.71696">
        <ele>2342</ele>
        <time>2010-03-31T08:41:05Z</time>
      </trkpt>
      <trkpt lat="45.52229" lon="6.71687">
        <ele>2341</ele>
        <time>2010-03-31T08:41:13Z</time>
      </trkpt>
      <trkpt lat="45.52202" lon="6.71675">
        <ele>2339</ele>
        <time>2010-03-31T08:41:21Z</time>
      </trkpt>
      <trkpt lat="45.52169" lon="6.7165">
        <ele>2332</ele>
        <time>2010-03-31T08:41:28Z</time>
      </trkpt>
      <trkpt lat="45.52129" lon="6.71621">
        <ele>2321</ele>
        <time>2010-03-31T08:41:34Z</time>
      </trkpt>
      <trkpt lat="45.52081" lon="6.71586">
        <ele>2312</ele>
        <time>2010-03-31T08:41:40Z</time>
      </trkpt>
      <trkpt lat="45.52018" lon="6.71544">
        <ele>2304</ele>
        <time>2010-03-31T08:41:47Z</time>
      </trkpt>
      <trkpt lat="45.51962" lon="6.71515">
        <ele>2294</ele>
        <time>2010-03-31T08:41:53Z</time>
      </trkpt>
      <trkpt lat="45.51937" lon="6.715">
        <ele>2291</ele>
        <time>2010-03-31T08:41:57Z</time>
      </trkpt>
      <trkpt lat="45.5193" lon="6.71494">
        <ele>2290</ele>
        <time>2010-03-31T08:41:59Z</time>
      </trkpt>
      <trkpt lat="45.51916" lon="6.71489">
        <ele>2287</ele>
        <time>2010-03-31T08:42:05Z</time>
      </trkpt>
      <trkpt lat="45.51912" lon="6.71488">
        <ele>2287</ele>
        <time>2010-03-31T08:42:07Z</time>
      </trkpt>
      <trkpt lat="45.51907" lon="6.71488">
        <ele>2286</ele>
        <time>2010-03-31T08:42:10Z</time>
      </trkpt>
      <trkpt lat="45.51895" lon="6.7148">
        <ele>2286</ele>
        <time>2010-03-31T08:42:14Z</time>
      </trkpt>
      <trkpt lat="45.5187" lon="6.71478">
        <ele>2284</ele>
        <time>2010-03-31T08:42:21Z</time>
      </trkpt>
      <trkpt lat="45.51859" lon="6.71479">
        <ele>2284</ele>
        <time>2010-03-31T08:42:28Z</time>
      </trkpt>
      <trkpt lat="45.51852" lon="6.71481">
        <ele>2284</ele>
        <time>2010-03-31T08:42:34Z</time>
      </trkpt>
      <trkpt lat="45.51843" lon="6.71483">
        <ele>2283</ele>
        <time>2010-03-31T08:42:40Z</time>
      </trkpt>
      <trkpt lat="45.51831" lon="6.71484">
        <ele>2279</ele>
        <time>2010-03-31T08:42:46Z</time>
      </trkpt>
      <trkpt lat="45.51821" lon="6.71486">
        <ele>2278</ele>
        <time>2010-03-31T08:42:53Z</time>
      </trkpt>
      <trkpt lat="45.51805" lon="6.71485">
        <ele>2276</ele>
        <time>2010-03-31T08:43:00Z</time>
      </trkpt>
      <trkpt lat="45.51798" lon="6.71484">
        <ele>2276</ele>
        <time>2010-03-31T08:43:02Z</time>
      </trkpt>
      <trkpt lat="45.51788" lon="6.71489">
        <ele>2275</ele>
        <time>2010-03-31T08:43:05Z</time>
      </trkpt>
      <trkpt lat="45.51784" lon="6.71488">
        <ele>2274</ele>
        <time>2010-03-31T08:43:09Z</time>
      </trkpt>
      <trkpt lat="45.51783" lon="6.71488">
        <ele>2274</ele>
        <time>2010-03-31T08:43:19Z</time>
      </trkpt>
      <trkpt lat="45.51784" lon="6.71489">
        <ele>2274</ele>
        <time>2010-03-31T08:43:39Z</time>
      </trkpt>
      <trkpt lat="45.5178" lon="6.71485">
        <ele>2274</ele>
        <time>2010-03-31T08:43:58Z</time>
      </trkpt>
      <trkpt lat="45.51764" lon="6.71475">
        <ele>2273</ele>
        <time>2010-03-31T08:44:03Z</time>
      </trkpt>
      <trkpt lat="45.51747" lon="6.71454">
        <ele>2264</ele>
        <time>2010-03-31T08:44:07Z</time>
      </trkpt>
      <trkpt lat="45.51727" lon="6.71418">
        <ele>2262</ele>
        <time>2010-03-31T08:44:11Z</time>
      </trkpt>
      <trkpt lat="45.51706" lon="6.71354">
        <ele>2250</ele>
        <time>2010-03-31T08:44:16Z</time>
      </trkpt>
      <trkpt lat="45.51692" lon="6.71311">
        <ele>2240</ele>
        <time>2010-03-31T08:44:19Z</time>
      </trkpt>
      <trkpt lat="45.51683" lon="6.7127">
        <ele>2235</ele>
        <time>2010-03-31T08:44:22Z</time>
      </trkpt>
      <trkpt lat="45.51677" lon="6.71242">
        <ele>2228</ele>
        <time>2010-03-31T08:44:24Z</time>
      </trkpt>
      <trkpt lat="45.51673" lon="6.71211">
        <ele>2227</ele>
        <time>2010-03-31T08:44:26Z</time>
      </trkpt>
      <trkpt lat="45.51666" lon="6.71164">
        <ele>2213</ele>
        <time>2010-03-31T08:44:29Z</time>
      </trkpt>
      <trkpt lat="45.51642" lon="6.71114">
        <ele>2203</ele>
        <time>2010-03-31T08:44:33Z</time>
      </trkpt>
      <trkpt lat="45.51626" lon="6.71085">
        <ele>2200</ele>
        <time>2010-03-31T08:44:36Z</time>
      </trkpt>
      <trkpt lat="45.51609" lon="6.71057">
        <ele>2193</ele>
        <time>2010-03-31T08:44:39Z</time>
      </trkpt>
      <trkpt lat="45.51591" lon="6.71044">
        <ele>2191</ele>
        <time>2010-03-31T08:44:41Z</time>
      </trkpt>
      <trkpt lat="45.51513" lon="6.70991">
        <ele>2169</ele>
        <time>2010-03-31T08:44:48Z</time>
      </trkpt>
      <trkpt lat="45.51463" lon="6.70951">
        <ele>2159</ele>
        <time>2010-03-31T08:44:53Z</time>
      </trkpt>
      <trkpt lat="45.51426" lon="6.70912">
        <ele>2151</ele>
        <time>2010-03-31T08:44:58Z</time>
      </trkpt>
      <trkpt lat="45.51413" lon="6.70896">
        <ele>2148</ele>
        <time>2010-03-31T08:45:00Z</time>
      </trkpt>
      <trkpt lat="45.51403" lon="6.70879">
        <ele>2146</ele>
        <time>2010-03-31T08:45:02Z</time>
      </trkpt>
      <trkpt lat="45.51394" lon="6.70856">
        <ele>2145</ele>
        <time>2010-03-31T08:45:06Z</time>
      </trkpt>
      <trkpt lat="45.51392" lon="6.70854">
        <ele>2145</ele>
        <time>2010-03-31T08:45:12Z</time>
      </trkpt>
      <trkpt lat="45.51388" lon="6.70851">
        <ele>2144</ele>
        <time>2010-03-31T08:45:16Z</time>
      </trkpt>
      <trkpt lat="45.51379" lon="6.70837">
        <ele>2144</ele>
        <time>2010-03-31T08:45:22Z</time>
      </trkpt>
      <trkpt lat="45.51378" lon="6.70835">
        <ele>2144</ele>
        <time>2010-03-31T08:45:29Z</time>
      </trkpt>
      <trkpt lat="45.51378" lon="6.70834">
        <ele>2144</ele>
        <time>2010-03-31T08:45:37Z</time>
      </trkpt>
      <trkpt lat="45.51378" lon="6.70834">
        <ele>2144</ele>
        <time>2010-03-31T08:45:47Z</time>
      </trkpt>
      <trkpt lat="45.51379" lon="6.70835">
        <ele>2144</ele>
        <time>2010-03-31T08:46:08Z</time>
      </trkpt>
      <trkpt lat="45.51379" lon="6.70835">
        <ele>2144</ele>
        <time>2010-03-31T08:46:16Z</time>
      </trkpt>
      <trkpt lat="45.51379" lon="6.70835">
        <ele>2144</ele>
        <time>2010-03-31T08:46:27Z</time>
      </trkpt>
      <trkpt lat="45.51379" lon="6.70835">
        <ele>2144</ele>
        <time>2010-03-31T08:46:34Z</time>
      </trkpt>
      <trkpt lat="45.51379" lon="6.70835">
        <ele>2144</ele>
        <time>2010-03-31T08:46:41Z</time>
      </trkpt>
      <trkpt lat="45.51379" lon="6.70836">
        <ele>2144</ele>
        <time>2010-03-31T08:46:49Z</time>
      </trkpt>
      <trkpt lat="45.51378" lon="6.70839">
        <ele>2144</ele>
        <time>2010-03-31T08:46:55Z</time>
      </trkpt>
      <trkpt lat="45.51362" lon="6.70834">
        <ele>2144</ele>
        <time>2010-03-31T08:46:59Z</time>
      </trkpt>
      <trkpt lat="45.51351" lon="6.70827">
        <ele>2139</ele>
        <time>2010-03-31T08:47:01Z</time>
      </trkpt>
      <trkpt lat="45.51325" lon="6.70814">
        <ele>2136</ele>
        <time>2010-03-31T08:47:06Z</time>
      </trkpt>
      <trkpt lat="45.51306" lon="6.70804">
        <ele>2134</ele>
        <time>2010-03-31T08:47:13Z</time>
      </trkpt>
      <trkpt lat="45.51284" lon="6.70791">
        <ele>2132</ele>
        <time>2010-03-31T08:47:22Z</time>
      </trkpt>
      <trkpt lat="45.51283" lon="6.70784">
        <ele>2131</ele>
        <time>2010-03-31T08:47:26Z</time>
      </trkpt>
      <trkpt lat="45.51285" lon="6.70782">
        <ele>2131</ele>
        <time>2010-03-31T08:47:33Z</time>
      </trkpt>
      <trkpt lat="45.51286" lon="6.70782">
        <ele>2131</ele>
        <time>2010-03-31T08:47:40Z</time>
      </trkpt>
      <trkpt lat="45.51287" lon="6.70777">
        <ele>2131</ele>
        <time>2010-03-31T08:47:45Z</time>
      </trkpt>
      <trkpt lat="45.51284" lon="6.70758">
        <ele>2129</ele>
        <time>2010-03-31T08:47:50Z</time>
      </trkpt>
      <trkpt lat="45.51276" lon="6.70745">
        <ele>2119</ele>
        <time>2010-03-31T08:47:53Z</time>
      </trkpt>
      <trkpt lat="45.51271" lon="6.70729">
        <ele>2118</ele>
        <time>2010-03-31T08:47:57Z</time>
      </trkpt>
      <trkpt lat="45.5127" lon="6.70729">
        <ele>2118</ele>
        <time>2010-03-31T08:48:00Z</time>
      </trkpt>
      <trkpt lat="45.51259" lon="6.70725">
        <ele>2118</ele>
        <time>2010-03-31T08:48:03Z</time>
      </trkpt>
      <trkpt lat="45.51252" lon="6.70727">
        <ele>2118</ele>
        <time>2010-03-31T08:48:04Z</time>
      </trkpt>
      <trkpt lat="45.5122" lon="6.70721">
        <ele>2111</ele>
        <time>2010-03-31T08:48:08Z</time>
      </trkpt>
      <trkpt lat="45.51202" lon="6.70704">
        <ele>2108</ele>
        <time>2010-03-31T08:48:11Z</time>
      </trkpt>
      <trkpt lat="45.51195" lon="6.70694">
        <ele>2106</ele>
        <time>2010-03-31T08:48:14Z</time>
      </trkpt>
      <trkpt lat="45.51201" lon="6.70685">
        <ele>2105</ele>
        <time>2010-03-31T08:48:17Z</time>
      </trkpt>
      <trkpt lat="45.51207" lon="6.70676">
        <ele>2105</ele>
        <time>2010-03-31T08:48:20Z</time>
      </trkpt>
      <trkpt lat="45.51214" lon="6.70663">
        <ele>2093</ele>
        <time>2010-03-31T08:48:25Z</time>
      </trkpt>
      <trkpt lat="45.51216" lon="6.70657">
        <ele>2093</ele>
        <time>2010-03-31T08:48:27Z</time>
      </trkpt>
      <trkpt lat="45.51209" lon="6.7065">
        <ele>2091</ele>
        <time>2010-03-31T08:48:30Z</time>
      </trkpt>
      <trkpt lat="45.51205" lon="6.7065">
        <ele>2091</ele>
        <time>2010-03-31T08:48:32Z</time>
      </trkpt>
      <trkpt lat="45.51192" lon="6.7065">
        <ele>2089</ele>
        <time>2010-03-31T08:48:38Z</time>
      </trkpt>
      <trkpt lat="45.51189" lon="6.7065">
        <ele>2089</ele>
        <time>2010-03-31T08:48:39Z</time>
      </trkpt>
      <trkpt lat="45.51186" lon="6.70642">
        <ele>2088</ele>
        <time>2010-03-31T08:48:42Z</time>
      </trkpt>
      <trkpt lat="45.51188" lon="6.70637">
        <ele>2088</ele>
        <time>2010-03-31T08:48:43Z</time>
      </trkpt>
      <trkpt lat="45.51196" lon="6.70617">
        <ele>2085</ele>
        <time>2010-03-31T08:48:49Z</time>
      </trkpt>
      <trkpt lat="45.51191" lon="6.70612">
        <ele>2084</ele>
        <time>2010-03-31T08:48:52Z</time>
      </trkpt>
      <trkpt lat="45.5118" lon="6.70612">
        <ele>2082</ele>
        <time>2010-03-31T08:48:57Z</time>
      </trkpt>
      <trkpt lat="45.51164" lon="6.70612">
        <ele>2074</ele>
        <time>2010-03-31T08:49:01Z</time>
      </trkpt>
      <trkpt lat="45.5116" lon="6.7061">
        <ele>2074</ele>
        <time>2010-03-31T08:49:02Z</time>
      </trkpt>
      <trkpt lat="45.51162" lon="6.70591">
        <ele>2070</ele>
        <time>2010-03-31T08:49:05Z</time>
      </trkpt>
      <trkpt lat="45.51173" lon="6.7057">
        <ele>2067</ele>
        <time>2010-03-31T08:49:10Z</time>
      </trkpt>
      <trkpt lat="45.51169" lon="6.70566">
        <ele>2066</ele>
        <time>2010-03-31T08:49:12Z</time>
      </trkpt>
      <trkpt lat="45.51166" lon="6.70565">
        <ele>2061</ele>
        <time>2010-03-31T08:49:13Z</time>
      </trkpt>
      <trkpt lat="45.51154" lon="6.70561">
        <ele>2059</ele>
        <time>2010-03-31T08:49:16Z</time>
      </trkpt>
      <trkpt lat="45.51152" lon="6.70546">
        <ele>2056</ele>
        <time>2010-03-31T08:49:20Z</time>
      </trkpt>
      <trkpt lat="45.51146" lon="6.70542">
        <ele>2055</ele>
        <time>2010-03-31T08:49:23Z</time>
      </trkpt>
      <trkpt lat="45.51151" lon="6.70528">
        <ele>2054</ele>
        <time>2010-03-31T08:49:26Z</time>
      </trkpt>
      <trkpt lat="45.51156" lon="6.7052">
        <ele>2053</ele>
        <time>2010-03-31T08:49:29Z</time>
      </trkpt>
      <trkpt lat="45.51156" lon="6.70521">
        <ele>2053</ele>
        <time>2010-03-31T08:49:36Z</time>
      </trkpt>
      <trkpt lat="45.51155" lon="6.7052">
        <ele>2053</ele>
        <time>2010-03-31T08:49:39Z</time>
      </trkpt>
      <trkpt lat="45.51155" lon="6.70508">
        <ele>2051</ele>
        <time>2010-03-31T08:49:43Z</time>
      </trkpt>
      <trkpt lat="45.51151" lon="6.70502">
        <ele>2051</ele>
        <time>2010-03-31T08:49:45Z</time>
      </trkpt>
      <trkpt lat="45.5115" lon="6.70488">
        <ele>2042</ele>
        <time>2010-03-31T08:49:47Z</time>
      </trkpt>
      <trkpt lat="45.51146" lon="6.70478">
        <ele>2040</ele>
        <time>2010-03-31T08:49:50Z</time>
      </trkpt>
      <trkpt lat="45.51135" lon="6.70466">
        <ele>2037</ele>
        <time>2010-03-31T08:49:54Z</time>
      </trkpt>
      <trkpt lat="45.51136" lon="6.70453">
        <ele>2036</ele>
        <time>2010-03-31T08:49:56Z</time>
      </trkpt>
      <trkpt lat="45.51133" lon="6.7043">
        <ele>2034</ele>
        <time>2010-03-31T08:49:59Z</time>
      </trkpt>
      <trkpt lat="45.5114" lon="6.70402">
        <ele>2021</ele>
        <time>2010-03-31T08:50:02Z</time>
      </trkpt>
      <trkpt lat="45.51152" lon="6.70371">
        <ele>2017</ele>
        <time>2010-03-31T08:50:05Z</time>
      </trkpt>
      <trkpt lat="45.51161" lon="6.70369">
        <ele>2016</ele>
        <time>2010-03-31T08:50:07Z</time>
      </trkpt>
      <trkpt lat="45.51162" lon="6.70371">
        <ele>2017</ele>
        <time>2010-03-31T08:50:10Z</time>
      </trkpt>
      <trkpt lat="45.51163" lon="6.70371">
        <ele>2017</ele>
        <time>2010-03-31T08:50:19Z</time>
      </trkpt>
      <trkpt lat="45.51164" lon="6.70369">
        <ele>2017</ele>
        <time>2010-03-31T08:51:02Z</time>
      </trkpt>
      <trkpt lat="45.51165" lon="6.70364">
        <ele>2016</ele>
        <time>2010-03-31T08:51:39Z</time>
      </trkpt>
      <trkpt lat="45.51164" lon="6.70362">
        <ele>2015</ele>
        <time>2010-03-31T08:51:40Z</time>
      </trkpt>
      <trkpt lat="45.5116" lon="6.70348">
        <ele>2013</ele>
        <time>2010-03-31T08:51:44Z</time>
      </trkpt>
      <trkpt lat="45.51162" lon="6.70346">
        <ele>2012</ele>
        <time>2010-03-31T08:51:45Z</time>
      </trkpt>
      <trkpt lat="45.5117" lon="6.70342">
        <ele>2014</ele>
        <time>2010-03-31T08:51:48Z</time>
      </trkpt>
      <trkpt lat="45.51172" lon="6.70329">
        <ele>2008</ele>
        <time>2010-03-31T08:51:51Z</time>
      </trkpt>
      <trkpt lat="45.51171" lon="6.70309">
        <ele>2006</ele>
        <time>2010-03-31T08:51:53Z</time>
      </trkpt>
      <trkpt lat="45.51186" lon="6.70268">
        <ele>2000</ele>
        <time>2010-03-31T08:51:57Z</time>
      </trkpt>
      <trkpt lat="45.512" lon="6.70235">
        <ele>1989</ele>
        <time>2010-03-31T08:52:00Z</time>
      </trkpt>
      <trkpt lat="45.51216" lon="6.70198">
        <ele>1985</ele>
        <time>2010-03-31T08:52:03Z</time>
      </trkpt>
      <trkpt lat="45.51232" lon="6.70163">
        <ele>1973</ele>
        <time>2010-03-31T08:52:06Z</time>
      </trkpt>
      <trkpt lat="45.51239" lon="6.7015">
        <ele>1972</ele>
        <time>2010-03-31T08:52:08Z</time>
      </trkpt>
      <trkpt lat="45.51241" lon="6.7014">
        <ele>1970</ele>
        <time>2010-03-31T08:52:10Z</time>
      </trkpt>
      <trkpt lat="45.51246" lon="6.7013">
        <ele>1968</ele>
        <time>2010-03-31T08:52:15Z</time>
      </trkpt>
      <trkpt lat="45.51247" lon="6.70129">
        <ele>1968</ele>
        <time>2010-03-31T08:52:24Z</time>
      </trkpt>
      <trkpt lat="45.51246" lon="6.70131">
        <ele>1969</ele>
        <time>2010-03-31T08:53:10Z</time>
      </trkpt>
      <trkpt lat="45.51245" lon="6.70129">
        <ele>1968</ele>
        <time>2010-03-31T08:53:25Z</time>
      </trkpt>
      <trkpt lat="45.51245" lon="6.70127">
        <ele>1968</ele>
        <time>2010-03-31T08:53:26Z</time>
      </trkpt>
      <trkpt lat="45.51239" lon="6.70107">
        <ele>1964</ele>
        <time>2010-03-31T08:53:30Z</time>
      </trkpt>
      <trkpt lat="45.5124" lon="6.70076">
        <ele>1955</ele>
        <time>2010-03-31T08:53:33Z</time>
      </trkpt>
      <trkpt lat="45.51241" lon="6.70025">
        <ele>1950</ele>
        <time>2010-03-31T08:53:37Z</time>
      </trkpt>
      <trkpt lat="45.51235" lon="6.69999">
        <ele>1944</ele>
        <time>2010-03-31T08:53:39Z</time>
      </trkpt>
      <trkpt lat="45.51227" lon="6.69974">
        <ele>1943</ele>
        <time>2010-03-31T08:53:41Z</time>
      </trkpt>
      <trkpt lat="45.5121" lon="6.69925">
        <ele>1941</ele>
        <time>2010-03-31T08:53:45Z</time>
      </trkpt>
      <trkpt lat="45.512" lon="6.69894">
        <ele>1937</ele>
        <time>2010-03-31T08:53:48Z</time>
      </trkpt>
      <trkpt lat="45.51198" lon="6.69876">
        <ele>1937</ele>
        <time>2010-03-31T08:53:51Z</time>
      </trkpt>
      <trkpt lat="45.51197" lon="6.69858">
        <ele>1936</ele>
        <time>2010-03-31T08:53:55Z</time>
      </trkpt>
      <trkpt lat="45.51196" lon="6.69856">
        <ele>1936</ele>
        <time>2010-03-31T08:53:57Z</time>
      </trkpt>
      <trkpt lat="45.51192" lon="6.69852">
        <ele>1936</ele>
        <time>2010-03-31T08:54:03Z</time>
      </trkpt>
      <trkpt lat="45.51191" lon="6.69851">
        <ele>1936</ele>
        <time>2010-03-31T08:54:04Z</time>
      </trkpt>
      <trkpt lat="45.51184" lon="6.69845">
        <ele>1937</ele>
        <time>2010-03-31T08:54:11Z</time>
      </trkpt>
      <trkpt lat="45.51181" lon="6.69845">
        <ele>1937</ele>
        <time>2010-03-31T08:54:16Z</time>
      </trkpt>
      <trkpt lat="45.51178" lon="6.69843">
        <ele>1937</ele>
        <time>2010-03-31T08:54:29Z</time>
      </trkpt>
      <trkpt lat="45.51174" lon="6.69841">
        <ele>1937</ele>
        <time>2010-03-31T08:54:34Z</time>
      </trkpt>
      <trkpt lat="45.51171" lon="6.69841">
        <ele>1937</ele>
        <time>2010-03-31T08:54:37Z</time>
      </trkpt>
      <trkpt lat="45.51167" lon="6.69839">
        <ele>1937</ele>
        <time>2010-03-31T08:54:43Z</time>
      </trkpt>
      <trkpt lat="45.51164" lon="6.69841">
        <ele>1939</ele>
        <time>2010-03-31T08:54:52Z</time>
      </trkpt>
      <trkpt lat="45.51163" lon="6.69844">
        <ele>1940</ele>
        <time>2010-03-31T08:54:58Z</time>
      </trkpt>
      <trkpt lat="45.51157" lon="6.69832">
        <ele>1940</ele>
        <time>2010-03-31T08:55:06Z</time>
      </trkpt>
      <trkpt lat="45.51151" lon="6.69829">
        <ele>1941</ele>
        <time>2010-03-31T08:55:11Z</time>
      </trkpt>
      <trkpt lat="45.51135" lon="6.69847">
        <ele>1943</ele>
        <time>2010-03-31T08:55:15Z</time>
      </trkpt>
      <trkpt lat="45.51122" lon="6.69861">
        <ele>1944</ele>
        <time>2010-03-31T08:55:19Z</time>
      </trkpt>
      <trkpt lat="45.51099" lon="6.69877">
        <ele>1946</ele>
        <time>2010-03-31T08:55:25Z</time>
      </trkpt>
      <trkpt lat="45.51076" lon="6.69891">
        <ele>1956</ele>
        <time>2010-03-31T08:55:31Z</time>
      </trkpt>
      <trkpt lat="45.51054" lon="6.69905">
        <ele>1958</ele>
        <time>2010-03-31T08:55:37Z</time>
      </trkpt>
      <trkpt lat="45.51033" lon="6.69916">
        <ele>1962</ele>
        <time>2010-03-31T08:55:42Z</time>
      </trkpt>
      <trkpt lat="45.5101" lon="6.6993">
        <ele>1965</ele>
        <time>2010-03-31T08:55:48Z</time>
      </trkpt>
      <trkpt lat="45.50971" lon="6.69953">
        <ele>1978</ele>
        <time>2010-03-31T08:55:58Z</time>
      </trkpt>
      <trkpt lat="45.50951" lon="6.69965">
        <ele>1980</ele>
        <time>2010-03-31T08:56:03Z</time>
      </trkpt>
      <trkpt lat="45.50928" lon="6.69978">
        <ele>1983</ele>
        <time>2010-03-31T08:56:09Z</time>
      </trkpt>
      <trkpt lat="45.509" lon="6.69995">
        <ele>1996</ele>
        <time>2010-03-31T08:56:16Z</time>
      </trkpt>
      <trkpt lat="45.50857" lon="6.7002">
        <ele>2005</ele>
        <time>2010-03-31T08:56:27Z</time>
      </trkpt>
      <trkpt lat="45.50815" lon="6.70046">
        <ele>2023</ele>
        <time>2010-03-31T08:56:38Z</time>
      </trkpt>
      <trkpt lat="45.50792" lon="6.7006">
        <ele>2026</ele>
        <time>2010-03-31T08:56:44Z</time>
      </trkpt>
      <trkpt lat="45.50756" lon="6.7008">
        <ele>2032</ele>
        <time>2010-03-31T08:56:53Z</time>
      </trkpt>
      <trkpt lat="45.50725" lon="6.70098">
        <ele>2037</ele>
        <time>2010-03-31T08:57:01Z</time>
      </trkpt>
      <trkpt lat="45.50701" lon="6.70112">
        <ele>2039</ele>
        <time>2010-03-31T08:57:07Z</time>
      </trkpt>
      <trkpt lat="45.50673" lon="6.70128">
        <ele>2041</ele>
        <time>2010-03-31T08:57:14Z</time>
      </trkpt>
      <trkpt lat="45.50641" lon="6.70145">
        <ele>2054</ele>
        <time>2010-03-31T08:57:22Z</time>
      </trkpt>
      <trkpt lat="45.50602" lon="6.70168">
        <ele>2056</ele>
        <time>2010-03-31T08:57:32Z</time>
      </trkpt>
      <trkpt lat="45.50562" lon="6.70192">
        <ele>2067</ele>
        <time>2010-03-31T08:57:42Z</time>
      </trkpt>
      <trkpt lat="45.50507" lon="6.70221">
        <ele>2071</ele>
        <time>2010-03-31T08:57:56Z</time>
      </trkpt>
      <trkpt lat="45.50464" lon="6.70246">
        <ele>2090</ele>
        <time>2010-03-31T08:58:07Z</time>
      </trkpt>
      <trkpt lat="45.50421" lon="6.70271">
        <ele>2092</ele>
        <time>2010-03-31T08:58:18Z</time>
      </trkpt>
      <trkpt lat="45.50382" lon="6.70295">
        <ele>2107</ele>
        <time>2010-03-31T08:58:28Z</time>
      </trkpt>
      <trkpt lat="45.50336" lon="6.70322">
        <ele>2113</ele>
        <time>2010-03-31T08:58:40Z</time>
      </trkpt>
      <trkpt lat="45.50313" lon="6.70336">
        <ele>2120</ele>
        <time>2010-03-31T08:58:46Z</time>
      </trkpt>
      <trkpt lat="45.5027" lon="6.70361">
        <ele>2126</ele>
        <time>2010-03-31T08:58:57Z</time>
      </trkpt>
      <trkpt lat="45.50259" lon="6.70368">
        <ele>2127</ele>
        <time>2010-03-31T08:59:00Z</time>
      </trkpt>
      <trkpt lat="45.50228" lon="6.70386">
        <ele>2145</ele>
        <time>2010-03-31T08:59:08Z</time>
      </trkpt>
      <trkpt lat="45.50197" lon="6.70405">
        <ele>2150</ele>
        <time>2010-03-31T08:59:16Z</time>
      </trkpt>
      <trkpt lat="45.50158" lon="6.70428">
        <ele>2161</ele>
        <time>2010-03-31T08:59:26Z</time>
      </trkpt>
      <trkpt lat="45.50134" lon="6.70442">
        <ele>2163</ele>
        <time>2010-03-31T08:59:32Z</time>
      </trkpt>
      <trkpt lat="45.50087" lon="6.7047">
        <ele>2166</ele>
        <time>2010-03-31T08:59:44Z</time>
      </trkpt>
      <trkpt lat="45.50041" lon="6.70497">
        <ele>2182</ele>
        <time>2010-03-31T08:59:56Z</time>
      </trkpt>
      <trkpt lat="45.50017" lon="6.70511">
        <ele>2187</ele>
        <time>2010-03-31T09:00:02Z</time>
      </trkpt>
      <trkpt lat="45.49974" lon="6.70536">
        <ele>2204</ele>
        <time>2010-03-31T09:00:13Z</time>
      </trkpt>
      <trkpt lat="45.49931" lon="6.70561">
        <ele>2209</ele>
        <time>2010-03-31T09:00:24Z</time>
      </trkpt>
      <trkpt lat="45.49912" lon="6.70572">
        <ele>2219</ele>
        <time>2010-03-31T09:00:29Z</time>
      </trkpt>
      <trkpt lat="45.49871" lon="6.70595">
        <ele>2222</ele>
        <time>2010-03-31T09:00:39Z</time>
      </trkpt>
      <trkpt lat="45.49828" lon="6.7062">
        <ele>2230</ele>
        <time>2010-03-31T09:00:50Z</time>
      </trkpt>
      <trkpt lat="45.49812" lon="6.70629">
        <ele>2230</ele>
        <time>2010-03-31T09:00:54Z</time>
      </trkpt>
      <trkpt lat="45.49776" lon="6.7065">
        <ele>2231</ele>
        <time>2010-03-31T09:01:03Z</time>
      </trkpt>
      <trkpt lat="45.49756" lon="6.70661">
        <ele>2232</ele>
        <time>2010-03-31T09:01:08Z</time>
      </trkpt>
      <trkpt lat="45.49728" lon="6.70677">
        <ele>2236</ele>
        <time>2010-03-31T09:01:15Z</time>
      </trkpt>
      <trkpt lat="45.49696" lon="6.70697">
        <ele>2240</ele>
        <time>2010-03-31T09:01:23Z</time>
      </trkpt>
      <trkpt lat="45.49655" lon="6.7072">
        <ele>2247</ele>
        <time>2010-03-31T09:01:33Z</time>
      </trkpt>
      <trkpt lat="45.49603" lon="6.7075">
        <ele>2249</ele>
        <time>2010-03-31T09:01:46Z</time>
      </trkpt>
      <trkpt lat="45.49555" lon="6.70775">
        <ele>2254</ele>
        <time>2010-03-31T09:01:58Z</time>
      </trkpt>
      <trkpt lat="45.49507" lon="6.70801">
        <ele>2256</ele>
        <time>2010-03-31T09:02:10Z</time>
      </trkpt>
      <trkpt lat="45.49468" lon="6.70823">
        <ele>2269</ele>
        <time>2010-03-31T09:02:20Z</time>
      </trkpt>
      <trkpt lat="45.4943" lon="6.70846">
        <ele>2281</ele>
        <time>2010-03-31T09:02:30Z</time>
      </trkpt>
      <trkpt lat="45.49392" lon="6.70869">
        <ele>2303</ele>
        <time>2010-03-31T09:02:40Z</time>
      </trkpt>
      <trkpt lat="45.49355" lon="6.7089">
        <ele>2313</ele>
        <time>2010-03-31T09:02:50Z</time>
      </trkpt>
      <trkpt lat="45.49318" lon="6.70911">
        <ele>2332</ele>
        <time>2010-03-31T09:03:00Z</time>
      </trkpt>
      <trkpt lat="45.49286" lon="6.70931">
        <ele>2347</ele>
        <time>2010-03-31T09:03:09Z</time>
      </trkpt>
      <trkpt lat="45.49267" lon="6.70943">
        <ele>2349</ele>
        <time>2010-03-31T09:03:14Z</time>
      </trkpt>
      <trkpt lat="45.49255" lon="6.70952">
        <ele>2350</ele>
        <time>2010-03-31T09:03:17Z</time>
      </trkpt>
      <trkpt lat="45.49248" lon="6.7096">
        <ele>2356</ele>
        <time>2010-03-31T09:03:22Z</time>
      </trkpt>
      <trkpt lat="45.49241" lon="6.70962">
        <ele>2356</ele>
        <time>2010-03-31T09:03:27Z</time>
      </trkpt>
      <trkpt lat="45.49233" lon="6.70961">
        <ele>2356</ele>
        <time>2010-03-31T09:03:31Z</time>
      </trkpt>
      <trkpt lat="45.49229" lon="6.70959">
        <ele>2356</ele>
        <time>2010-03-31T09:03:37Z</time>
      </trkpt>
      <trkpt lat="45.49226" lon="6.70957">
        <ele>2356</ele>
        <time>2010-03-31T09:03:41Z</time>
      </trkpt>
      <trkpt lat="45.49227" lon="6.70957">
        <ele>2356</ele>
        <time>2010-03-31T09:03:51Z</time>
      </trkpt>
      <trkpt lat="45.49226" lon="6.70954">
        <ele>2356</ele>
        <time>2010-03-31T09:04:01Z</time>
      </trkpt>
      <trkpt lat="45.49225" lon="6.70955">
        <ele>2356</ele>
        <time>2010-03-31T09:04:05Z</time>
      </trkpt>
      <trkpt lat="45.49222" lon="6.70957">
        <ele>2356</ele>
        <time>2010-03-31T09:04:13Z</time>
      </trkpt>
      <trkpt lat="45.49219" lon="6.70958">
        <ele>2356</ele>
        <time>2010-03-31T09:04:15Z</time>
      </trkpt>
      <trkpt lat="45.49207" lon="6.7096">
        <ele>2357</ele>
        <time>2010-03-31T09:04:25Z</time>
      </trkpt>
      <trkpt lat="45.49205" lon="6.7096">
        <ele>2357</ele>
        <time>2010-03-31T09:04:26Z</time>
      </trkpt>
      <trkpt lat="45.49199" lon="6.70967">
        <ele>2357</ele>
        <time>2010-03-31T09:04:33Z</time>
      </trkpt>
      <trkpt lat="45.492" lon="6.70965">
        <ele>2357</ele>
        <time>2010-03-31T09:04:44Z</time>
      </trkpt>
      <trkpt lat="45.49199" lon="6.70963">
        <ele>2357</ele>
        <time>2010-03-31T09:05:01Z</time>
      </trkpt>
      <trkpt lat="45.49198" lon="6.70964">
        <ele>2357</ele>
        <time>2010-03-31T09:05:08Z</time>
      </trkpt>
      <trkpt lat="45.49195" lon="6.70965">
        <ele>2357</ele>
        <time>2010-03-31T09:05:15Z</time>
      </trkpt>
      <trkpt lat="45.49191" lon="6.70967">
        <ele>2357</ele>
        <time>2010-03-31T09:05:22Z</time>
      </trkpt>
      <trkpt lat="45.49186" lon="6.70972">
        <ele>2358</ele>
        <time>2010-03-31T09:05:27Z</time>
      </trkpt>
      <trkpt lat="45.49169" lon="6.70977">
        <ele>2358</ele>
        <time>2010-03-31T09:05:33Z</time>
      </trkpt>
      <trkpt lat="45.49141" lon="6.70989">
        <ele>2355</ele>
        <time>2010-03-31T09:05:39Z</time>
      </trkpt>
      <trkpt lat="45.49108" lon="6.71008">
        <ele>2352</ele>
        <time>2010-03-31T09:05:45Z</time>
      </trkpt>
      <trkpt lat="45.49094" lon="6.71011">
        <ele>2352</ele>
        <time>2010-03-31T09:05:48Z</time>
      </trkpt>
      <trkpt lat="45.49084" lon="6.71017">
        <ele>2351</ele>
        <time>2010-03-31T09:05:50Z</time>
      </trkpt>
      <trkpt lat="45.49063" lon="6.71019">
        <ele>2341</ele>
        <time>2010-03-31T09:05:54Z</time>
      </trkpt>
      <trkpt lat="45.49051" lon="6.7102">
        <ele>2338</ele>
        <time>2010-03-31T09:05:57Z</time>
      </trkpt>
      <trkpt lat="45.49033" lon="6.71017">
        <ele>2334</ele>
        <time>2010-03-31T09:06:01Z</time>
      </trkpt>
      <trkpt lat="45.49027" lon="6.71013">
        <ele>2333</ele>
        <time>2010-03-31T09:06:03Z</time>
      </trkpt>
      <trkpt lat="45.49019" lon="6.71014">
        <ele>2331</ele>
        <time>2010-03-31T09:06:06Z</time>
      </trkpt>
      <trkpt lat="45.49008" lon="6.71012">
        <ele>2327</ele>
        <time>2010-03-31T09:06:09Z</time>
      </trkpt>
      <trkpt lat="45.48996" lon="6.71017">
        <ele>2318</ele>
        <time>2010-03-31T09:06:12Z</time>
      </trkpt>
      <trkpt lat="45.48987" lon="6.7102">
        <ele>2317</ele>
        <time>2010-03-31T09:06:15Z</time>
      </trkpt>
      <trkpt lat="45.48986" lon="6.71022">
        <ele>2317</ele>
        <time>2010-03-31T09:06:19Z</time>
      </trkpt>
      <trkpt lat="45.48987" lon="6.71023">
        <ele>2317</ele>
        <time>2010-03-31T09:06:27Z</time>
      </trkpt>
      <trkpt lat="45.48987" lon="6.71023">
        <ele>2317</ele>
        <time>2010-03-31T09:06:29Z</time>
      </trkpt>
      <trkpt lat="45.48976" lon="6.71025">
        <ele>2316</ele>
        <time>2010-03-31T09:06:32Z</time>
      </trkpt>
      <trkpt lat="45.4894" lon="6.71021">
        <ele>2312</ele>
        <time>2010-03-31T09:06:36Z</time>
      </trkpt>
      <trkpt lat="45.48931" lon="6.71016">
        <ele>2310</ele>
        <time>2010-03-31T09:06:37Z</time>
      </trkpt>
      <trkpt lat="45.48916" lon="6.71005">
        <ele>2305</ele>
        <time>2010-03-31T09:06:39Z</time>
      </trkpt>
      <trkpt lat="45.48902" lon="6.70982">
        <ele>2306</ele>
        <time>2010-03-31T09:06:43Z</time>
      </trkpt>
      <trkpt lat="45.48899" lon="6.70968">
        <ele>2306</ele>
        <time>2010-03-31T09:06:46Z</time>
      </trkpt>
      <trkpt lat="45.48899" lon="6.70961">
        <ele>2306</ele>
        <time>2010-03-31T09:06:48Z</time>
      </trkpt>
      <trkpt lat="45.48901" lon="6.70942">
        <ele>2306</ele>
        <time>2010-03-31T09:06:54Z</time>
      </trkpt>
      <trkpt lat="45.48907" lon="6.70922">
        <ele>2305</ele>
        <time>2010-03-31T09:07:02Z</time>
      </trkpt>
      <trkpt lat="45.4891" lon="6.70912">
        <ele>2303</ele>
        <time>2010-03-31T09:07:09Z</time>
      </trkpt>
      <trkpt lat="45.48915" lon="6.70897">
        <ele>2301</ele>
        <time>2010-03-31T09:07:17Z</time>
      </trkpt>
      <trkpt lat="45.48917" lon="6.70888">
        <ele>2296</ele>
        <time>2010-03-31T09:07:23Z</time>
      </trkpt>
      <trkpt lat="45.48925" lon="6.70876">
        <ele>2294</ele>
        <time>2010-03-31T09:07:27Z</time>
      </trkpt>
      <trkpt lat="45.48928" lon="6.70871">
        <ele>2293</ele>
        <time>2010-03-31T09:07:28Z</time>
      </trkpt>
      <trkpt lat="45.48926" lon="6.70847">
        <ele>2289</ele>
        <time>2010-03-31T09:07:31Z</time>
      </trkpt>
      <trkpt lat="45.48924" lon="6.7084">
        <ele>2288</ele>
        <time>2010-03-31T09:07:32Z</time>
      </trkpt>
      <trkpt lat="45.48911" lon="6.7081">
        <ele>2279</ele>
        <time>2010-03-31T09:07:36Z</time>
      </trkpt>
      <trkpt lat="45.48909" lon="6.70792">
        <ele>2276</ele>
        <time>2010-03-31T09:07:38Z</time>
      </trkpt>
      <trkpt lat="45.48901" lon="6.70769">
        <ele>2272</ele>
        <time>2010-03-31T09:07:40Z</time>
      </trkpt>
      <trkpt lat="45.48859" lon="6.70702">
        <ele>2257</ele>
        <time>2010-03-31T09:07:45Z</time>
      </trkpt>
      <trkpt lat="45.48823" lon="6.70649">
        <ele>2247</ele>
        <time>2010-03-31T09:07:49Z</time>
      </trkpt>
      <trkpt lat="45.48786" lon="6.70597">
        <ele>2242</ele>
        <time>2010-03-31T09:07:54Z</time>
      </trkpt>
      <trkpt lat="45.48765" lon="6.70571">
        <ele>2233</ele>
        <time>2010-03-31T09:07:57Z</time>
      </trkpt>
      <trkpt lat="45.48738" lon="6.70551">
        <ele>2231</ele>
        <time>2010-03-31T09:08:01Z</time>
      </trkpt>
      <trkpt lat="45.48695" lon="6.70527">
        <ele>2229</ele>
        <time>2010-03-31T09:08:08Z</time>
      </trkpt>
      <trkpt lat="45.48681" lon="6.70518">
        <ele>2228</ele>
        <time>2010-03-31T09:08:11Z</time>
      </trkpt>
      <trkpt lat="45.48674" lon="6.70513">
        <ele>2227</ele>
        <time>2010-03-31T09:08:13Z</time>
      </trkpt>
      <trkpt lat="45.48666" lon="6.70508">
        <ele>2228</ele>
        <time>2010-03-31T09:08:15Z</time>
      </trkpt>
      <trkpt lat="45.48656" lon="6.70503">
        <ele>2228</ele>
        <time>2010-03-31T09:08:18Z</time>
      </trkpt>
      <trkpt lat="45.48642" lon="6.70497">
        <ele>2223</ele>
        <time>2010-03-31T09:08:23Z</time>
      </trkpt>
      <trkpt lat="45.48635" lon="6.70485">
        <ele>2223</ele>
        <time>2010-03-31T09:08:26Z</time>
      </trkpt>
      <trkpt lat="45.48624" lon="6.70443">
        <ele>2220</ele>
        <time>2010-03-31T09:08:31Z</time>
      </trkpt>
      <trkpt lat="45.4862" lon="6.70412">
        <ele>2212</ele>
        <time>2010-03-31T09:08:34Z</time>
      </trkpt>
      <trkpt lat="45.48623" lon="6.70373">
        <ele>2211</ele>
        <time>2010-03-31T09:08:38Z</time>
      </trkpt>
      <trkpt lat="45.48626" lon="6.70365">
        <ele>2210</ele>
        <time>2010-03-31T09:08:39Z</time>
      </trkpt>
      <trkpt lat="45.48638" lon="6.70341">
        <ele>2209</ele>
        <time>2010-03-31T09:08:44Z</time>
      </trkpt>
      <trkpt lat="45.4864" lon="6.70336">
        <ele>2209</ele>
        <time>2010-03-31T09:08:49Z</time>
      </trkpt>
      <trkpt lat="45.48637" lon="6.70301">
        <ele>2201</ele>
        <time>2010-03-31T09:08:54Z</time>
      </trkpt>
      <trkpt lat="45.48637" lon="6.70292">
        <ele>2200</ele>
        <time>2010-03-31T09:08:55Z</time>
      </trkpt>
      <trkpt lat="45.48639" lon="6.7028">
        <ele>2199</ele>
        <time>2010-03-31T09:08:58Z</time>
      </trkpt>
      <trkpt lat="45.48639" lon="6.7028">
        <ele>2199</ele>
        <time>2010-03-31T09:09:41Z</time>
      </trkpt>
      <trkpt lat="45.48627" lon="6.70267">
        <ele>2198</ele>
        <time>2010-03-31T09:09:46Z</time>
      </trkpt>
      <trkpt lat="45.48623" lon="6.70264">
        <ele>2198</ele>
        <time>2010-03-31T09:09:47Z</time>
      </trkpt>
      <trkpt lat="45.48622" lon="6.70243">
        <ele>2188</ele>
        <time>2010-03-31T09:09:50Z</time>
      </trkpt>
      <trkpt lat="45.48625" lon="6.70223">
        <ele>2187</ele>
        <time>2010-03-31T09:09:53Z</time>
      </trkpt>
      <trkpt lat="45.48625" lon="6.70211">
        <ele>2185</ele>
        <time>2010-03-31T09:09:55Z</time>
      </trkpt>
      <trkpt lat="45.48626" lon="6.70206">
        <ele>2185</ele>
        <time>2010-03-31T09:09:57Z</time>
      </trkpt>
      <trkpt lat="45.48628" lon="6.70191">
        <ele>2184</ele>
        <time>2010-03-31T09:10:01Z</time>
      </trkpt>
      <trkpt lat="45.48629" lon="6.70187">
        <ele>2183</ele>
        <time>2010-03-31T09:10:03Z</time>
      </trkpt>
      <trkpt lat="45.48617" lon="6.70183">
        <ele>2183</ele>
        <time>2010-03-31T09:10:07Z</time>
      </trkpt>
      <trkpt lat="45.48608" lon="6.70173">
        <ele>2181</ele>
        <time>2010-03-31T09:10:09Z</time>
      </trkpt>
      <trkpt lat="45.48601" lon="6.70155">
        <ele>2171</ele>
        <time>2010-03-31T09:10:11Z</time>
      </trkpt>
      <trkpt lat="45.48582" lon="6.70124">
        <ele>2161</ele>
        <time>2010-03-31T09:10:14Z</time>
      </trkpt>
      <trkpt lat="45.48581" lon="6.70092">
        <ele>2159</ele>
        <time>2010-03-31T09:10:16Z</time>
      </trkpt>
      <trkpt lat="45.48575" lon="6.7006">
        <ele>2150</ele>
        <time>2010-03-31T09:10:18Z</time>
      </trkpt>
      <trkpt lat="45.48558" lon="6.70018">
        <ele>2144</ele>
        <time>2010-03-31T09:10:21Z</time>
      </trkpt>
      <trkpt lat="45.48545" lon="6.69983">
        <ele>2133</ele>
        <time>2010-03-31T09:10:24Z</time>
      </trkpt>
      <trkpt lat="45.48539" lon="6.69973">
        <ele>2132</ele>
        <time>2010-03-31T09:10:25Z</time>
      </trkpt>
      <trkpt lat="45.48528" lon="6.69958">
        <ele>2130</ele>
        <time>2010-03-31T09:10:27Z</time>
      </trkpt>
      <trkpt lat="45.48527" lon="6.69959">
        <ele>2130</ele>
        <time>2010-03-31T09:10:30Z</time>
      </trkpt>
      <trkpt lat="45.48529" lon="6.69961">
        <ele>2131</ele>
        <time>2010-03-31T09:10:35Z</time>
      </trkpt>
      <trkpt lat="45.4853" lon="6.69962">
        <ele>2131</ele>
        <time>2010-03-31T09:10:43Z</time>
      </trkpt>
      <trkpt lat="45.4853" lon="6.69962">
        <ele>2131</ele>
        <time>2010-03-31T09:10:53Z</time>
      </trkpt>
      <trkpt lat="45.48529" lon="6.69962">
        <ele>2131</ele>
        <time>2010-03-31T09:10:54Z</time>
      </trkpt>
      <trkpt lat="45.48518" lon="6.69945">
        <ele>2129</ele>
        <time>2010-03-31T09:10:58Z</time>
      </trkpt>
      <trkpt lat="45.48507" lon="6.69914">
        <ele>2119</ele>
        <time>2010-03-31T09:11:01Z</time>
      </trkpt>
      <trkpt lat="45.48493" lon="6.69883">
        <ele>2109</ele>
        <time>2010-03-31T09:11:04Z</time>
      </trkpt>
      <trkpt lat="45.48477" lon="6.69866">
        <ele>2105</ele>
        <time>2010-03-31T09:11:06Z</time>
      </trkpt>
      <trkpt lat="45.48468" lon="6.6984">
        <ele>2103</ele>
        <time>2010-03-31T09:11:08Z</time>
      </trkpt>
      <trkpt lat="45.48461" lon="6.6983">
        <ele>2092</ele>
        <time>2010-03-31T09:11:09Z</time>
      </trkpt>
      <trkpt lat="45.48442" lon="6.69807">
        <ele>2089</ele>
        <time>2010-03-31T09:11:11Z</time>
      </trkpt>
      <trkpt lat="45.48409" lon="6.69761">
        <ele>2079</ele>
        <time>2010-03-31T09:11:15Z</time>
      </trkpt>
      <trkpt lat="45.48383" lon="6.69726">
        <ele>2068</ele>
        <time>2010-03-31T09:11:18Z</time>
      </trkpt>
      <trkpt lat="45.48372" lon="6.69717">
        <ele>2066</ele>
        <time>2010-03-31T09:11:19Z</time>
      </trkpt>
      <trkpt lat="45.48315" lon="6.69672">
        <ele>2052</ele>
        <time>2010-03-31T09:11:24Z</time>
      </trkpt>
      <trkpt lat="45.48285" lon="6.69632">
        <ele>2041</ele>
        <time>2010-03-31T09:11:27Z</time>
      </trkpt>
      <trkpt lat="45.48257" lon="6.69595">
        <ele>2034</ele>
        <time>2010-03-31T09:11:30Z</time>
      </trkpt>
      <trkpt lat="45.48206" lon="6.69549">
        <ele>2020</ele>
        <time>2010-03-31T09:11:35Z</time>
      </trkpt>
      <trkpt lat="45.48187" lon="6.6953">
        <ele>2018</ele>
        <time>2010-03-31T09:11:37Z</time>
      </trkpt>
      <trkpt lat="45.48153" lon="6.69488">
        <ele>2007</ele>
        <time>2010-03-31T09:11:41Z</time>
      </trkpt>
      <trkpt lat="45.48142" lon="6.69477">
        <ele>2004</ele>
        <time>2010-03-31T09:11:43Z</time>
      </trkpt>
      <trkpt lat="45.48139" lon="6.69475">
        <ele>2004</ele>
        <time>2010-03-31T09:11:45Z</time>
      </trkpt>
      <trkpt lat="45.48137" lon="6.69473">
        <ele>2004</ele>
        <time>2010-03-31T09:11:48Z</time>
      </trkpt>
      <trkpt lat="45.48136" lon="6.69472">
        <ele>2003</ele>
        <time>2010-03-31T09:11:54Z</time>
      </trkpt>
      <trkpt lat="45.48135" lon="6.69472">
        <ele>2003</ele>
        <time>2010-03-31T09:12:04Z</time>
      </trkpt>
      <trkpt lat="45.48135" lon="6.69473">
        <ele>2003</ele>
        <time>2010-03-31T09:12:13Z</time>
      </trkpt>
      <trkpt lat="45.48137" lon="6.69475">
        <ele>2004</ele>
        <time>2010-03-31T09:12:22Z</time>
      </trkpt>
      <trkpt lat="45.48136" lon="6.69474">
        <ele>2004</ele>
        <time>2010-03-31T09:12:31Z</time>
      </trkpt>
      <trkpt lat="45.48135" lon="6.69473">
        <ele>2003</ele>
        <time>2010-03-31T09:12:32Z</time>
      </trkpt>
      <trkpt lat="45.48133" lon="6.69473">
        <ele>2003</ele>
        <time>2010-03-31T09:12:36Z</time>
      </trkpt>
      <trkpt lat="45.48125" lon="6.69458">
        <ele>2002</ele>
        <time>2010-03-31T09:12:40Z</time>
      </trkpt>
      <trkpt lat="45.48111" lon="6.69445">
        <ele>2000</ele>
        <time>2010-03-31T09:12:42Z</time>
      </trkpt>
      <trkpt lat="45.48095" lon="6.69427">
        <ele>1998</ele>
        <time>2010-03-31T09:12:44Z</time>
      </trkpt>
      <trkpt lat="45.48069" lon="6.69407">
        <ele>1988</ele>
        <time>2010-03-31T09:12:47Z</time>
      </trkpt>
      <trkpt lat="45.4804" lon="6.694">
        <ele>1982</ele>
        <time>2010-03-31T09:12:50Z</time>
      </trkpt>
      <trkpt lat="45.47989" lon="6.69382">
        <ele>1967</ele>
        <time>2010-03-31T09:12:55Z</time>
      </trkpt>
      <trkpt lat="45.47967" lon="6.6936">
        <ele>1964</ele>
        <time>2010-03-31T09:12:58Z</time>
      </trkpt>
      <trkpt lat="45.47944" lon="6.69342">
        <ele>1960</ele>
        <time>2010-03-31T09:13:01Z</time>
      </trkpt>
      <trkpt lat="45.47921" lon="6.69313">
        <ele>1952</ele>
        <time>2010-03-31T09:13:04Z</time>
      </trkpt>
      <trkpt lat="45.47882" lon="6.69305">
        <ele>1939</ele>
        <time>2010-03-31T09:13:08Z</time>
      </trkpt>
      <trkpt lat="45.47871" lon="6.69319">
        <ele>1938</ele>
        <time>2010-03-31T09:13:10Z</time>
      </trkpt>
      <trkpt lat="45.47833" lon="6.69342">
        <ele>1932</ele>
        <time>2010-03-31T09:13:14Z</time>
      </trkpt>
      <trkpt lat="45.47803" lon="6.69349">
        <ele>1933</ele>
        <time>2010-03-31T09:13:17Z</time>
      </trkpt>
      <trkpt lat="45.47799" lon="6.69346">
        <ele>1933</ele>
        <time>2010-03-31T09:13:18Z</time>
      </trkpt>
      <trkpt lat="45.47792" lon="6.69338">
        <ele>1932</ele>
        <time>2010-03-31T09:13:23Z</time>
      </trkpt>
      <trkpt lat="45.47793" lon="6.69336">
        <ele>1932</ele>
        <time>2010-03-31T09:13:30Z</time>
      </trkpt>
      <trkpt lat="45.47792" lon="6.69335">
        <ele>1931</ele>
        <time>2010-03-31T09:13:44Z</time>
      </trkpt>
      <trkpt lat="45.47792" lon="6.69334">
        <ele>1931</ele>
        <time>2010-03-31T09:13:50Z</time>
      </trkpt>
      <trkpt lat="45.47794" lon="6.6933">
        <ele>1924</ele>
        <time>2010-03-31T09:14:02Z</time>
      </trkpt>
      <trkpt lat="45.47796" lon="6.69311">
        <ele>1923</ele>
        <time>2010-03-31T09:14:06Z</time>
      </trkpt>
      <trkpt lat="45.47777" lon="6.69286">
        <ele>1920</ele>
        <time>2010-03-31T09:14:09Z</time>
      </trkpt>
      <trkpt lat="45.47762" lon="6.6926">
        <ele>1913</ele>
        <time>2010-03-31T09:14:12Z</time>
      </trkpt>
      <trkpt lat="45.47731" lon="6.69222">
        <ele>1900</ele>
        <time>2010-03-31T09:14:17Z</time>
      </trkpt>
      <trkpt lat="45.47709" lon="6.69177">
        <ele>1895</ele>
        <time>2010-03-31T09:14:21Z</time>
      </trkpt>
      <trkpt lat="45.47704" lon="6.69167">
        <ele>1883</ele>
        <time>2010-03-31T09:14:22Z</time>
      </trkpt>
      <trkpt lat="45.47688" lon="6.69136">
        <ele>1879</ele>
        <time>2010-03-31T09:14:25Z</time>
      </trkpt>
      <trkpt lat="45.47682" lon="6.69115">
        <ele>1875</ele>
        <time>2010-03-31T09:14:27Z</time>
      </trkpt>
      <trkpt lat="45.47672" lon="6.69082">
        <ele>1859</ele>
        <time>2010-03-31T09:14:30Z</time>
      </trkpt>
      <trkpt lat="45.47662" lon="6.69049">
        <ele>1852</ele>
        <time>2010-03-31T09:14:33Z</time>
      </trkpt>
      <trkpt lat="45.47659" lon="6.69027">
        <ele>1848</ele>
        <time>2010-03-31T09:14:35Z</time>
      </trkpt>
      <trkpt lat="45.47652" lon="6.69002">
        <ele>1844</ele>
        <time>2010-03-31T09:14:38Z</time>
      </trkpt>
      <trkpt lat="45.47655" lon="6.68994">
        <ele>1835</ele>
        <time>2010-03-31T09:14:40Z</time>
      </trkpt>
      <trkpt lat="45.47657" lon="6.68997">
        <ele>1836</ele>
        <time>2010-03-31T09:14:42Z</time>
      </trkpt>
      <trkpt lat="45.47657" lon="6.69002">
        <ele>1842</ele>
        <time>2010-03-31T09:14:51Z</time>
      </trkpt>
      <trkpt lat="45.47658" lon="6.68999">
        <ele>1836</ele>
        <time>2010-03-31T09:14:58Z</time>
      </trkpt>
      <trkpt lat="45.47662" lon="6.68993">
        <ele>1836</ele>
        <time>2010-03-31T09:15:04Z</time>
      </trkpt>
      <trkpt lat="45.47671" lon="6.68982">
        <ele>1838</ele>
        <time>2010-03-31T09:15:10Z</time>
      </trkpt>
      <trkpt lat="45.47678" lon="6.68985">
        <ele>1838</ele>
        <time>2010-03-31T09:15:15Z</time>
      </trkpt>
      <trkpt lat="45.47677" lon="6.68989">
        <ele>1838</ele>
        <time>2010-03-31T09:15:22Z</time>
      </trkpt>
      <trkpt lat="45.47672" lon="6.68991">
        <ele>1838</ele>
        <time>2010-03-31T09:15:29Z</time>
      </trkpt>
      <trkpt lat="45.4767" lon="6.68993">
        <ele>1838</ele>
        <time>2010-03-31T09:15:34Z</time>
      </trkpt>
      <trkpt lat="45.47669" lon="6.68996">
        <ele>1838</ele>
        <time>2010-03-31T09:15:41Z</time>
      </trkpt>
      <trkpt lat="45.47669" lon="6.68998">
        <ele>1838</ele>
        <time>2010-03-31T09:15:46Z</time>
      </trkpt>
      <trkpt lat="45.47672" lon="6.69001">
        <ele>1841</ele>
        <time>2010-03-31T09:15:58Z</time>
      </trkpt>
      <trkpt lat="45.47672" lon="6.69002">
        <ele>1842</ele>
        <time>2010-03-31T09:16:04Z</time>
      </trkpt>
      <trkpt lat="45.47673" lon="6.69002">
        <ele>1843</ele>
        <time>2010-03-31T09:16:12Z</time>
      </trkpt>
      <trkpt lat="45.47674" lon="6.68998">
        <ele>1838</ele>
        <time>2010-03-31T09:16:28Z</time>
      </trkpt>
      <trkpt lat="45.47677" lon="6.68998">
        <ele>1838</ele>
        <time>2010-03-31T09:17:15Z</time>
      </trkpt>
      <trkpt lat="45.4768" lon="6.68999">
        <ele>1839</ele>
        <time>2010-03-31T09:18:19Z</time>
      </trkpt>
      <trkpt lat="45.47681" lon="6.68997">
        <ele>1839</ele>
        <time>2010-03-31T09:18:25Z</time>
      </trkpt>
      <trkpt lat="45.47683" lon="6.68994">
        <ele>1839</ele>
        <time>2010-03-31T09:18:31Z</time>
      </trkpt>
      <trkpt lat="45.47684" lon="6.68992">
        <ele>1839</ele>
        <time>2010-03-31T09:18:37Z</time>
      </trkpt>
      <trkpt lat="45.47692" lon="6.68987">
        <ele>1839</ele>
        <time>2010-03-31T09:18:42Z</time>
      </trkpt>
      <trkpt lat="45.47697" lon="6.68981">
        <ele>1839</ele>
        <time>2010-03-31T09:18:45Z</time>
      </trkpt>
      <trkpt lat="45.47701" lon="6.68975">
        <ele>1839</ele>
        <time>2010-03-31T09:18:48Z</time>
      </trkpt>
      <trkpt lat="45.47708" lon="6.68968">
        <ele>1839</ele>
        <time>2010-03-31T09:18:52Z</time>
      </trkpt>
      <trkpt lat="45.47714" lon="6.6896">
        <ele>1839</ele>
        <time>2010-03-31T09:18:56Z</time>
      </trkpt>
      <trkpt lat="45.4772" lon="6.68953">
        <ele>1839</ele>
        <time>2010-03-31T09:19:00Z</time>
      </trkpt>
      <trkpt lat="45.47726" lon="6.68946">
        <ele>1839</ele>
        <time>2010-03-31T09:19:04Z</time>
      </trkpt>
      <trkpt lat="45.47736" lon="6.68936">
        <ele>1839</ele>
        <time>2010-03-31T09:19:10Z</time>
      </trkpt>
      <trkpt lat="45.47749" lon="6.68921">
        <ele>1839</ele>
        <time>2010-03-31T09:19:19Z</time>
      </trkpt>
      <trkpt lat="45.47755" lon="6.68914">
        <ele>1845</ele>
        <time>2010-03-31T09:19:23Z</time>
      </trkpt>
      <trkpt lat="45.4776" lon="6.68906">
        <ele>1852</ele>
        <time>2010-03-31T09:19:27Z</time>
      </trkpt>
      <trkpt lat="45.47772" lon="6.68892">
        <ele>1860</ele>
        <time>2010-03-31T09:19:35Z</time>
      </trkpt>
      <trkpt lat="45.47782" lon="6.68881">
        <ele>1865</ele>
        <time>2010-03-31T09:19:41Z</time>
      </trkpt>
      <trkpt lat="45.47789" lon="6.68873">
        <ele>1867</ele>
        <time>2010-03-31T09:19:46Z</time>
      </trkpt>
      <trkpt lat="45.47798" lon="6.68863">
        <ele>1870</ele>
        <time>2010-03-31T09:19:52Z</time>
      </trkpt>
      <trkpt lat="45.47806" lon="6.68854">
        <ele>1873</ele>
        <time>2010-03-31T09:19:58Z</time>
      </trkpt>
      <trkpt lat="45.47811" lon="6.68848">
        <ele>1876</ele>
        <time>2010-03-31T09:20:02Z</time>
      </trkpt>
      <trkpt lat="45.47824" lon="6.68836">
        <ele>1884</ele>
        <time>2010-03-31T09:20:11Z</time>
      </trkpt>
      <trkpt lat="45.47836" lon="6.68822">
        <ele>1904</ele>
        <time>2010-03-31T09:20:21Z</time>
      </trkpt>
      <trkpt lat="45.47846" lon="6.68809">
        <ele>1913</ele>
        <time>2010-03-31T09:20:29Z</time>
      </trkpt>
      <trkpt lat="45.47855" lon="6.68798">
        <ele>1918</ele>
        <time>2010-03-31T09:20:36Z</time>
      </trkpt>
      <trkpt lat="45.47859" lon="6.68794">
        <ele>1920</ele>
        <time>2010-03-31T09:20:39Z</time>
      </trkpt>
      <trkpt lat="45.47869" lon="6.68781">
        <ele>1924</ele>
        <time>2010-03-31T09:20:47Z</time>
      </trkpt>
      <trkpt lat="45.47881" lon="6.68768">
        <ele>1928</ele>
        <time>2010-03-31T09:20:55Z</time>
      </trkpt>
      <trkpt lat="45.47893" lon="6.68754">
        <ele>1933</ele>
        <time>2010-03-31T09:21:04Z</time>
      </trkpt>
      <trkpt lat="45.47908" lon="6.68737">
        <ele>1952</ele>
        <time>2010-03-31T09:21:15Z</time>
      </trkpt>
      <trkpt lat="45.4792" lon="6.68724">
        <ele>1965</ele>
        <time>2010-03-31T09:21:24Z</time>
      </trkpt>
      <trkpt lat="45.47935" lon="6.68708">
        <ele>1972</ele>
        <time>2010-03-31T09:21:35Z</time>
      </trkpt>
      <trkpt lat="45.47943" lon="6.68698">
        <ele>1975</ele>
        <time>2010-03-31T09:21:43Z</time>
      </trkpt>
      <trkpt lat="45.47956" lon="6.68684">
        <ele>1978</ele>
        <time>2010-03-31T09:21:52Z</time>
      </trkpt>
      <trkpt lat="45.47974" lon="6.68663">
        <ele>2001</ele>
        <time>2010-03-31T09:22:05Z</time>
      </trkpt>
      <trkpt lat="45.4799" lon="6.68644">
        <ele>2003</ele>
        <time>2010-03-31T09:22:16Z</time>
      </trkpt>
      <trkpt lat="45.48009" lon="6.68623">
        <ele>2015</ele>
        <time>2010-03-31T09:22:29Z</time>
      </trkpt>
      <trkpt lat="45.48028" lon="6.68601">
        <ele>2019</ele>
        <time>2010-03-31T09:22:42Z</time>
      </trkpt>
      <trkpt lat="45.48043" lon="6.68584">
        <ele>2021</ele>
        <time>2010-03-31T09:22:52Z</time>
      </trkpt>
      <trkpt lat="45.48064" lon="6.6856">
        <ele>2040</ele>
        <time>2010-03-31T09:23:06Z</time>
      </trkpt>
      <trkpt lat="45.48086" lon="6.68536">
        <ele>2048</ele>
        <time>2010-03-31T09:23:21Z</time>
      </trkpt>
      <trkpt lat="45.48106" lon="6.68514">
        <ele>2051</ele>
        <time>2010-03-31T09:23:34Z</time>
      </trkpt>
      <trkpt lat="45.48128" lon="6.68489">
        <ele>2067</ele>
        <time>2010-03-31T09:23:49Z</time>
      </trkpt>
      <trkpt lat="45.48142" lon="6.68473">
        <ele>2068</ele>
        <time>2010-03-31T09:23:58Z</time>
      </trkpt>
      <trkpt lat="45.4816" lon="6.68454">
        <ele>2071</ele>
        <time>2010-03-31T09:24:10Z</time>
      </trkpt>
      <trkpt lat="45.48173" lon="6.68439">
        <ele>2079</ele>
        <time>2010-03-31T09:24:19Z</time>
      </trkpt>
      <trkpt lat="45.48191" lon="6.6842">
        <ele>2082</ele>
        <time>2010-03-31T09:24:31Z</time>
      </trkpt>
      <trkpt lat="45.48213" lon="6.68395">
        <ele>2099</ele>
        <time>2010-03-31T09:24:46Z</time>
      </trkpt>
      <trkpt lat="45.48224" lon="6.68382">
        <ele>2102</ele>
        <time>2010-03-31T09:24:55Z</time>
      </trkpt>
      <trkpt lat="45.48243" lon="6.68361">
        <ele>2107</ele>
        <time>2010-03-31T09:25:09Z</time>
      </trkpt>
      <trkpt lat="45.48263" lon="6.68338">
        <ele>2118</ele>
        <time>2010-03-31T09:25:24Z</time>
      </trkpt>
      <trkpt lat="45.48277" lon="6.68323">
        <ele>2128</ele>
        <time>2010-03-31T09:25:33Z</time>
      </trkpt>
      <trkpt lat="45.48296" lon="6.68301">
        <ele>2132</ele>
        <time>2010-03-31T09:25:46Z</time>
      </trkpt>
      <trkpt lat="45.48316" lon="6.68279">
        <ele>2135</ele>
        <time>2010-03-31T09:25:59Z</time>
      </trkpt>
      <trkpt lat="45.48325" lon="6.68268">
        <ele>2138</ele>
        <time>2010-03-31T09:26:05Z</time>
      </trkpt>
      <trkpt lat="45.48344" lon="6.68245">
        <ele>2150</ele>
        <time>2010-03-31T09:26:18Z</time>
      </trkpt>
      <trkpt lat="45.48358" lon="6.68228">
        <ele>2156</ele>
        <time>2010-03-31T09:26:28Z</time>
      </trkpt>
      <trkpt lat="45.48379" lon="6.68203">
        <ele>2160</ele>
        <time>2010-03-31T09:26:42Z</time>
      </trkpt>
      <trkpt lat="45.48398" lon="6.6818">
        <ele>2164</ele>
        <time>2010-03-31T09:26:55Z</time>
      </trkpt>
      <trkpt lat="45.48417" lon="6.68158">
        <ele>2173</ele>
        <time>2010-03-31T09:27:08Z</time>
      </trkpt>
      <trkpt lat="45.48429" lon="6.68144">
        <ele>2184</ele>
        <time>2010-03-31T09:27:16Z</time>
      </trkpt>
      <trkpt lat="45.48458" lon="6.6811">
        <ele>2193</ele>
        <time>2010-03-31T09:27:36Z</time>
      </trkpt>
      <trkpt lat="45.48479" lon="6.68087">
        <ele>2200</ele>
        <time>2010-03-31T09:27:51Z</time>
      </trkpt>
      <trkpt lat="45.485" lon="6.68062">
        <ele>2226</ele>
        <time>2010-03-31T09:28:09Z</time>
      </trkpt>
      <trkpt lat="45.48512" lon="6.68048">
        <ele>2232</ele>
        <time>2010-03-31T09:28:18Z</time>
      </trkpt>
      <trkpt lat="45.48536" lon="6.68021">
        <ele>2241</ele>
        <time>2010-03-31T09:28:36Z</time>
      </trkpt>
      <trkpt lat="45.48554" lon="6.68">
        <ele>2249</ele>
        <time>2010-03-31T09:28:50Z</time>
      </trkpt>
      <trkpt lat="45.48574" lon="6.67977">
        <ele>2266</ele>
        <time>2010-03-31T09:29:05Z</time>
      </trkpt>
      <trkpt lat="45.48597" lon="6.67951">
        <ele>2290</ele>
        <time>2010-03-31T09:29:22Z</time>
      </trkpt>
      <trkpt lat="45.48612" lon="6.67933">
        <ele>2293</ele>
        <time>2010-03-31T09:29:33Z</time>
      </trkpt>
      <trkpt lat="45.48641" lon="6.679">
        <ele>2311</ele>
        <time>2010-03-31T09:29:53Z</time>
      </trkpt>
      <trkpt lat="45.48659" lon="6.67879">
        <ele>2314</ele>
        <time>2010-03-31T09:30:06Z</time>
      </trkpt>
      <trkpt lat="45.48671" lon="6.67866">
        <ele>2339</ele>
        <time>2010-03-31T09:30:15Z</time>
      </trkpt>
      <trkpt lat="45.48681" lon="6.67854">
        <ele>2341</ele>
        <time>2010-03-31T09:30:26Z</time>
      </trkpt>
      <trkpt lat="45.48692" lon="6.67842">
        <ele>2343</ele>
        <time>2010-03-31T09:30:37Z</time>
      </trkpt>
      <trkpt lat="45.487" lon="6.67834">
        <ele>2346</ele>
        <time>2010-03-31T09:30:43Z</time>
      </trkpt>
      <trkpt lat="45.48714" lon="6.67818">
        <ele>2363</ele>
        <time>2010-03-31T09:30:53Z</time>
      </trkpt>
      <trkpt lat="45.48731" lon="6.67798">
        <ele>2369</ele>
        <time>2010-03-31T09:31:06Z</time>
      </trkpt>
      <trkpt lat="45.48751" lon="6.67775">
        <ele>2404</ele>
        <time>2010-03-31T09:31:20Z</time>
      </trkpt>
      <trkpt lat="45.4877" lon="6.67754">
        <ele>2406</ele>
        <time>2010-03-31T09:31:34Z</time>
      </trkpt>
      <trkpt lat="45.48788" lon="6.67734">
        <ele>2425</ele>
        <time>2010-03-31T09:31:47Z</time>
      </trkpt>
      <trkpt lat="45.48803" lon="6.67717">
        <ele>2431</ele>
        <time>2010-03-31T09:31:59Z</time>
      </trkpt>
      <trkpt lat="45.48804" lon="6.67716">
        <ele>2431</ele>
        <time>2010-03-31T09:32:04Z</time>
      </trkpt>
      <trkpt lat="45.48807" lon="6.67714">
        <ele>2432</ele>
        <time>2010-03-31T09:32:52Z</time>
      </trkpt>
      <trkpt lat="45.48818" lon="6.67708">
        <ele>2435</ele>
        <time>2010-03-31T09:33:01Z</time>
      </trkpt>
      <trkpt lat="45.4883" lon="6.67694">
        <ele>2441</ele>
        <time>2010-03-31T09:33:09Z</time>
      </trkpt>
      <trkpt lat="45.4884" lon="6.67679">
        <ele>2460</ele>
        <time>2010-03-31T09:33:17Z</time>
      </trkpt>
      <trkpt lat="45.48843" lon="6.67676">
        <ele>2460</ele>
        <time>2010-03-31T09:33:19Z</time>
      </trkpt>
      <trkpt lat="45.48852" lon="6.67664">
        <ele>2462</ele>
        <time>2010-03-31T09:33:25Z</time>
      </trkpt>
      <trkpt lat="45.48858" lon="6.67655">
        <ele>2462</ele>
        <time>2010-03-31T09:33:30Z</time>
      </trkpt>
      <trkpt lat="45.48865" lon="6.67645">
        <ele>2462</ele>
        <time>2010-03-31T09:33:34Z</time>
      </trkpt>
      <trkpt lat="45.48876" lon="6.67629">
        <ele>2462</ele>
        <time>2010-03-31T09:33:38Z</time>
      </trkpt>
      <trkpt lat="45.48877" lon="6.67618">
        <ele>2462</ele>
        <time>2010-03-31T09:33:43Z</time>
      </trkpt>
      <trkpt lat="45.48875" lon="6.67617">
        <ele>2462</ele>
        <time>2010-03-31T09:33:49Z</time>
      </trkpt>
      <trkpt lat="45.48876" lon="6.6762">
        <ele>2462</ele>
        <time>2010-03-31T09:33:57Z</time>
      </trkpt>
      <trkpt lat="45.48875" lon="6.67618">
        <ele>2462</ele>
        <time>2010-03-31T09:34:12Z</time>
      </trkpt>
      <trkpt lat="45.48874" lon="6.67616">
        <ele>2462</ele>
        <time>2010-03-31T09:34:19Z</time>
      </trkpt>
      <trkpt lat="45.48872" lon="6.67613">
        <ele>2462</ele>
        <time>2010-03-31T09:34:25Z</time>
      </trkpt>
      <trkpt lat="45.48871" lon="6.67607">
        <ele>2462</ele>
        <time>2010-03-31T09:34:28Z</time>
      </trkpt>
      <trkpt lat="45.48869" lon="6.67585">
        <ele>2462</ele>
        <time>2010-03-31T09:34:37Z</time>
      </trkpt>
      <trkpt lat="45.48868" lon="6.67572">
        <ele>2460</ele>
        <time>2010-03-31T09:34:42Z</time>
      </trkpt>
      <trkpt lat="45.48864" lon="6.67553">
        <ele>2460</ele>
        <time>2010-03-31T09:34:49Z</time>
      </trkpt>
      <trkpt lat="45.4886" lon="6.67541">
        <ele>2460</ele>
        <time>2010-03-31T09:34:56Z</time>
      </trkpt>
      <trkpt lat="45.48857" lon="6.67529">
        <ele>2460</ele>
        <time>2010-03-31T09:35:02Z</time>
      </trkpt>
      <trkpt lat="45.48853" lon="6.67514">
        <ele>2460</ele>
        <time>2010-03-31T09:35:08Z</time>
      </trkpt>
      <trkpt lat="45.48849" lon="6.67502">
        <ele>2461</ele>
        <time>2010-03-31T09:35:16Z</time>
      </trkpt>
      <trkpt lat="45.48845" lon="6.67497">
        <ele>2460</ele>
        <time>2010-03-31T09:35:21Z</time>
      </trkpt>
      <trkpt lat="45.48839" lon="6.67489">
        <ele>2461</ele>
        <time>2010-03-31T09:35:26Z</time>
      </trkpt>
      <trkpt lat="45.48838" lon="6.67487">
        <ele>2460</ele>
        <time>2010-03-31T09:35:32Z</time>
      </trkpt>
      <trkpt lat="45.48835" lon="6.67482">
        <ele>2460</ele>
        <time>2010-03-31T09:35:50Z</time>
      </trkpt>
      <trkpt lat="45.48829" lon="6.67474">
        <ele>2453</ele>
        <time>2010-03-31T09:35:54Z</time>
      </trkpt>
      <trkpt lat="45.48827" lon="6.67472">
        <ele>2453</ele>
        <time>2010-03-31T09:35:56Z</time>
      </trkpt>
      <trkpt lat="45.48825" lon="6.6747">
        <ele>2452</ele>
        <time>2010-03-31T09:36:04Z</time>
      </trkpt>
      <trkpt lat="45.48824" lon="6.67472">
        <ele>2452</ele>
        <time>2010-03-31T09:36:11Z</time>
      </trkpt>
      <trkpt lat="45.48824" lon="6.67472">
        <ele>2452</ele>
        <time>2010-03-31T09:36:14Z</time>
      </trkpt>
      <trkpt lat="45.48821" lon="6.67484">
        <ele>2453</ele>
        <time>2010-03-31T09:36:18Z</time>
      </trkpt>
      <trkpt lat="45.48821" lon="6.67486">
        <ele>2454</ele>
        <time>2010-03-31T09:36:19Z</time>
      </trkpt>
      <trkpt lat="45.48815" lon="6.67483">
        <ele>2452</ele>
        <time>2010-03-31T09:36:22Z</time>
      </trkpt>
      <trkpt lat="45.48811" lon="6.67475">
        <ele>2450</ele>
        <time>2010-03-31T09:36:26Z</time>
      </trkpt>
      <trkpt lat="45.48811" lon="6.67475">
        <ele>2450</ele>
        <time>2010-03-31T09:36:32Z</time>
      </trkpt>
      <trkpt lat="45.48811" lon="6.67475">
        <ele>2450</ele>
        <time>2010-03-31T09:36:39Z</time>
      </trkpt>
      <trkpt lat="45.4881" lon="6.67477">
        <ele>2450</ele>
        <time>2010-03-31T09:36:49Z</time>
      </trkpt>
      <trkpt lat="45.48806" lon="6.67495">
        <ele>2450</ele>
        <time>2010-03-31T09:36:53Z</time>
      </trkpt>
      <trkpt lat="45.48805" lon="6.67497">
        <ele>2449</ele>
        <time>2010-03-31T09:36:56Z</time>
      </trkpt>
      <trkpt lat="45.48805" lon="6.67496">
        <ele>2449</ele>
        <time>2010-03-31T09:37:05Z</time>
      </trkpt>
      <trkpt lat="45.48805" lon="6.67494">
        <ele>2449</ele>
        <time>2010-03-31T09:37:18Z</time>
      </trkpt>
      <trkpt lat="45.48805" lon="6.67493">
        <ele>2449</ele>
        <time>2010-03-31T09:37:31Z</time>
      </trkpt>
      <trkpt lat="45.48804" lon="6.67494">
        <ele>2449</ele>
        <time>2010-03-31T09:37:38Z</time>
      </trkpt>
      <trkpt lat="45.48803" lon="6.67491">
        <ele>2448</ele>
        <time>2010-03-31T09:37:46Z</time>
      </trkpt>
      <trkpt lat="45.48801" lon="6.67494">
        <ele>2448</ele>
        <time>2010-03-31T09:37:52Z</time>
      </trkpt>
      <trkpt lat="45.488" lon="6.67495">
        <ele>2448</ele>
        <time>2010-03-31T09:37:57Z</time>
      </trkpt>
      <trkpt lat="45.48798" lon="6.67495">
        <ele>2447</ele>
        <time>2010-03-31T09:38:04Z</time>
      </trkpt>
      <trkpt lat="45.48795" lon="6.67497">
        <ele>2446</ele>
        <time>2010-03-31T09:38:09Z</time>
      </trkpt>
      <trkpt lat="45.4879" lon="6.67497">
        <ele>2444</ele>
        <time>2010-03-31T09:38:13Z</time>
      </trkpt>
      <trkpt lat="45.48785" lon="6.67485">
        <ele>2443</ele>
        <time>2010-03-31T09:38:16Z</time>
      </trkpt>
      <trkpt lat="45.48784" lon="6.67486">
        <ele>2443</ele>
        <time>2010-03-31T09:38:22Z</time>
      </trkpt>
      <trkpt lat="45.48783" lon="6.67487">
        <ele>2442</ele>
        <time>2010-03-31T09:38:23Z</time>
      </trkpt>
      <trkpt lat="45.48776" lon="6.67502">
        <ele>2436</ele>
        <time>2010-03-31T09:38:27Z</time>
      </trkpt>
      <trkpt lat="45.48765" lon="6.67499">
        <ele>2434</ele>
        <time>2010-03-31T09:38:31Z</time>
      </trkpt>
      <trkpt lat="45.48763" lon="6.67506">
        <ele>2431</ele>
        <time>2010-03-31T09:38:34Z</time>
      </trkpt>
      <trkpt lat="45.48763" lon="6.67507">
        <ele>2431</ele>
        <time>2010-03-31T09:38:39Z</time>
      </trkpt>
      <trkpt lat="45.4876" lon="6.67512">
        <ele>2431</ele>
        <time>2010-03-31T09:38:46Z</time>
      </trkpt>
      <trkpt lat="45.48757" lon="6.67509">
        <ele>2430</ele>
        <time>2010-03-31T09:38:48Z</time>
      </trkpt>
      <trkpt lat="45.48751" lon="6.67503">
        <ele>2425</ele>
        <time>2010-03-31T09:38:52Z</time>
      </trkpt>
      <trkpt lat="45.48749" lon="6.67498">
        <ele>2422</ele>
        <time>2010-03-31T09:38:54Z</time>
      </trkpt>
      <trkpt lat="45.48742" lon="6.67499">
        <ele>2419</ele>
        <time>2010-03-31T09:38:58Z</time>
      </trkpt>
      <trkpt lat="45.48737" lon="6.67509">
        <ele>2412</ele>
        <time>2010-03-31T09:39:04Z</time>
      </trkpt>
      <trkpt lat="45.48735" lon="6.6751">
        <ele>2411</ele>
        <time>2010-03-31T09:39:05Z</time>
      </trkpt>
      <trkpt lat="45.48723" lon="6.67502">
        <ele>2406</ele>
        <time>2010-03-31T09:39:09Z</time>
      </trkpt>
      <trkpt lat="45.48718" lon="6.67502">
        <ele>2404</ele>
        <time>2010-03-31T09:39:12Z</time>
      </trkpt>
      <trkpt lat="45.48714" lon="6.67502">
        <ele>2403</ele>
        <time>2010-03-31T09:39:13Z</time>
      </trkpt>
      <trkpt lat="45.48711" lon="6.67501">
        <ele>2402</ele>
        <time>2010-03-31T09:39:18Z</time>
      </trkpt>
      <trkpt lat="45.48701" lon="6.67508">
        <ele>2398</ele>
        <time>2010-03-31T09:39:22Z</time>
      </trkpt>
      <trkpt lat="45.4869" lon="6.6751">
        <ele>2395</ele>
        <time>2010-03-31T09:39:25Z</time>
      </trkpt>
      <trkpt lat="45.48681" lon="6.67519">
        <ele>2393</ele>
        <time>2010-03-31T09:39:28Z</time>
      </trkpt>
      <trkpt lat="45.4868" lon="6.67532">
        <ele>2393</ele>
        <time>2010-03-31T09:39:32Z</time>
      </trkpt>
      <trkpt lat="45.48674" lon="6.67536">
        <ele>2392</ele>
        <time>2010-03-31T09:39:34Z</time>
      </trkpt>
      <trkpt lat="45.48673" lon="6.67535">
        <ele>2392</ele>
        <time>2010-03-31T09:39:37Z</time>
      </trkpt>
      <trkpt lat="45.48674" lon="6.67535">
        <ele>2392</ele>
        <time>2010-03-31T09:39:47Z</time>
      </trkpt>
      <trkpt lat="45.48674" lon="6.67536">
        <ele>2392</ele>
        <time>2010-03-31T09:39:51Z</time>
      </trkpt>
      <trkpt lat="45.48668" lon="6.67542">
        <ele>2391</ele>
        <time>2010-03-31T09:39:55Z</time>
      </trkpt>
      <trkpt lat="45.48662" lon="6.67551">
        <ele>2370</ele>
        <time>2010-03-31T09:39:57Z</time>
      </trkpt>
      <trkpt lat="45.48654" lon="6.67552">
        <ele>2369</ele>
        <time>2010-03-31T09:39:59Z</time>
      </trkpt>
      <trkpt lat="45.48652" lon="6.67558">
        <ele>2369</ele>
        <time>2010-03-31T09:40:02Z</time>
      </trkpt>
      <trkpt lat="45.48653" lon="6.67571">
        <ele>2369</ele>
        <time>2010-03-31T09:40:05Z</time>
      </trkpt>
      <trkpt lat="45.48645" lon="6.67575">
        <ele>2368</ele>
        <time>2010-03-31T09:40:07Z</time>
      </trkpt>
      <trkpt lat="45.48639" lon="6.6758">
        <ele>2366</ele>
        <time>2010-03-31T09:40:10Z</time>
      </trkpt>
      <trkpt lat="45.48643" lon="6.67598">
        <ele>2357</ele>
        <time>2010-03-31T09:40:14Z</time>
      </trkpt>
      <trkpt lat="45.48635" lon="6.67601">
        <ele>2355</ele>
        <time>2010-03-31T09:40:16Z</time>
      </trkpt>
      <trkpt lat="45.48631" lon="6.676">
        <ele>2354</ele>
        <time>2010-03-31T09:40:18Z</time>
      </trkpt>
      <trkpt lat="45.48631" lon="6.67601">
        <ele>2354</ele>
        <time>2010-03-31T09:40:20Z</time>
      </trkpt>
      <trkpt lat="45.48625" lon="6.67609">
        <ele>2352</ele>
        <time>2010-03-31T09:40:24Z</time>
      </trkpt>
      <trkpt lat="45.48629" lon="6.67622">
        <ele>2351</ele>
        <time>2010-03-31T09:40:27Z</time>
      </trkpt>
      <trkpt lat="45.48626" lon="6.67629">
        <ele>2350</ele>
        <time>2010-03-31T09:40:29Z</time>
      </trkpt>
      <trkpt lat="45.48624" lon="6.67632">
        <ele>2349</ele>
        <time>2010-03-31T09:40:31Z</time>
      </trkpt>
      <trkpt lat="45.48624" lon="6.67633">
        <ele>2349</ele>
        <time>2010-03-31T09:40:36Z</time>
      </trkpt>
      <trkpt lat="45.48625" lon="6.67633">
        <ele>2349</ele>
        <time>2010-03-31T09:40:49Z</time>
      </trkpt>
      <trkpt lat="45.48625" lon="6.67634">
        <ele>2349</ele>
        <time>2010-03-31T09:40:58Z</time>
      </trkpt>
      <trkpt lat="45.48622" lon="6.67636">
        <ele>2349</ele>
        <time>2010-03-31T09:41:09Z</time>
      </trkpt>
      <trkpt lat="45.4862" lon="6.67641">
        <ele>2348</ele>
        <time>2010-03-31T09:41:14Z</time>
      </trkpt>
      <trkpt lat="45.48619" lon="6.67657">
        <ele>2346</ele>
        <time>2010-03-31T09:41:19Z</time>
      </trkpt>
      <trkpt lat="45.48617" lon="6.67665">
        <ele>2344</ele>
        <time>2010-03-31T09:41:21Z</time>
      </trkpt>
      <trkpt lat="45.48612" lon="6.67671">
        <ele>2332</ele>
        <time>2010-03-31T09:41:23Z</time>
      </trkpt>
      <trkpt lat="45.48605" lon="6.6767">
        <ele>2331</ele>
        <time>2010-03-31T09:41:26Z</time>
      </trkpt>
      <trkpt lat="45.48605" lon="6.67679">
        <ele>2331</ele>
        <time>2010-03-31T09:41:29Z</time>
      </trkpt>
      <trkpt lat="45.48608" lon="6.67691">
        <ele>2331</ele>
        <time>2010-03-31T09:41:34Z</time>
      </trkpt>
      <trkpt lat="45.48599" lon="6.67693">
        <ele>2329</ele>
        <time>2010-03-31T09:41:37Z</time>
      </trkpt>
      <trkpt lat="45.48597" lon="6.67692">
        <ele>2329</ele>
        <time>2010-03-31T09:41:38Z</time>
      </trkpt>
      <trkpt lat="45.48592" lon="6.67693">
        <ele>2328</ele>
        <time>2010-03-31T09:41:42Z</time>
      </trkpt>
      <trkpt lat="45.48589" lon="6.67701">
        <ele>2327</ele>
        <time>2010-03-31T09:41:45Z</time>
      </trkpt>
      <trkpt lat="45.48595" lon="6.67714">
        <ele>2326</ele>
        <time>2010-03-31T09:41:50Z</time>
      </trkpt>
      <trkpt lat="45.48596" lon="6.67717">
        <ele>2325</ele>
        <time>2010-03-31T09:41:51Z</time>
      </trkpt>
      <trkpt lat="45.4859" lon="6.67723">
        <ele>2322</ele>
        <time>2010-03-31T09:41:54Z</time>
      </trkpt>
      <trkpt lat="45.48585" lon="6.67724">
        <ele>2321</ele>
        <time>2010-03-31T09:41:57Z</time>
      </trkpt>
      <trkpt lat="45.48584" lon="6.67727">
        <ele>2320</ele>
        <time>2010-03-31T09:42:03Z</time>
      </trkpt>
      <trkpt lat="45.48584" lon="6.67728">
        <ele>2320</ele>
        <time>2010-03-31T09:42:11Z</time>
      </trkpt>
      <trkpt lat="45.48584" lon="6.67729">
        <ele>2319</ele>
        <time>2010-03-31T09:42:28Z</time>
      </trkpt>
      <trkpt lat="45.48584" lon="6.67729">
        <ele>2319</ele>
        <time>2010-03-31T09:42:44Z</time>
      </trkpt>
      <trkpt lat="45.48581" lon="6.67734">
        <ele>2304</ele>
        <time>2010-03-31T09:42:54Z</time>
      </trkpt>
      <trkpt lat="45.48583" lon="6.67729">
        <ele>2304</ele>
        <time>2010-03-31T09:43:32Z</time>
      </trkpt>
      <trkpt lat="45.48581" lon="6.67732">
        <ele>2304</ele>
        <time>2010-03-31T09:44:06Z</time>
      </trkpt>
      <trkpt lat="45.4858" lon="6.67732">
        <ele>2304</ele>
        <time>2010-03-31T09:44:14Z</time>
      </trkpt>
      <trkpt lat="45.48581" lon="6.67731">
        <ele>2304</ele>
        <time>2010-03-31T09:44:31Z</time>
      </trkpt>
      <trkpt lat="45.48581" lon="6.67732">
        <ele>2304</ele>
        <time>2010-03-31T09:44:37Z</time>
      </trkpt>
      <trkpt lat="45.48569" lon="6.67736">
        <ele>2303</ele>
        <time>2010-03-31T09:44:43Z</time>
      </trkpt>
      <trkpt lat="45.48569" lon="6.67748">
        <ele>2303</ele>
        <time>2010-03-31T09:44:46Z</time>
      </trkpt>
      <trkpt lat="45.48575" lon="6.67757">
        <ele>2295</ele>
        <time>2010-03-31T09:44:49Z</time>
      </trkpt>
      <trkpt lat="45.48573" lon="6.67761">
        <ele>2293</ele>
        <time>2010-03-31T09:44:51Z</time>
      </trkpt>
      <trkpt lat="45.48565" lon="6.6776">
        <ele>2290</ele>
        <time>2010-03-31T09:44:53Z</time>
      </trkpt>
      <trkpt lat="45.48556" lon="6.67762">
        <ele>2287</ele>
        <time>2010-03-31T09:44:56Z</time>
      </trkpt>
      <trkpt lat="45.4856" lon="6.67777">
        <ele>2286</ele>
        <time>2010-03-31T09:45:00Z</time>
      </trkpt>
      <trkpt lat="45.48564" lon="6.67782">
        <ele>2285</ele>
        <time>2010-03-31T09:45:02Z</time>
      </trkpt>
      <trkpt lat="45.48558" lon="6.67792">
        <ele>2283</ele>
        <time>2010-03-31T09:45:05Z</time>
      </trkpt>
      <trkpt lat="45.48551" lon="6.67794">
        <ele>2282</ele>
        <time>2010-03-31T09:45:07Z</time>
      </trkpt>
      <trkpt lat="45.48547" lon="6.67815">
        <ele>2279</ele>
        <time>2010-03-31T09:45:11Z</time>
      </trkpt>
      <trkpt lat="45.48546" lon="6.67827">
        <ele>2278</ele>
        <time>2010-03-31T09:45:14Z</time>
      </trkpt>
      <trkpt lat="45.48538" lon="6.67839">
        <ele>2268</ele>
        <time>2010-03-31T09:45:17Z</time>
      </trkpt>
      <trkpt lat="45.48537" lon="6.67858">
        <ele>2267</ele>
        <time>2010-03-31T09:45:20Z</time>
      </trkpt>
      <trkpt lat="45.4853" lon="6.67873">
        <ele>2266</ele>
        <time>2010-03-31T09:45:23Z</time>
      </trkpt>
      <trkpt lat="45.48527" lon="6.67874">
        <ele>2265</ele>
        <time>2010-03-31T09:45:24Z</time>
      </trkpt>
      <trkpt lat="45.48524" lon="6.67874">
        <ele>2264</ele>
        <time>2010-03-31T09:45:33Z</time>
      </trkpt>
      <trkpt lat="45.48523" lon="6.67876">
        <ele>2264</ele>
        <time>2010-03-31T09:45:41Z</time>
      </trkpt>
      <trkpt lat="45.48527" lon="6.67894">
        <ele>2263</ele>
        <time>2010-03-31T09:45:46Z</time>
      </trkpt>
      <trkpt lat="45.48519" lon="6.67906">
        <ele>2259</ele>
        <time>2010-03-31T09:45:49Z</time>
      </trkpt>
      <trkpt lat="45.48512" lon="6.67917">
        <ele>2251</ele>
        <time>2010-03-31T09:45:51Z</time>
      </trkpt>
      <trkpt lat="45.4851" lon="6.67928">
        <ele>2252</ele>
        <time>2010-03-31T09:45:53Z</time>
      </trkpt>
      <trkpt lat="45.48504" lon="6.67935">
        <ele>2252</ele>
        <time>2010-03-31T09:45:55Z</time>
      </trkpt>
      <trkpt lat="45.48503" lon="6.67944">
        <ele>2253</ele>
        <time>2010-03-31T09:45:57Z</time>
      </trkpt>
      <trkpt lat="45.48496" lon="6.67947">
        <ele>2233</ele>
        <time>2010-03-31T09:45:59Z</time>
      </trkpt>
      <trkpt lat="45.48492" lon="6.67946">
        <ele>2233</ele>
        <time>2010-03-31T09:46:01Z</time>
      </trkpt>
      <trkpt lat="45.48492" lon="6.67947">
        <ele>2233</ele>
        <time>2010-03-31T09:46:02Z</time>
      </trkpt>
      <trkpt lat="45.48491" lon="6.67961">
        <ele>2231</ele>
        <time>2010-03-31T09:46:05Z</time>
      </trkpt>
      <trkpt lat="45.48484" lon="6.67971">
        <ele>2230</ele>
        <time>2010-03-31T09:46:07Z</time>
      </trkpt>
      <trkpt lat="45.48482" lon="6.67974">
        <ele>2229</ele>
        <time>2010-03-31T09:46:10Z</time>
      </trkpt>
      <trkpt lat="45.48483" lon="6.67977">
        <ele>2229</ele>
        <time>2010-03-31T09:46:14Z</time>
      </trkpt>
      <trkpt lat="45.48482" lon="6.67975">
        <ele>2229</ele>
        <time>2010-03-31T09:46:18Z</time>
      </trkpt>
      <trkpt lat="45.48482" lon="6.67974">
        <ele>2229</ele>
        <time>2010-03-31T09:46:29Z</time>
      </trkpt>
      <trkpt lat="45.48482" lon="6.67974">
        <ele>2229</ele>
        <time>2010-03-31T09:46:40Z</time>
      </trkpt>
      <trkpt lat="45.4848" lon="6.67975">
        <ele>2229</ele>
        <time>2010-03-31T09:46:45Z</time>
      </trkpt>
      <trkpt lat="45.4848" lon="6.67976">
        <ele>2229</ele>
        <time>2010-03-31T09:46:53Z</time>
      </trkpt>
      <trkpt lat="45.48481" lon="6.67975">
        <ele>2229</ele>
        <time>2010-03-31T09:47:03Z</time>
      </trkpt>
      <trkpt lat="45.48483" lon="6.67978">
        <ele>2230</ele>
        <time>2010-03-31T09:47:10Z</time>
      </trkpt>
      <trkpt lat="45.48486" lon="6.67982">
        <ele>2230</ele>
        <time>2010-03-31T09:47:14Z</time>
      </trkpt>
      <trkpt lat="45.48485" lon="6.67984">
        <ele>2230</ele>
        <time>2010-03-31T09:47:19Z</time>
      </trkpt>
      <trkpt lat="45.48474" lon="6.6799">
        <ele>2228</ele>
        <time>2010-03-31T09:47:23Z</time>
      </trkpt>
      <trkpt lat="45.48473" lon="6.6799">
        <ele>2228</ele>
        <time>2010-03-31T09:47:26Z</time>
      </trkpt>
      <trkpt lat="45.48472" lon="6.67991">
        <ele>2228</ele>
        <time>2010-03-31T09:47:28Z</time>
      </trkpt>
      <trkpt lat="45.48471" lon="6.68006">
        <ele>2218</ele>
        <time>2010-03-31T09:47:31Z</time>
      </trkpt>
      <trkpt lat="45.48465" lon="6.68016">
        <ele>2215</ele>
        <time>2010-03-31T09:47:34Z</time>
      </trkpt>
      <trkpt lat="45.48464" lon="6.68027">
        <ele>2214</ele>
        <time>2010-03-31T09:47:37Z</time>
      </trkpt>
      <trkpt lat="45.48459" lon="6.6803">
        <ele>2213</ele>
        <time>2010-03-31T09:47:40Z</time>
      </trkpt>
      <trkpt lat="45.48459" lon="6.68031">
        <ele>2212</ele>
        <time>2010-03-31T09:47:49Z</time>
      </trkpt>
      <trkpt lat="45.48459" lon="6.68031">
        <ele>2212</ele>
        <time>2010-03-31T09:47:50Z</time>
      </trkpt>
      <trkpt lat="45.48453" lon="6.68034">
        <ele>2211</ele>
        <time>2010-03-31T09:47:54Z</time>
      </trkpt>
      <trkpt lat="45.48455" lon="6.68044">
        <ele>2210</ele>
        <time>2010-03-31T09:47:57Z</time>
      </trkpt>
      <trkpt lat="45.48456" lon="6.68049">
        <ele>2210</ele>
        <time>2010-03-31T09:47:59Z</time>
      </trkpt>
      <trkpt lat="45.48449" lon="6.68056">
        <ele>2208</ele>
        <time>2010-03-31T09:48:02Z</time>
      </trkpt>
      <trkpt lat="45.48439" lon="6.68055">
        <ele>2206</ele>
        <time>2010-03-31T09:48:05Z</time>
      </trkpt>
      <trkpt lat="45.48435" lon="6.68059">
        <ele>2205</ele>
        <time>2010-03-31T09:48:07Z</time>
      </trkpt>
      <trkpt lat="45.48434" lon="6.68061">
        <ele>2204</ele>
        <time>2010-03-31T09:48:12Z</time>
      </trkpt>
      <trkpt lat="45.48437" lon="6.68059">
        <ele>2205</ele>
        <time>2010-03-31T09:48:27Z</time>
      </trkpt>
      <trkpt lat="45.48435" lon="6.68067">
        <ele>2204</ele>
        <time>2010-03-31T09:48:32Z</time>
      </trkpt>
      <trkpt lat="45.48441" lon="6.68087">
        <ele>2192</ele>
        <time>2010-03-31T09:48:36Z</time>
      </trkpt>
      <trkpt lat="45.48436" lon="6.68095">
        <ele>2192</ele>
        <time>2010-03-31T09:48:38Z</time>
      </trkpt>
      <trkpt lat="45.48433" lon="6.68104">
        <ele>2191</ele>
        <time>2010-03-31T09:48:40Z</time>
      </trkpt>
      <trkpt lat="45.48434" lon="6.68121">
        <ele>2189</ele>
        <time>2010-03-31T09:48:43Z</time>
      </trkpt>
      <trkpt lat="45.48426" lon="6.68123">
        <ele>2188</ele>
        <time>2010-03-31T09:48:45Z</time>
      </trkpt>
      <trkpt lat="45.48422" lon="6.68137">
        <ele>2185</ele>
        <time>2010-03-31T09:48:48Z</time>
      </trkpt>
      <trkpt lat="45.48419" lon="6.68156">
        <ele>2178</ele>
        <time>2010-03-31T09:48:51Z</time>
      </trkpt>
      <trkpt lat="45.48403" lon="6.68172">
        <ele>2166</ele>
        <time>2010-03-31T09:48:56Z</time>
      </trkpt>
      <trkpt lat="45.48407" lon="6.68186">
        <ele>2164</ele>
        <time>2010-03-31T09:48:59Z</time>
      </trkpt>
      <trkpt lat="45.48399" lon="6.68199">
        <ele>2162</ele>
        <time>2010-03-31T09:49:02Z</time>
      </trkpt>
      <trkpt lat="45.4839" lon="6.68209">
        <ele>2160</ele>
        <time>2010-03-31T09:49:05Z</time>
      </trkpt>
      <trkpt lat="45.48384" lon="6.6822">
        <ele>2159</ele>
        <time>2010-03-31T09:49:09Z</time>
      </trkpt>
      <trkpt lat="45.48377" lon="6.6823">
        <ele>2158</ele>
        <time>2010-03-31T09:49:11Z</time>
      </trkpt>
      <trkpt lat="45.4837" lon="6.68246">
        <ele>2156</ele>
        <time>2010-03-31T09:49:14Z</time>
      </trkpt>
      <trkpt lat="45.48362" lon="6.68255">
        <ele>2148</ele>
        <time>2010-03-31T09:49:16Z</time>
      </trkpt>
      <trkpt lat="45.4836" lon="6.68261">
        <ele>2148</ele>
        <time>2010-03-31T09:49:17Z</time>
      </trkpt>
      <trkpt lat="45.48342" lon="6.68287">
        <ele>2146</ele>
        <time>2010-03-31T09:49:21Z</time>
      </trkpt>
      <trkpt lat="45.48334" lon="6.68288">
        <ele>2146</ele>
        <time>2010-03-31T09:49:22Z</time>
      </trkpt>
      <trkpt lat="45.4832" lon="6.68289">
        <ele>2135</ele>
        <time>2010-03-31T09:49:24Z</time>
      </trkpt>
      <trkpt lat="45.4831" lon="6.68283">
        <ele>2134</ele>
        <time>2010-03-31T09:49:28Z</time>
      </trkpt>
      <trkpt lat="45.4831" lon="6.68284">
        <ele>2134</ele>
        <time>2010-03-31T09:49:35Z</time>
      </trkpt>
      <trkpt lat="45.48311" lon="6.68283">
        <ele>2134</ele>
        <time>2010-03-31T09:49:46Z</time>
      </trkpt>
      <trkpt lat="45.48312" lon="6.68284">
        <ele>2134</ele>
        <time>2010-03-31T09:49:54Z</time>
      </trkpt>
      <trkpt lat="45.48309" lon="6.68284">
        <ele>2134</ele>
        <time>2010-03-31T09:50:02Z</time>
      </trkpt>
      <trkpt lat="45.48292" lon="6.68286">
        <ele>2132</ele>
        <time>2010-03-31T09:50:06Z</time>
      </trkpt>
      <trkpt lat="45.48258" lon="6.68282">
        <ele>2130</ele>
        <time>2010-03-31T09:50:10Z</time>
      </trkpt>
      <trkpt lat="45.48216" lon="6.68274">
        <ele>2123</ele>
        <time>2010-03-31T09:50:15Z</time>
      </trkpt>
      <trkpt lat="45.48193" lon="6.68284">
        <ele>2121</ele>
        <time>2010-03-31T09:50:18Z</time>
      </trkpt>
      <trkpt lat="45.48174" lon="6.683">
        <ele>2118</ele>
        <time>2010-03-31T09:50:21Z</time>
      </trkpt>
      <trkpt lat="45.48155" lon="6.68317">
        <ele>2113</ele>
        <time>2010-03-31T09:50:25Z</time>
      </trkpt>
      <trkpt lat="45.48143" lon="6.68331">
        <ele>2113</ele>
        <time>2010-03-31T09:50:27Z</time>
      </trkpt>
      <trkpt lat="45.48109" lon="6.68356">
        <ele>2098</ele>
        <time>2010-03-31T09:50:31Z</time>
      </trkpt>
      <trkpt lat="45.48103" lon="6.68361">
        <ele>2097</ele>
        <time>2010-03-31T09:50:32Z</time>
      </trkpt>
      <trkpt lat="45.48101" lon="6.68392">
        <ele>2091</ele>
        <time>2010-03-31T09:50:36Z</time>
      </trkpt>
      <trkpt lat="45.48099" lon="6.6841">
        <ele>2088</ele>
        <time>2010-03-31T09:50:38Z</time>
      </trkpt>
      <trkpt lat="45.48105" lon="6.68435">
        <ele>2074</ele>
        <time>2010-03-31T09:50:42Z</time>
      </trkpt>
      <trkpt lat="45.4811" lon="6.68454">
        <ele>2071</ele>
        <time>2010-03-31T09:50:44Z</time>
      </trkpt>
      <trkpt lat="45.48105" lon="6.68472">
        <ele>2068</ele>
        <time>2010-03-31T09:50:46Z</time>
      </trkpt>
      <trkpt lat="45.48115" lon="6.68496">
        <ele>2066</ele>
        <time>2010-03-31T09:50:49Z</time>
      </trkpt>
      <trkpt lat="45.48126" lon="6.68519">
        <ele>2050</ele>
        <time>2010-03-31T09:50:52Z</time>
      </trkpt>
      <trkpt lat="45.48129" lon="6.68525">
        <ele>2050</ele>
        <time>2010-03-31T09:50:53Z</time>
      </trkpt>
      <trkpt lat="45.48128" lon="6.68537">
        <ele>2048</ele>
        <time>2010-03-31T09:50:57Z</time>
      </trkpt>
      <trkpt lat="45.48128" lon="6.68537">
        <ele>2048</ele>
        <time>2010-03-31T09:51:04Z</time>
      </trkpt>
      <trkpt lat="45.48129" lon="6.68537">
        <ele>2048</ele>
        <time>2010-03-31T09:51:12Z</time>
      </trkpt>
      <trkpt lat="45.48129" lon="6.68537">
        <ele>2048</ele>
        <time>2010-03-31T09:51:19Z</time>
      </trkpt>
      <trkpt lat="45.48126" lon="6.68537">
        <ele>2048</ele>
        <time>2010-03-31T09:51:27Z</time>
      </trkpt>
      <trkpt lat="45.48115" lon="6.68546">
        <ele>2047</ele>
        <time>2010-03-31T09:51:31Z</time>
      </trkpt>
      <trkpt lat="45.48112" lon="6.68573">
        <ele>2043</ele>
        <time>2010-03-31T09:51:34Z</time>
      </trkpt>
      <trkpt lat="45.48111" lon="6.686">
        <ele>2028</ele>
        <time>2010-03-31T09:51:37Z</time>
      </trkpt>
      <trkpt lat="45.48111" lon="6.68639">
        <ele>2022</ele>
        <time>2010-03-31T09:51:41Z</time>
      </trkpt>
      <trkpt lat="45.48122" lon="6.68676">
        <ele>2008</ele>
        <time>2010-03-31T09:51:44Z</time>
      </trkpt>
      <trkpt lat="45.48124" lon="6.68714">
        <ele>2005</ele>
        <time>2010-03-31T09:51:47Z</time>
      </trkpt>
      <trkpt lat="45.4812" lon="6.68731">
        <ele>2002</ele>
        <time>2010-03-31T09:51:50Z</time>
      </trkpt>
      <trkpt lat="45.48121" lon="6.6873">
        <ele>2002</ele>
        <time>2010-03-31T09:51:56Z</time>
      </trkpt>
      <trkpt lat="45.4812" lon="6.6873">
        <ele>2002</ele>
        <time>2010-03-31T09:52:05Z</time>
      </trkpt>
      <trkpt lat="45.4812" lon="6.68729">
        <ele>2002</ele>
        <time>2010-03-31T09:52:13Z</time>
      </trkpt>
      <trkpt lat="45.4812" lon="6.68731">
        <ele>2002</ele>
        <time>2010-03-31T09:52:23Z</time>
      </trkpt>
      <trkpt lat="45.48124" lon="6.68735">
        <ele>2002</ele>
        <time>2010-03-31T09:52:29Z</time>
      </trkpt>
      <trkpt lat="45.48131" lon="6.68762">
        <ele>1994</ele>
        <time>2010-03-31T09:52:34Z</time>
      </trkpt>
      <trkpt lat="45.48136" lon="6.68804">
        <ele>1992</ele>
        <time>2010-03-31T09:52:38Z</time>
      </trkpt>
      <trkpt lat="45.48137" lon="6.68823">
        <ele>1991</ele>
        <time>2010-03-31T09:52:40Z</time>
      </trkpt>
      <trkpt lat="45.48132" lon="6.68868">
        <ele>1984</ele>
        <time>2010-03-31T09:52:46Z</time>
      </trkpt>
      <trkpt lat="45.4813" lon="6.68887">
        <ele>1983</ele>
        <time>2010-03-31T09:52:49Z</time>
      </trkpt>
      <trkpt lat="45.48132" lon="6.68929">
        <ele>1978</ele>
        <time>2010-03-31T09:52:53Z</time>
      </trkpt>
      <trkpt lat="45.48124" lon="6.68964">
        <ele>1974</ele>
        <time>2010-03-31T09:52:56Z</time>
      </trkpt>
      <trkpt lat="45.48122" lon="6.68987">
        <ele>1973</ele>
        <time>2010-03-31T09:52:58Z</time>
      </trkpt>
      <trkpt lat="45.48134" lon="6.69039">
        <ele>1957</ele>
        <time>2010-03-31T09:53:03Z</time>
      </trkpt>
      <trkpt lat="45.48142" lon="6.69046">
        <ele>1957</ele>
        <time>2010-03-31T09:53:04Z</time>
      </trkpt>
      <trkpt lat="45.48197" lon="6.69074">
        <ele>1966</ele>
        <time>2010-03-31T09:53:10Z</time>
      </trkpt>
      <trkpt lat="45.48225" lon="6.69085">
        <ele>1956</ele>
        <time>2010-03-31T09:53:13Z</time>
      </trkpt>
      <trkpt lat="45.48249" lon="6.69091">
        <ele>1961</ele>
        <time>2010-03-31T09:53:16Z</time>
      </trkpt>
      <trkpt lat="45.48281" lon="6.69109">
        <ele>1967</ele>
        <time>2010-03-31T09:53:21Z</time>
      </trkpt>
      <trkpt lat="45.48293" lon="6.69135">
        <ele>1966</ele>
        <time>2010-03-31T09:53:24Z</time>
      </trkpt>
      <trkpt lat="45.4828" lon="6.6915">
        <ele>1963</ele>
        <time>2010-03-31T09:53:26Z</time>
      </trkpt>
      <trkpt lat="45.48263" lon="6.69152">
        <ele>1959</ele>
        <time>2010-03-31T09:53:28Z</time>
      </trkpt>
      <trkpt lat="45.48196" lon="6.69151">
        <ele>1948</ele>
        <time>2010-03-31T09:53:34Z</time>
      </trkpt>
      <trkpt lat="45.48185" lon="6.69152">
        <ele>1946</ele>
        <time>2010-03-31T09:53:35Z</time>
      </trkpt>
      <trkpt lat="45.48156" lon="6.69152">
        <ele>1937</ele>
        <time>2010-03-31T09:53:38Z</time>
      </trkpt>
      <trkpt lat="45.48129" lon="6.69148">
        <ele>1935</ele>
        <time>2010-03-31T09:53:41Z</time>
      </trkpt>
      <trkpt lat="45.48101" lon="6.69145">
        <ele>1932</ele>
        <time>2010-03-31T09:53:44Z</time>
      </trkpt>
      <trkpt lat="45.4805" lon="6.69141">
        <ele>1919</ele>
        <time>2010-03-31T09:53:49Z</time>
      </trkpt>
      <trkpt lat="45.48008" lon="6.69118">
        <ele>1914</ele>
        <time>2010-03-31T09:53:53Z</time>
      </trkpt>
      <trkpt lat="45.47967" lon="6.69096">
        <ele>1902</ele>
        <time>2010-03-31T09:53:57Z</time>
      </trkpt>
      <trkpt lat="45.47926" lon="6.6908">
        <ele>1891</ele>
        <time>2010-03-31T09:54:01Z</time>
      </trkpt>
      <trkpt lat="45.47905" lon="6.69068">
        <ele>1883</ele>
        <time>2010-03-31T09:54:03Z</time>
      </trkpt>
      <trkpt lat="45.47884" lon="6.69058">
        <ele>1881</ele>
        <time>2010-03-31T09:54:05Z</time>
      </trkpt>
      <trkpt lat="45.47864" lon="6.69046">
        <ele>1879</ele>
        <time>2010-03-31T09:54:07Z</time>
      </trkpt>
      <trkpt lat="45.47843" lon="6.69035">
        <ele>1876</ele>
        <time>2010-03-31T09:54:09Z</time>
      </trkpt>
      <trkpt lat="45.47794" lon="6.68993">
        <ele>1856</ele>
        <time>2010-03-31T09:54:14Z</time>
      </trkpt>
      <trkpt lat="45.4775" lon="6.68969">
        <ele>1853</ele>
        <time>2010-03-31T09:54:18Z</time>
      </trkpt>
      <trkpt lat="45.47699" lon="6.68962">
        <ele>1838</ele>
        <time>2010-03-31T09:54:23Z</time>
      </trkpt>
      <trkpt lat="45.47679" lon="6.68968">
        <ele>1838</ele>
        <time>2010-03-31T09:54:26Z</time>
      </trkpt>
      <trkpt lat="45.47673" lon="6.68978">
        <ele>1838</ele>
        <time>2010-03-31T09:54:29Z</time>
      </trkpt>
      <trkpt lat="45.47671" lon="6.68983">
        <ele>1838</ele>
        <time>2010-03-31T09:54:33Z</time>
      </trkpt>
      <trkpt lat="45.4767" lon="6.68985">
        <ele>1838</ele>
        <time>2010-03-31T09:54:37Z</time>
      </trkpt>
      <trkpt lat="45.47669" lon="6.6899">
        <ele>1838</ele>
        <time>2010-03-31T09:54:52Z</time>
      </trkpt>
      <trkpt lat="45.47667" lon="6.68991">
        <ele>1838</ele>
        <time>2010-03-31T09:55:00Z</time>
      </trkpt>
      <trkpt lat="45.47666" lon="6.68993">
        <ele>1836</ele>
        <time>2010-03-31T09:55:05Z</time>
      </trkpt>
      <trkpt lat="45.47665" lon="6.68997">
        <ele>1837</ele>
        <time>2010-03-31T09:55:10Z</time>
      </trkpt>
      <trkpt lat="45.47667" lon="6.68999">
        <ele>1838</ele>
        <time>2010-03-31T09:55:16Z</time>
      </trkpt>
      <trkpt lat="45.4767" lon="6.69">
        <ele>1840</ele>
        <time>2010-03-31T09:55:22Z</time>
      </trkpt>
      <trkpt lat="45.47672" lon="6.69001">
        <ele>1841</ele>
        <time>2010-03-31T09:55:28Z</time>
      </trkpt>
      <trkpt lat="45.47675" lon="6.69">
        <ele>1838</ele>
        <time>2010-03-31T09:55:33Z</time>
      </trkpt>
      <trkpt lat="45.47678" lon="6.68997">
        <ele>1838</ele>
        <time>2010-03-31T09:55:39Z</time>
      </trkpt>
      <trkpt lat="45.47679" lon="6.68995">
        <ele>1839</ele>
        <time>2010-03-31T09:55:49Z</time>
      </trkpt>
      <trkpt lat="45.47682" lon="6.68994">
        <ele>1839</ele>
        <time>2010-03-31T09:55:57Z</time>
      </trkpt>
      <trkpt lat="45.47683" lon="6.68991">
        <ele>1839</ele>
        <time>2010-03-31T09:56:03Z</time>
      </trkpt>
      <trkpt lat="45.47691" lon="6.68981">
        <ele>1839</ele>
        <time>2010-03-31T09:56:08Z</time>
      </trkpt>
      <trkpt lat="45.47699" lon="6.68974">
        <ele>1839</ele>
        <time>2010-03-31T09:56:13Z</time>
      </trkpt>
      <trkpt lat="45.47704" lon="6.68969">
        <ele>1839</ele>
        <time>2010-03-31T09:56:16Z</time>
      </trkpt>
      <trkpt lat="45.4771" lon="6.68962">
        <ele>1839</ele>
        <time>2010-03-31T09:56:20Z</time>
      </trkpt>
      <trkpt lat="45.47716" lon="6.68956">
        <ele>1839</ele>
        <time>2010-03-31T09:56:24Z</time>
      </trkpt>
      <trkpt lat="45.47722" lon="6.68949">
        <ele>1839</ele>
        <time>2010-03-31T09:56:28Z</time>
      </trkpt>
      <trkpt lat="45.47729" lon="6.68942">
        <ele>1839</ele>
        <time>2010-03-31T09:56:32Z</time>
      </trkpt>
      <trkpt lat="45.47737" lon="6.68934">
        <ele>1839</ele>
        <time>2010-03-31T09:56:37Z</time>
      </trkpt>
      <trkpt lat="45.47749" lon="6.6892">
        <ele>1839</ele>
        <time>2010-03-31T09:56:45Z</time>
      </trkpt>
      <trkpt lat="45.47758" lon="6.6891">
        <ele>1849</ele>
        <time>2010-03-31T09:56:51Z</time>
      </trkpt>
      <trkpt lat="45.47766" lon="6.68899">
        <ele>1857</ele>
        <time>2010-03-31T09:56:57Z</time>
      </trkpt>
      <trkpt lat="45.47773" lon="6.68891">
        <ele>1861</ele>
        <time>2010-03-31T09:57:02Z</time>
      </trkpt>
      <trkpt lat="45.47782" lon="6.68881">
        <ele>1865</ele>
        <time>2010-03-31T09:57:08Z</time>
      </trkpt>
      <trkpt lat="45.47789" lon="6.68873">
        <ele>1867</ele>
        <time>2010-03-31T09:57:13Z</time>
      </trkpt>
      <trkpt lat="45.47796" lon="6.68865">
        <ele>1870</ele>
        <time>2010-03-31T09:57:18Z</time>
      </trkpt>
      <trkpt lat="45.47802" lon="6.68858">
        <ele>1872</ele>
        <time>2010-03-31T09:57:23Z</time>
      </trkpt>
      <trkpt lat="45.47812" lon="6.68847">
        <ele>1876</ele>
        <time>2010-03-31T09:57:30Z</time>
      </trkpt>
      <trkpt lat="45.47821" lon="6.68836">
        <ele>1883</ele>
        <time>2010-03-31T09:57:37Z</time>
      </trkpt>
      <trkpt lat="45.47833" lon="6.68824">
        <ele>1896</ele>
        <time>2010-03-31T09:57:45Z</time>
      </trkpt>
      <trkpt lat="45.47848" lon="6.68805">
        <ele>1915</ele>
        <time>2010-03-31T09:57:55Z</time>
      </trkpt>
      <trkpt lat="45.47859" lon="6.68794">
        <ele>1920</ele>
        <time>2010-03-31T09:58:03Z</time>
      </trkpt>
      <trkpt lat="45.47869" lon="6.68783">
        <ele>1923</ele>
        <time>2010-03-31T09:58:11Z</time>
      </trkpt>
      <trkpt lat="45.4788" lon="6.68771">
        <ele>1927</ele>
        <time>2010-03-31T09:58:19Z</time>
      </trkpt>
      <trkpt lat="45.47895" lon="6.68752">
        <ele>1934</ele>
        <time>2010-03-31T09:58:31Z</time>
      </trkpt>
      <trkpt lat="45.47911" lon="6.68734">
        <ele>1953</ele>
        <time>2010-03-31T09:58:43Z</time>
      </trkpt>
      <trkpt lat="45.47926" lon="6.68717">
        <ele>1968</ele>
        <time>2010-03-31T09:58:54Z</time>
      </trkpt>
      <trkpt lat="45.47945" lon="6.68694">
        <ele>1976</ele>
        <time>2010-03-31T09:59:08Z</time>
      </trkpt>
      <trkpt lat="45.47965" lon="6.68672">
        <ele>1981</ele>
        <time>2010-03-31T09:59:22Z</time>
      </trkpt>
      <trkpt lat="45.47976" lon="6.6866">
        <ele>2001</ele>
        <time>2010-03-31T09:59:30Z</time>
      </trkpt>
      <trkpt lat="45.47991" lon="6.68643">
        <ele>2004</ele>
        <time>2010-03-31T09:59:40Z</time>
      </trkpt>
      <trkpt lat="45.48007" lon="6.68624">
        <ele>2015</ele>
        <time>2010-03-31T09:59:51Z</time>
      </trkpt>
      <trkpt lat="45.48025" lon="6.68603">
        <ele>2019</ele>
        <time>2010-03-31T10:00:04Z</time>
      </trkpt>
      <trkpt lat="45.48033" lon="6.68593">
        <ele>2020</ele>
        <time>2010-03-31T10:00:10Z</time>
      </trkpt>
      <trkpt lat="45.48052" lon="6.68572">
        <ele>2039</ele>
        <time>2010-03-31T10:00:23Z</time>
      </trkpt>
      <trkpt lat="45.48066" lon="6.68557">
        <ele>2040</ele>
        <time>2010-03-31T10:00:33Z</time>
      </trkpt>
      <trkpt lat="45.48074" lon="6.68547">
        <ele>2042</ele>
        <time>2010-03-31T10:00:42Z</time>
      </trkpt>
      <trkpt lat="45.48074" lon="6.68548">
        <ele>2042</ele>
        <time>2010-03-31T10:01:06Z</time>
      </trkpt>
      <trkpt lat="45.48078" lon="6.68544">
        <ele>2043</ele>
        <time>2010-03-31T10:02:15Z</time>
      </trkpt>
      <trkpt lat="45.48088" lon="6.68532">
        <ele>2049</ele>
        <time>2010-03-31T10:02:25Z</time>
      </trkpt>
      <trkpt lat="45.48103" lon="6.68515">
        <ele>2052</ele>
        <time>2010-03-31T10:02:35Z</time>
      </trkpt>
      <trkpt lat="45.48121" lon="6.68493">
        <ele>2066</ele>
        <time>2010-03-31T10:02:47Z</time>
      </trkpt>
      <trkpt lat="45.48134" lon="6.68478">
        <ele>2068</ele>
        <time>2010-03-31T10:02:56Z</time>
      </trkpt>
      <trkpt lat="45.48147" lon="6.68463">
        <ele>2069</ele>
        <time>2010-03-31T10:03:05Z</time>
      </trkpt>
      <trkpt lat="45.48157" lon="6.68452">
        <ele>2072</ele>
        <time>2010-03-31T10:03:12Z</time>
      </trkpt>
      <trkpt lat="45.48168" lon="6.6844">
        <ele>2079</ele>
        <time>2010-03-31T10:03:19Z</time>
      </trkpt>
      <trkpt lat="45.48181" lon="6.68425">
        <ele>2081</ele>
        <time>2010-03-31T10:03:28Z</time>
      </trkpt>
      <trkpt lat="45.48195" lon="6.68408">
        <ele>2095</ele>
        <time>2010-03-31T10:03:38Z</time>
      </trkpt>
      <trkpt lat="45.48215" lon="6.68385">
        <ele>2101</ele>
        <time>2010-03-31T10:03:52Z</time>
      </trkpt>
      <trkpt lat="45.4823" lon="6.68368">
        <ele>2104</ele>
        <time>2010-03-31T10:04:02Z</time>
      </trkpt>
      <trkpt lat="45.48257" lon="6.68337">
        <ele>2118</ele>
        <time>2010-03-31T10:04:21Z</time>
      </trkpt>
      <trkpt lat="45.48274" lon="6.68318">
        <ele>2128</ele>
        <time>2010-03-31T10:04:32Z</time>
      </trkpt>
      <trkpt lat="45.48299" lon="6.6829">
        <ele>2133</ele>
        <time>2010-03-31T10:04:49Z</time>
      </trkpt>
      <trkpt lat="45.4832" lon="6.68266">
        <ele>2138</ele>
        <time>2010-03-31T10:05:03Z</time>
      </trkpt>
      <trkpt lat="45.48346" lon="6.68237">
        <ele>2152</ele>
        <time>2010-03-31T10:05:20Z</time>
      </trkpt>
      <trkpt lat="45.48372" lon="6.68206">
        <ele>2159</ele>
        <time>2010-03-31T10:05:38Z</time>
      </trkpt>
      <trkpt lat="45.48399" lon="6.68176">
        <ele>2165</ele>
        <time>2010-03-31T10:05:56Z</time>
      </trkpt>
      <trkpt lat="45.4842" lon="6.68153">
        <ele>2180</ele>
        <time>2010-03-31T10:06:10Z</time>
      </trkpt>
      <trkpt lat="45.48447" lon="6.68121">
        <ele>2190</ele>
        <time>2010-03-31T10:06:29Z</time>
      </trkpt>
      <trkpt lat="45.48464" lon="6.68103">
        <ele>2194</ele>
        <time>2010-03-31T10:06:40Z</time>
      </trkpt>
      <trkpt lat="45.48478" lon="6.68087">
        <ele>2200</ele>
        <time>2010-03-31T10:06:51Z</time>
      </trkpt>
      <trkpt lat="45.48496" lon="6.68066">
        <ele>2212</ele>
        <time>2010-03-31T10:07:06Z</time>
      </trkpt>
      <trkpt lat="45.48508" lon="6.68053">
        <ele>2230</ele>
        <time>2010-03-31T10:07:15Z</time>
      </trkpt>
      <trkpt lat="45.48523" lon="6.68036">
        <ele>2236</ele>
        <time>2010-03-31T10:07:26Z</time>
      </trkpt>
      <trkpt lat="45.48546" lon="6.68009">
        <ele>2246</ele>
        <time>2010-03-31T10:07:44Z</time>
      </trkpt>
      <trkpt lat="45.48557" lon="6.67996">
        <ele>2263</ele>
        <time>2010-03-31T10:07:52Z</time>
      </trkpt>
      <trkpt lat="45.48582" lon="6.67968">
        <ele>2267</ele>
        <time>2010-03-31T10:08:10Z</time>
      </trkpt>
      <trkpt lat="45.486" lon="6.67948">
        <ele>2291</ele>
        <time>2010-03-31T10:08:23Z</time>
      </trkpt>
      <trkpt lat="45.48612" lon="6.67934">
        <ele>2293</ele>
        <time>2010-03-31T10:08:32Z</time>
      </trkpt>
      <trkpt lat="45.48634" lon="6.67911">
        <ele>2309</ele>
        <time>2010-03-31T10:08:47Z</time>
      </trkpt>
      <trkpt lat="45.4866" lon="6.6788">
        <ele>2314</ele>
        <time>2010-03-31T10:09:06Z</time>
      </trkpt>
      <trkpt lat="45.48686" lon="6.67852">
        <ele>2341</ele>
        <time>2010-03-31T10:09:24Z</time>
      </trkpt>
      <trkpt lat="45.48707" lon="6.67828">
        <ele>2360</ele>
        <time>2010-03-31T10:09:40Z</time>
      </trkpt>
      <trkpt lat="45.48723" lon="6.67809">
        <ele>2367</ele>
        <time>2010-03-31T10:09:52Z</time>
      </trkpt>
      <trkpt lat="45.48733" lon="6.67798">
        <ele>2369</ele>
        <time>2010-03-31T10:09:59Z</time>
      </trkpt>
      <trkpt lat="45.48754" lon="6.67774">
        <ele>2404</ele>
        <time>2010-03-31T10:10:14Z</time>
      </trkpt>
      <trkpt lat="45.48776" lon="6.67749">
        <ele>2419</ele>
        <time>2010-03-31T10:10:30Z</time>
      </trkpt>
      <trkpt lat="45.48802" lon="6.67719">
        <ele>2431</ele>
        <time>2010-03-31T10:10:49Z</time>
      </trkpt>
      <trkpt lat="45.48827" lon="6.6769">
        <ele>2442</ele>
        <time>2010-03-31T10:11:06Z</time>
      </trkpt>
      <trkpt lat="45.4884" lon="6.67674">
        <ele>2461</ele>
        <time>2010-03-31T10:11:16Z</time>
      </trkpt>
      <trkpt lat="45.4885" lon="6.67663">
        <ele>2462</ele>
        <time>2010-03-31T10:11:23Z</time>
      </trkpt>
      <trkpt lat="45.4886" lon="6.67649">
        <ele>2462</ele>
        <time>2010-03-31T10:11:30Z</time>
      </trkpt>
      <trkpt lat="45.4887" lon="6.67637">
        <ele>2462</ele>
        <time>2010-03-31T10:11:34Z</time>
      </trkpt>
      <trkpt lat="45.48879" lon="6.67642">
        <ele>2462</ele>
        <time>2010-03-31T10:11:39Z</time>
      </trkpt>
      <trkpt lat="45.4888" lon="6.67645">
        <ele>2462</ele>
        <time>2010-03-31T10:11:45Z</time>
      </trkpt>
      <trkpt lat="45.4888" lon="6.67646">
        <ele>2462</ele>
        <time>2010-03-31T10:12:08Z</time>
      </trkpt>
      <trkpt lat="45.4888" lon="6.67646">
        <ele>2462</ele>
        <time>2010-03-31T10:12:17Z</time>
      </trkpt>
      <trkpt lat="45.4888" lon="6.67647">
        <ele>2462</ele>
        <time>2010-03-31T10:12:27Z</time>
      </trkpt>
      <trkpt lat="45.4888" lon="6.67646">
        <ele>2462</ele>
        <time>2010-03-31T10:12:43Z</time>
      </trkpt>
      <trkpt lat="45.48881" lon="6.67646">
        <ele>2462</ele>
        <time>2010-03-31T10:12:56Z</time>
      </trkpt>
      <trkpt lat="45.48881" lon="6.67645">
        <ele>2462</ele>
        <time>2010-03-31T10:13:03Z</time>
      </trkpt>
      <trkpt lat="45.48881" lon="6.67647">
        <ele>2462</ele>
        <time>2010-03-31T10:13:13Z</time>
      </trkpt>
      <trkpt lat="45.48881" lon="6.67646">
        <ele>2462</ele>
        <time>2010-03-31T10:13:35Z</time>
      </trkpt>
      <trkpt lat="45.48883" lon="6.67647">
        <ele>2462</ele>
        <time>2010-03-31T10:13:38Z</time>
      </trkpt>
      <trkpt lat="45.48898" lon="6.67661">
        <ele>2463</ele>
        <time>2010-03-31T10:13:43Z</time>
      </trkpt>
      <trkpt lat="45.48919" lon="6.6769">
        <ele>2458</ele>
        <time>2010-03-31T10:13:49Z</time>
      </trkpt>
      <trkpt lat="45.48936" lon="6.67707">
        <ele>2456</ele>
        <time>2010-03-31T10:13:53Z</time>
      </trkpt>
      <trkpt lat="45.48954" lon="6.67735">
        <ele>2455</ele>
        <time>2010-03-31T10:13:58Z</time>
      </trkpt>
      <trkpt lat="45.48975" lon="6.67777">
        <ele>2450</ele>
        <time>2010-03-31T10:14:03Z</time>
      </trkpt>
      <trkpt lat="45.48981" lon="6.67805">
        <ele>2447</ele>
        <time>2010-03-31T10:14:06Z</time>
      </trkpt>
      <trkpt lat="45.48986" lon="6.6783">
        <ele>2443</ele>
        <time>2010-03-31T10:14:09Z</time>
      </trkpt>
      <trkpt lat="45.48989" lon="6.67853">
        <ele>2435</ele>
        <time>2010-03-31T10:14:12Z</time>
      </trkpt>
      <trkpt lat="45.48993" lon="6.67878">
        <ele>2433</ele>
        <time>2010-03-31T10:14:15Z</time>
      </trkpt>
      <trkpt lat="45.48995" lon="6.67891">
        <ele>2431</ele>
        <time>2010-03-31T10:14:17Z</time>
      </trkpt>
      <trkpt lat="45.49" lon="6.67896">
        <ele>2419</ele>
        <time>2010-03-31T10:14:19Z</time>
      </trkpt>
      <trkpt lat="45.49014" lon="6.67899">
        <ele>2417</ele>
        <time>2010-03-31T10:14:22Z</time>
      </trkpt>
      <trkpt lat="45.49018" lon="6.67898">
        <ele>2416</ele>
        <time>2010-03-31T10:14:25Z</time>
      </trkpt>
      <trkpt lat="45.49017" lon="6.67898">
        <ele>2416</ele>
        <time>2010-03-31T10:14:32Z</time>
      </trkpt>
      <trkpt lat="45.49018" lon="6.67901">
        <ele>2416</ele>
        <time>2010-03-31T10:14:35Z</time>
      </trkpt>
      <trkpt lat="45.49015" lon="6.67925">
        <ele>2412</ele>
        <time>2010-03-31T10:14:39Z</time>
      </trkpt>
      <trkpt lat="45.49011" lon="6.67944">
        <ele>2406</ele>
        <time>2010-03-31T10:14:42Z</time>
      </trkpt>
      <trkpt lat="45.49015" lon="6.67961">
        <ele>2401</ele>
        <time>2010-03-31T10:14:45Z</time>
      </trkpt>
      <trkpt lat="45.49017" lon="6.67974">
        <ele>2399</ele>
        <time>2010-03-31T10:14:47Z</time>
      </trkpt>
      <trkpt lat="45.49019" lon="6.67994">
        <ele>2398</ele>
        <time>2010-03-31T10:14:50Z</time>
      </trkpt>
      <trkpt lat="45.4902" lon="6.68006">
        <ele>2397</ele>
        <time>2010-03-31T10:14:52Z</time>
      </trkpt>
      <trkpt lat="45.49027" lon="6.68034">
        <ele>2397</ele>
        <time>2010-03-31T10:14:57Z</time>
      </trkpt>
      <trkpt lat="45.49027" lon="6.68034">
        <ele>2397</ele>
        <time>2010-03-31T10:15:00Z</time>
      </trkpt>
      <trkpt lat="45.49029" lon="6.68033">
        <ele>2397</ele>
        <time>2010-03-31T10:15:11Z</time>
      </trkpt>
      <trkpt lat="45.49029" lon="6.68033">
        <ele>2397</ele>
        <time>2010-03-31T10:15:23Z</time>
      </trkpt>
      <trkpt lat="45.4903" lon="6.68031">
        <ele>2397</ele>
        <time>2010-03-31T10:15:29Z</time>
      </trkpt>
      <trkpt lat="45.49032" lon="6.68029">
        <ele>2397</ele>
        <time>2010-03-31T10:15:36Z</time>
      </trkpt>
      <trkpt lat="45.49033" lon="6.68029">
        <ele>2397</ele>
        <time>2010-03-31T10:15:42Z</time>
      </trkpt>
      <trkpt lat="45.49031" lon="6.6803">
        <ele>2397</ele>
        <time>2010-03-31T10:15:48Z</time>
      </trkpt>
      <trkpt lat="45.49028" lon="6.68033">
        <ele>2397</ele>
        <time>2010-03-31T10:15:54Z</time>
      </trkpt>
      <trkpt lat="45.49027" lon="6.68034">
        <ele>2397</ele>
        <time>2010-03-31T10:16:06Z</time>
      </trkpt>
      <trkpt lat="45.49027" lon="6.68033">
        <ele>2397</ele>
        <time>2010-03-31T10:16:13Z</time>
      </trkpt>
      <trkpt lat="45.49029" lon="6.68032">
        <ele>2397</ele>
        <time>2010-03-31T10:16:25Z</time>
      </trkpt>
      <trkpt lat="45.49033" lon="6.6803">
        <ele>2397</ele>
        <time>2010-03-31T10:16:29Z</time>
      </trkpt>
      <trkpt lat="45.49036" lon="6.68029">
        <ele>2397</ele>
        <time>2010-03-31T10:16:32Z</time>
      </trkpt>
      <trkpt lat="45.49046" lon="6.6803">
        <ele>2397</ele>
        <time>2010-03-31T10:16:37Z</time>
      </trkpt>
      <trkpt lat="45.49048" lon="6.68017">
        <ele>2396</ele>
        <time>2010-03-31T10:16:41Z</time>
      </trkpt>
      <trkpt lat="45.49048" lon="6.68009">
        <ele>2395</ele>
        <time>2010-03-31T10:16:43Z</time>
      </trkpt>
      <trkpt lat="45.49058" lon="6.68004">
        <ele>2394</ele>
        <time>2010-03-31T10:16:46Z</time>
      </trkpt>
      <trkpt lat="45.49067" lon="6.68007">
        <ele>2392</ele>
        <time>2010-03-31T10:16:51Z</time>
      </trkpt>
      <trkpt lat="45.49072" lon="6.68007">
        <ele>2391</ele>
        <time>2010-03-31T10:16:53Z</time>
      </trkpt>
      <trkpt lat="45.49077" lon="6.67991">
        <ele>2389</ele>
        <time>2010-03-31T10:16:57Z</time>
      </trkpt>
      <trkpt lat="45.49082" lon="6.67987">
        <ele>2389</ele>
        <time>2010-03-31T10:16:59Z</time>
      </trkpt>
      <trkpt lat="45.49085" lon="6.67987">
        <ele>2378</ele>
        <time>2010-03-31T10:17:00Z</time>
      </trkpt>
      <trkpt lat="45.49089" lon="6.67986">
        <ele>2377</ele>
        <time>2010-03-31T10:17:02Z</time>
      </trkpt>
      <trkpt lat="45.491" lon="6.67973">
        <ele>2372</ele>
        <time>2010-03-31T10:17:06Z</time>
      </trkpt>
      <trkpt lat="45.49106" lon="6.67975">
        <ele>2371</ele>
        <time>2010-03-31T10:17:09Z</time>
      </trkpt>
      <trkpt lat="45.49113" lon="6.67973">
        <ele>2370</ele>
        <time>2010-03-31T10:17:12Z</time>
      </trkpt>
      <trkpt lat="45.49123" lon="6.67967">
        <ele>2367</ele>
        <time>2010-03-31T10:17:15Z</time>
      </trkpt>
      <trkpt lat="45.49133" lon="6.67967">
        <ele>2365</ele>
        <time>2010-03-31T10:17:18Z</time>
      </trkpt>
      <trkpt lat="45.49138" lon="6.67955">
        <ele>2363</ele>
        <time>2010-03-31T10:17:20Z</time>
      </trkpt>
      <trkpt lat="45.49156" lon="6.6795">
        <ele>2360</ele>
        <time>2010-03-31T10:17:25Z</time>
      </trkpt>
      <trkpt lat="45.49165" lon="6.67954">
        <ele>2359</ele>
        <time>2010-03-31T10:17:28Z</time>
      </trkpt>
      <trkpt lat="45.49177" lon="6.67943">
        <ele>2339</ele>
        <time>2010-03-31T10:17:30Z</time>
      </trkpt>
      <trkpt lat="45.49189" lon="6.67945">
        <ele>2337</ele>
        <time>2010-03-31T10:17:32Z</time>
      </trkpt>
      <trkpt lat="45.49206" lon="6.67951">
        <ele>2335</ele>
        <time>2010-03-31T10:17:35Z</time>
      </trkpt>
      <trkpt lat="45.49215" lon="6.67949">
        <ele>2334</ele>
        <time>2010-03-31T10:17:36Z</time>
      </trkpt>
      <trkpt lat="45.49264" lon="6.67939">
        <ele>2312</ele>
        <time>2010-03-31T10:17:40Z</time>
      </trkpt>
      <trkpt lat="45.49296" lon="6.67937">
        <ele>2308</ele>
        <time>2010-03-31T10:17:43Z</time>
      </trkpt>
      <trkpt lat="45.49305" lon="6.67932">
        <ele>2306</ele>
        <time>2010-03-31T10:17:44Z</time>
      </trkpt>
      <trkpt lat="45.49318" lon="6.67932">
        <ele>2303</ele>
        <time>2010-03-31T10:17:47Z</time>
      </trkpt>
      <trkpt lat="45.49317" lon="6.67934">
        <ele>2304</ele>
        <time>2010-03-31T10:17:52Z</time>
      </trkpt>
      <trkpt lat="45.49319" lon="6.6793">
        <ele>2303</ele>
        <time>2010-03-31T10:17:56Z</time>
      </trkpt>
      <trkpt lat="45.49324" lon="6.67915">
        <ele>2298</ele>
        <time>2010-03-31T10:18:00Z</time>
      </trkpt>
      <trkpt lat="45.49334" lon="6.67905">
        <ele>2290</ele>
        <time>2010-03-31T10:18:03Z</time>
      </trkpt>
      <trkpt lat="45.49343" lon="6.67893">
        <ele>2287</ele>
        <time>2010-03-31T10:18:05Z</time>
      </trkpt>
      <trkpt lat="45.49367" lon="6.67877">
        <ele>2283</ele>
        <time>2010-03-31T10:18:09Z</time>
      </trkpt>
      <trkpt lat="45.49372" lon="6.67879">
        <ele>2283</ele>
        <time>2010-03-31T10:18:10Z</time>
      </trkpt>
      <trkpt lat="45.49385" lon="6.67871">
        <ele>2281</ele>
        <time>2010-03-31T10:18:14Z</time>
      </trkpt>
      <trkpt lat="45.49388" lon="6.67856">
        <ele>2280</ele>
        <time>2010-03-31T10:18:16Z</time>
      </trkpt>
      <trkpt lat="45.49403" lon="6.67847">
        <ele>2277</ele>
        <time>2010-03-31T10:18:19Z</time>
      </trkpt>
      <trkpt lat="45.49427" lon="6.67839">
        <ele>2267</ele>
        <time>2010-03-31T10:18:22Z</time>
      </trkpt>
      <trkpt lat="45.49446" lon="6.67837">
        <ele>2263</ele>
        <time>2010-03-31T10:18:24Z</time>
      </trkpt>
      <trkpt lat="45.49461" lon="6.67853">
        <ele>2260</ele>
        <time>2010-03-31T10:18:27Z</time>
      </trkpt>
      <trkpt lat="45.49477" lon="6.67857">
        <ele>2258</ele>
        <time>2010-03-31T10:18:30Z</time>
      </trkpt>
      <trkpt lat="45.49479" lon="6.67855">
        <ele>2257</ele>
        <time>2010-03-31T10:18:49Z</time>
      </trkpt>
      <trkpt lat="45.49478" lon="6.67856">
        <ele>2257</ele>
        <time>2010-03-31T10:19:18Z</time>
      </trkpt>
      <trkpt lat="45.49479" lon="6.67859">
        <ele>2257</ele>
        <time>2010-03-31T10:19:24Z</time>
      </trkpt>
      <trkpt lat="45.49489" lon="6.67867">
        <ele>2257</ele>
        <time>2010-03-31T10:19:28Z</time>
      </trkpt>
      <trkpt lat="45.49494" lon="6.67874">
        <ele>2257</ele>
        <time>2010-03-31T10:19:30Z</time>
      </trkpt>
      <trkpt lat="45.49499" lon="6.67881">
        <ele>2257</ele>
        <time>2010-03-31T10:19:33Z</time>
      </trkpt>
      <trkpt lat="45.49507" lon="6.67894">
        <ele>2244</ele>
        <time>2010-03-31T10:19:36Z</time>
      </trkpt>
      <trkpt lat="45.49516" lon="6.67926">
        <ele>2245</ele>
        <time>2010-03-31T10:19:39Z</time>
      </trkpt>
      <trkpt lat="45.49541" lon="6.67973">
        <ele>2239</ele>
        <time>2010-03-31T10:19:43Z</time>
      </trkpt>
      <trkpt lat="45.49568" lon="6.67986">
        <ele>2233</ele>
        <time>2010-03-31T10:19:46Z</time>
      </trkpt>
      <trkpt lat="45.49584" lon="6.67967">
        <ele>2219</ele>
        <time>2010-03-31T10:19:48Z</time>
      </trkpt>
      <trkpt lat="45.49599" lon="6.67938">
        <ele>2219</ele>
        <time>2010-03-31T10:19:51Z</time>
      </trkpt>
      <trkpt lat="45.49612" lon="6.67915">
        <ele>2218</ele>
        <time>2010-03-31T10:19:54Z</time>
      </trkpt>
      <trkpt lat="45.49629" lon="6.67899">
        <ele>2215</ele>
        <time>2010-03-31T10:19:57Z</time>
      </trkpt>
      <trkpt lat="45.49639" lon="6.67901">
        <ele>2213</ele>
        <time>2010-03-31T10:19:59Z</time>
      </trkpt>
      <trkpt lat="45.49649" lon="6.67895">
        <ele>2212</ele>
        <time>2010-03-31T10:20:01Z</time>
      </trkpt>
      <trkpt lat="45.49668" lon="6.67882">
        <ele>2197</ele>
        <time>2010-03-31T10:20:05Z</time>
      </trkpt>
      <trkpt lat="45.4967" lon="6.67887">
        <ele>2197</ele>
        <time>2010-03-31T10:20:06Z</time>
      </trkpt>
      <trkpt lat="45.49686" lon="6.67893">
        <ele>2196</ele>
        <time>2010-03-31T10:20:10Z</time>
      </trkpt>
      <trkpt lat="45.49696" lon="6.67897">
        <ele>2194</ele>
        <time>2010-03-31T10:20:12Z</time>
      </trkpt>
      <trkpt lat="45.49713" lon="6.67904">
        <ele>2191</ele>
        <time>2010-03-31T10:20:15Z</time>
      </trkpt>
      <trkpt lat="45.49721" lon="6.679">
        <ele>2190</ele>
        <time>2010-03-31T10:20:16Z</time>
      </trkpt>
      <trkpt lat="45.49739" lon="6.67893">
        <ele>2188</ele>
        <time>2010-03-31T10:20:18Z</time>
      </trkpt>
      <trkpt lat="45.49765" lon="6.67898">
        <ele>2175</ele>
        <time>2010-03-31T10:20:21Z</time>
      </trkpt>
      <trkpt lat="45.49778" lon="6.67897">
        <ele>2173</ele>
        <time>2010-03-31T10:20:23Z</time>
      </trkpt>
      <trkpt lat="45.49813" lon="6.67895">
        <ele>2168</ele>
        <time>2010-03-31T10:20:28Z</time>
      </trkpt>
      <trkpt lat="45.49819" lon="6.67896">
        <ele>2167</ele>
        <time>2010-03-31T10:20:29Z</time>
      </trkpt>
      <trkpt lat="45.49834" lon="6.679">
        <ele>2155</ele>
        <time>2010-03-31T10:20:33Z</time>
      </trkpt>
      <trkpt lat="45.49834" lon="6.67898">
        <ele>2155</ele>
        <time>2010-03-31T10:20:38Z</time>
      </trkpt>
      <trkpt lat="45.49833" lon="6.67897">
        <ele>2155</ele>
        <time>2010-03-31T10:20:53Z</time>
      </trkpt>
      <trkpt lat="45.49843" lon="6.67898">
        <ele>2154</ele>
        <time>2010-03-31T10:20:57Z</time>
      </trkpt>
      <trkpt lat="45.49859" lon="6.679">
        <ele>2151</ele>
        <time>2010-03-31T10:21:01Z</time>
      </trkpt>
      <trkpt lat="45.49876" lon="6.67902">
        <ele>2147</ele>
        <time>2010-03-31T10:21:04Z</time>
      </trkpt>
      <trkpt lat="45.49897" lon="6.679">
        <ele>2142</ele>
        <time>2010-03-31T10:21:08Z</time>
      </trkpt>
      <trkpt lat="45.49914" lon="6.67896">
        <ele>2140</ele>
        <time>2010-03-31T10:21:11Z</time>
      </trkpt>
      <trkpt lat="45.49927" lon="6.67901">
        <ele>2126</ele>
        <time>2010-03-31T10:21:14Z</time>
      </trkpt>
      <trkpt lat="45.49939" lon="6.679">
        <ele>2123</ele>
        <time>2010-03-31T10:21:16Z</time>
      </trkpt>
      <trkpt lat="45.49984" lon="6.67923">
        <ele>2113</ele>
        <time>2010-03-31T10:21:21Z</time>
      </trkpt>
      <trkpt lat="45.50015" lon="6.67943">
        <ele>2103</ele>
        <time>2010-03-31T10:21:24Z</time>
      </trkpt>
      <trkpt lat="45.50053" lon="6.67947">
        <ele>2100</ele>
        <time>2010-03-31T10:21:28Z</time>
      </trkpt>
      <trkpt lat="45.50073" lon="6.67947">
        <ele>2099</ele>
        <time>2010-03-31T10:21:30Z</time>
      </trkpt>
      <trkpt lat="45.50098" lon="6.67938">
        <ele>2090</ele>
        <time>2010-03-31T10:21:33Z</time>
      </trkpt>
      <trkpt lat="45.50111" lon="6.67937">
        <ele>2089</ele>
        <time>2010-03-31T10:21:36Z</time>
      </trkpt>
      <trkpt lat="45.50115" lon="6.67937">
        <ele>2088</ele>
        <time>2010-03-31T10:21:37Z</time>
      </trkpt>
      <trkpt lat="45.50147" lon="6.67934">
        <ele>2085</ele>
        <time>2010-03-31T10:21:41Z</time>
      </trkpt>
      <trkpt lat="45.50182" lon="6.67928">
        <ele>2074</ele>
        <time>2010-03-31T10:21:45Z</time>
      </trkpt>
      <trkpt lat="45.50201" lon="6.67913">
        <ele>2064</ele>
        <time>2010-03-31T10:21:48Z</time>
      </trkpt>
      <trkpt lat="45.50207" lon="6.67908">
        <ele>2063</ele>
        <time>2010-03-31T10:21:52Z</time>
      </trkpt>
      <trkpt lat="45.50208" lon="6.67909">
        <ele>2063</ele>
        <time>2010-03-31T10:21:58Z</time>
      </trkpt>
      <trkpt lat="45.50207" lon="6.67909">
        <ele>2063</ele>
        <time>2010-03-31T10:22:12Z</time>
      </trkpt>
      <trkpt lat="45.50207" lon="6.67908">
        <ele>2063</ele>
        <time>2010-03-31T10:22:16Z</time>
      </trkpt>
      <trkpt lat="45.50205" lon="6.67887">
        <ele>2062</ele>
        <time>2010-03-31T10:22:21Z</time>
      </trkpt>
      <trkpt lat="45.50217" lon="6.67883">
        <ele>2060</ele>
        <time>2010-03-31T10:22:24Z</time>
      </trkpt>
      <trkpt lat="45.50221" lon="6.67883">
        <ele>2060</ele>
        <time>2010-03-31T10:22:25Z</time>
      </trkpt>
      <trkpt lat="45.50233" lon="6.67869">
        <ele>2057</ele>
        <time>2010-03-31T10:22:29Z</time>
      </trkpt>
      <trkpt lat="45.50243" lon="6.67861">
        <ele>2055</ele>
        <time>2010-03-31T10:22:32Z</time>
      </trkpt>
      <trkpt lat="45.50254" lon="6.6784">
        <ele>2043</ele>
        <time>2010-03-31T10:22:35Z</time>
      </trkpt>
      <trkpt lat="45.50281" lon="6.67822">
        <ele>2035</ele>
        <time>2010-03-31T10:22:40Z</time>
      </trkpt>
      <trkpt lat="45.50302" lon="6.67815">
        <ele>2031</ele>
        <time>2010-03-31T10:22:43Z</time>
      </trkpt>
      <trkpt lat="45.50312" lon="6.67806">
        <ele>2030</ele>
        <time>2010-03-31T10:22:45Z</time>
      </trkpt>
      <trkpt lat="45.50317" lon="6.67801">
        <ele>2029</ele>
        <time>2010-03-31T10:22:46Z</time>
      </trkpt>
      <trkpt lat="45.50332" lon="6.67783">
        <ele>2028</ele>
        <time>2010-03-31T10:22:49Z</time>
      </trkpt>
      <trkpt lat="45.50355" lon="6.67771">
        <ele>2014</ele>
        <time>2010-03-31T10:22:52Z</time>
      </trkpt>
      <trkpt lat="45.50365" lon="6.67777">
        <ele>2013</ele>
        <time>2010-03-31T10:22:54Z</time>
      </trkpt>
      <trkpt lat="45.50367" lon="6.67777">
        <ele>2013</ele>
        <time>2010-03-31T10:22:57Z</time>
      </trkpt>
      <trkpt lat="45.50367" lon="6.67777">
        <ele>2013</ele>
        <time>2010-03-31T10:23:09Z</time>
      </trkpt>
      <trkpt lat="45.50367" lon="6.67776">
        <ele>2013</ele>
        <time>2010-03-31T10:23:18Z</time>
      </trkpt>
      <trkpt lat="45.50368" lon="6.67772">
        <ele>2013</ele>
        <time>2010-03-31T10:23:22Z</time>
      </trkpt>
      <trkpt lat="45.50385" lon="6.67771">
        <ele>2010</ele>
        <time>2010-03-31T10:23:27Z</time>
      </trkpt>
      <trkpt lat="45.50409" lon="6.67769">
        <ele>2007</ele>
        <time>2010-03-31T10:23:31Z</time>
      </trkpt>
      <trkpt lat="45.50432" lon="6.6778">
        <ele>1999</ele>
        <time>2010-03-31T10:23:36Z</time>
      </trkpt>
      <trkpt lat="45.50437" lon="6.67784">
        <ele>1998</ele>
        <time>2010-03-31T10:23:40Z</time>
      </trkpt>
      <trkpt lat="45.50437" lon="6.67782">
        <ele>1998</ele>
        <time>2010-03-31T10:23:45Z</time>
      </trkpt>
      <trkpt lat="45.50437" lon="6.67782">
        <ele>1998</ele>
        <time>2010-03-31T10:24:06Z</time>
      </trkpt>
      <trkpt lat="45.50437" lon="6.67782">
        <ele>1998</ele>
        <time>2010-03-31T10:24:17Z</time>
      </trkpt>
      <trkpt lat="45.50435" lon="6.67782">
        <ele>1998</ele>
        <time>2010-03-31T10:25:08Z</time>
      </trkpt>
      <trkpt lat="45.50435" lon="6.67783">
        <ele>1998</ele>
        <time>2010-03-31T10:25:20Z</time>
      </trkpt>
      <trkpt lat="45.50436" lon="6.67783">
        <ele>1998</ele>
        <time>2010-03-31T10:25:26Z</time>
      </trkpt>
      <trkpt lat="45.50439" lon="6.67787">
        <ele>1998</ele>
        <time>2010-03-31T10:25:31Z</time>
      </trkpt>
      <trkpt lat="45.50441" lon="6.67787">
        <ele>1998</ele>
        <time>2010-03-31T10:25:32Z</time>
      </trkpt>
      <trkpt lat="45.50461" lon="6.67786">
        <ele>1997</ele>
        <time>2010-03-31T10:25:37Z</time>
      </trkpt>
      <trkpt lat="45.5047" lon="6.67791">
        <ele>1997</ele>
        <time>2010-03-31T10:25:39Z</time>
      </trkpt>
      <trkpt lat="45.50486" lon="6.67804">
        <ele>1996</ele>
        <time>2010-03-31T10:25:43Z</time>
      </trkpt>
      <trkpt lat="45.50502" lon="6.67827">
        <ele>1992</ele>
        <time>2010-03-31T10:25:47Z</time>
      </trkpt>
      <trkpt lat="45.50516" lon="6.6784">
        <ele>1992</ele>
        <time>2010-03-31T10:25:50Z</time>
      </trkpt>
      <trkpt lat="45.50523" lon="6.67843">
        <ele>1992</ele>
        <time>2010-03-31T10:25:51Z</time>
      </trkpt>
      <trkpt lat="45.50575" lon="6.67866">
        <ele>1990</ele>
        <time>2010-03-31T10:25:57Z</time>
      </trkpt>
      <trkpt lat="45.50603" lon="6.6788">
        <ele>1984</ele>
        <time>2010-03-31T10:26:00Z</time>
      </trkpt>
      <trkpt lat="45.50615" lon="6.67892">
        <ele>1984</ele>
        <time>2010-03-31T10:26:02Z</time>
      </trkpt>
      <trkpt lat="45.50654" lon="6.67909">
        <ele>1982</ele>
        <time>2010-03-31T10:26:08Z</time>
      </trkpt>
      <trkpt lat="45.50682" lon="6.67926">
        <ele>1981</ele>
        <time>2010-03-31T10:26:12Z</time>
      </trkpt>
      <trkpt lat="45.50739" lon="6.67982">
        <ele>1978</ele>
        <time>2010-03-31T10:26:20Z</time>
      </trkpt>
      <trkpt lat="45.50784" lon="6.68025">
        <ele>1969</ele>
        <time>2010-03-31T10:26:26Z</time>
      </trkpt>
      <trkpt lat="45.50814" lon="6.68054">
        <ele>1967</ele>
        <time>2010-03-31T10:26:31Z</time>
      </trkpt>
      <trkpt lat="45.50837" lon="6.68074">
        <ele>1958</ele>
        <time>2010-03-31T10:26:36Z</time>
      </trkpt>
      <trkpt lat="45.50857" lon="6.68094">
        <ele>1961</ele>
        <time>2010-03-31T10:26:42Z</time>
      </trkpt>
      <trkpt lat="45.50885" lon="6.68122">
        <ele>1960</ele>
        <time>2010-03-31T10:26:52Z</time>
      </trkpt>
      <trkpt lat="45.50904" lon="6.68136">
        <ele>1959</ele>
        <time>2010-03-31T10:26:58Z</time>
      </trkpt>
      <trkpt lat="45.50912" lon="6.68143">
        <ele>1958</ele>
        <time>2010-03-31T10:27:00Z</time>
      </trkpt>
      <trkpt lat="45.5092" lon="6.68145">
        <ele>1955</ele>
        <time>2010-03-31T10:27:04Z</time>
      </trkpt>
      <trkpt lat="45.50927" lon="6.68147">
        <ele>1955</ele>
        <time>2010-03-31T10:27:11Z</time>
      </trkpt>
      <trkpt lat="45.50929" lon="6.68146">
        <ele>1955</ele>
        <time>2010-03-31T10:27:19Z</time>
      </trkpt>
      <trkpt lat="45.50934" lon="6.68149">
        <ele>1955</ele>
        <time>2010-03-31T10:27:26Z</time>
      </trkpt>
      <trkpt lat="45.50935" lon="6.68152">
        <ele>1955</ele>
        <time>2010-03-31T10:27:32Z</time>
      </trkpt>
      <trkpt lat="45.50935" lon="6.68154">
        <ele>1956</ele>
        <time>2010-03-31T10:27:39Z</time>
      </trkpt>
      <trkpt lat="45.50935" lon="6.68155">
        <ele>1956</ele>
        <time>2010-03-31T10:27:46Z</time>
      </trkpt>
      <trkpt lat="45.50934" lon="6.6816">
        <ele>1956</ele>
        <time>2010-03-31T10:27:51Z</time>
      </trkpt>
      <trkpt lat="45.50933" lon="6.68164">
        <ele>1956</ele>
        <time>2010-03-31T10:27:56Z</time>
      </trkpt>
      <trkpt lat="45.50933" lon="6.68166">
        <ele>1956</ele>
        <time>2010-03-31T10:28:02Z</time>
      </trkpt>
      <trkpt lat="45.50924" lon="6.68178">
        <ele>1961</ele>
        <time>2010-03-31T10:28:06Z</time>
      </trkpt>
      <trkpt lat="45.50915" lon="6.6819">
        <ele>1968</ele>
        <time>2010-03-31T10:28:09Z</time>
      </trkpt>
      <trkpt lat="45.50899" lon="6.68217">
        <ele>1975</ele>
        <time>2010-03-31T10:28:15Z</time>
      </trkpt>
      <trkpt lat="45.50882" lon="6.68243">
        <ele>1978</ele>
        <time>2010-03-31T10:28:21Z</time>
      </trkpt>
      <trkpt lat="45.50864" lon="6.68268">
        <ele>1992</ele>
        <time>2010-03-31T10:28:27Z</time>
      </trkpt>
      <trkpt lat="45.50844" lon="6.68298">
        <ele>1996</ele>
        <time>2010-03-31T10:28:34Z</time>
      </trkpt>
      <trkpt lat="45.5083" lon="6.6832">
        <ele>2006</ele>
        <time>2010-03-31T10:28:39Z</time>
      </trkpt>
      <trkpt lat="45.50813" lon="6.68346">
        <ele>2014</ele>
        <time>2010-03-31T10:28:45Z</time>
      </trkpt>
      <trkpt lat="45.50783" lon="6.68394">
        <ele>2021</ele>
        <time>2010-03-31T10:28:56Z</time>
      </trkpt>
      <trkpt lat="45.50769" lon="6.68414">
        <ele>2024</ele>
        <time>2010-03-31T10:29:01Z</time>
      </trkpt>
      <trkpt lat="45.50752" lon="6.68442">
        <ele>2031</ele>
        <time>2010-03-31T10:29:07Z</time>
      </trkpt>
      <trkpt lat="45.50728" lon="6.68478">
        <ele>2040</ele>
        <time>2010-03-31T10:29:15Z</time>
      </trkpt>
      <trkpt lat="45.50708" lon="6.68509">
        <ele>2046</ele>
        <time>2010-03-31T10:29:22Z</time>
      </trkpt>
      <trkpt lat="45.50689" lon="6.6854">
        <ele>2049</ele>
        <time>2010-03-31T10:29:29Z</time>
      </trkpt>
      <trkpt lat="45.50669" lon="6.6857">
        <ele>2052</ele>
        <time>2010-03-31T10:29:36Z</time>
      </trkpt>
      <trkpt lat="45.50649" lon="6.68601">
        <ele>2061</ele>
        <time>2010-03-31T10:29:43Z</time>
      </trkpt>
      <trkpt lat="45.50632" lon="6.68628">
        <ele>2063</ele>
        <time>2010-03-31T10:29:49Z</time>
      </trkpt>
      <trkpt lat="45.50607" lon="6.68668">
        <ele>2067</ele>
        <time>2010-03-31T10:29:58Z</time>
      </trkpt>
      <trkpt lat="45.50588" lon="6.68699">
        <ele>2068</ele>
        <time>2010-03-31T10:30:05Z</time>
      </trkpt>
      <trkpt lat="45.50553" lon="6.68752">
        <ele>2081</ele>
        <time>2010-03-31T10:30:17Z</time>
      </trkpt>
      <trkpt lat="45.50531" lon="6.68788">
        <ele>2085</ele>
        <time>2010-03-31T10:30:25Z</time>
      </trkpt>
      <trkpt lat="45.50497" lon="6.68841">
        <ele>2094</ele>
        <time>2010-03-31T10:30:37Z</time>
      </trkpt>
      <trkpt lat="45.50472" lon="6.68881">
        <ele>2096</ele>
        <time>2010-03-31T10:30:46Z</time>
      </trkpt>
      <trkpt lat="45.50443" lon="6.68926">
        <ele>2095</ele>
        <time>2010-03-31T10:30:56Z</time>
      </trkpt>
      <trkpt lat="45.50411" lon="6.68976">
        <ele>2107</ele>
        <time>2010-03-31T10:31:07Z</time>
      </trkpt>
      <trkpt lat="45.5038" lon="6.69025">
        <ele>2113</ele>
        <time>2010-03-31T10:31:18Z</time>
      </trkpt>
      <trkpt lat="45.50346" lon="6.69078">
        <ele>2121</ele>
        <time>2010-03-31T10:31:30Z</time>
      </trkpt>
      <trkpt lat="45.50313" lon="6.6913">
        <ele>2140</ele>
        <time>2010-03-31T10:31:42Z</time>
      </trkpt>
      <trkpt lat="45.50298" lon="6.69155">
        <ele>2142</ele>
        <time>2010-03-31T10:31:48Z</time>
      </trkpt>
      <trkpt lat="45.50278" lon="6.69187">
        <ele>2148</ele>
        <time>2010-03-31T10:31:55Z</time>
      </trkpt>
      <trkpt lat="45.50232" lon="6.69258">
        <ele>2162</ele>
        <time>2010-03-31T10:32:11Z</time>
      </trkpt>
      <trkpt lat="45.50215" lon="6.69286">
        <ele>2165</ele>
        <time>2010-03-31T10:32:17Z</time>
      </trkpt>
      <trkpt lat="45.50195" lon="6.69317">
        <ele>2166</ele>
        <time>2010-03-31T10:32:24Z</time>
      </trkpt>
      <trkpt lat="45.50175" lon="6.69348">
        <ele>2166</ele>
        <time>2010-03-31T10:32:31Z</time>
      </trkpt>
      <trkpt lat="45.50167" lon="6.69362">
        <ele>2165</ele>
        <time>2010-03-31T10:32:36Z</time>
      </trkpt>
      <trkpt lat="45.50165" lon="6.69367">
        <ele>2174</ele>
        <time>2010-03-31T10:32:39Z</time>
      </trkpt>
      <trkpt lat="45.50158" lon="6.69377">
        <ele>2174</ele>
        <time>2010-03-31T10:32:43Z</time>
      </trkpt>
      <trkpt lat="45.50157" lon="6.69394">
        <ele>2173</ele>
        <time>2010-03-31T10:32:47Z</time>
      </trkpt>
      <trkpt lat="45.50166" lon="6.69396">
        <ele>2172</ele>
        <time>2010-03-31T10:32:52Z</time>
      </trkpt>
      <trkpt lat="45.50173" lon="6.69386">
        <ele>2164</ele>
        <time>2010-03-31T10:32:56Z</time>
      </trkpt>
      <trkpt lat="45.50175" lon="6.69383">
        <ele>2164</ele>
        <time>2010-03-31T10:32:57Z</time>
      </trkpt>
      <trkpt lat="45.50196" lon="6.69358">
        <ele>2164</ele>
        <time>2010-03-31T10:33:02Z</time>
      </trkpt>
      <trkpt lat="45.50208" lon="6.69345">
        <ele>2163</ele>
        <time>2010-03-31T10:33:04Z</time>
      </trkpt>
      <trkpt lat="45.50229" lon="6.69338">
        <ele>2162</ele>
        <time>2010-03-31T10:33:07Z</time>
      </trkpt>
      <trkpt lat="45.50249" lon="6.6934">
        <ele>2161</ele>
        <time>2010-03-31T10:33:10Z</time>
      </trkpt>
      <trkpt lat="45.50255" lon="6.69343">
        <ele>2156</ele>
        <time>2010-03-31T10:33:11Z</time>
      </trkpt>
      <trkpt lat="45.50294" lon="6.69362">
        <ele>2150</ele>
        <time>2010-03-31T10:33:17Z</time>
      </trkpt>
      <trkpt lat="45.50315" lon="6.69366">
        <ele>2148</ele>
        <time>2010-03-31T10:33:20Z</time>
      </trkpt>
      <trkpt lat="45.50329" lon="6.69373">
        <ele>2147</ele>
        <time>2010-03-31T10:33:23Z</time>
      </trkpt>
      <trkpt lat="45.50338" lon="6.69364">
        <ele>2141</ele>
        <time>2010-03-31T10:33:25Z</time>
      </trkpt>
      <trkpt lat="45.50363" lon="6.69365">
        <ele>2139</ele>
        <time>2010-03-31T10:33:30Z</time>
      </trkpt>
      <trkpt lat="45.5037" lon="6.69382">
        <ele>2138</ele>
        <time>2010-03-31T10:33:32Z</time>
      </trkpt>
      <trkpt lat="45.50384" lon="6.69444">
        <ele>2131</ele>
        <time>2010-03-31T10:33:37Z</time>
      </trkpt>
      <trkpt lat="45.5039" lon="6.69469">
        <ele>2130</ele>
        <time>2010-03-31T10:33:39Z</time>
      </trkpt>
      <trkpt lat="45.50411" lon="6.695">
        <ele>2127</ele>
        <time>2010-03-31T10:33:43Z</time>
      </trkpt>
      <trkpt lat="45.50432" lon="6.69508">
        <ele>2121</ele>
        <time>2010-03-31T10:33:46Z</time>
      </trkpt>
      <trkpt lat="45.50439" lon="6.69511">
        <ele>2120</ele>
        <time>2010-03-31T10:33:47Z</time>
      </trkpt>
      <trkpt lat="45.50508" lon="6.69541">
        <ele>2113</ele>
        <time>2010-03-31T10:33:55Z</time>
      </trkpt>
      <trkpt lat="45.50546" lon="6.69558">
        <ele>2113</ele>
        <time>2010-03-31T10:34:00Z</time>
      </trkpt>
      <trkpt lat="45.5057" lon="6.69575">
        <ele>2112</ele>
        <time>2010-03-31T10:34:05Z</time>
      </trkpt>
      <trkpt lat="45.50589" lon="6.69589">
        <ele>2111</ele>
        <time>2010-03-31T10:34:11Z</time>
      </trkpt>
      <trkpt lat="45.5061" lon="6.6961">
        <ele>2109</ele>
        <time>2010-03-31T10:34:17Z</time>
      </trkpt>
      <trkpt lat="45.50613" lon="6.69614">
        <ele>2109</ele>
        <time>2010-03-31T10:34:18Z</time>
      </trkpt>
      <trkpt lat="45.50622" lon="6.69649">
        <ele>2108</ele>
        <time>2010-03-31T10:34:23Z</time>
      </trkpt>
      <trkpt lat="45.50632" lon="6.69674">
        <ele>2104</ele>
        <time>2010-03-31T10:34:26Z</time>
      </trkpt>
      <trkpt lat="45.50648" lon="6.69694">
        <ele>2103</ele>
        <time>2010-03-31T10:34:29Z</time>
      </trkpt>
      <trkpt lat="45.50666" lon="6.69729">
        <ele>2100</ele>
        <time>2010-03-31T10:34:33Z</time>
      </trkpt>
      <trkpt lat="45.50688" lon="6.69769">
        <ele>2087</ele>
        <time>2010-03-31T10:34:38Z</time>
      </trkpt>
      <trkpt lat="45.50696" lon="6.6979">
        <ele>2084</ele>
        <time>2010-03-31T10:34:41Z</time>
      </trkpt>
      <trkpt lat="45.507" lon="6.69796">
        <ele>2084</ele>
        <time>2010-03-31T10:34:44Z</time>
      </trkpt>
      <trkpt lat="45.50699" lon="6.69796">
        <ele>2084</ele>
        <time>2010-03-31T10:34:55Z</time>
      </trkpt>
      <trkpt lat="45.507" lon="6.69797">
        <ele>2084</ele>
        <time>2010-03-31T10:35:02Z</time>
      </trkpt>
      <trkpt lat="45.50715" lon="6.69793">
        <ele>2083</ele>
        <time>2010-03-31T10:35:07Z</time>
      </trkpt>
      <trkpt lat="45.50727" lon="6.69789">
        <ele>2082</ele>
        <time>2010-03-31T10:35:10Z</time>
      </trkpt>
      <trkpt lat="45.50735" lon="6.69802">
        <ele>2080</ele>
        <time>2010-03-31T10:35:13Z</time>
      </trkpt>
      <trkpt lat="45.5073" lon="6.69822">
        <ele>2077</ele>
        <time>2010-03-31T10:35:17Z</time>
      </trkpt>
      <trkpt lat="45.50734" lon="6.69832">
        <ele>2075</ele>
        <time>2010-03-31T10:35:20Z</time>
      </trkpt>
      <trkpt lat="45.50747" lon="6.69833">
        <ele>2070</ele>
        <time>2010-03-31T10:35:23Z</time>
      </trkpt>
      <trkpt lat="45.50751" lon="6.69845">
        <ele>2060</ele>
        <time>2010-03-31T10:35:25Z</time>
      </trkpt>
      <trkpt lat="45.5075" lon="6.69851">
        <ele>2068</ele>
        <time>2010-03-31T10:35:26Z</time>
      </trkpt>
      <trkpt lat="45.50746" lon="6.69862">
        <ele>2067</ele>
        <time>2010-03-31T10:35:28Z</time>
      </trkpt>
      <trkpt lat="45.50754" lon="6.69875">
        <ele>2051</ele>
        <time>2010-03-31T10:35:31Z</time>
      </trkpt>
      <trkpt lat="45.50758" lon="6.69875">
        <ele>2051</ele>
        <time>2010-03-31T10:35:32Z</time>
      </trkpt>
      <trkpt lat="45.50766" lon="6.69874">
        <ele>2050</ele>
        <time>2010-03-31T10:35:34Z</time>
      </trkpt>
      <trkpt lat="45.50772" lon="6.6989">
        <ele>2048</ele>
        <time>2010-03-31T10:35:37Z</time>
      </trkpt>
      <trkpt lat="45.50764" lon="6.6991">
        <ele>2048</ele>
        <time>2010-03-31T10:35:40Z</time>
      </trkpt>
      <trkpt lat="45.50764" lon="6.69937">
        <ele>2040</ele>
        <time>2010-03-31T10:35:44Z</time>
      </trkpt>
      <trkpt lat="45.50779" lon="6.69956">
        <ele>2036</ele>
        <time>2010-03-31T10:35:47Z</time>
      </trkpt>
      <trkpt lat="45.50783" lon="6.69977">
        <ele>2035</ele>
        <time>2010-03-31T10:35:50Z</time>
      </trkpt>
      <trkpt lat="45.50782" lon="6.69982">
        <ele>2035</ele>
        <time>2010-03-31T10:35:51Z</time>
      </trkpt>
      <trkpt lat="45.5078" lon="6.69998">
        <ele>2035</ele>
        <time>2010-03-31T10:35:54Z</time>
      </trkpt>
      <trkpt lat="45.50784" lon="6.70011">
        <ele>2029</ele>
        <time>2010-03-31T10:35:58Z</time>
      </trkpt>
      <trkpt lat="45.50784" lon="6.70012">
        <ele>2029</ele>
        <time>2010-03-31T10:35:59Z</time>
      </trkpt>
      <trkpt lat="45.50786" lon="6.70012">
        <ele>2029</ele>
        <time>2010-03-31T10:36:08Z</time>
      </trkpt>
      <trkpt lat="45.50786" lon="6.70012">
        <ele>2029</ele>
        <time>2010-03-31T10:36:14Z</time>
      </trkpt>
      <trkpt lat="45.50786" lon="6.70012">
        <ele>2029</ele>
        <time>2010-03-31T10:36:18Z</time>
      </trkpt>
      <trkpt lat="45.50794" lon="6.70022">
        <ele>2027</ele>
        <time>2010-03-31T10:36:22Z</time>
      </trkpt>
      <trkpt lat="45.50797" lon="6.70023">
        <ele>2026</ele>
        <time>2010-03-31T10:36:23Z</time>
      </trkpt>
      <trkpt lat="45.50816" lon="6.70033">
        <ele>2024</ele>
        <time>2010-03-31T10:36:28Z</time>
      </trkpt>
      <trkpt lat="45.50823" lon="6.70038">
        <ele>2023</ele>
        <time>2010-03-31T10:36:30Z</time>
      </trkpt>
      <trkpt lat="45.50831" lon="6.7004">
        <ele>2023</ele>
        <time>2010-03-31T10:36:33Z</time>
      </trkpt>
      <trkpt lat="45.50845" lon="6.70044">
        <ele>2005</ele>
        <time>2010-03-31T10:36:37Z</time>
      </trkpt>
      <trkpt lat="45.50851" lon="6.70047">
        <ele>2004</ele>
        <time>2010-03-31T10:36:39Z</time>
      </trkpt>
      <trkpt lat="45.50864" lon="6.70046">
        <ele>2002</ele>
        <time>2010-03-31T10:36:42Z</time>
      </trkpt>
      <trkpt lat="45.50878" lon="6.70055">
        <ele>1999</ele>
        <time>2010-03-31T10:36:45Z</time>
      </trkpt>
      <trkpt lat="45.50885" lon="6.70051">
        <ele>1998</ele>
        <time>2010-03-31T10:36:46Z</time>
      </trkpt>
      <trkpt lat="45.50932" lon="6.70034">
        <ele>1979</ele>
        <time>2010-03-31T10:36:51Z</time>
      </trkpt>
      <trkpt lat="45.50983" lon="6.70034">
        <ele>1974</ele>
        <time>2010-03-31T10:36:56Z</time>
      </trkpt>
      <trkpt lat="45.51016" lon="6.70018">
        <ele>1964</ele>
        <time>2010-03-31T10:37:00Z</time>
      </trkpt>
      <trkpt lat="45.51023" lon="6.70014">
        <ele>1963</ele>
        <time>2010-03-31T10:37:01Z</time>
      </trkpt>
      <trkpt lat="45.51063" lon="6.70002">
        <ele>1958</ele>
        <time>2010-03-31T10:37:06Z</time>
      </trkpt>
      <trkpt lat="45.51099" lon="6.69993">
        <ele>1950</ele>
        <time>2010-03-31T10:37:10Z</time>
      </trkpt>
      <trkpt lat="45.5114" lon="6.69969">
        <ele>1946</ele>
        <time>2010-03-31T10:37:15Z</time>
      </trkpt>
      <trkpt lat="45.5117" lon="6.69939">
        <ele>1941</ele>
        <time>2010-03-31T10:37:20Z</time>
      </trkpt>
      <trkpt lat="45.51197" lon="6.69908">
        <ele>1937</ele>
        <time>2010-03-31T10:37:26Z</time>
      </trkpt>
      <trkpt lat="45.5121" lon="6.6989">
        <ele>1937</ele>
        <time>2010-03-31T10:37:30Z</time>
      </trkpt>
      <trkpt lat="45.51214" lon="6.69878">
        <ele>1936</ele>
        <time>2010-03-31T10:37:32Z</time>
      </trkpt>
      <trkpt lat="45.51226" lon="6.69862">
        <ele>1936</ele>
        <time>2010-03-31T10:37:36Z</time>
      </trkpt>
      <trkpt lat="45.51231" lon="6.69862">
        <ele>1936</ele>
        <time>2010-03-31T10:37:38Z</time>
      </trkpt>
      <trkpt lat="45.5124" lon="6.69874">
        <ele>1936</ele>
        <time>2010-03-31T10:37:44Z</time>
      </trkpt>
      <trkpt lat="45.51243" lon="6.69881">
        <ele>1936</ele>
        <time>2010-03-31T10:37:49Z</time>
      </trkpt>
      <trkpt lat="45.51245" lon="6.69882">
        <ele>1936</ele>
        <time>2010-03-31T10:37:57Z</time>
      </trkpt>
      <trkpt lat="45.51247" lon="6.69888">
        <ele>1937</ele>
        <time>2010-03-31T10:38:04Z</time>
      </trkpt>
      <trkpt lat="45.51249" lon="6.6989">
        <ele>1937</ele>
        <time>2010-03-31T10:38:11Z</time>
      </trkpt>
      <trkpt lat="45.51249" lon="6.6989">
        <ele>1937</ele>
        <time>2010-03-31T10:38:20Z</time>
      </trkpt>
      <trkpt lat="45.51251" lon="6.69894">
        <ele>1936</ele>
        <time>2010-03-31T10:38:25Z</time>
      </trkpt>
      <trkpt lat="45.51254" lon="6.69898">
        <ele>1936</ele>
        <time>2010-03-31T10:38:31Z</time>
      </trkpt>
      <trkpt lat="45.51255" lon="6.699">
        <ele>1937</ele>
        <time>2010-03-31T10:38:42Z</time>
      </trkpt>
      <trkpt lat="45.5126" lon="6.69911">
        <ele>1937</ele>
        <time>2010-03-31T10:38:46Z</time>
      </trkpt>
      <trkpt lat="45.51271" lon="6.6993">
        <ele>1941</ele>
        <time>2010-03-31T10:38:50Z</time>
      </trkpt>
      <trkpt lat="45.51297" lon="6.69975">
        <ele>1945</ele>
        <time>2010-03-31T10:39:00Z</time>
      </trkpt>
      <trkpt lat="45.51323" lon="6.70018">
        <ele>1953</ele>
        <time>2010-03-31T10:39:10Z</time>
      </trkpt>
      <trkpt lat="45.51355" lon="6.70075">
        <ele>1968</ele>
        <time>2010-03-31T10:39:23Z</time>
      </trkpt>
      <trkpt lat="45.51388" lon="6.70133">
        <ele>1993</ele>
        <time>2010-03-31T10:39:37Z</time>
      </trkpt>
      <trkpt lat="45.51417" lon="6.70185">
        <ele>2032</ele>
        <time>2010-03-31T10:39:50Z</time>
      </trkpt>
      <trkpt lat="45.51437" lon="6.7022">
        <ele>2045</ele>
        <time>2010-03-31T10:39:59Z</time>
      </trkpt>
      <trkpt lat="45.51465" lon="6.70269">
        <ele>2068</ele>
        <time>2010-03-31T10:40:12Z</time>
      </trkpt>
      <trkpt lat="45.51483" lon="6.70299">
        <ele>2075</ele>
        <time>2010-03-31T10:40:20Z</time>
      </trkpt>
      <trkpt lat="45.51499" lon="6.70327">
        <ele>2089</ele>
        <time>2010-03-31T10:40:27Z</time>
      </trkpt>
      <trkpt lat="45.51511" lon="6.70349">
        <ele>2105</ele>
        <time>2010-03-31T10:40:32Z</time>
      </trkpt>
      <trkpt lat="45.5153" lon="6.70383">
        <ele>2113</ele>
        <time>2010-03-31T10:40:40Z</time>
      </trkpt>
      <trkpt lat="45.51556" lon="6.70429">
        <ele>2130</ele>
        <time>2010-03-31T10:40:51Z</time>
      </trkpt>
      <trkpt lat="45.51581" lon="6.70471">
        <ele>2135</ele>
        <time>2010-03-31T10:41:01Z</time>
      </trkpt>
      <trkpt lat="45.516" lon="6.70505">
        <ele>2155</ele>
        <time>2010-03-31T10:41:09Z</time>
      </trkpt>
      <trkpt lat="45.51627" lon="6.70553">
        <ele>2163</ele>
        <time>2010-03-31T10:41:20Z</time>
      </trkpt>
      <trkpt lat="45.51647" lon="6.70589">
        <ele>2169</ele>
        <time>2010-03-31T10:41:28Z</time>
      </trkpt>
      <trkpt lat="45.51667" lon="6.70625">
        <ele>2180</ele>
        <time>2010-03-31T10:41:36Z</time>
      </trkpt>
      <trkpt lat="45.51698" lon="6.70678">
        <ele>2174</ele>
        <time>2010-03-31T10:41:48Z</time>
      </trkpt>
      <trkpt lat="45.51728" lon="6.70732">
        <ele>2176</ele>
        <time>2010-03-31T10:42:00Z</time>
      </trkpt>
      <trkpt lat="45.51761" lon="6.7079">
        <ele>2187</ele>
        <time>2010-03-31T10:42:13Z</time>
      </trkpt>
      <trkpt lat="45.51781" lon="6.70825">
        <ele>2189</ele>
        <time>2010-03-31T10:42:21Z</time>
      </trkpt>
      <trkpt lat="45.51809" lon="6.70874">
        <ele>2196</ele>
        <time>2010-03-31T10:42:32Z</time>
      </trkpt>
      <trkpt lat="45.51846" lon="6.7094">
        <ele>2209</ele>
        <time>2010-03-31T10:42:47Z</time>
      </trkpt>
      <trkpt lat="45.51881" lon="6.71001">
        <ele>2225</ele>
        <time>2010-03-31T10:43:01Z</time>
      </trkpt>
      <trkpt lat="45.51917" lon="6.71065">
        <ele>2236</ele>
        <time>2010-03-31T10:43:16Z</time>
      </trkpt>
      <trkpt lat="45.51948" lon="6.71119">
        <ele>2252</ele>
        <time>2010-03-31T10:43:29Z</time>
      </trkpt>
      <trkpt lat="45.51975" lon="6.71166">
        <ele>2260</ele>
        <time>2010-03-31T10:43:40Z</time>
      </trkpt>
      <trkpt lat="45.52004" lon="6.71218">
        <ele>2280</ele>
        <time>2010-03-31T10:43:52Z</time>
      </trkpt>
      <trkpt lat="45.52047" lon="6.71292">
        <ele>2294</ele>
        <time>2010-03-31T10:44:09Z</time>
      </trkpt>
      <trkpt lat="45.52081" lon="6.71353">
        <ele>2303</ele>
        <time>2010-03-31T10:44:23Z</time>
      </trkpt>
      <trkpt lat="45.52097" lon="6.71379">
        <ele>2310</ele>
        <time>2010-03-31T10:44:29Z</time>
      </trkpt>
      <trkpt lat="45.52115" lon="6.7141">
        <ele>2312</ele>
        <time>2010-03-31T10:44:36Z</time>
      </trkpt>
      <trkpt lat="45.52137" lon="6.71451">
        <ele>2316</ele>
        <time>2010-03-31T10:44:45Z</time>
      </trkpt>
      <trkpt lat="45.5217" lon="6.71508">
        <ele>2323</ele>
        <time>2010-03-31T10:44:58Z</time>
      </trkpt>
      <trkpt lat="45.52216" lon="6.71588">
        <ele>2332</ele>
        <time>2010-03-31T10:45:16Z</time>
      </trkpt>
      <trkpt lat="45.52244" lon="6.71636">
        <ele>2336</ele>
        <time>2010-03-31T10:45:27Z</time>
      </trkpt>
      <trkpt lat="45.52252" lon="6.7165">
        <ele>2339</ele>
        <time>2010-03-31T10:45:30Z</time>
      </trkpt>
      <trkpt lat="45.52257" lon="6.71666">
        <ele>2341</ele>
        <time>2010-03-31T10:45:35Z</time>
      </trkpt>
      <trkpt lat="45.52258" lon="6.71667">
        <ele>2341</ele>
        <time>2010-03-31T10:45:36Z</time>
      </trkpt>
      <trkpt lat="45.52261" lon="6.71677">
        <ele>2341</ele>
        <time>2010-03-31T10:45:40Z</time>
      </trkpt>
      <trkpt lat="45.5226" lon="6.71688">
        <ele>2340</ele>
        <time>2010-03-31T10:45:44Z</time>
      </trkpt>
      <trkpt lat="45.52257" lon="6.71689">
        <ele>2340</ele>
        <time>2010-03-31T10:45:47Z</time>
      </trkpt>
      <trkpt lat="45.52249" lon="6.71687">
        <ele>2342</ele>
        <time>2010-03-31T10:45:54Z</time>
      </trkpt>
      <trkpt lat="45.52235" lon="6.71679">
        <ele>2341</ele>
        <time>2010-03-31T10:46:00Z</time>
      </trkpt>
      <trkpt lat="45.52218" lon="6.71657">
        <ele>2335</ele>
        <time>2010-03-31T10:46:06Z</time>
      </trkpt>
      <trkpt lat="45.52204" lon="6.71637">
        <ele>2333</ele>
        <time>2010-03-31T10:46:10Z</time>
      </trkpt>
      <trkpt lat="45.52193" lon="6.71613">
        <ele>2331</ele>
        <time>2010-03-31T10:46:14Z</time>
      </trkpt>
      <trkpt lat="45.52175" lon="6.71588">
        <ele>2327</ele>
        <time>2010-03-31T10:46:18Z</time>
      </trkpt>
      <trkpt lat="45.52147" lon="6.71555">
        <ele>2319</ele>
        <time>2010-03-31T10:46:22Z</time>
      </trkpt>
      <trkpt lat="45.52123" lon="6.7153">
        <ele>2317</ele>
        <time>2010-03-31T10:46:26Z</time>
      </trkpt>
      <trkpt lat="45.52117" lon="6.71521">
        <ele>2316</ele>
        <time>2010-03-31T10:46:31Z</time>
      </trkpt>
      <trkpt lat="45.52115" lon="6.71521">
        <ele>2316</ele>
        <time>2010-03-31T10:46:40Z</time>
      </trkpt>
      <trkpt lat="45.5211" lon="6.71519">
        <ele>2316</ele>
        <time>2010-03-31T10:46:46Z</time>
      </trkpt>
      <trkpt lat="45.52106" lon="6.71516">
        <ele>2315</ele>
        <time>2010-03-31T10:46:50Z</time>
      </trkpt>
      <trkpt lat="45.52091" lon="6.71512">
        <ele>2314</ele>
        <time>2010-03-31T10:46:57Z</time>
      </trkpt>
      <trkpt lat="45.52073" lon="6.71504">
        <ele>2309</ele>
        <time>2010-03-31T10:47:01Z</time>
      </trkpt>
      <trkpt lat="45.52047" lon="6.71502">
        <ele>2306</ele>
        <time>2010-03-31T10:47:05Z</time>
      </trkpt>
      <trkpt lat="45.52011" lon="6.71502">
        <ele>2301</ele>
        <time>2010-03-31T10:47:09Z</time>
      </trkpt>
      <trkpt lat="45.51979" lon="6.71501">
        <ele>2296</ele>
        <time>2010-03-31T10:47:12Z</time>
      </trkpt>
      <trkpt lat="45.51936" lon="6.71492">
        <ele>2291</ele>
        <time>2010-03-31T10:47:17Z</time>
      </trkpt>
      <trkpt lat="45.51909" lon="6.7149">
        <ele>2287</ele>
        <time>2010-03-31T10:47:22Z</time>
      </trkpt>
      <trkpt lat="45.51883" lon="6.71489">
        <ele>2285</ele>
        <time>2010-03-31T10:47:27Z</time>
      </trkpt>
      <trkpt lat="45.51861" lon="6.71485">
        <ele>2284</ele>
        <time>2010-03-31T10:47:32Z</time>
      </trkpt>
      <trkpt lat="45.51853" lon="6.71488">
        <ele>2284</ele>
        <time>2010-03-31T10:47:34Z</time>
      </trkpt>
      <trkpt lat="45.51845" lon="6.71489">
        <ele>2283</ele>
        <time>2010-03-31T10:47:36Z</time>
      </trkpt>
      <trkpt lat="45.51826" lon="6.71487">
        <ele>2279</ele>
        <time>2010-03-31T10:47:41Z</time>
      </trkpt>
      <trkpt lat="45.51797" lon="6.71482">
        <ele>2275</ele>
        <time>2010-03-31T10:47:47Z</time>
      </trkpt>
      <trkpt lat="45.51775" lon="6.71474">
        <ele>2273</ele>
        <time>2010-03-31T10:47:51Z</time>
      </trkpt>
      <trkpt lat="45.51757" lon="6.71456">
        <ele>2272</ele>
        <time>2010-03-31T10:47:56Z</time>
      </trkpt>
      <trkpt lat="45.51748" lon="6.71442">
        <ele>2263</ele>
        <time>2010-03-31T10:47:59Z</time>
      </trkpt>
      <trkpt lat="45.51742" lon="6.71426">
        <ele>2263</ele>
        <time>2010-03-31T10:48:01Z</time>
      </trkpt>
      <trkpt lat="45.51736" lon="6.71404">
        <ele>2257</ele>
        <time>2010-03-31T10:48:04Z</time>
      </trkpt>
      <trkpt lat="45.51733" lon="6.7139">
        <ele>2255</ele>
        <time>2010-03-31T10:48:06Z</time>
      </trkpt>
      <trkpt lat="45.51729" lon="6.71366">
        <ele>2252</ele>
        <time>2010-03-31T10:48:09Z</time>
      </trkpt>
      <trkpt lat="45.51726" lon="6.71355">
        <ele>2251</ele>
        <time>2010-03-31T10:48:10Z</time>
      </trkpt>
      <trkpt lat="45.51706" lon="6.7128">
        <ele>2239</ele>
        <time>2010-03-31T10:48:16Z</time>
      </trkpt>
      <trkpt lat="45.51697" lon="6.71243">
        <ele>2230</ele>
        <time>2010-03-31T10:48:19Z</time>
      </trkpt>
      <trkpt lat="45.51696" lon="6.71219">
        <ele>2229</ele>
        <time>2010-03-31T10:48:21Z</time>
      </trkpt>
      <trkpt lat="45.51686" lon="6.71177">
        <ele>2224</ele>
        <time>2010-03-31T10:48:25Z</time>
      </trkpt>
      <trkpt lat="45.51683" lon="6.71147">
        <ele>2218</ele>
        <time>2010-03-31T10:48:28Z</time>
      </trkpt>
      <trkpt lat="45.5168" lon="6.71136">
        <ele>2218</ele>
        <time>2010-03-31T10:48:29Z</time>
      </trkpt>
      <trkpt lat="45.51659" lon="6.71101">
        <ele>2204</ele>
        <time>2010-03-31T10:48:33Z</time>
      </trkpt>
      <trkpt lat="45.51654" lon="6.71088">
        <ele>2204</ele>
        <time>2010-03-31T10:48:35Z</time>
      </trkpt>
      <trkpt lat="45.5165" lon="6.71084">
        <ele>2204</ele>
        <time>2010-03-31T10:48:37Z</time>
      </trkpt>
      <trkpt lat="45.51641" lon="6.71079">
        <ele>2198</ele>
        <time>2010-03-31T10:48:40Z</time>
      </trkpt>
      <trkpt lat="45.5163" lon="6.71069">
        <ele>2196</ele>
        <time>2010-03-31T10:48:43Z</time>
      </trkpt>
      <trkpt lat="45.51626" lon="6.7106">
        <ele>2195</ele>
        <time>2010-03-31T10:48:45Z</time>
      </trkpt>
      <trkpt lat="45.51625" lon="6.71055">
        <ele>2195</ele>
        <time>2010-03-31T10:48:48Z</time>
      </trkpt>
      <trkpt lat="45.51624" lon="6.71052">
        <ele>2195</ele>
        <time>2010-03-31T10:48:52Z</time>
      </trkpt>
      <trkpt lat="45.51612" lon="6.71055">
        <ele>2193</ele>
        <time>2010-03-31T10:48:56Z</time>
      </trkpt>
      <trkpt lat="45.51603" lon="6.71051">
        <ele>2192</ele>
        <time>2010-03-31T10:48:58Z</time>
      </trkpt>
      <trkpt lat="45.51587" lon="6.71037">
        <ele>2191</ele>
        <time>2010-03-31T10:49:01Z</time>
      </trkpt>
      <trkpt lat="45.51571" lon="6.7102">
        <ele>2179</ele>
        <time>2010-03-31T10:49:04Z</time>
      </trkpt>
      <trkpt lat="45.51532" lon="6.70982">
        <ele>2172</ele>
        <time>2010-03-31T10:49:10Z</time>
      </trkpt>
      <trkpt lat="45.51481" lon="6.70956">
        <ele>2161</ele>
        <time>2010-03-31T10:49:15Z</time>
      </trkpt>
      <trkpt lat="45.51447" lon="6.70928">
        <ele>2157</ele>
        <time>2010-03-31T10:49:19Z</time>
      </trkpt>
      <trkpt lat="45.51417" lon="6.70893">
        <ele>2151</ele>
        <time>2010-03-31T10:49:24Z</time>
      </trkpt>
      <trkpt lat="45.51408" lon="6.70872">
        <ele>2146</ele>
        <time>2010-03-31T10:49:27Z</time>
      </trkpt>
      <trkpt lat="45.51401" lon="6.7086">
        <ele>2145</ele>
        <time>2010-03-31T10:49:31Z</time>
      </trkpt>
      <trkpt lat="45.51399" lon="6.7085">
        <ele>2144</ele>
        <time>2010-03-31T10:49:36Z</time>
      </trkpt>
      <trkpt lat="45.51399" lon="6.70852">
        <ele>2144</ele>
        <time>2010-03-31T10:49:46Z</time>
      </trkpt>
      <trkpt lat="45.51399" lon="6.70851">
        <ele>2144</ele>
        <time>2010-03-31T10:49:53Z</time>
      </trkpt>
      <trkpt lat="45.51399" lon="6.70852">
        <ele>2144</ele>
        <time>2010-03-31T10:50:05Z</time>
      </trkpt>
      <trkpt lat="45.51399" lon="6.70853">
        <ele>2144</ele>
        <time>2010-03-31T10:50:12Z</time>
      </trkpt>
      <trkpt lat="45.51399" lon="6.70852">
        <ele>2144</ele>
        <time>2010-03-31T10:50:19Z</time>
      </trkpt>
      <trkpt lat="45.51399" lon="6.7085">
        <ele>2144</ele>
        <time>2010-03-31T10:50:26Z</time>
      </trkpt>
      <trkpt lat="45.51401" lon="6.70849">
        <ele>2144</ele>
        <time>2010-03-31T10:50:33Z</time>
      </trkpt>
      <trkpt lat="45.514" lon="6.70851">
        <ele>2144</ele>
        <time>2010-03-31T10:50:42Z</time>
      </trkpt>
      <trkpt lat="45.514" lon="6.7085">
        <ele>2144</ele>
        <time>2010-03-31T10:50:49Z</time>
      </trkpt>
      <trkpt lat="45.51401" lon="6.70848">
        <ele>2144</ele>
        <time>2010-03-31T10:50:57Z</time>
      </trkpt>
      <trkpt lat="45.51401" lon="6.70848">
        <ele>2144</ele>
        <time>2010-03-31T10:51:03Z</time>
      </trkpt>
      <trkpt lat="45.51401" lon="6.70848">
        <ele>2144</ele>
        <time>2010-03-31T10:51:15Z</time>
      </trkpt>
      <trkpt lat="45.51399" lon="6.70848">
        <ele>2144</ele>
        <time>2010-03-31T10:51:20Z</time>
      </trkpt>
      <trkpt lat="45.51397" lon="6.70845">
        <ele>2144</ele>
        <time>2010-03-31T10:51:26Z</time>
      </trkpt>
      <trkpt lat="45.51397" lon="6.70845">
        <ele>2144</ele>
        <time>2010-03-31T10:51:33Z</time>
      </trkpt>
      <trkpt lat="45.51396" lon="6.70844">
        <ele>2144</ele>
        <time>2010-03-31T10:51:39Z</time>
      </trkpt>
      <trkpt lat="45.51395" lon="6.70841">
        <ele>2144</ele>
        <time>2010-03-31T10:51:46Z</time>
      </trkpt>
      <trkpt lat="45.51394" lon="6.70841">
        <ele>2144</ele>
        <time>2010-03-31T10:51:53Z</time>
      </trkpt>
      <trkpt lat="45.51393" lon="6.70839">
        <ele>2144</ele>
        <time>2010-03-31T10:51:58Z</time>
      </trkpt>
      <trkpt lat="45.51394" lon="6.70841">
        <ele>2144</ele>
        <time>2010-03-31T10:52:09Z</time>
      </trkpt>
      <trkpt lat="45.51391" lon="6.70838">
        <ele>2144</ele>
        <time>2010-03-31T10:52:16Z</time>
      </trkpt>
      <trkpt lat="45.5139" lon="6.70833">
        <ele>2139</ele>
        <time>2010-03-31T10:52:23Z</time>
      </trkpt>
      <trkpt lat="45.51391" lon="6.70829">
        <ele>2139</ele>
        <time>2010-03-31T10:52:29Z</time>
      </trkpt>
      <trkpt lat="45.51395" lon="6.70826">
        <ele>2139</ele>
        <time>2010-03-31T10:52:36Z</time>
      </trkpt>
      <trkpt lat="45.51392" lon="6.70825">
        <ele>2139</ele>
        <time>2010-03-31T10:52:45Z</time>
      </trkpt>
      <trkpt lat="45.51395" lon="6.70825">
        <ele>2139</ele>
        <time>2010-03-31T10:52:51Z</time>
      </trkpt>
      <trkpt lat="45.51394" lon="6.70823">
        <ele>2139</ele>
        <time>2010-03-31T10:52:54Z</time>
      </trkpt>
      <trkpt lat="45.51391" lon="6.70827">
        <ele>2139</ele>
        <time>2010-03-31T10:52:59Z</time>
      </trkpt>
      <trkpt lat="45.51394" lon="6.70831">
        <ele>2139</ele>
        <time>2010-03-31T10:53:05Z</time>
      </trkpt>
      <trkpt lat="45.51395" lon="6.70836">
        <ele>2144</ele>
        <time>2010-03-31T10:53:13Z</time>
      </trkpt>
      <trkpt lat="45.51406" lon="6.70842">
        <ele>2144</ele>
        <time>2010-03-31T10:53:19Z</time>
      </trkpt>
      <trkpt lat="45.51399" lon="6.70825">
        <ele>2139</ele>
        <time>2010-03-31T10:54:56Z</time>
      </trkpt>
      <trkpt lat="45.51399" lon="6.70823">
        <ele>2139</ele>
        <time>2010-03-31T10:55:01Z</time>
      </trkpt>
      <trkpt lat="45.514" lon="6.70828">
        <ele>2139</ele>
        <time>2010-03-31T10:55:05Z</time>
      </trkpt>
      <trkpt lat="45.51398" lon="6.70829">
        <ele>2139</ele>
        <time>2010-03-31T10:55:09Z</time>
      </trkpt>
      <trkpt lat="45.5139" lon="6.70826">
        <ele>2139</ele>
        <time>2010-03-31T10:55:15Z</time>
      </trkpt>
      <trkpt lat="45.51391" lon="6.70823">
        <ele>2138</ele>
        <time>2010-03-31T10:55:18Z</time>
      </trkpt>
      <trkpt lat="45.51397" lon="6.70825">
        <ele>2139</ele>
        <time>2010-03-31T10:55:22Z</time>
      </trkpt>
      <trkpt lat="45.51403" lon="6.7084">
        <ele>2144</ele>
        <time>2010-03-31T10:55:28Z</time>
      </trkpt>
      <trkpt lat="45.51403" lon="6.70855">
        <ele>2144</ele>
        <time>2010-03-31T11:52:56Z</time>
      </trkpt>
      <trkpt lat="45.51403" lon="6.70855">
        <ele>2144</ele>
        <time>2010-03-31T11:52:57Z</time>
      </trkpt>
      <trkpt lat="45.51403" lon="6.70855">
        <ele>2144</ele>
        <time>2010-03-31T11:53:04Z</time>
      </trkpt>
      <trkpt lat="45.51402" lon="6.70857">
        <ele>2145</ele>
        <time>2010-03-31T11:53:11Z</time>
      </trkpt>
      <trkpt lat="45.51398" lon="6.70858">
        <ele>2145</ele>
        <time>2010-03-31T11:53:26Z</time>
      </trkpt>
      <trkpt lat="45.51396" lon="6.70858">
        <ele>2145</ele>
        <time>2010-03-31T11:53:27Z</time>
      </trkpt>
      <trkpt lat="45.5139" lon="6.7087">
        <ele>2145</ele>
        <time>2010-03-31T11:53:32Z</time>
      </trkpt>
      <trkpt lat="45.51386" lon="6.70877">
        <ele>2146</ele>
        <time>2010-03-31T11:53:35Z</time>
      </trkpt>
      <trkpt lat="45.51383" lon="6.70878">
        <ele>2146</ele>
        <time>2010-03-31T11:53:40Z</time>
      </trkpt>
      <trkpt lat="45.51382" lon="6.70877">
        <ele>2146</ele>
        <time>2010-03-31T11:53:54Z</time>
      </trkpt>
      <trkpt lat="45.51369" lon="6.70867">
        <ele>2145</ele>
        <time>2010-03-31T11:53:59Z</time>
      </trkpt>
      <trkpt lat="45.51352" lon="6.70853">
        <ele>2144</ele>
        <time>2010-03-31T11:54:03Z</time>
      </trkpt>
      <trkpt lat="45.51335" lon="6.70836">
        <ele>2142</ele>
        <time>2010-03-31T11:54:08Z</time>
      </trkpt>
      <trkpt lat="45.51318" lon="6.70821">
        <ele>2136</ele>
        <time>2010-03-31T11:54:15Z</time>
      </trkpt>
      <trkpt lat="45.51302" lon="6.70808">
        <ele>2134</ele>
        <time>2010-03-31T11:54:22Z</time>
      </trkpt>
      <trkpt lat="45.51279" lon="6.70792">
        <ele>2132</ele>
        <time>2010-03-31T11:54:30Z</time>
      </trkpt>
      <trkpt lat="45.51264" lon="6.70788">
        <ele>2131</ele>
        <time>2010-03-31T11:54:34Z</time>
      </trkpt>
      <trkpt lat="45.51238" lon="6.7079">
        <ele>2128</ele>
        <time>2010-03-31T11:54:40Z</time>
      </trkpt>
      <trkpt lat="45.51198" lon="6.70784">
        <ele>2127</ele>
        <time>2010-03-31T11:54:47Z</time>
      </trkpt>
      <trkpt lat="45.51176" lon="6.70778">
        <ele>2125</ele>
        <time>2010-03-31T11:54:52Z</time>
      </trkpt>
      <trkpt lat="45.51144" lon="6.70774">
        <ele>2119</ele>
        <time>2010-03-31T11:55:00Z</time>
      </trkpt>
      <trkpt lat="45.51123" lon="6.70774">
        <ele>2118</ele>
        <time>2010-03-31T11:55:05Z</time>
      </trkpt>
      <trkpt lat="45.51102" lon="6.70776">
        <ele>2116</ele>
        <time>2010-03-31T11:55:08Z</time>
      </trkpt>
      <trkpt lat="45.51076" lon="6.70794">
        <ele>2112</ele>
        <time>2010-03-31T11:55:12Z</time>
      </trkpt>
      <trkpt lat="45.5106" lon="6.70816">
        <ele>2115</ele>
        <time>2010-03-31T11:55:15Z</time>
      </trkpt>
      <trkpt lat="45.51041" lon="6.70821">
        <ele>2113</ele>
        <time>2010-03-31T11:55:18Z</time>
      </trkpt>
      <trkpt lat="45.51035" lon="6.7082">
        <ele>2113</ele>
        <time>2010-03-31T11:55:19Z</time>
      </trkpt>
      <trkpt lat="45.50995" lon="6.70815">
        <ele>2108</ele>
        <time>2010-03-31T11:55:26Z</time>
      </trkpt>
      <trkpt lat="45.50968" lon="6.70812">
        <ele>2104</ele>
        <time>2010-03-31T11:55:30Z</time>
      </trkpt>
      <trkpt lat="45.50947" lon="6.70816">
        <ele>2103</ele>
        <time>2010-03-31T11:55:34Z</time>
      </trkpt>
      <trkpt lat="45.50933" lon="6.70823">
        <ele>2104</ele>
        <time>2010-03-31T11:55:38Z</time>
      </trkpt>
      <trkpt lat="45.50928" lon="6.70826">
        <ele>2104</ele>
        <time>2010-03-31T11:55:40Z</time>
      </trkpt>
      <trkpt lat="45.50913" lon="6.70833">
        <ele>2106</ele>
        <time>2010-03-31T11:55:46Z</time>
      </trkpt>
      <trkpt lat="45.50893" lon="6.70837">
        <ele>2107</ele>
        <time>2010-03-31T11:55:53Z</time>
      </trkpt>
      <trkpt lat="45.50864" lon="6.70843">
        <ele>2106</ele>
        <time>2010-03-31T11:56:02Z</time>
      </trkpt>
      <trkpt lat="45.50837" lon="6.7085">
        <ele>2103</ele>
        <time>2010-03-31T11:56:09Z</time>
      </trkpt>
      <trkpt lat="45.50804" lon="6.70866">
        <ele>2099</ele>
        <time>2010-03-31T11:56:17Z</time>
      </trkpt>
      <trkpt lat="45.50794" lon="6.70863">
        <ele>2098</ele>
        <time>2010-03-31T11:56:20Z</time>
      </trkpt>
      <trkpt lat="45.50792" lon="6.70861">
        <ele>2097</ele>
        <time>2010-03-31T11:56:21Z</time>
      </trkpt>
      <trkpt lat="45.50782" lon="6.7085">
        <ele>2095</ele>
        <time>2010-03-31T11:56:25Z</time>
      </trkpt>
      <trkpt lat="45.50779" lon="6.70846">
        <ele>2095</ele>
        <time>2010-03-31T11:56:29Z</time>
      </trkpt>
      <trkpt lat="45.5078" lon="6.70847">
        <ele>2095</ele>
        <time>2010-03-31T11:56:47Z</time>
      </trkpt>
      <trkpt lat="45.5078" lon="6.70846">
        <ele>2095</ele>
        <time>2010-03-31T11:56:57Z</time>
      </trkpt>
      <trkpt lat="45.50779" lon="6.70846">
        <ele>2095</ele>
        <time>2010-03-31T11:57:06Z</time>
      </trkpt>
      <trkpt lat="45.50779" lon="6.70847">
        <ele>2095</ele>
        <time>2010-03-31T11:57:16Z</time>
      </trkpt>
      <trkpt lat="45.50777" lon="6.70848">
        <ele>2094</ele>
        <time>2010-03-31T11:57:20Z</time>
      </trkpt>
      <trkpt lat="45.50759" lon="6.70852">
        <ele>2092</ele>
        <time>2010-03-31T11:57:24Z</time>
      </trkpt>
      <trkpt lat="45.50752" lon="6.70855">
        <ele>2092</ele>
        <time>2010-03-31T11:57:25Z</time>
      </trkpt>
      <trkpt lat="45.50737" lon="6.70852">
        <ele>2086</ele>
        <time>2010-03-31T11:57:27Z</time>
      </trkpt>
      <trkpt lat="45.50725" lon="6.70855">
        <ele>2086</ele>
        <time>2010-03-31T11:57:29Z</time>
      </trkpt>
      <trkpt lat="45.50708" lon="6.70872">
        <ele>2086</ele>
        <time>2010-03-31T11:57:33Z</time>
      </trkpt>
      <trkpt lat="45.50687" lon="6.70883">
        <ele>2086</ele>
        <time>2010-03-31T11:57:38Z</time>
      </trkpt>
      <trkpt lat="45.50681" lon="6.70876">
        <ele>2085</ele>
        <time>2010-03-31T11:57:41Z</time>
      </trkpt>
      <trkpt lat="45.50674" lon="6.70861">
        <ele>2083</ele>
        <time>2010-03-31T11:57:44Z</time>
      </trkpt>
      <trkpt lat="45.50674" lon="6.70836">
        <ele>2079</ele>
        <time>2010-03-31T11:57:47Z</time>
      </trkpt>
      <trkpt lat="45.50677" lon="6.70826">
        <ele>2076</ele>
        <time>2010-03-31T11:57:49Z</time>
      </trkpt>
      <trkpt lat="45.50677" lon="6.70814">
        <ele>2075</ele>
        <time>2010-03-31T11:57:52Z</time>
      </trkpt>
      <trkpt lat="45.50678" lon="6.70807">
        <ele>2075</ele>
        <time>2010-03-31T11:57:56Z</time>
      </trkpt>
      <trkpt lat="45.50679" lon="6.70807">
        <ele>2075</ele>
        <time>2010-03-31T11:58:01Z</time>
      </trkpt>
      <trkpt lat="45.50679" lon="6.70808">
        <ele>2075</ele>
        <time>2010-03-31T11:58:06Z</time>
      </trkpt>
      <trkpt lat="45.50678" lon="6.70808">
        <ele>2075</ele>
        <time>2010-03-31T11:58:12Z</time>
      </trkpt>
      <trkpt lat="45.50679" lon="6.70807">
        <ele>2075</ele>
        <time>2010-03-31T11:58:19Z</time>
      </trkpt>
      <trkpt lat="45.50678" lon="6.70805">
        <ele>2075</ele>
        <time>2010-03-31T11:58:25Z</time>
      </trkpt>
      <trkpt lat="45.50676" lon="6.70799">
        <ele>2075</ele>
        <time>2010-03-31T11:58:30Z</time>
      </trkpt>
      <trkpt lat="45.50668" lon="6.7078">
        <ele>2073</ele>
        <time>2010-03-31T11:58:35Z</time>
      </trkpt>
      <trkpt lat="45.50656" lon="6.70759">
        <ele>2069</ele>
        <time>2010-03-31T11:58:40Z</time>
      </trkpt>
      <trkpt lat="45.50647" lon="6.70745">
        <ele>2065</ele>
        <time>2010-03-31T11:58:43Z</time>
      </trkpt>
      <trkpt lat="45.50646" lon="6.70719">
        <ele>2063</ele>
        <time>2010-03-31T11:58:47Z</time>
      </trkpt>
      <trkpt lat="45.50648" lon="6.707">
        <ele>2062</ele>
        <time>2010-03-31T11:58:51Z</time>
      </trkpt>
      <trkpt lat="45.50652" lon="6.70677">
        <ele>2060</ele>
        <time>2010-03-31T11:58:55Z</time>
      </trkpt>
      <trkpt lat="45.50655" lon="6.70661">
        <ele>2056</ele>
        <time>2010-03-31T11:58:58Z</time>
      </trkpt>
      <trkpt lat="45.50654" lon="6.7065">
        <ele>2055</ele>
        <time>2010-03-31T11:59:00Z</time>
      </trkpt>
      <trkpt lat="45.50664" lon="6.70628">
        <ele>2053</ele>
        <time>2010-03-31T11:59:05Z</time>
      </trkpt>
      <trkpt lat="45.50666" lon="6.70616">
        <ele>2051</ele>
        <time>2010-03-31T11:59:07Z</time>
      </trkpt>
      <trkpt lat="45.50681" lon="6.70595">
        <ele>2050</ele>
        <time>2010-03-31T11:59:11Z</time>
      </trkpt>
      <trkpt lat="45.50694" lon="6.70584">
        <ele>2050</ele>
        <time>2010-03-31T11:59:14Z</time>
      </trkpt>
      <trkpt lat="45.50706" lon="6.70565">
        <ele>2040</ele>
        <time>2010-03-31T11:59:18Z</time>
      </trkpt>
      <trkpt lat="45.50707" lon="6.70558">
        <ele>2040</ele>
        <time>2010-03-31T11:59:19Z</time>
      </trkpt>
      <trkpt lat="45.50707" lon="6.7054">
        <ele>2038</ele>
        <time>2010-03-31T11:59:21Z</time>
      </trkpt>
      <trkpt lat="45.50708" lon="6.70516">
        <ele>2036</ele>
        <time>2010-03-31T11:59:24Z</time>
      </trkpt>
      <trkpt lat="45.50718" lon="6.7051">
        <ele>2036</ele>
        <time>2010-03-31T11:59:27Z</time>
      </trkpt>
      <trkpt lat="45.50727" lon="6.70503">
        <ele>2034</ele>
        <time>2010-03-31T11:59:30Z</time>
      </trkpt>
      <trkpt lat="45.50729" lon="6.70506">
        <ele>2034</ele>
        <time>2010-03-31T11:59:38Z</time>
      </trkpt>
      <trkpt lat="45.5073" lon="6.70507">
        <ele>2034</ele>
        <time>2010-03-31T11:59:43Z</time>
      </trkpt>
      <trkpt lat="45.5073" lon="6.70508">
        <ele>2034</ele>
        <time>2010-03-31T11:59:49Z</time>
      </trkpt>
      <trkpt lat="45.50731" lon="6.70507">
        <ele>2034</ele>
        <time>2010-03-31T11:59:56Z</time>
      </trkpt>
      <trkpt lat="45.50738" lon="6.70512">
        <ele>2034</ele>
        <time>2010-03-31T11:59:59Z</time>
      </trkpt>
      <trkpt lat="45.50757" lon="6.70495">
        <ele>2026</ele>
        <time>2010-03-31T12:00:03Z</time>
      </trkpt>
      <trkpt lat="45.5077" lon="6.70492">
        <ele>2023</ele>
        <time>2010-03-31T12:00:05Z</time>
      </trkpt>
      <trkpt lat="45.50788" lon="6.7048">
        <ele>2020</ele>
        <time>2010-03-31T12:00:08Z</time>
      </trkpt>
      <trkpt lat="45.50804" lon="6.70475">
        <ele>2019</ele>
        <time>2010-03-31T12:00:11Z</time>
      </trkpt>
      <trkpt lat="45.50817" lon="6.70468">
        <ele>2018</ele>
        <time>2010-03-31T12:00:14Z</time>
      </trkpt>
      <trkpt lat="45.50822" lon="6.70468">
        <ele>2018</ele>
        <time>2010-03-31T12:00:15Z</time>
      </trkpt>
      <trkpt lat="45.50836" lon="6.70451">
        <ele>2013</ele>
        <time>2010-03-31T12:00:19Z</time>
      </trkpt>
      <trkpt lat="45.50842" lon="6.70435">
        <ele>2010</ele>
        <time>2010-03-31T12:00:21Z</time>
      </trkpt>
      <trkpt lat="45.50848" lon="6.70432">
        <ele>2009</ele>
        <time>2010-03-31T12:00:22Z</time>
      </trkpt>
      <trkpt lat="45.50866" lon="6.70404">
        <ele>2001</ele>
        <time>2010-03-31T12:00:26Z</time>
      </trkpt>
      <trkpt lat="45.50877" lon="6.70392">
        <ele>2000</ele>
        <time>2010-03-31T12:00:28Z</time>
      </trkpt>
      <trkpt lat="45.50895" lon="6.70377">
        <ele>1999</ele>
        <time>2010-03-31T12:00:31Z</time>
      </trkpt>
      <trkpt lat="45.50936" lon="6.70316">
        <ele>1989</ele>
        <time>2010-03-31T12:00:37Z</time>
      </trkpt>
      <trkpt lat="45.50974" lon="6.70261">
        <ele>1985</ele>
        <time>2010-03-31T12:00:43Z</time>
      </trkpt>
      <trkpt lat="45.51004" lon="6.70217">
        <ele>1975</ele>
        <time>2010-03-31T12:00:49Z</time>
      </trkpt>
      <trkpt lat="45.51035" lon="6.70176">
        <ele>1974</ele>
        <time>2010-03-31T12:00:56Z</time>
      </trkpt>
      <trkpt lat="45.51061" lon="6.70142">
        <ele>1967</ele>
        <time>2010-03-31T12:01:02Z</time>
      </trkpt>
      <trkpt lat="45.51091" lon="6.70099">
        <ele>1961</ele>
        <time>2010-03-31T12:01:08Z</time>
      </trkpt>
      <trkpt lat="45.51108" lon="6.7006">
        <ele>1955</ele>
        <time>2010-03-31T12:01:13Z</time>
      </trkpt>
      <trkpt lat="45.51129" lon="6.7">
        <ele>1947</ele>
        <time>2010-03-31T12:01:20Z</time>
      </trkpt>
      <trkpt lat="45.51143" lon="6.69965">
        <ele>1946</ele>
        <time>2010-03-31T12:01:24Z</time>
      </trkpt>
      <trkpt lat="45.51161" lon="6.69939">
        <ele>1943</ele>
        <time>2010-03-31T12:01:28Z</time>
      </trkpt>
      <trkpt lat="45.51164" lon="6.69933">
        <ele>1943</ele>
        <time>2010-03-31T12:01:29Z</time>
      </trkpt>
      <trkpt lat="45.51174" lon="6.69896">
        <ele>1938</ele>
        <time>2010-03-31T12:01:34Z</time>
      </trkpt>
      <trkpt lat="45.51184" lon="6.69872">
        <ele>1937</ele>
        <time>2010-03-31T12:01:38Z</time>
      </trkpt>
      <trkpt lat="45.5119" lon="6.69863">
        <ele>1937</ele>
        <time>2010-03-31T12:01:41Z</time>
      </trkpt>
      <trkpt lat="45.51193" lon="6.69857">
        <ele>1936</ele>
        <time>2010-03-31T12:01:44Z</time>
      </trkpt>
      <trkpt lat="45.51194" lon="6.69854">
        <ele>1936</ele>
        <time>2010-03-31T12:01:49Z</time>
      </trkpt>
      <trkpt lat="45.51194" lon="6.69853">
        <ele>1936</ele>
        <time>2010-03-31T12:01:59Z</time>
      </trkpt>
      <trkpt lat="45.51197" lon="6.69849">
        <ele>1936</ele>
        <time>2010-03-31T12:02:02Z</time>
      </trkpt>
      <trkpt lat="45.51205" lon="6.69836">
        <ele>1936</ele>
        <time>2010-03-31T12:02:08Z</time>
      </trkpt>
      <trkpt lat="45.51211" lon="6.69817">
        <ele>1934</ele>
        <time>2010-03-31T12:02:14Z</time>
      </trkpt>
      <trkpt lat="45.51212" lon="6.6981">
        <ele>1934</ele>
        <time>2010-03-31T12:02:15Z</time>
      </trkpt>
      <trkpt lat="45.51219" lon="6.69788">
        <ele>1934</ele>
        <time>2010-03-31T12:02:19Z</time>
      </trkpt>
      <trkpt lat="45.51221" lon="6.69784">
        <ele>1934</ele>
        <time>2010-03-31T12:02:20Z</time>
      </trkpt>
      <trkpt lat="45.51229" lon="6.69768">
        <ele>1933</ele>
        <time>2010-03-31T12:02:26Z</time>
      </trkpt>
      <trkpt lat="45.5123" lon="6.69768">
        <ele>1933</ele>
        <time>2010-03-31T12:02:35Z</time>
      </trkpt>
      <trkpt lat="45.5123" lon="6.69769">
        <ele>1933</ele>
        <time>2010-03-31T12:02:42Z</time>
      </trkpt>
      <trkpt lat="45.5123" lon="6.69769">
        <ele>1933</ele>
        <time>2010-03-31T12:02:50Z</time>
      </trkpt>
      <trkpt lat="45.51227" lon="6.69769">
        <ele>1933</ele>
        <time>2010-03-31T12:02:53Z</time>
      </trkpt>
      <trkpt lat="45.51226" lon="6.69763">
        <ele>1933</ele>
        <time>2010-03-31T12:02:58Z</time>
      </trkpt>
      <trkpt lat="45.51228" lon="6.69757">
        <ele>1933</ele>
        <time>2010-03-31T12:03:02Z</time>
      </trkpt>
      <trkpt lat="45.51229" lon="6.69756">
        <ele>1933</ele>
        <time>2010-03-31T12:03:04Z</time>
      </trkpt>
      <trkpt lat="45.51231" lon="6.69748">
        <ele>1934</ele>
        <time>2010-03-31T12:03:12Z</time>
      </trkpt>
      <trkpt lat="45.51232" lon="6.69746">
        <ele>1934</ele>
        <time>2010-03-31T12:03:19Z</time>
      </trkpt>
      <trkpt lat="45.51232" lon="6.69745">
        <ele>1933</ele>
        <time>2010-03-31T12:03:28Z</time>
      </trkpt>
      <trkpt lat="45.51233" lon="6.69742">
        <ele>1934</ele>
        <time>2010-03-31T12:03:39Z</time>
      </trkpt>
      <trkpt lat="45.51232" lon="6.69741">
        <ele>1934</ele>
        <time>2010-03-31T12:03:52Z</time>
      </trkpt>
      <trkpt lat="45.51232" lon="6.6974">
        <ele>1934</ele>
        <time>2010-03-31T12:04:00Z</time>
      </trkpt>
      <trkpt lat="45.51232" lon="6.69737">
        <ele>1934</ele>
        <time>2010-03-31T12:04:18Z</time>
      </trkpt>
      <trkpt lat="45.51235" lon="6.69736">
        <ele>1934</ele>
        <time>2010-03-31T12:04:27Z</time>
      </trkpt>
      <trkpt lat="45.51237" lon="6.69733">
        <ele>1934</ele>
        <time>2010-03-31T12:04:34Z</time>
      </trkpt>
      <trkpt lat="45.51243" lon="6.69732">
        <ele>1933</ele>
        <time>2010-03-31T12:04:46Z</time>
      </trkpt>
      <trkpt lat="45.51246" lon="6.69736">
        <ele>1933</ele>
        <time>2010-03-31T12:05:00Z</time>
      </trkpt>
      <trkpt lat="45.51244" lon="6.69742">
        <ele>1932</ele>
        <time>2010-03-31T12:05:06Z</time>
      </trkpt>
      <trkpt lat="45.51244" lon="6.69745">
        <ele>1932</ele>
        <time>2010-03-31T12:05:08Z</time>
      </trkpt>
      <trkpt lat="45.51239" lon="6.69752">
        <ele>1932</ele>
        <time>2010-03-31T12:05:16Z</time>
      </trkpt>
      <trkpt lat="45.51241" lon="6.69744">
        <ele>1932</ele>
        <time>2010-03-31T12:05:31Z</time>
      </trkpt>
      <trkpt lat="45.51238" lon="6.69744">
        <ele>1933</ele>
        <time>2010-03-31T12:05:35Z</time>
      </trkpt>
      <trkpt lat="45.51237" lon="6.69742">
        <ele>1933</ele>
        <time>2010-03-31T12:05:42Z</time>
      </trkpt>
      <trkpt lat="45.5124" lon="6.6974">
        <ele>1933</ele>
        <time>2010-03-31T12:05:47Z</time>
      </trkpt>
      <trkpt lat="45.51243" lon="6.69737">
        <ele>1933</ele>
        <time>2010-03-31T12:05:55Z</time>
      </trkpt>
      <trkpt lat="45.51245" lon="6.69736">
        <ele>1933</ele>
        <time>2010-03-31T12:06:01Z</time>
      </trkpt>
      <trkpt lat="45.51248" lon="6.69733">
        <ele>1933</ele>
        <time>2010-03-31T12:06:07Z</time>
      </trkpt>
      <trkpt lat="45.51241" lon="6.69737">
        <ele>1933</ele>
        <time>2010-03-31T12:06:40Z</time>
      </trkpt>
      <trkpt lat="45.5124" lon="6.69736">
        <ele>1933</ele>
        <time>2010-03-31T12:06:41Z</time>
      </trkpt>
      <trkpt lat="45.51218" lon="6.6975">
        <ele>1935</ele>
        <time>2010-03-31T12:06:46Z</time>
      </trkpt>
      <trkpt lat="45.51205" lon="6.69776">
        <ele>1935</ele>
        <time>2010-03-31T12:06:51Z</time>
      </trkpt>
      <trkpt lat="45.51195" lon="6.69795">
        <ele>1935</ele>
        <time>2010-03-31T12:06:55Z</time>
      </trkpt>
      <trkpt lat="45.51176" lon="6.69835">
        <ele>1937</ele>
        <time>2010-03-31T12:07:04Z</time>
      </trkpt>
      <trkpt lat="45.51163" lon="6.69865">
        <ele>1942</ele>
        <time>2010-03-31T12:07:11Z</time>
      </trkpt>
      <trkpt lat="45.51151" lon="6.6988">
        <ele>1942</ele>
        <time>2010-03-31T12:07:16Z</time>
      </trkpt>
      <trkpt lat="45.51129" lon="6.6992">
        <ele>1945</ele>
        <time>2010-03-31T12:07:26Z</time>
      </trkpt>
      <trkpt lat="45.51115" lon="6.69953">
        <ele>1947</ele>
        <time>2010-03-31T12:07:34Z</time>
      </trkpt>
      <trkpt lat="45.51104" lon="6.69975">
        <ele>1948</ele>
        <time>2010-03-31T12:07:39Z</time>
      </trkpt>
      <trkpt lat="45.51089" lon="6.70009">
        <ele>1953</ele>
        <time>2010-03-31T12:07:47Z</time>
      </trkpt>
      <trkpt lat="45.51072" lon="6.7005">
        <ele>1960</ele>
        <time>2010-03-31T12:07:56Z</time>
      </trkpt>
      <trkpt lat="45.51057" lon="6.70074">
        <ele>1960</ele>
        <time>2010-03-31T12:08:03Z</time>
      </trkpt>
      <trkpt lat="45.51041" lon="6.70099">
        <ele>1965</ele>
        <time>2010-03-31T12:08:10Z</time>
      </trkpt>
      <trkpt lat="45.51027" lon="6.70125">
        <ele>1967</ele>
        <time>2010-03-31T12:08:17Z</time>
      </trkpt>
      <trkpt lat="45.51009" lon="6.70171">
        <ele>1972</ele>
        <time>2010-03-31T12:08:27Z</time>
      </trkpt>
      <trkpt lat="45.50994" lon="6.70206">
        <ele>1979</ele>
        <time>2010-03-31T12:08:35Z</time>
      </trkpt>
      <trkpt lat="45.50981" lon="6.70228">
        <ele>1980</ele>
        <time>2010-03-31T12:08:41Z</time>
      </trkpt>
      <trkpt lat="45.50963" lon="6.70267">
        <ele>1986</ele>
        <time>2010-03-31T12:08:50Z</time>
      </trkpt>
      <trkpt lat="45.50939" lon="6.70325">
        <ele>1989</ele>
        <time>2010-03-31T12:09:03Z</time>
      </trkpt>
      <trkpt lat="45.50928" lon="6.70349">
        <ele>1995</ele>
        <time>2010-03-31T12:09:09Z</time>
      </trkpt>
      <trkpt lat="45.50911" lon="6.7038">
        <ele>1999</ele>
        <time>2010-03-31T12:09:17Z</time>
      </trkpt>
      <trkpt lat="45.50896" lon="6.7041">
        <ele>2000</ele>
        <time>2010-03-31T12:09:24Z</time>
      </trkpt>
      <trkpt lat="45.50879" lon="6.70445">
        <ele>2013</ele>
        <time>2010-03-31T12:09:33Z</time>
      </trkpt>
      <trkpt lat="45.50862" lon="6.70486">
        <ele>2018</ele>
        <time>2010-03-31T12:09:42Z</time>
      </trkpt>
      <trkpt lat="45.50846" lon="6.70519">
        <ele>2035</ele>
        <time>2010-03-31T12:09:51Z</time>
      </trkpt>
      <trkpt lat="45.50834" lon="6.70539">
        <ele>2039</ele>
        <time>2010-03-31T12:09:57Z</time>
      </trkpt>
      <trkpt lat="45.50817" lon="6.70579">
        <ele>2043</ele>
        <time>2010-03-31T12:10:07Z</time>
      </trkpt>
      <trkpt lat="45.50805" lon="6.70604">
        <ele>2054</ele>
        <time>2010-03-31T12:10:13Z</time>
      </trkpt>
      <trkpt lat="45.50785" lon="6.70648">
        <ele>2057</ele>
        <time>2010-03-31T12:10:23Z</time>
      </trkpt>
      <trkpt lat="45.50772" lon="6.70676">
        <ele>2067</ele>
        <time>2010-03-31T12:10:30Z</time>
      </trkpt>
      <trkpt lat="45.50757" lon="6.70713">
        <ele>2070</ele>
        <time>2010-03-31T12:10:38Z</time>
      </trkpt>
      <trkpt lat="45.50745" lon="6.70734">
        <ele>2069</ele>
        <time>2010-03-31T12:10:45Z</time>
      </trkpt>
      <trkpt lat="45.50746" lon="6.70727">
        <ele>2068</ele>
        <time>2010-03-31T12:10:52Z</time>
      </trkpt>
      <trkpt lat="45.50706" lon="6.70793">
        <ele>2075</ele>
        <time>2010-03-31T12:12:53Z</time>
      </trkpt>
      <trkpt lat="45.50701" lon="6.70797">
        <ele>2075</ele>
        <time>2010-03-31T12:12:56Z</time>
      </trkpt>
      <trkpt lat="45.50689" lon="6.70837">
        <ele>2082</ele>
        <time>2010-03-31T12:13:04Z</time>
      </trkpt>
      <trkpt lat="45.50677" lon="6.70861">
        <ele>2083</ele>
        <time>2010-03-31T12:13:10Z</time>
      </trkpt>
      <trkpt lat="45.50664" lon="6.70889">
        <ele>2082</ele>
        <time>2010-03-31T12:13:17Z</time>
      </trkpt>
      <trkpt lat="45.50652" lon="6.70912">
        <ele>2083</ele>
        <time>2010-03-31T12:13:23Z</time>
      </trkpt>
      <trkpt lat="45.50631" lon="6.70953">
        <ele>2092</ele>
        <time>2010-03-31T12:13:33Z</time>
      </trkpt>
      <trkpt lat="45.50615" lon="6.70986">
        <ele>2093</ele>
        <time>2010-03-31T12:13:41Z</time>
      </trkpt>
      <trkpt lat="45.50594" lon="6.71027">
        <ele>2105</ele>
        <time>2010-03-31T12:13:51Z</time>
      </trkpt>
      <trkpt lat="45.50573" lon="6.71072">
        <ele>2110</ele>
        <time>2010-03-31T12:14:02Z</time>
      </trkpt>
      <trkpt lat="45.50559" lon="6.71098">
        <ele>2121</ele>
        <time>2010-03-31T12:14:09Z</time>
      </trkpt>
      <trkpt lat="45.50544" lon="6.71132">
        <ele>2125</ele>
        <time>2010-03-31T12:14:17Z</time>
      </trkpt>
      <trkpt lat="45.50533" lon="6.71156">
        <ele>2127</ele>
        <time>2010-03-31T12:14:23Z</time>
      </trkpt>
      <trkpt lat="45.50523" lon="6.71178">
        <ele>2142</ele>
        <time>2010-03-31T12:14:29Z</time>
      </trkpt>
      <trkpt lat="45.50513" lon="6.71198">
        <ele>2145</ele>
        <time>2010-03-31T12:14:34Z</time>
      </trkpt>
      <trkpt lat="45.50496" lon="6.71233">
        <ele>2151</ele>
        <time>2010-03-31T12:14:43Z</time>
      </trkpt>
      <trkpt lat="45.50476" lon="6.71275">
        <ele>2175</ele>
        <time>2010-03-31T12:14:54Z</time>
      </trkpt>
      <trkpt lat="45.50455" lon="6.71317">
        <ele>2187</ele>
        <time>2010-03-31T12:15:05Z</time>
      </trkpt>
      <trkpt lat="45.50436" lon="6.71356">
        <ele>2220</ele>
        <time>2010-03-31T12:15:16Z</time>
      </trkpt>
      <trkpt lat="45.50418" lon="6.71393">
        <ele>2233</ele>
        <time>2010-03-31T12:15:27Z</time>
      </trkpt>
      <trkpt lat="45.50408" lon="6.71411">
        <ele>2243</ele>
        <time>2010-03-31T12:15:32Z</time>
      </trkpt>
      <trkpt lat="45.50385" lon="6.71455">
        <ele>2266</ele>
        <time>2010-03-31T12:15:44Z</time>
      </trkpt>
      <trkpt lat="45.50365" lon="6.71497">
        <ele>2274</ele>
        <time>2010-03-31T12:15:55Z</time>
      </trkpt>
      <trkpt lat="45.5034" lon="6.71548">
        <ele>2302</ele>
        <time>2010-03-31T12:16:08Z</time>
      </trkpt>
      <trkpt lat="45.50317" lon="6.71594">
        <ele>2316</ele>
        <time>2010-03-31T12:16:20Z</time>
      </trkpt>
      <trkpt lat="45.50305" lon="6.71617">
        <ele>2319</ele>
        <time>2010-03-31T12:16:26Z</time>
      </trkpt>
      <trkpt lat="45.50287" lon="6.71653">
        <ele>2323</ele>
        <time>2010-03-31T12:16:35Z</time>
      </trkpt>
      <trkpt lat="45.50265" lon="6.71703">
        <ele>2347</ele>
        <time>2010-03-31T12:16:47Z</time>
      </trkpt>
      <trkpt lat="45.50246" lon="6.71744">
        <ele>2357</ele>
        <time>2010-03-31T12:16:57Z</time>
      </trkpt>
      <trkpt lat="45.50225" lon="6.71784">
        <ele>2375</ele>
        <time>2010-03-31T12:17:08Z</time>
      </trkpt>
      <trkpt lat="45.50208" lon="6.71815">
        <ele>2381</ele>
        <time>2010-03-31T12:17:17Z</time>
      </trkpt>
      <trkpt lat="45.50186" lon="6.71862">
        <ele>2411</ele>
        <time>2010-03-31T12:17:29Z</time>
      </trkpt>
      <trkpt lat="45.50168" lon="6.71903">
        <ele>2427</ele>
        <time>2010-03-31T12:17:39Z</time>
      </trkpt>
      <trkpt lat="45.50151" lon="6.71936">
        <ele>2448</ele>
        <time>2010-03-31T12:17:48Z</time>
      </trkpt>
      <trkpt lat="45.50139" lon="6.71964">
        <ele>2456</ele>
        <time>2010-03-31T12:17:55Z</time>
      </trkpt>
      <trkpt lat="45.50127" lon="6.71982">
        <ele>2460</ele>
        <time>2010-03-31T12:18:01Z</time>
      </trkpt>
      <trkpt lat="45.50112" lon="6.72012">
        <ele>2478</ele>
        <time>2010-03-31T12:18:10Z</time>
      </trkpt>
      <trkpt lat="45.501" lon="6.72037">
        <ele>2479</ele>
        <time>2010-03-31T12:18:17Z</time>
      </trkpt>
      <trkpt lat="45.5009" lon="6.72056">
        <ele>2482</ele>
        <time>2010-03-31T12:18:22Z</time>
      </trkpt>
      <trkpt lat="45.50076" lon="6.72069">
        <ele>2497</ele>
        <time>2010-03-31T12:18:27Z</time>
      </trkpt>
      <trkpt lat="45.50063" lon="6.72084">
        <ele>2497</ele>
        <time>2010-03-31T12:18:32Z</time>
      </trkpt>
      <trkpt lat="45.50048" lon="6.72105">
        <ele>2498</ele>
        <time>2010-03-31T12:18:38Z</time>
      </trkpt>
      <trkpt lat="45.50037" lon="6.72139">
        <ele>2495</ele>
        <time>2010-03-31T12:18:45Z</time>
      </trkpt>
      <trkpt lat="45.50025" lon="6.72174">
        <ele>2484</ele>
        <time>2010-03-31T12:18:52Z</time>
      </trkpt>
      <trkpt lat="45.50012" lon="6.72207">
        <ele>2481</ele>
        <time>2010-03-31T12:18:59Z</time>
      </trkpt>
      <trkpt lat="45.49992" lon="6.7225">
        <ele>2483</ele>
        <time>2010-03-31T12:19:09Z</time>
      </trkpt>
      <trkpt lat="45.49967" lon="6.72301">
        <ele>2488</ele>
        <time>2010-03-31T12:19:21Z</time>
      </trkpt>
      <trkpt lat="45.49951" lon="6.72336">
        <ele>2491</ele>
        <time>2010-03-31T12:19:29Z</time>
      </trkpt>
      <trkpt lat="45.49939" lon="6.72361">
        <ele>2493</ele>
        <time>2010-03-31T12:19:35Z</time>
      </trkpt>
      <trkpt lat="45.49925" lon="6.7239">
        <ele>2495</ele>
        <time>2010-03-31T12:19:42Z</time>
      </trkpt>
      <trkpt lat="45.49911" lon="6.7242">
        <ele>2508</ele>
        <time>2010-03-31T12:19:49Z</time>
      </trkpt>
      <trkpt lat="45.49899" lon="6.72444">
        <ele>2515</ele>
        <time>2010-03-31T12:19:55Z</time>
      </trkpt>
      <trkpt lat="45.49889" lon="6.72463">
        <ele>2517</ele>
        <time>2010-03-31T12:20:00Z</time>
      </trkpt>
      <trkpt lat="45.49878" lon="6.72488">
        <ele>2518</ele>
        <time>2010-03-31T12:20:06Z</time>
      </trkpt>
      <trkpt lat="45.49865" lon="6.72516">
        <ele>2520</ele>
        <time>2010-03-31T12:20:13Z</time>
      </trkpt>
      <trkpt lat="45.49854" lon="6.72537">
        <ele>2521</ele>
        <time>2010-03-31T12:20:18Z</time>
      </trkpt>
      <trkpt lat="45.49838" lon="6.7257">
        <ele>2526</ele>
        <time>2010-03-31T12:20:26Z</time>
      </trkpt>
      <trkpt lat="45.49821" lon="6.72601">
        <ele>2536</ele>
        <time>2010-03-31T12:20:34Z</time>
      </trkpt>
      <trkpt lat="45.49804" lon="6.72637">
        <ele>2538</ele>
        <time>2010-03-31T12:20:43Z</time>
      </trkpt>
      <trkpt lat="45.4979" lon="6.72664">
        <ele>2538</ele>
        <time>2010-03-31T12:20:50Z</time>
      </trkpt>
      <trkpt lat="45.49775" lon="6.72699">
        <ele>2543</ele>
        <time>2010-03-31T12:20:59Z</time>
      </trkpt>
      <trkpt lat="45.49759" lon="6.72733">
        <ele>2544</ele>
        <time>2010-03-31T12:21:07Z</time>
      </trkpt>
      <trkpt lat="45.49735" lon="6.72782">
        <ele>2585.3</ele>
        <time>2010-03-31T12:21:19Z</time>
      </trkpt>
      <trkpt lat="45.49714" lon="6.72828">
        <ele>2596.2</ele>
        <time>2010-03-31T12:21:30Z</time>
      </trkpt>
      <trkpt lat="45.49695" lon="6.72869">
        <ele>2607.5</ele>
        <time>2010-03-31T12:21:40Z</time>
      </trkpt>
      <trkpt lat="45.49679" lon="6.72902">
        <ele>2605</ele>
        <time>2010-03-31T12:21:48Z</time>
      </trkpt>
      <trkpt lat="45.49666" lon="6.72926">
        <ele>2603.4</ele>
        <time>2010-03-31T12:21:54Z</time>
      </trkpt>
      <trkpt lat="45.49642" lon="6.72976">
        <ele>2599.8</ele>
        <time>2010-03-31T12:22:06Z</time>
      </trkpt>
      <trkpt lat="45.49617" lon="6.73026">
        <ele>2597.4</ele>
        <time>2010-03-31T12:22:18Z</time>
      </trkpt>
      <trkpt lat="45.49593" lon="6.73075">
        <ele>2594.4</ele>
        <time>2010-03-31T12:22:30Z</time>
      </trkpt>
      <trkpt lat="45.49566" lon="6.73129">
        <ele>2598.1</ele>
        <time>2010-03-31T12:22:43Z</time>
      </trkpt>
      <trkpt lat="45.49548" lon="6.73165">
        <ele>2604.2</ele>
        <time>2010-03-31T12:22:52Z</time>
      </trkpt>
      <trkpt lat="45.4953" lon="6.73204">
        <ele>2615.5</ele>
        <time>2010-03-31T12:23:02Z</time>
      </trkpt>
      <trkpt lat="45.49516" lon="6.7323">
        <ele>2625.5</ele>
        <time>2010-03-31T12:23:09Z</time>
      </trkpt>
      <trkpt lat="45.49497" lon="6.73271">
        <ele>2647.4</ele>
        <time>2010-03-31T12:23:20Z</time>
      </trkpt>
      <trkpt lat="45.49463" lon="6.73341">
        <ele>2681.7</ele>
        <time>2010-03-31T12:23:38Z</time>
      </trkpt>
      <trkpt lat="45.49437" lon="6.73393">
        <ele>2705.8</ele>
        <time>2010-03-31T12:23:52Z</time>
      </trkpt>
      <trkpt lat="45.49421" lon="6.73426">
        <ele>2711.4</ele>
        <time>2010-03-31T12:24:00Z</time>
      </trkpt>
      <trkpt lat="45.49403" lon="6.73464">
        <ele>2712.9</ele>
        <time>2010-03-31T12:24:09Z</time>
      </trkpt>
      <trkpt lat="45.49391" lon="6.73489">
        <ele>2712.6</ele>
        <time>2010-03-31T12:24:15Z</time>
      </trkpt>
      <trkpt lat="45.49366" lon="6.73539">
        <ele>2714.4</ele>
        <time>2010-03-31T12:24:28Z</time>
      </trkpt>
      <trkpt lat="45.49366" lon="6.73544">
        <ele>2714.7</ele>
        <time>2010-03-31T12:24:32Z</time>
      </trkpt>
      <trkpt lat="45.49369" lon="6.73552">
        <ele>2714.9</ele>
        <time>2010-03-31T12:24:40Z</time>
      </trkpt>
      <trkpt lat="45.49371" lon="6.73562">
        <ele>2715</ele>
        <time>2010-03-31T12:24:50Z</time>
      </trkpt>
      <trkpt lat="45.49371" lon="6.73564">
        <ele>2715.1</ele>
        <time>2010-03-31T12:24:54Z</time>
      </trkpt>
      <trkpt lat="45.49365" lon="6.73562">
        <ele>2715.6</ele>
        <time>2010-03-31T12:25:01Z</time>
      </trkpt>
      <trkpt lat="45.49366" lon="6.73563">
        <ele>2715.6</ele>
        <time>2010-03-31T12:25:12Z</time>
      </trkpt>
      <trkpt lat="45.49365" lon="6.73564">
        <ele>2715.6</ele>
        <time>2010-03-31T12:25:28Z</time>
      </trkpt>
      <trkpt lat="45.49367" lon="6.73564">
        <ele>2715.5</ele>
        <time>2010-03-31T12:25:35Z</time>
      </trkpt>
      <trkpt lat="45.4937" lon="6.73564">
        <ele>2715.2</ele>
        <time>2010-03-31T12:25:43Z</time>
      </trkpt>
      <trkpt lat="45.49374" lon="6.73559">
        <ele>2714.7</ele>
        <time>2010-03-31T12:25:48Z</time>
      </trkpt>
      <trkpt lat="45.49381" lon="6.73542">
        <ele>2713.2</ele>
        <time>2010-03-31T12:25:53Z</time>
      </trkpt>
      <trkpt lat="45.49393" lon="6.73514">
        <ele>2711.9</ele>
        <time>2010-03-31T12:25:59Z</time>
      </trkpt>
      <trkpt lat="45.49399" lon="6.73503">
        <ele>2711.7</ele>
        <time>2010-03-31T12:26:04Z</time>
      </trkpt>
      <trkpt lat="45.49401" lon="6.735">
        <ele>2711.6</ele>
        <time>2010-03-31T12:26:07Z</time>
      </trkpt>
      <trkpt lat="45.49405" lon="6.73496">
        <ele>2711.5</ele>
        <time>2010-03-31T12:26:14Z</time>
      </trkpt>
      <trkpt lat="45.49411" lon="6.73487">
        <ele>2711.4</ele>
        <time>2010-03-31T12:26:20Z</time>
      </trkpt>
      <trkpt lat="45.49426" lon="6.73473">
        <ele>2709.7</ele>
        <time>2010-03-31T12:26:26Z</time>
      </trkpt>
      <trkpt lat="45.49439" lon="6.73469">
        <ele>2707.9</ele>
        <time>2010-03-31T12:26:30Z</time>
      </trkpt>
      <trkpt lat="45.49447" lon="6.73463">
        <ele>2706.7</ele>
        <time>2010-03-31T12:26:35Z</time>
      </trkpt>
      <trkpt lat="45.49461" lon="6.73444">
        <ele>2704.5</ele>
        <time>2010-03-31T12:26:39Z</time>
      </trkpt>
      <trkpt lat="45.49476" lon="6.73426">
        <ele>2700.5</ele>
        <time>2010-03-31T12:26:43Z</time>
      </trkpt>
      <trkpt lat="45.49484" lon="6.7342">
        <ele>2698.5</ele>
        <time>2010-03-31T12:26:45Z</time>
      </trkpt>
      <trkpt lat="45.49492" lon="6.73409">
        <ele>2697.2</ele>
        <time>2010-03-31T12:26:48Z</time>
      </trkpt>
      <trkpt lat="45.49507" lon="6.73392">
        <ele>2694.4</ele>
        <time>2010-03-31T12:26:54Z</time>
      </trkpt>
      <trkpt lat="45.49522" lon="6.7338">
        <ele>2691.9</ele>
        <time>2010-03-31T12:26:58Z</time>
      </trkpt>
      <trkpt lat="45.49527" lon="6.73378">
        <ele>2691.1</ele>
        <time>2010-03-31T12:26:59Z</time>
      </trkpt>
      <trkpt lat="45.4955" lon="6.7338">
        <ele>2686.6</ele>
        <time>2010-03-31T12:27:04Z</time>
      </trkpt>
      <trkpt lat="45.49565" lon="6.73384">
        <ele>2684.1</ele>
        <time>2010-03-31T12:27:07Z</time>
      </trkpt>
      <trkpt lat="45.49581" lon="6.73396">
        <ele>2681.2</ele>
        <time>2010-03-31T12:27:10Z</time>
      </trkpt>
      <trkpt lat="45.49599" lon="6.73393">
        <ele>2678.4</ele>
        <time>2010-03-31T12:27:14Z</time>
      </trkpt>
      <trkpt lat="45.49612" lon="6.73396">
        <ele>2675.5</ele>
        <time>2010-03-31T12:27:17Z</time>
      </trkpt>
      <trkpt lat="45.49618" lon="6.73392">
        <ele>2672.8</ele>
        <time>2010-03-31T12:27:20Z</time>
      </trkpt>
      <trkpt lat="45.49618" lon="6.73391">
        <ele>2672.8</ele>
        <time>2010-03-31T12:27:21Z</time>
      </trkpt>
      <trkpt lat="45.49624" lon="6.73384">
        <ele>2670.6</ele>
        <time>2010-03-31T12:27:26Z</time>
      </trkpt>
      <trkpt lat="45.49626" lon="6.73385">
        <ele>2669.9</ele>
        <time>2010-03-31T12:27:29Z</time>
      </trkpt>
      <trkpt lat="45.49627" lon="6.73384">
        <ele>2669.2</ele>
        <time>2010-03-31T12:27:36Z</time>
      </trkpt>
      <trkpt lat="45.49628" lon="6.73379">
        <ele>2669.3</ele>
        <time>2010-03-31T12:27:40Z</time>
      </trkpt>
      <trkpt lat="45.49628" lon="6.73377">
        <ele>2669.3</ele>
        <time>2010-03-31T12:27:41Z</time>
      </trkpt>
      <trkpt lat="45.49637" lon="6.73361">
        <ele>2668.4</ele>
        <time>2010-03-31T12:27:45Z</time>
      </trkpt>
      <trkpt lat="45.49649" lon="6.73353">
        <ele>2663.3</ele>
        <time>2010-03-31T12:27:48Z</time>
      </trkpt>
      <trkpt lat="45.49663" lon="6.7333">
        <ele>2660</ele>
        <time>2010-03-31T12:27:53Z</time>
      </trkpt>
      <trkpt lat="45.49674" lon="6.73302">
        <ele>2656.1</ele>
        <time>2010-03-31T12:27:57Z</time>
      </trkpt>
      <trkpt lat="45.49677" lon="6.73292">
        <ele>2653.9</ele>
        <time>2010-03-31T12:27:59Z</time>
      </trkpt>
      <trkpt lat="45.49685" lon="6.73263">
        <ele>2647.4</ele>
        <time>2010-03-31T12:28:04Z</time>
      </trkpt>
      <trkpt lat="45.49686" lon="6.73244">
        <ele>2643.8</ele>
        <time>2010-03-31T12:28:07Z</time>
      </trkpt>
      <trkpt lat="45.49693" lon="6.73216">
        <ele>2639.8</ele>
        <time>2010-03-31T12:28:12Z</time>
      </trkpt>
      <trkpt lat="45.49694" lon="6.732">
        <ele>2637.7</ele>
        <time>2010-03-31T12:28:15Z</time>
      </trkpt>
      <trkpt lat="45.49694" lon="6.73188">
        <ele>2635.8</ele>
        <time>2010-03-31T12:28:18Z</time>
      </trkpt>
      <trkpt lat="45.49694" lon="6.73172">
        <ele>2633</ele>
        <time>2010-03-31T12:28:21Z</time>
      </trkpt>
      <trkpt lat="45.49693" lon="6.73158">
        <ele>2630.3</ele>
        <time>2010-03-31T12:28:24Z</time>
      </trkpt>
      <trkpt lat="45.49693" lon="6.73157">
        <ele>2630.3</ele>
        <time>2010-03-31T12:28:29Z</time>
      </trkpt>
      <trkpt lat="45.49693" lon="6.73158">
        <ele>2630.4</ele>
        <time>2010-03-31T12:28:39Z</time>
      </trkpt>
      <trkpt lat="45.49691" lon="6.73159">
        <ele>2630.1</ele>
        <time>2010-03-31T12:28:46Z</time>
      </trkpt>
      <trkpt lat="45.49691" lon="6.73156">
        <ele>2629.6</ele>
        <time>2010-03-31T12:28:53Z</time>
      </trkpt>
      <trkpt lat="45.49693" lon="6.73135">
        <ele>2626.9</ele>
        <time>2010-03-31T12:28:58Z</time>
      </trkpt>
      <trkpt lat="45.49694" lon="6.73128">
        <ele>2626.3</ele>
        <time>2010-03-31T12:28:59Z</time>
      </trkpt>
      <trkpt lat="45.49698" lon="6.73106">
        <ele>2623.4</ele>
        <time>2010-03-31T12:29:03Z</time>
      </trkpt>
      <trkpt lat="45.49699" lon="6.73092">
        <ele>2620.9</ele>
        <time>2010-03-31T12:29:05Z</time>
      </trkpt>
      <trkpt lat="45.497" lon="6.73071">
        <ele>2617.6</ele>
        <time>2010-03-31T12:29:08Z</time>
      </trkpt>
      <trkpt lat="45.49702" lon="6.73048">
        <ele>2614.3</ele>
        <time>2010-03-31T12:29:12Z</time>
      </trkpt>
      <trkpt lat="45.49707" lon="6.73038">
        <ele>2612.2</ele>
        <time>2010-03-31T12:29:15Z</time>
      </trkpt>
      <trkpt lat="45.49712" lon="6.73027">
        <ele>2609.7</ele>
        <time>2010-03-31T12:29:19Z</time>
      </trkpt>
      <trkpt lat="45.49713" lon="6.73027">
        <ele>2609.5</ele>
        <time>2010-03-31T12:29:22Z</time>
      </trkpt>
      <trkpt lat="45.49717" lon="6.73025">
        <ele>2608.5</ele>
        <time>2010-03-31T12:29:24Z</time>
      </trkpt>
      <trkpt lat="45.49732" lon="6.73029">
        <ele>2605.4</ele>
        <time>2010-03-31T12:29:28Z</time>
      </trkpt>
      <trkpt lat="45.49741" lon="6.73033">
        <ele>2603.6</ele>
        <time>2010-03-31T12:29:32Z</time>
      </trkpt>
      <trkpt lat="45.49749" lon="6.73025">
        <ele>2599.7</ele>
        <time>2010-03-31T12:29:35Z</time>
      </trkpt>
      <trkpt lat="45.49748" lon="6.73001">
        <ele>2595.9</ele>
        <time>2010-03-31T12:29:39Z</time>
      </trkpt>
      <trkpt lat="45.49749" lon="6.72991">
        <ele>2593.2</ele>
        <time>2010-03-31T12:29:41Z</time>
      </trkpt>
      <trkpt lat="45.49753" lon="6.72991">
        <ele>2592.1</ele>
        <time>2010-03-31T12:29:42Z</time>
      </trkpt>
      <trkpt lat="45.49763" lon="6.72996">
        <ele>2589.4</ele>
        <time>2010-03-31T12:29:46Z</time>
      </trkpt>
      <trkpt lat="45.49769" lon="6.72988">
        <ele>2586.3</ele>
        <time>2010-03-31T12:29:50Z</time>
      </trkpt>
      <trkpt lat="45.49767" lon="6.72976">
        <ele>2585</ele>
        <time>2010-03-31T12:29:54Z</time>
      </trkpt>
      <trkpt lat="45.49765" lon="6.72973">
        <ele>2584.6</ele>
        <time>2010-03-31T12:29:55Z</time>
      </trkpt>
      <trkpt lat="45.4976" lon="6.72948">
        <ele>2582.8</ele>
        <time>2010-03-31T12:30:02Z</time>
      </trkpt>
      <trkpt lat="45.49758" lon="6.7294">
        <ele>2582.2</ele>
        <time>2010-03-31T12:30:04Z</time>
      </trkpt>
      <trkpt lat="45.49764" lon="6.72935">
        <ele>2579.8</ele>
        <time>2010-03-31T12:30:07Z</time>
      </trkpt>
      <trkpt lat="45.49777" lon="6.72947">
        <ele>2577.7</ele>
        <time>2010-03-31T12:30:12Z</time>
      </trkpt>
      <trkpt lat="45.49782" lon="6.72943">
        <ele>2575.3</ele>
        <time>2010-03-31T12:30:15Z</time>
      </trkpt>
      <trkpt lat="45.49783" lon="6.7292">
        <ele>2571.1</ele>
        <time>2010-03-31T12:30:19Z</time>
      </trkpt>
      <trkpt lat="45.49782" lon="6.72897">
        <ele>2553</ele>
        <time>2010-03-31T12:30:22Z</time>
      </trkpt>
      <trkpt lat="45.49785" lon="6.7289">
        <ele>2553</ele>
        <time>2010-03-31T12:30:24Z</time>
      </trkpt>
      <trkpt lat="45.49801" lon="6.72893">
        <ele>2553</ele>
        <time>2010-03-31T12:30:27Z</time>
      </trkpt>
      <trkpt lat="45.49806" lon="6.729">
        <ele>2553</ele>
        <time>2010-03-31T12:30:29Z</time>
      </trkpt>
      <trkpt lat="45.49806" lon="6.72899">
        <ele>2553</ele>
        <time>2010-03-31T12:30:32Z</time>
      </trkpt>
      <trkpt lat="45.49808" lon="6.729">
        <ele>2553</ele>
        <time>2010-03-31T12:30:42Z</time>
      </trkpt>
      <trkpt lat="45.49807" lon="6.72901">
        <ele>2553</ele>
        <time>2010-03-31T12:30:50Z</time>
      </trkpt>
      <trkpt lat="45.49809" lon="6.72902">
        <ele>2553</ele>
        <time>2010-03-31T12:30:58Z</time>
      </trkpt>
      <trkpt lat="45.49812" lon="6.72887">
        <ele>2553</ele>
        <time>2010-03-31T12:31:02Z</time>
      </trkpt>
      <trkpt lat="45.49818" lon="6.7287">
        <ele>2553</ele>
        <time>2010-03-31T12:31:06Z</time>
      </trkpt>
      <trkpt lat="45.49828" lon="6.72869">
        <ele>2553</ele>
        <time>2010-03-31T12:31:09Z</time>
      </trkpt>
      <trkpt lat="45.49828" lon="6.72866">
        <ele>2553</ele>
        <time>2010-03-31T12:31:10Z</time>
      </trkpt>
      <trkpt lat="45.49826" lon="6.72862">
        <ele>2553</ele>
        <time>2010-03-31T12:31:15Z</time>
      </trkpt>
      <trkpt lat="45.49825" lon="6.72862">
        <ele>2553</ele>
        <time>2010-03-31T12:31:27Z</time>
      </trkpt>
      <trkpt lat="45.49825" lon="6.72861">
        <ele>2553</ele>
        <time>2010-03-31T12:31:32Z</time>
      </trkpt>
      <trkpt lat="45.49825" lon="6.72857">
        <ele>2553</ele>
        <time>2010-03-31T12:31:36Z</time>
      </trkpt>
      <trkpt lat="45.49833" lon="6.72852">
        <ele>2553</ele>
        <time>2010-03-31T12:31:40Z</time>
      </trkpt>
      <trkpt lat="45.49835" lon="6.72852">
        <ele>2547</ele>
        <time>2010-03-31T12:31:41Z</time>
      </trkpt>
      <trkpt lat="45.49836" lon="6.72839">
        <ele>2551</ele>
        <time>2010-03-31T12:31:45Z</time>
      </trkpt>
      <trkpt lat="45.49834" lon="6.7283">
        <ele>2551</ele>
        <time>2010-03-31T12:31:47Z</time>
      </trkpt>
      <trkpt lat="45.49843" lon="6.7282">
        <ele>2547</ele>
        <time>2010-03-31T12:31:50Z</time>
      </trkpt>
      <trkpt lat="45.49852" lon="6.72813">
        <ele>2544</ele>
        <time>2010-03-31T12:31:53Z</time>
      </trkpt>
      <trkpt lat="45.49853" lon="6.72792">
        <ele>2542</ele>
        <time>2010-03-31T12:31:56Z</time>
      </trkpt>
      <trkpt lat="45.4986" lon="6.72779">
        <ele>2541</ele>
        <time>2010-03-31T12:31:58Z</time>
      </trkpt>
      <trkpt lat="45.49864" lon="6.72764">
        <ele>2541</ele>
        <time>2010-03-31T12:32:00Z</time>
      </trkpt>
      <trkpt lat="45.4987" lon="6.7275">
        <ele>2539</ele>
        <time>2010-03-31T12:32:02Z</time>
      </trkpt>
      <trkpt lat="45.49873" lon="6.72742">
        <ele>2533</ele>
        <time>2010-03-31T12:32:03Z</time>
      </trkpt>
      <trkpt lat="45.49879" lon="6.72715">
        <ele>2531</ele>
        <time>2010-03-31T12:32:06Z</time>
      </trkpt>
      <trkpt lat="45.49888" lon="6.72692">
        <ele>2528</ele>
        <time>2010-03-31T12:32:09Z</time>
      </trkpt>
      <trkpt lat="45.49899" lon="6.72681">
        <ele>2525</ele>
        <time>2010-03-31T12:32:12Z</time>
      </trkpt>
      <trkpt lat="45.49908" lon="6.72682">
        <ele>2524</ele>
        <time>2010-03-31T12:32:16Z</time>
      </trkpt>
      <trkpt lat="45.49908" lon="6.72683">
        <ele>2524</ele>
        <time>2010-03-31T12:32:24Z</time>
      </trkpt>
      <trkpt lat="45.49909" lon="6.72681">
        <ele>2523</ele>
        <time>2010-03-31T12:32:38Z</time>
      </trkpt>
      <trkpt lat="45.49915" lon="6.72663">
        <ele>2517</ele>
        <time>2010-03-31T12:32:42Z</time>
      </trkpt>
      <trkpt lat="45.49922" lon="6.72661">
        <ele>2512</ele>
        <time>2010-03-31T12:32:44Z</time>
      </trkpt>
      <trkpt lat="45.49926" lon="6.7265">
        <ele>2509</ele>
        <time>2010-03-31T12:32:46Z</time>
      </trkpt>
      <trkpt lat="45.49939" lon="6.72641">
        <ele>2506</ele>
        <time>2010-03-31T12:32:49Z</time>
      </trkpt>
      <trkpt lat="45.49944" lon="6.72635">
        <ele>2504</ele>
        <time>2010-03-31T12:32:50Z</time>
      </trkpt>
      <trkpt lat="45.49957" lon="6.72621">
        <ele>2503</ele>
        <time>2010-03-31T12:32:52Z</time>
      </trkpt>
      <trkpt lat="45.50007" lon="6.72583">
        <ele>2494</ele>
        <time>2010-03-31T12:32:58Z</time>
      </trkpt>
      <trkpt lat="45.50031" lon="6.72562">
        <ele>2491</ele>
        <time>2010-03-31T12:33:02Z</time>
      </trkpt>
      <trkpt lat="45.50069" lon="6.72527">
        <ele>2489</ele>
        <time>2010-03-31T12:33:08Z</time>
      </trkpt>
      <trkpt lat="45.50106" lon="6.72487">
        <ele>2483</ele>
        <time>2010-03-31T12:33:13Z</time>
      </trkpt>
      <trkpt lat="45.50126" lon="6.72471">
        <ele>2482</ele>
        <time>2010-03-31T12:33:16Z</time>
      </trkpt>
      <trkpt lat="45.50131" lon="6.72467">
        <ele>2482</ele>
        <time>2010-03-31T12:33:17Z</time>
      </trkpt>
      <trkpt lat="45.50141" lon="6.72456">
        <ele>2481</ele>
        <time>2010-03-31T12:33:20Z</time>
      </trkpt>
      <trkpt lat="45.50166" lon="6.72432">
        <ele>2480</ele>
        <time>2010-03-31T12:33:26Z</time>
      </trkpt>
      <trkpt lat="45.50181" lon="6.7243">
        <ele>2477</ele>
        <time>2010-03-31T12:33:30Z</time>
      </trkpt>
      <trkpt lat="45.50182" lon="6.7243">
        <ele>2477</ele>
        <time>2010-03-31T12:33:35Z</time>
      </trkpt>
      <trkpt lat="45.50183" lon="6.72427">
        <ele>2477</ele>
        <time>2010-03-31T12:33:40Z</time>
      </trkpt>
      <trkpt lat="45.50183" lon="6.72427">
        <ele>2477</ele>
        <time>2010-03-31T12:33:50Z</time>
      </trkpt>
      <trkpt lat="45.50183" lon="6.72424">
        <ele>2477</ele>
        <time>2010-03-31T12:33:57Z</time>
      </trkpt>
      <trkpt lat="45.50184" lon="6.72403">
        <ele>2471</ele>
        <time>2010-03-31T12:34:01Z</time>
      </trkpt>
      <trkpt lat="45.50192" lon="6.72394">
        <ele>2469</ele>
        <time>2010-03-31T12:34:03Z</time>
      </trkpt>
      <trkpt lat="45.50197" lon="6.72386">
        <ele>2468</ele>
        <time>2010-03-31T12:34:05Z</time>
      </trkpt>
      <trkpt lat="45.502" lon="6.72374">
        <ele>2466</ele>
        <time>2010-03-31T12:34:07Z</time>
      </trkpt>
      <trkpt lat="45.50207" lon="6.72359">
        <ele>2464</ele>
        <time>2010-03-31T12:34:10Z</time>
      </trkpt>
      <trkpt lat="45.5021" lon="6.7234">
        <ele>2463</ele>
        <time>2010-03-31T12:34:13Z</time>
      </trkpt>
      <trkpt lat="45.50218" lon="6.72338">
        <ele>2461</ele>
        <time>2010-03-31T12:34:16Z</time>
      </trkpt>
      <trkpt lat="45.50218" lon="6.72326">
        <ele>2451</ele>
        <time>2010-03-31T12:34:18Z</time>
      </trkpt>
      <trkpt lat="45.50222" lon="6.72311">
        <ele>2449</ele>
        <time>2010-03-31T12:34:22Z</time>
      </trkpt>
      <trkpt lat="45.50223" lon="6.72311">
        <ele>2449</ele>
        <time>2010-03-31T12:34:23Z</time>
      </trkpt>
      <trkpt lat="45.50223" lon="6.72311">
        <ele>2449</ele>
        <time>2010-03-31T12:34:31Z</time>
      </trkpt>
      <trkpt lat="45.50223" lon="6.72312">
        <ele>2449</ele>
        <time>2010-03-31T12:34:42Z</time>
      </trkpt>
      <trkpt lat="45.50222" lon="6.72312">
        <ele>2449</ele>
        <time>2010-03-31T12:34:48Z</time>
      </trkpt>
      <trkpt lat="45.50225" lon="6.72311">
        <ele>2449</ele>
        <time>2010-03-31T12:34:51Z</time>
      </trkpt>
      <trkpt lat="45.50229" lon="6.723">
        <ele>2448</ele>
        <time>2010-03-31T12:34:54Z</time>
      </trkpt>
      <trkpt lat="45.50243" lon="6.72276">
        <ele>2442</ele>
        <time>2010-03-31T12:34:58Z</time>
      </trkpt>
      <trkpt lat="45.50252" lon="6.72266">
        <ele>2429</ele>
        <time>2010-03-31T12:35:00Z</time>
      </trkpt>
      <trkpt lat="45.5027" lon="6.72246">
        <ele>2420</ele>
        <time>2010-03-31T12:35:03Z</time>
      </trkpt>
      <trkpt lat="45.50279" lon="6.72239">
        <ele>2419</ele>
        <time>2010-03-31T12:35:04Z</time>
      </trkpt>
      <trkpt lat="45.50298" lon="6.72226">
        <ele>2416</ele>
        <time>2010-03-31T12:35:06Z</time>
      </trkpt>
      <trkpt lat="45.50346" lon="6.72213">
        <ele>2405</ele>
        <time>2010-03-31T12:35:10Z</time>
      </trkpt>
      <trkpt lat="45.50371" lon="6.72209">
        <ele>2403</ele>
        <time>2010-03-31T12:35:12Z</time>
      </trkpt>
      <trkpt lat="45.50396" lon="6.72214">
        <ele>2401</ele>
        <time>2010-03-31T12:35:15Z</time>
      </trkpt>
      <trkpt lat="45.50413" lon="6.72213">
        <ele>2400</ele>
        <time>2010-03-31T12:35:18Z</time>
      </trkpt>
      <trkpt lat="45.5042" lon="6.72205">
        <ele>2389</ele>
        <time>2010-03-31T12:35:20Z</time>
      </trkpt>
      <trkpt lat="45.50425" lon="6.72193">
        <ele>2389</ele>
        <time>2010-03-31T12:35:23Z</time>
      </trkpt>
      <trkpt lat="45.50427" lon="6.72194">
        <ele>2388</ele>
        <time>2010-03-31T12:35:26Z</time>
      </trkpt>
      <trkpt lat="45.50426" lon="6.72193">
        <ele>2388</ele>
        <time>2010-03-31T12:35:44Z</time>
      </trkpt>
      <trkpt lat="45.50425" lon="6.72194">
        <ele>2389</ele>
        <time>2010-03-31T12:36:00Z</time>
      </trkpt>
      <trkpt lat="45.50425" lon="6.72194">
        <ele>2389</ele>
        <time>2010-03-31T12:36:08Z</time>
      </trkpt>
      <trkpt lat="45.50426" lon="6.72196">
        <ele>2388</ele>
        <time>2010-03-31T12:36:24Z</time>
      </trkpt>
      <trkpt lat="45.50439" lon="6.72201">
        <ele>2387</ele>
        <time>2010-03-31T12:36:28Z</time>
      </trkpt>
      <trkpt lat="45.50452" lon="6.72198">
        <ele>2385</ele>
        <time>2010-03-31T12:36:31Z</time>
      </trkpt>
      <trkpt lat="45.50468" lon="6.72192">
        <ele>2383</ele>
        <time>2010-03-31T12:36:34Z</time>
      </trkpt>
      <trkpt lat="45.50483" lon="6.7218">
        <ele>2379</ele>
        <time>2010-03-31T12:36:36Z</time>
      </trkpt>
      <trkpt lat="45.50552" lon="6.72128">
        <ele>2366</ele>
        <time>2010-03-31T12:36:43Z</time>
      </trkpt>
      <trkpt lat="45.50598" lon="6.72097">
        <ele>2360</ele>
        <time>2010-03-31T12:36:48Z</time>
      </trkpt>
      <trkpt lat="45.50637" lon="6.72078">
        <ele>2355</ele>
        <time>2010-03-31T12:36:52Z</time>
      </trkpt>
      <trkpt lat="45.50709" lon="6.72048">
        <ele>2347</ele>
        <time>2010-03-31T12:37:00Z</time>
      </trkpt>
      <trkpt lat="45.50735" lon="6.72046">
        <ele>2346</ele>
        <time>2010-03-31T12:37:04Z</time>
      </trkpt>
      <trkpt lat="45.50741" lon="6.72044">
        <ele>2345</ele>
        <time>2010-03-31T12:37:05Z</time>
      </trkpt>
      <trkpt lat="45.50762" lon="6.7204">
        <ele>2336</ele>
        <time>2010-03-31T12:37:10Z</time>
      </trkpt>
      <trkpt lat="45.50761" lon="6.72039">
        <ele>2336</ele>
        <time>2010-03-31T12:37:16Z</time>
      </trkpt>
      <trkpt lat="45.50761" lon="6.72039">
        <ele>2336</ele>
        <time>2010-03-31T12:37:23Z</time>
      </trkpt>
      <trkpt lat="45.50762" lon="6.72039">
        <ele>2336</ele>
        <time>2010-03-31T12:37:28Z</time>
      </trkpt>
      <trkpt lat="45.50766" lon="6.72038">
        <ele>2336</ele>
        <time>2010-03-31T12:37:33Z</time>
      </trkpt>
      <trkpt lat="45.50785" lon="6.72032">
        <ele>2334</ele>
        <time>2010-03-31T12:37:37Z</time>
      </trkpt>
      <trkpt lat="45.50812" lon="6.72026">
        <ele>2331</ele>
        <time>2010-03-31T12:37:40Z</time>
      </trkpt>
      <trkpt lat="45.50857" lon="6.72012">
        <ele>2321</ele>
        <time>2010-03-31T12:37:44Z</time>
      </trkpt>
      <trkpt lat="45.50915" lon="6.71995">
        <ele>2316</ele>
        <time>2010-03-31T12:37:49Z</time>
      </trkpt>
      <trkpt lat="45.50951" lon="6.71986">
        <ele>2317</ele>
        <time>2010-03-31T12:37:53Z</time>
      </trkpt>
      <trkpt lat="45.50985" lon="6.71982">
        <ele>2317</ele>
        <time>2010-03-31T12:37:58Z</time>
      </trkpt>
      <trkpt lat="45.51007" lon="6.71979">
        <ele>2317</ele>
        <time>2010-03-31T12:38:03Z</time>
      </trkpt>
      <trkpt lat="45.51022" lon="6.71978">
        <ele>2318</ele>
        <time>2010-03-31T12:38:08Z</time>
      </trkpt>
      <trkpt lat="45.51037" lon="6.71975">
        <ele>2319</ele>
        <time>2010-03-31T12:38:14Z</time>
      </trkpt>
      <trkpt lat="45.5104" lon="6.71975">
        <ele>2319</ele>
        <time>2010-03-31T12:38:15Z</time>
      </trkpt>
      <trkpt lat="45.51053" lon="6.71973">
        <ele>2319</ele>
        <time>2010-03-31T12:38:20Z</time>
      </trkpt>
      <trkpt lat="45.51056" lon="6.71973">
        <ele>2319</ele>
        <time>2010-03-31T12:38:21Z</time>
      </trkpt>
      <trkpt lat="45.51066" lon="6.71973">
        <ele>2319</ele>
        <time>2010-03-31T12:38:26Z</time>
      </trkpt>
      <trkpt lat="45.51068" lon="6.71972">
        <ele>2319</ele>
        <time>2010-03-31T12:38:27Z</time>
      </trkpt>
      <trkpt lat="45.51071" lon="6.7197">
        <ele>2319</ele>
        <time>2010-03-31T12:38:29Z</time>
      </trkpt>
      <trkpt lat="45.51073" lon="6.71972">
        <ele>2319</ele>
        <time>2010-03-31T12:38:36Z</time>
      </trkpt>
      <trkpt lat="45.51074" lon="6.71975">
        <ele>2319</ele>
        <time>2010-03-31T12:39:00Z</time>
      </trkpt>
      <trkpt lat="45.51074" lon="6.71976">
        <ele>2319</ele>
        <time>2010-03-31T12:39:07Z</time>
      </trkpt>
      <trkpt lat="45.51074" lon="6.71974">
        <ele>2319</ele>
        <time>2010-03-31T12:39:13Z</time>
      </trkpt>
      <trkpt lat="45.51077" lon="6.71963">
        <ele>2320</ele>
        <time>2010-03-31T12:39:20Z</time>
      </trkpt>
      <trkpt lat="45.51089" lon="6.71921">
        <ele>2327</ele>
        <time>2010-03-31T12:39:31Z</time>
      </trkpt>
      <trkpt lat="45.51113" lon="6.71789">
        <ele>2315</ele>
        <time>2010-03-31T12:41:13Z</time>
      </trkpt>
      <trkpt lat="45.51119" lon="6.71782">
        <ele>2314</ele>
        <time>2010-03-31T12:41:16Z</time>
      </trkpt>
      <trkpt lat="45.51123" lon="6.7178">
        <ele>2313</ele>
        <time>2010-03-31T12:41:22Z</time>
      </trkpt>
      <trkpt lat="45.51123" lon="6.7178">
        <ele>2313</ele>
        <time>2010-03-31T12:41:32Z</time>
      </trkpt>
      <trkpt lat="45.51123" lon="6.7178">
        <ele>2314</ele>
        <time>2010-03-31T12:41:50Z</time>
      </trkpt>
      <trkpt lat="45.51127" lon="6.71774">
        <ele>2312</ele>
        <time>2010-03-31T12:41:56Z</time>
      </trkpt>
      <trkpt lat="45.51138" lon="6.71762">
        <ele>2310</ele>
        <time>2010-03-31T12:42:00Z</time>
      </trkpt>
      <trkpt lat="45.51143" lon="6.71761">
        <ele>2309</ele>
        <time>2010-03-31T12:42:01Z</time>
      </trkpt>
      <trkpt lat="45.51162" lon="6.71746">
        <ele>2298</ele>
        <time>2010-03-31T12:42:05Z</time>
      </trkpt>
      <trkpt lat="45.51168" lon="6.71715">
        <ele>2295</ele>
        <time>2010-03-31T12:42:08Z</time>
      </trkpt>
      <trkpt lat="45.5117" lon="6.71701">
        <ele>2294</ele>
        <time>2010-03-31T12:42:09Z</time>
      </trkpt>
      <trkpt lat="45.51172" lon="6.71674">
        <ele>2290</ele>
        <time>2010-03-31T12:42:11Z</time>
      </trkpt>
      <trkpt lat="45.51174" lon="6.71636">
        <ele>2282</ele>
        <time>2010-03-31T12:42:15Z</time>
      </trkpt>
      <trkpt lat="45.51177" lon="6.71629">
        <ele>2281</ele>
        <time>2010-03-31T12:42:16Z</time>
      </trkpt>
      <trkpt lat="45.51184" lon="6.71616">
        <ele>2280</ele>
        <time>2010-03-31T12:42:18Z</time>
      </trkpt>
      <trkpt lat="45.51186" lon="6.71595">
        <ele>2278</ele>
        <time>2010-03-31T12:42:21Z</time>
      </trkpt>
      <trkpt lat="45.51183" lon="6.71589">
        <ele>2277</ele>
        <time>2010-03-31T12:42:22Z</time>
      </trkpt>
      <trkpt lat="45.51182" lon="6.71567">
        <ele>2270</ele>
        <time>2010-03-31T12:42:25Z</time>
      </trkpt>
      <trkpt lat="45.51186" lon="6.71542">
        <ele>2268</ele>
        <time>2010-03-31T12:42:28Z</time>
      </trkpt>
      <trkpt lat="45.51187" lon="6.71518">
        <ele>2266</ele>
        <time>2010-03-31T12:42:31Z</time>
      </trkpt>
      <trkpt lat="45.512" lon="6.71507">
        <ele>2265</ele>
        <time>2010-03-31T12:42:34Z</time>
      </trkpt>
      <trkpt lat="45.51205" lon="6.71493">
        <ele>2255</ele>
        <time>2010-03-31T12:42:36Z</time>
      </trkpt>
      <trkpt lat="45.51213" lon="6.71489">
        <ele>2255</ele>
        <time>2010-03-31T12:42:38Z</time>
      </trkpt>
      <trkpt lat="45.51215" lon="6.71488">
        <ele>2255</ele>
        <time>2010-03-31T12:42:41Z</time>
      </trkpt>
      <trkpt lat="45.51214" lon="6.71489">
        <ele>2255</ele>
        <time>2010-03-31T12:42:51Z</time>
      </trkpt>
      <trkpt lat="45.51214" lon="6.71487">
        <ele>2255</ele>
        <time>2010-03-31T12:43:00Z</time>
      </trkpt>
      <trkpt lat="45.5121" lon="6.71473">
        <ele>2254</ele>
        <time>2010-03-31T12:43:04Z</time>
      </trkpt>
      <trkpt lat="45.51207" lon="6.71468">
        <ele>2253</ele>
        <time>2010-03-31T12:43:05Z</time>
      </trkpt>
      <trkpt lat="45.51208" lon="6.71447">
        <ele>2251</ele>
        <time>2010-03-31T12:43:08Z</time>
      </trkpt>
      <trkpt lat="45.51204" lon="6.71436">
        <ele>2251</ele>
        <time>2010-03-31T12:43:10Z</time>
      </trkpt>
      <trkpt lat="45.51203" lon="6.71433">
        <ele>2250</ele>
        <time>2010-03-31T12:43:11Z</time>
      </trkpt>
      <trkpt lat="45.512" lon="6.7143">
        <ele>2250</ele>
        <time>2010-03-31T12:43:16Z</time>
      </trkpt>
      <trkpt lat="45.512" lon="6.71418">
        <ele>2250</ele>
        <time>2010-03-31T12:43:19Z</time>
      </trkpt>
      <trkpt lat="45.51199" lon="6.71382">
        <ele>2236</ele>
        <time>2010-03-31T12:43:22Z</time>
      </trkpt>
      <trkpt lat="45.51199" lon="6.71348">
        <ele>2232</ele>
        <time>2010-03-31T12:43:24Z</time>
      </trkpt>
      <trkpt lat="45.51207" lon="6.7126">
        <ele>2219</ele>
        <time>2010-03-31T12:43:29Z</time>
      </trkpt>
      <trkpt lat="45.51215" lon="6.71205">
        <ele>2213</ele>
        <time>2010-03-31T12:43:33Z</time>
      </trkpt>
      <trkpt lat="45.51228" lon="6.71174">
        <ele>2210</ele>
        <time>2010-03-31T12:43:37Z</time>
      </trkpt>
      <trkpt lat="45.51228" lon="6.71169">
        <ele>2209</ele>
        <time>2010-03-31T12:43:38Z</time>
      </trkpt>
      <trkpt lat="45.51228" lon="6.71156">
        <ele>2205</ele>
        <time>2010-03-31T12:43:44Z</time>
      </trkpt>
      <trkpt lat="45.51227" lon="6.71153">
        <ele>2204</ele>
        <time>2010-03-31T12:43:56Z</time>
      </trkpt>
      <trkpt lat="45.51227" lon="6.71142">
        <ele>2204</ele>
        <time>2010-03-31T12:43:59Z</time>
      </trkpt>
      <trkpt lat="45.51242" lon="6.71117">
        <ele>2201</ele>
        <time>2010-03-31T12:44:03Z</time>
      </trkpt>
      <trkpt lat="45.51244" lon="6.71088">
        <ele>2195</ele>
        <time>2010-03-31T12:44:06Z</time>
      </trkpt>
      <trkpt lat="45.51247" lon="6.71071">
        <ele>2191</ele>
        <time>2010-03-31T12:44:08Z</time>
      </trkpt>
      <trkpt lat="45.5125" lon="6.71042">
        <ele>2182</ele>
        <time>2010-03-31T12:44:11Z</time>
      </trkpt>
      <trkpt lat="45.5125" lon="6.71021">
        <ele>2185</ele>
        <time>2010-03-31T12:44:14Z</time>
      </trkpt>
      <trkpt lat="45.51249" lon="6.71007">
        <ele>2181</ele>
        <time>2010-03-31T12:44:16Z</time>
      </trkpt>
      <trkpt lat="45.51256" lon="6.70998">
        <ele>2176</ele>
        <time>2010-03-31T12:44:18Z</time>
      </trkpt>
      <trkpt lat="45.51253" lon="6.70984">
        <ele>2171</ele>
        <time>2010-03-31T12:44:20Z</time>
      </trkpt>
      <trkpt lat="45.51255" lon="6.70971">
        <ele>2168</ele>
        <time>2010-03-31T12:44:22Z</time>
      </trkpt>
      <trkpt lat="45.51266" lon="6.70959">
        <ele>2165</ele>
        <time>2010-03-31T12:44:25Z</time>
      </trkpt>
      <trkpt lat="45.51271" lon="6.70955">
        <ele>2164</ele>
        <time>2010-03-31T12:44:27Z</time>
      </trkpt>
      <trkpt lat="45.51272" lon="6.70951">
        <ele>2163</ele>
        <time>2010-03-31T12:44:28Z</time>
      </trkpt>
      <trkpt lat="45.51277" lon="6.7092">
        <ele>2160</ele>
        <time>2010-03-31T12:44:33Z</time>
      </trkpt>
      <trkpt lat="45.51278" lon="6.70917">
        <ele>2160</ele>
        <time>2010-03-31T12:44:35Z</time>
      </trkpt>
      <trkpt lat="45.51278" lon="6.70917">
        <ele>2160</ele>
        <time>2010-03-31T12:44:46Z</time>
      </trkpt>
      <trkpt lat="45.51276" lon="6.70916">
        <ele>2150</ele>
        <time>2010-03-31T12:45:00Z</time>
      </trkpt>
      <trkpt lat="45.51273" lon="6.70891">
        <ele>2148</ele>
        <time>2010-03-31T12:45:04Z</time>
      </trkpt>
      <trkpt lat="45.51278" lon="6.70872">
        <ele>2146</ele>
        <time>2010-03-31T12:45:07Z</time>
      </trkpt>
      <trkpt lat="45.51277" lon="6.70821">
        <ele>2134</ele>
        <time>2010-03-31T12:45:12Z</time>
      </trkpt>
      <trkpt lat="45.51268" lon="6.70794">
        <ele>2131</ele>
        <time>2010-03-31T12:45:15Z</time>
      </trkpt>
      <trkpt lat="45.51265" lon="6.70782">
        <ele>2130</ele>
        <time>2010-03-31T12:45:18Z</time>
      </trkpt>
      <trkpt lat="45.51265" lon="6.70783">
        <ele>2130</ele>
        <time>2010-03-31T12:45:22Z</time>
      </trkpt>
      <trkpt lat="45.51265" lon="6.70784">
        <ele>2130</ele>
        <time>2010-03-31T12:45:34Z</time>
      </trkpt>
      <trkpt lat="45.51265" lon="6.70785">
        <ele>2130</ele>
        <time>2010-03-31T12:45:40Z</time>
      </trkpt>
      <trkpt lat="45.51264" lon="6.70786">
        <ele>2130</ele>
        <time>2010-03-31T12:45:47Z</time>
      </trkpt>
      <trkpt lat="45.51263" lon="6.70781">
        <ele>2130</ele>
        <time>2010-03-31T12:46:08Z</time>
      </trkpt>
      <trkpt lat="45.51255" lon="6.70761">
        <ele>2125</ele>
        <time>2010-03-31T12:46:12Z</time>
      </trkpt>
      <trkpt lat="45.51233" lon="6.70743">
        <ele>2115</ele>
        <time>2010-03-31T12:46:16Z</time>
      </trkpt>
      <trkpt lat="45.51232" lon="6.70733">
        <ele>2113</ele>
        <time>2010-03-31T12:46:17Z</time>
      </trkpt>
      <trkpt lat="45.51216" lon="6.70711">
        <ele>2109</ele>
        <time>2010-03-31T12:46:21Z</time>
      </trkpt>
      <trkpt lat="45.51212" lon="6.70702">
        <ele>2108</ele>
        <time>2010-03-31T12:46:23Z</time>
      </trkpt>
      <trkpt lat="45.51211" lon="6.70697">
        <ele>2108</ele>
        <time>2010-03-31T12:46:27Z</time>
      </trkpt>
      <trkpt lat="45.51195" lon="6.70694">
        <ele>2106</ele>
        <time>2010-03-31T12:46:34Z</time>
      </trkpt>
      <trkpt lat="45.51194" lon="6.70678">
        <ele>2103</ele>
        <time>2010-03-31T12:46:38Z</time>
      </trkpt>
      <trkpt lat="45.51196" lon="6.7067">
        <ele>2103</ele>
        <time>2010-03-31T12:46:40Z</time>
      </trkpt>
      <trkpt lat="45.51199" lon="6.70664">
        <ele>2091</ele>
        <time>2010-03-31T12:46:42Z</time>
      </trkpt>
      <trkpt lat="45.5119" lon="6.70655">
        <ele>2090</ele>
        <time>2010-03-31T12:46:46Z</time>
      </trkpt>
      <trkpt lat="45.51179" lon="6.70652">
        <ele>2089</ele>
        <time>2010-03-31T12:46:50Z</time>
      </trkpt>
      <trkpt lat="45.51176" lon="6.70639">
        <ele>2087</ele>
        <time>2010-03-31T12:46:53Z</time>
      </trkpt>
      <trkpt lat="45.5118" lon="6.7063">
        <ele>2086</ele>
        <time>2010-03-31T12:46:56Z</time>
      </trkpt>
      <trkpt lat="45.51183" lon="6.70613">
        <ele>2083</ele>
        <time>2010-03-31T12:47:01Z</time>
      </trkpt>
      <trkpt lat="45.51184" lon="6.70609">
        <ele>2082</ele>
        <time>2010-03-31T12:47:02Z</time>
      </trkpt>
      <trkpt lat="45.51186" lon="6.70594">
        <ele>2080</ele>
        <time>2010-03-31T12:47:06Z</time>
      </trkpt>
      <trkpt lat="45.5118" lon="6.70586">
        <ele>2076</ele>
        <time>2010-03-31T12:47:08Z</time>
      </trkpt>
      <trkpt lat="45.51175" lon="6.70584">
        <ele>2074</ele>
        <time>2010-03-31T12:47:09Z</time>
      </trkpt>
      <trkpt lat="45.51161" lon="6.7058">
        <ele>2065</ele>
        <time>2010-03-31T12:47:12Z</time>
      </trkpt>
      <trkpt lat="45.51155" lon="6.70569">
        <ele>2061</ele>
        <time>2010-03-31T12:47:15Z</time>
      </trkpt>
      <trkpt lat="45.51155" lon="6.70563">
        <ele>2059</ele>
        <time>2010-03-31T12:47:16Z</time>
      </trkpt>
      <trkpt lat="45.51146" lon="6.70549">
        <ele>2056</ele>
        <time>2010-03-31T12:47:20Z</time>
      </trkpt>
      <trkpt lat="45.51143" lon="6.70548">
        <ele>2056</ele>
        <time>2010-03-31T12:47:21Z</time>
      </trkpt>
      <trkpt lat="45.51131" lon="6.70545">
        <ele>2055</ele>
        <time>2010-03-31T12:47:24Z</time>
      </trkpt>
      <trkpt lat="45.51131" lon="6.70529">
        <ele>2053</ele>
        <time>2010-03-31T12:47:27Z</time>
      </trkpt>
      <trkpt lat="45.51131" lon="6.70528">
        <ele>2053</ele>
        <time>2010-03-31T12:47:30Z</time>
      </trkpt>
      <trkpt lat="45.51131" lon="6.70529">
        <ele>2053</ele>
        <time>2010-03-31T12:47:38Z</time>
      </trkpt>
      <trkpt lat="45.5113" lon="6.70528">
        <ele>2053</ele>
        <time>2010-03-31T12:47:56Z</time>
      </trkpt>
      <trkpt lat="45.5113" lon="6.70528">
        <ele>2053</ele>
        <time>2010-03-31T12:48:06Z</time>
      </trkpt>
      <trkpt lat="45.51131" lon="6.70527">
        <ele>2053</ele>
        <time>2010-03-31T12:48:15Z</time>
      </trkpt>
      <trkpt lat="45.51133" lon="6.70506">
        <ele>2051</ele>
        <time>2010-03-31T12:48:19Z</time>
      </trkpt>
      <trkpt lat="45.51135" lon="6.70497">
        <ele>2040</ele>
        <time>2010-03-31T12:48:21Z</time>
      </trkpt>
      <trkpt lat="45.51142" lon="6.7048">
        <ele>2040</ele>
        <time>2010-03-31T12:48:25Z</time>
      </trkpt>
      <trkpt lat="45.51136" lon="6.70471">
        <ele>2038</ele>
        <time>2010-03-31T12:48:28Z</time>
      </trkpt>
      <trkpt lat="45.5113" lon="6.70453">
        <ele>2036</ele>
        <time>2010-03-31T12:48:31Z</time>
      </trkpt>
      <trkpt lat="45.51137" lon="6.70438">
        <ele>2034</ele>
        <time>2010-03-31T12:48:33Z</time>
      </trkpt>
      <trkpt lat="45.51144" lon="6.70416">
        <ele>2023</ele>
        <time>2010-03-31T12:48:36Z</time>
      </trkpt>
      <trkpt lat="45.51145" lon="6.70377">
        <ele>2017</ele>
        <time>2010-03-31T12:48:40Z</time>
      </trkpt>
      <trkpt lat="45.51156" lon="6.70351">
        <ele>2013</ele>
        <time>2010-03-31T12:48:43Z</time>
      </trkpt>
      <trkpt lat="45.51165" lon="6.70344">
        <ele>2012</ele>
        <time>2010-03-31T12:48:45Z</time>
      </trkpt>
      <trkpt lat="45.51168" lon="6.70343">
        <ele>2014</ele>
        <time>2010-03-31T12:48:48Z</time>
      </trkpt>
      <trkpt lat="45.51168" lon="6.70343">
        <ele>2014</ele>
        <time>2010-03-31T12:48:55Z</time>
      </trkpt>
      <trkpt lat="45.51167" lon="6.70341">
        <ele>2013</ele>
        <time>2010-03-31T12:49:02Z</time>
      </trkpt>
      <trkpt lat="45.51168" lon="6.70314">
        <ele>2007</ele>
        <time>2010-03-31T12:49:06Z</time>
      </trkpt>
      <trkpt lat="45.51179" lon="6.7028">
        <ele>2002</ele>
        <time>2010-03-31T12:49:10Z</time>
      </trkpt>
      <trkpt lat="45.51187" lon="6.70262">
        <ele>2000</ele>
        <time>2010-03-31T12:49:12Z</time>
      </trkpt>
      <trkpt lat="45.51192" lon="6.70238">
        <ele>1989</ele>
        <time>2010-03-31T12:49:14Z</time>
      </trkpt>
      <trkpt lat="45.51198" lon="6.70215">
        <ele>1987</ele>
        <time>2010-03-31T12:49:16Z</time>
      </trkpt>
      <trkpt lat="45.51213" lon="6.7017">
        <ele>1983</ele>
        <time>2010-03-31T12:49:20Z</time>
      </trkpt>
      <trkpt lat="45.51219" lon="6.7015">
        <ele>1970</ele>
        <time>2010-03-31T12:49:23Z</time>
      </trkpt>
      <trkpt lat="45.51214" lon="6.70136">
        <ele>1969</ele>
        <time>2010-03-31T12:49:27Z</time>
      </trkpt>
      <trkpt lat="45.51215" lon="6.70137">
        <ele>1969</ele>
        <time>2010-03-31T12:49:32Z</time>
      </trkpt>
      <trkpt lat="45.51217" lon="6.70125">
        <ele>1968</ele>
        <time>2010-03-31T12:49:46Z</time>
      </trkpt>
      <trkpt lat="45.51221" lon="6.70109">
        <ele>1966</ele>
        <time>2010-03-31T12:49:48Z</time>
      </trkpt>
      <trkpt lat="45.51225" lon="6.70061">
        <ele>1953</ele>
        <time>2010-03-31T12:49:52Z</time>
      </trkpt>
      <trkpt lat="45.51223" lon="6.70036">
        <ele>1951</ele>
        <time>2010-03-31T12:49:54Z</time>
      </trkpt>
      <trkpt lat="45.5122" lon="6.7">
        <ele>1943</ele>
        <time>2010-03-31T12:49:57Z</time>
      </trkpt>
      <trkpt lat="45.51216" lon="6.69991">
        <ele>1943</ele>
        <time>2010-03-31T12:49:58Z</time>
      </trkpt>
      <trkpt lat="45.51208" lon="6.69946">
        <ele>1941</ele>
        <time>2010-03-31T12:50:03Z</time>
      </trkpt>
      <trkpt lat="45.51203" lon="6.6992">
        <ele>1941</ele>
        <time>2010-03-31T12:50:06Z</time>
      </trkpt>
      <trkpt lat="45.51197" lon="6.69901">
        <ele>1937</ele>
        <time>2010-03-31T12:50:09Z</time>
      </trkpt>
      <trkpt lat="45.51192" lon="6.69888">
        <ele>1937</ele>
        <time>2010-03-31T12:50:12Z</time>
      </trkpt>
      <trkpt lat="45.51193" lon="6.69868">
        <ele>1937</ele>
        <time>2010-03-31T12:50:16Z</time>
      </trkpt>
      <trkpt lat="45.51192" lon="6.69865">
        <ele>1937</ele>
        <time>2010-03-31T12:50:17Z</time>
      </trkpt>
      <trkpt lat="45.51189" lon="6.6985">
        <ele>1936</ele>
        <time>2010-03-31T12:50:24Z</time>
      </trkpt>
      <trkpt lat="45.51186" lon="6.69844">
        <ele>1937</ele>
        <time>2010-03-31T12:50:31Z</time>
      </trkpt>
      <trkpt lat="45.51183" lon="6.69842">
        <ele>1937</ele>
        <time>2010-03-31T12:50:36Z</time>
      </trkpt>
      <trkpt lat="45.5118" lon="6.69841">
        <ele>1937</ele>
        <time>2010-03-31T12:50:44Z</time>
      </trkpt>
      <trkpt lat="45.51179" lon="6.69841">
        <ele>1937</ele>
        <time>2010-03-31T12:50:53Z</time>
      </trkpt>
      <trkpt lat="45.51173" lon="6.69842">
        <ele>1937</ele>
        <time>2010-03-31T12:51:00Z</time>
      </trkpt>
      <trkpt lat="45.51169" lon="6.6984">
        <ele>1937</ele>
        <time>2010-03-31T12:51:05Z</time>
      </trkpt>
      <trkpt lat="45.51167" lon="6.69841">
        <ele>1937</ele>
        <time>2010-03-31T12:51:13Z</time>
      </trkpt>
      <trkpt lat="45.51167" lon="6.6984">
        <ele>1937</ele>
        <time>2010-03-31T12:51:20Z</time>
      </trkpt>
      <trkpt lat="45.51166" lon="6.69841">
        <ele>1939</ele>
        <time>2010-03-31T12:51:27Z</time>
      </trkpt>
      <trkpt lat="45.51162" lon="6.69843">
        <ele>1939</ele>
        <time>2010-03-31T12:51:34Z</time>
      </trkpt>
      <trkpt lat="45.51153" lon="6.69848">
        <ele>1941</ele>
        <time>2010-03-31T12:51:39Z</time>
      </trkpt>
      <trkpt lat="45.5114" lon="6.69853">
        <ele>1942</ele>
        <time>2010-03-31T12:51:41Z</time>
      </trkpt>
      <trkpt lat="45.51116" lon="6.69868">
        <ele>1945</ele>
        <time>2010-03-31T12:51:47Z</time>
      </trkpt>
      <trkpt lat="45.51096" lon="6.69879">
        <ele>1946</ele>
        <time>2010-03-31T12:51:52Z</time>
      </trkpt>
      <trkpt lat="45.51073" lon="6.69892">
        <ele>1956</ele>
        <time>2010-03-31T12:51:58Z</time>
      </trkpt>
      <trkpt lat="45.51051" lon="6.69905">
        <ele>1959</ele>
        <time>2010-03-31T12:52:04Z</time>
      </trkpt>
      <trkpt lat="45.5102" lon="6.69924">
        <ele>1964</ele>
        <time>2010-03-31T12:52:12Z</time>
      </trkpt>
      <trkpt lat="45.50993" lon="6.69939">
        <ele>1975</ele>
        <time>2010-03-31T12:52:19Z</time>
      </trkpt>
      <trkpt lat="45.50962" lon="6.69957">
        <ele>1979</ele>
        <time>2010-03-31T12:52:27Z</time>
      </trkpt>
      <trkpt lat="45.50934" lon="6.69973">
        <ele>1982</ele>
        <time>2010-03-31T12:52:34Z</time>
      </trkpt>
      <trkpt lat="45.50891" lon="6.69999">
        <ele>2000</ele>
        <time>2010-03-31T12:52:45Z</time>
      </trkpt>
      <trkpt lat="45.50849" lon="6.70023">
        <ele>2007</ele>
        <time>2010-03-31T12:52:56Z</time>
      </trkpt>
      <trkpt lat="45.50807" lon="6.70048">
        <ele>2024</ele>
        <time>2010-03-31T12:53:07Z</time>
      </trkpt>
      <trkpt lat="45.5078" lon="6.70064">
        <ele>2027</ele>
        <time>2010-03-31T12:53:14Z</time>
      </trkpt>
      <trkpt lat="45.50745" lon="6.70084">
        <ele>2035</ele>
        <time>2010-03-31T12:53:23Z</time>
      </trkpt>
      <trkpt lat="45.50706" lon="6.70106">
        <ele>2039</ele>
        <time>2010-03-31T12:53:33Z</time>
      </trkpt>
      <trkpt lat="45.50655" lon="6.70136">
        <ele>2053</ele>
        <time>2010-03-31T12:53:46Z</time>
      </trkpt>
      <trkpt lat="45.50604" lon="6.70166">
        <ele>2060</ele>
        <time>2010-03-31T12:53:59Z</time>
      </trkpt>
      <trkpt lat="45.50553" lon="6.70195">
        <ele>2068</ele>
        <time>2010-03-31T12:54:12Z</time>
      </trkpt>
      <trkpt lat="45.50498" lon="6.70227">
        <ele>2084</ele>
        <time>2010-03-31T12:54:26Z</time>
      </trkpt>
      <trkpt lat="45.50472" lon="6.70243">
        <ele>2087</ele>
        <time>2010-03-31T12:54:33Z</time>
      </trkpt>
      <trkpt lat="45.50457" lon="6.70252">
        <ele>2086</ele>
        <time>2010-03-31T12:54:37Z</time>
      </trkpt>
      <trkpt lat="45.5043" lon="6.70267">
        <ele>2092</ele>
        <time>2010-03-31T12:54:44Z</time>
      </trkpt>
      <trkpt lat="45.50403" lon="6.70283">
        <ele>2106</ele>
        <time>2010-03-31T12:54:51Z</time>
      </trkpt>
      <trkpt lat="45.50364" lon="6.70305">
        <ele>2109</ele>
        <time>2010-03-31T12:55:01Z</time>
      </trkpt>
      <trkpt lat="45.50322" lon="6.70329">
        <ele>2120</ele>
        <time>2010-03-31T12:55:12Z</time>
      </trkpt>
      <trkpt lat="45.50279" lon="6.70354">
        <ele>2126</ele>
        <time>2010-03-31T12:55:23Z</time>
      </trkpt>
      <trkpt lat="45.50243" lon="6.70376">
        <ele>2143</ele>
        <time>2010-03-31T12:55:32Z</time>
      </trkpt>
      <trkpt lat="45.50194" lon="6.70405">
        <ele>2150</ele>
        <time>2010-03-31T12:55:45Z</time>
      </trkpt>
      <trkpt lat="45.50147" lon="6.70431">
        <ele>2162</ele>
        <time>2010-03-31T12:55:57Z</time>
      </trkpt>
      <trkpt lat="45.50116" lon="6.70449">
        <ele>2165</ele>
        <time>2010-03-31T12:56:05Z</time>
      </trkpt>
      <trkpt lat="45.50069" lon="6.70476">
        <ele>2178</ele>
        <time>2010-03-31T12:56:17Z</time>
      </trkpt>
      <trkpt lat="45.50027" lon="6.70501">
        <ele>2185</ele>
        <time>2010-03-31T12:56:28Z</time>
      </trkpt>
      <trkpt lat="45.49995" lon="6.70519">
        <ele>2200</ele>
        <time>2010-03-31T12:56:36Z</time>
      </trkpt>
      <trkpt lat="45.49952" lon="6.70544">
        <ele>2206</ele>
        <time>2010-03-31T12:56:47Z</time>
      </trkpt>
      <trkpt lat="45.49906" lon="6.70571">
        <ele>2219</ele>
        <time>2010-03-31T12:56:59Z</time>
      </trkpt>
      <trkpt lat="45.49866" lon="6.70594">
        <ele>2222</ele>
        <time>2010-03-31T12:57:09Z</time>
      </trkpt>
      <trkpt lat="45.49815" lon="6.70623">
        <ele>2230</ele>
        <time>2010-03-31T12:57:22Z</time>
      </trkpt>
      <trkpt lat="45.49784" lon="6.70642">
        <ele>2231</ele>
        <time>2010-03-31T12:57:30Z</time>
      </trkpt>
      <trkpt lat="45.49736" lon="6.70669">
        <ele>2235</ele>
        <time>2010-03-31T12:57:42Z</time>
      </trkpt>
      <trkpt lat="45.49677" lon="6.70703">
        <ele>2241</ele>
        <time>2010-03-31T12:57:57Z</time>
      </trkpt>
      <trkpt lat="45.49646" lon="6.70722">
        <ele>2247</ele>
        <time>2010-03-31T12:58:05Z</time>
      </trkpt>
      <trkpt lat="45.49582" lon="6.70759">
        <ele>2252</ele>
        <time>2010-03-31T12:58:21Z</time>
      </trkpt>
      <trkpt lat="45.49527" lon="6.7079">
        <ele>2255</ele>
        <time>2010-03-31T12:58:35Z</time>
      </trkpt>
      <trkpt lat="45.4948" lon="6.70818">
        <ele>2267</ele>
        <time>2010-03-31T12:58:47Z</time>
      </trkpt>
      <trkpt lat="45.49431" lon="6.70847">
        <ele>2281</ele>
        <time>2010-03-31T12:59:00Z</time>
      </trkpt>
      <trkpt lat="45.49382" lon="6.70874">
        <ele>2306</ele>
        <time>2010-03-31T12:59:13Z</time>
      </trkpt>
      <trkpt lat="45.49323" lon="6.7091">
        <ele>2331</ele>
        <time>2010-03-31T12:59:29Z</time>
      </trkpt>
      <trkpt lat="45.49277" lon="6.70936">
        <ele>2348</ele>
        <time>2010-03-31T12:59:42Z</time>
      </trkpt>
      <trkpt lat="45.49265" lon="6.70946">
        <ele>2349</ele>
        <time>2010-03-31T12:59:45Z</time>
      </trkpt>
      <trkpt lat="45.49252" lon="6.7096">
        <ele>2350</ele>
        <time>2010-03-31T12:59:49Z</time>
      </trkpt>
      <trkpt lat="45.49251" lon="6.70961">
        <ele>2350</ele>
        <time>2010-03-31T12:59:50Z</time>
      </trkpt>
      <trkpt lat="45.4925" lon="6.70963">
        <ele>2356</ele>
        <time>2010-03-31T12:59:53Z</time>
      </trkpt>
      <trkpt lat="45.4924" lon="6.70961">
        <ele>2356</ele>
        <time>2010-03-31T12:59:58Z</time>
      </trkpt>
      <trkpt lat="45.49221" lon="6.7096">
        <ele>2356</ele>
        <time>2010-03-31T13:00:04Z</time>
      </trkpt>
      <trkpt lat="45.49193" lon="6.70968">
        <ele>2357</ele>
        <time>2010-03-31T13:00:11Z</time>
      </trkpt>
      <trkpt lat="45.49171" lon="6.70976">
        <ele>2358</ele>
        <time>2010-03-31T13:00:17Z</time>
      </trkpt>
      <trkpt lat="45.49151" lon="6.70981">
        <ele>2355</ele>
        <time>2010-03-31T13:00:21Z</time>
      </trkpt>
      <trkpt lat="45.49122" lon="6.71">
        <ele>2353</ele>
        <time>2010-03-31T13:00:26Z</time>
      </trkpt>
      <trkpt lat="45.49107" lon="6.71006">
        <ele>2352</ele>
        <time>2010-03-31T13:00:30Z</time>
      </trkpt>
      <trkpt lat="45.49105" lon="6.71006">
        <ele>2352</ele>
        <time>2010-03-31T13:00:32Z</time>
      </trkpt>
      <trkpt lat="45.49091" lon="6.71013">
        <ele>2351</ele>
        <time>2010-03-31T13:00:40Z</time>
      </trkpt>
      <trkpt lat="45.49082" lon="6.71012">
        <ele>2345</ele>
        <time>2010-03-31T13:00:42Z</time>
      </trkpt>
      <trkpt lat="45.49072" lon="6.71016">
        <ele>2343</ele>
        <time>2010-03-31T13:00:44Z</time>
      </trkpt>
      <trkpt lat="45.49057" lon="6.71011">
        <ele>2340</ele>
        <time>2010-03-31T13:00:47Z</time>
      </trkpt>
      <trkpt lat="45.49048" lon="6.71018">
        <ele>2338</ele>
        <time>2010-03-31T13:00:49Z</time>
      </trkpt>
      <trkpt lat="45.49038" lon="6.71018">
        <ele>2336</ele>
        <time>2010-03-31T13:00:51Z</time>
      </trkpt>
      <trkpt lat="45.49012" lon="6.71016">
        <ele>2330</ele>
        <time>2010-03-31T13:00:56Z</time>
      </trkpt>
      <trkpt lat="45.49003" lon="6.71016">
        <ele>2328</ele>
        <time>2010-03-31T13:00:58Z</time>
      </trkpt>
      <trkpt lat="45.4899" lon="6.71012">
        <ele>2318</ele>
        <time>2010-03-31T13:01:01Z</time>
      </trkpt>
      <trkpt lat="45.48976" lon="6.71014">
        <ele>2316</ele>
        <time>2010-03-31T13:01:03Z</time>
      </trkpt>
      <trkpt lat="45.48933" lon="6.71012">
        <ele>2310</ele>
        <time>2010-03-31T13:01:07Z</time>
      </trkpt>
      <trkpt lat="45.48923" lon="6.71011">
        <ele>2308</ele>
        <time>2010-03-31T13:01:08Z</time>
      </trkpt>
      <trkpt lat="45.48903" lon="6.70993">
        <ele>2305</ele>
        <time>2010-03-31T13:01:11Z</time>
      </trkpt>
      <trkpt lat="45.48901" lon="6.70986">
        <ele>2306</ele>
        <time>2010-03-31T13:01:12Z</time>
      </trkpt>
      <trkpt lat="45.48899" lon="6.70974">
        <ele>2306</ele>
        <time>2010-03-31T13:01:14Z</time>
      </trkpt>
      <trkpt lat="45.48899" lon="6.70957">
        <ele>2306</ele>
        <time>2010-03-31T13:01:19Z</time>
      </trkpt>
      <trkpt lat="45.48899" lon="6.70955">
        <ele>2306</ele>
        <time>2010-03-31T13:01:20Z</time>
      </trkpt>
      <trkpt lat="45.48902" lon="6.70937">
        <ele>2306</ele>
        <time>2010-03-31T13:01:29Z</time>
      </trkpt>
      <trkpt lat="45.48905" lon="6.70925">
        <ele>2305</ele>
        <time>2010-03-31T13:01:37Z</time>
      </trkpt>
      <trkpt lat="45.48908" lon="6.70917">
        <ele>2305</ele>
        <time>2010-03-31T13:01:43Z</time>
      </trkpt>
      <trkpt lat="45.4891" lon="6.70911">
        <ele>2303</ele>
        <time>2010-03-31T13:01:47Z</time>
      </trkpt>
      <trkpt lat="45.48913" lon="6.70903">
        <ele>2302</ele>
        <time>2010-03-31T13:01:52Z</time>
      </trkpt>
      <trkpt lat="45.48913" lon="6.70898">
        <ele>2301</ele>
        <time>2010-03-31T13:01:56Z</time>
      </trkpt>
      <trkpt lat="45.48915" lon="6.70888">
        <ele>2299</ele>
        <time>2010-03-31T13:02:03Z</time>
      </trkpt>
      <trkpt lat="45.48916" lon="6.70885">
        <ele>2299</ele>
        <time>2010-03-31T13:02:08Z</time>
      </trkpt>
      <trkpt lat="45.48917" lon="6.70881">
        <ele>2295</ele>
        <time>2010-03-31T13:02:15Z</time>
      </trkpt>
      <trkpt lat="45.48923" lon="6.70861">
        <ele>2291</ele>
        <time>2010-03-31T13:02:19Z</time>
      </trkpt>
      <trkpt lat="45.48921" lon="6.70847">
        <ele>2289</ele>
        <time>2010-03-31T13:02:21Z</time>
      </trkpt>
      <trkpt lat="45.48921" lon="6.70831">
        <ele>2283</ele>
        <time>2010-03-31T13:02:23Z</time>
      </trkpt>
      <trkpt lat="45.48917" lon="6.70804">
        <ele>2277</ele>
        <time>2010-03-31T13:02:27Z</time>
      </trkpt>
      <trkpt lat="45.4891" lon="6.70783">
        <ele>2274</ele>
        <time>2010-03-31T13:02:30Z</time>
      </trkpt>
      <trkpt lat="45.48904" lon="6.70771">
        <ele>2272</ele>
        <time>2010-03-31T13:02:32Z</time>
      </trkpt>
      <trkpt lat="45.48876" lon="6.70723">
        <ele>2259</ele>
        <time>2010-03-31T13:02:37Z</time>
      </trkpt>
      <trkpt lat="45.48858" lon="6.70688">
        <ele>2256</ele>
        <time>2010-03-31T13:02:40Z</time>
      </trkpt>
      <trkpt lat="45.48847" lon="6.70668">
        <ele>2253</ele>
        <time>2010-03-31T13:02:42Z</time>
      </trkpt>
      <trkpt lat="45.48814" lon="6.70624">
        <ele>2244</ele>
        <time>2010-03-31T13:02:48Z</time>
      </trkpt>
      <trkpt lat="45.48772" lon="6.70576">
        <ele>2233</ele>
        <time>2010-03-31T13:02:56Z</time>
      </trkpt>
      <trkpt lat="45.48763" lon="6.70565">
        <ele>2232</ele>
        <time>2010-03-31T13:02:58Z</time>
      </trkpt>
      <trkpt lat="45.48745" lon="6.70551">
        <ele>2231</ele>
        <time>2010-03-31T13:03:02Z</time>
      </trkpt>
      <trkpt lat="45.48706" lon="6.70532">
        <ele>2229</ele>
        <time>2010-03-31T13:03:10Z</time>
      </trkpt>
      <trkpt lat="45.48697" lon="6.70525">
        <ele>2229</ele>
        <time>2010-03-31T13:03:12Z</time>
      </trkpt>
      <trkpt lat="45.48683" lon="6.70513">
        <ele>2228</ele>
        <time>2010-03-31T13:03:16Z</time>
      </trkpt>
      <trkpt lat="45.48673" lon="6.70508">
        <ele>2227</ele>
        <time>2010-03-31T13:03:19Z</time>
      </trkpt>
      <trkpt lat="45.48655" lon="6.70496">
        <ele>2224</ele>
        <time>2010-03-31T13:03:25Z</time>
      </trkpt>
      <trkpt lat="45.48637" lon="6.7048">
        <ele>2222</ele>
        <time>2010-03-31T13:03:29Z</time>
      </trkpt>
      <trkpt lat="45.48626" lon="6.70444">
        <ele>2220</ele>
        <time>2010-03-31T13:03:33Z</time>
      </trkpt>
      <trkpt lat="45.48621" lon="6.70383">
        <ele>2211</ele>
        <time>2010-03-31T13:03:39Z</time>
      </trkpt>
      <trkpt lat="45.48612" lon="6.70337">
        <ele>2209</ele>
        <time>2010-03-31T13:03:44Z</time>
      </trkpt>
      <trkpt lat="45.48614" lon="6.70304">
        <ele>2201</ele>
        <time>2010-03-31T13:03:48Z</time>
      </trkpt>
      <trkpt lat="45.48624" lon="6.7029">
        <ele>2200</ele>
        <time>2010-03-31T13:03:51Z</time>
      </trkpt>
      <trkpt lat="45.48624" lon="6.70282">
        <ele>2199</ele>
        <time>2010-03-31T13:03:54Z</time>
      </trkpt>
      <trkpt lat="45.48624" lon="6.70282">
        <ele>2199</ele>
        <time>2010-03-31T13:04:02Z</time>
      </trkpt>
      <trkpt lat="45.48623" lon="6.7028">
        <ele>2199</ele>
        <time>2010-03-31T13:04:11Z</time>
      </trkpt>
      <trkpt lat="45.48616" lon="6.70268">
        <ele>2198</ele>
        <time>2010-03-31T13:04:15Z</time>
      </trkpt>
      <trkpt lat="45.48617" lon="6.7025">
        <ele>2188</ele>
        <time>2010-03-31T13:04:18Z</time>
      </trkpt>
      <trkpt lat="45.48616" lon="6.70238">
        <ele>2188</ele>
        <time>2010-03-31T13:04:20Z</time>
      </trkpt>
      <trkpt lat="45.48609" lon="6.70219">
        <ele>2186</ele>
        <time>2010-03-31T13:04:23Z</time>
      </trkpt>
      <trkpt lat="45.48612" lon="6.70201">
        <ele>2184</ele>
        <time>2010-03-31T13:04:26Z</time>
      </trkpt>
      <trkpt lat="45.48604" lon="6.70182">
        <ele>2181</ele>
        <time>2010-03-31T13:04:29Z</time>
      </trkpt>
      <trkpt lat="45.48603" lon="6.70153">
        <ele>2171</ele>
        <time>2010-03-31T13:04:32Z</time>
      </trkpt>
      <trkpt lat="45.48595" lon="6.70116">
        <ele>2166</ele>
        <time>2010-03-31T13:04:35Z</time>
      </trkpt>
      <trkpt lat="45.4859" lon="6.70102">
        <ele>2164</ele>
        <time>2010-03-31T13:04:36Z</time>
      </trkpt>
      <trkpt lat="45.48582" lon="6.70071">
        <ele>2153</ele>
        <time>2010-03-31T13:04:38Z</time>
      </trkpt>
      <trkpt lat="45.48565" lon="6.70029">
        <ele>2145</ele>
        <time>2010-03-31T13:04:41Z</time>
      </trkpt>
      <trkpt lat="45.48556" lon="6.70008">
        <ele>2144</ele>
        <time>2010-03-31T13:04:43Z</time>
      </trkpt>
      <trkpt lat="45.48542" lon="6.69983">
        <ele>2133</ele>
        <time>2010-03-31T13:04:46Z</time>
      </trkpt>
      <trkpt lat="45.48546" lon="6.69967">
        <ele>2132</ele>
        <time>2010-03-31T13:04:48Z</time>
      </trkpt>
      <trkpt lat="45.48545" lon="6.69958">
        <ele>2131</ele>
        <time>2010-03-31T13:04:50Z</time>
      </trkpt>
      <trkpt lat="45.48543" lon="6.69956">
        <ele>2131</ele>
        <time>2010-03-31T13:04:51Z</time>
      </trkpt>
      <trkpt lat="45.48535" lon="6.6995">
        <ele>2130</ele>
        <time>2010-03-31T13:04:57Z</time>
      </trkpt>
      <trkpt lat="45.48534" lon="6.6995">
        <ele>2130</ele>
        <time>2010-03-31T13:05:04Z</time>
      </trkpt>
      <trkpt lat="45.48534" lon="6.6995">
        <ele>2130</ele>
        <time>2010-03-31T13:05:08Z</time>
      </trkpt>
      <trkpt lat="45.48519" lon="6.69944">
        <ele>2129</ele>
        <time>2010-03-31T13:05:12Z</time>
      </trkpt>
      <trkpt lat="45.48514" lon="6.69929">
        <ele>2127</ele>
        <time>2010-03-31T13:05:14Z</time>
      </trkpt>
      <trkpt lat="45.48508" lon="6.69913">
        <ele>2119</ele>
        <time>2010-03-31T13:05:17Z</time>
      </trkpt>
      <trkpt lat="45.48493" lon="6.69898">
        <ele>2112</ele>
        <time>2010-03-31T13:05:20Z</time>
      </trkpt>
      <trkpt lat="45.48487" lon="6.69877">
        <ele>2107</ele>
        <time>2010-03-31T13:05:23Z</time>
      </trkpt>
      <trkpt lat="45.48472" lon="6.6986">
        <ele>2104</ele>
        <time>2010-03-31T13:05:26Z</time>
      </trkpt>
      <trkpt lat="45.48471" lon="6.69844">
        <ele>2103</ele>
        <time>2010-03-31T13:05:28Z</time>
      </trkpt>
      <trkpt lat="45.48463" lon="6.69835">
        <ele>2102</ele>
        <time>2010-03-31T13:05:30Z</time>
      </trkpt>
      <trkpt lat="45.48444" lon="6.69811">
        <ele>2089</ele>
        <time>2010-03-31T13:05:34Z</time>
      </trkpt>
      <trkpt lat="45.4844" lon="6.69798">
        <ele>2088</ele>
        <time>2010-03-31T13:05:36Z</time>
      </trkpt>
      <trkpt lat="45.48425" lon="6.6978">
        <ele>2086</ele>
        <time>2010-03-31T13:05:39Z</time>
      </trkpt>
      <trkpt lat="45.48414" lon="6.69774">
        <ele>2079</ele>
        <time>2010-03-31T13:05:41Z</time>
      </trkpt>
      <trkpt lat="45.48397" lon="6.69766">
        <ele>2078</ele>
        <time>2010-03-31T13:05:44Z</time>
      </trkpt>
      <trkpt lat="45.48386" lon="6.69749">
        <ele>2070</ele>
        <time>2010-03-31T13:05:46Z</time>
      </trkpt>
      <trkpt lat="45.48375" lon="6.69716">
        <ele>2066</ele>
        <time>2010-03-31T13:05:49Z</time>
      </trkpt>
      <trkpt lat="45.48359" lon="6.69705">
        <ele>2064</ele>
        <time>2010-03-31T13:05:51Z</time>
      </trkpt>
      <trkpt lat="45.48332" lon="6.69697">
        <ele>2053</ele>
        <time>2010-03-31T13:05:54Z</time>
      </trkpt>
      <trkpt lat="45.48321" lon="6.69677">
        <ele>2052</ele>
        <time>2010-03-31T13:05:56Z</time>
      </trkpt>
      <trkpt lat="45.48301" lon="6.69651">
        <ele>2043</ele>
        <time>2010-03-31T13:05:59Z</time>
      </trkpt>
      <trkpt lat="45.48293" lon="6.69641">
        <ele>2042</ele>
        <time>2010-03-31T13:06:00Z</time>
      </trkpt>
      <trkpt lat="45.48278" lon="6.6962">
        <ele>2039</ele>
        <time>2010-03-31T13:06:02Z</time>
      </trkpt>
      <trkpt lat="45.48243" lon="6.69589">
        <ele>2030</ele>
        <time>2010-03-31T13:06:06Z</time>
      </trkpt>
      <trkpt lat="45.48215" lon="6.6956">
        <ele>2021</ele>
        <time>2010-03-31T13:06:10Z</time>
      </trkpt>
      <trkpt lat="45.48195" lon="6.69541">
        <ele>2019</ele>
        <time>2010-03-31T13:06:13Z</time>
      </trkpt>
      <trkpt lat="45.48168" lon="6.69505">
        <ele>2015</ele>
        <time>2010-03-31T13:06:17Z</time>
      </trkpt>
      <trkpt lat="45.48157" lon="6.69497">
        <ele>2010</ele>
        <time>2010-03-31T13:06:20Z</time>
      </trkpt>
      <trkpt lat="45.48144" lon="6.69486">
        <ele>2006</ele>
        <time>2010-03-31T13:06:24Z</time>
      </trkpt>
      <trkpt lat="45.48138" lon="6.69472">
        <ele>2004</ele>
        <time>2010-03-31T13:06:28Z</time>
      </trkpt>
      <trkpt lat="45.48138" lon="6.69473">
        <ele>2004</ele>
        <time>2010-03-31T13:06:40Z</time>
      </trkpt>
      <trkpt lat="45.48139" lon="6.69473">
        <ele>2004</ele>
        <time>2010-03-31T13:06:56Z</time>
      </trkpt>
      <trkpt lat="45.48138" lon="6.69472">
        <ele>2004</ele>
        <time>2010-03-31T13:07:00Z</time>
      </trkpt>
      <trkpt lat="45.48125" lon="6.69458">
        <ele>2002</ele>
        <time>2010-03-31T13:07:04Z</time>
      </trkpt>
      <trkpt lat="45.48119" lon="6.69455">
        <ele>2001</ele>
        <time>2010-03-31T13:07:05Z</time>
      </trkpt>
      <trkpt lat="45.48107" lon="6.69442">
        <ele>2000</ele>
        <time>2010-03-31T13:07:07Z</time>
      </trkpt>
      <trkpt lat="45.48092" lon="6.69436">
        <ele>1999</ele>
        <time>2010-03-31T13:07:09Z</time>
      </trkpt>
      <trkpt lat="45.48066" lon="6.69411">
        <ele>1988</ele>
        <time>2010-03-31T13:07:13Z</time>
      </trkpt>
      <trkpt lat="45.48059" lon="6.69409">
        <ele>1986</ele>
        <time>2010-03-31T13:07:14Z</time>
      </trkpt>
      <trkpt lat="45.48021" lon="6.69399">
        <ele>1980</ele>
        <time>2010-03-31T13:07:19Z</time>
      </trkpt>
      <trkpt lat="45.48012" lon="6.69381">
        <ele>1979</ele>
        <time>2010-03-31T13:07:21Z</time>
      </trkpt>
      <trkpt lat="45.47995" lon="6.6936">
        <ele>1967</ele>
        <time>2010-03-31T13:07:24Z</time>
      </trkpt>
      <trkpt lat="45.47979" lon="6.69358">
        <ele>1966</ele>
        <time>2010-03-31T13:07:26Z</time>
      </trkpt>
      <trkpt lat="45.47972" lon="6.69346">
        <ele>1965</ele>
        <time>2010-03-31T13:07:28Z</time>
      </trkpt>
      <trkpt lat="45.47967" lon="6.69337">
        <ele>1964</ele>
        <time>2010-03-31T13:07:31Z</time>
      </trkpt>
      <trkpt lat="45.47965" lon="6.69337">
        <ele>1964</ele>
        <time>2010-03-31T13:07:32Z</time>
      </trkpt>
      <trkpt lat="45.47952" lon="6.69348">
        <ele>1961</ele>
        <time>2010-03-31T13:07:36Z</time>
      </trkpt>
      <trkpt lat="45.47935" lon="6.69344">
        <ele>1958</ele>
        <time>2010-03-31T13:07:39Z</time>
      </trkpt>
      <trkpt lat="45.47923" lon="6.69326">
        <ele>1951</ele>
        <time>2010-03-31T13:07:42Z</time>
      </trkpt>
      <trkpt lat="45.47907" lon="6.69332">
        <ele>1946</ele>
        <time>2010-03-31T13:07:44Z</time>
      </trkpt>
      <trkpt lat="45.47895" lon="6.6934">
        <ele>1947</ele>
        <time>2010-03-31T13:07:46Z</time>
      </trkpt>
      <trkpt lat="45.47884" lon="6.69331">
        <ele>1941</ele>
        <time>2010-03-31T13:07:48Z</time>
      </trkpt>
      <trkpt lat="45.47874" lon="6.69335">
        <ele>1943</ele>
        <time>2010-03-31T13:07:50Z</time>
      </trkpt>
      <trkpt lat="45.4786" lon="6.6935">
        <ele>1942</ele>
        <time>2010-03-31T13:07:52Z</time>
      </trkpt>
      <trkpt lat="45.47847" lon="6.69345">
        <ele>1939</ele>
        <time>2010-03-31T13:07:54Z</time>
      </trkpt>
      <trkpt lat="45.47836" lon="6.69345">
        <ele>1936</ele>
        <time>2010-03-31T13:07:56Z</time>
      </trkpt>
      <trkpt lat="45.4782" lon="6.69344">
        <ele>1933</ele>
        <time>2010-03-31T13:07:59Z</time>
      </trkpt>
      <trkpt lat="45.47802" lon="6.69341">
        <ele>1932</ele>
        <time>2010-03-31T13:08:02Z</time>
      </trkpt>
      <trkpt lat="45.47757" lon="6.69316">
        <ele>1921</ele>
        <time>2010-03-31T13:08:09Z</time>
      </trkpt>
      <trkpt lat="45.47714" lon="6.6929">
        <ele>1914</ele>
        <time>2010-03-31T13:08:16Z</time>
      </trkpt>
      <trkpt lat="45.47702" lon="6.69284">
        <ele>1914</ele>
        <time>2010-03-31T13:08:18Z</time>
      </trkpt>
      <trkpt lat="45.47668" lon="6.69249">
        <ele>1906</ele>
        <time>2010-03-31T13:08:24Z</time>
      </trkpt>
      <trkpt lat="45.47634" lon="6.69198">
        <ele>1895</ele>
        <time>2010-03-31T13:08:30Z</time>
      </trkpt>
      <trkpt lat="45.47621" lon="6.69166">
        <ele>1881</ele>
        <time>2010-03-31T13:08:33Z</time>
      </trkpt>
      <trkpt lat="45.4761" lon="6.69151">
        <ele>1881</ele>
        <time>2010-03-31T13:08:35Z</time>
      </trkpt>
      <trkpt lat="45.47587" lon="6.69129">
        <ele>1878</ele>
        <time>2010-03-31T13:08:39Z</time>
      </trkpt>
      <trkpt lat="45.47573" lon="6.6912">
        <ele>1878</ele>
        <time>2010-03-31T13:08:41Z</time>
      </trkpt>
      <trkpt lat="45.47531" lon="6.69117">
        <ele>1877</ele>
        <time>2010-03-31T13:08:46Z</time>
      </trkpt>
      <trkpt lat="45.47489" lon="6.69107">
        <ele>1871</ele>
        <time>2010-03-31T13:08:51Z</time>
      </trkpt>
      <trkpt lat="45.47481" lon="6.691">
        <ele>1870</ele>
        <time>2010-03-31T13:08:52Z</time>
      </trkpt>
      <trkpt lat="45.47467" lon="6.69085">
        <ele>1869</ele>
        <time>2010-03-31T13:08:54Z</time>
      </trkpt>
      <trkpt lat="45.47446" lon="6.69073">
        <ele>1856</ele>
        <time>2010-03-31T13:08:57Z</time>
      </trkpt>
      <trkpt lat="45.47434" lon="6.69079">
        <ele>1857</ele>
        <time>2010-03-31T13:09:00Z</time>
      </trkpt>
      <trkpt lat="45.47431" lon="6.69081">
        <ele>1857</ele>
        <time>2010-03-31T13:09:04Z</time>
      </trkpt>
      <trkpt lat="45.47433" lon="6.69081">
        <ele>1857</ele>
        <time>2010-03-31T13:09:17Z</time>
      </trkpt>
      <trkpt lat="45.47431" lon="6.6908">
        <ele>1857</ele>
        <time>2010-03-31T13:09:19Z</time>
      </trkpt>
      <trkpt lat="45.47412" lon="6.69083">
        <ele>1858</ele>
        <time>2010-03-31T13:09:23Z</time>
      </trkpt>
      <trkpt lat="45.474" lon="6.69075">
        <ele>1853</ele>
        <time>2010-03-31T13:09:25Z</time>
      </trkpt>
      <trkpt lat="45.47387" lon="6.69055">
        <ele>1849</ele>
        <time>2010-03-31T13:09:28Z</time>
      </trkpt>
      <trkpt lat="45.47378" lon="6.69041">
        <ele>1847</ele>
        <time>2010-03-31T13:09:30Z</time>
      </trkpt>
      <trkpt lat="45.47378" lon="6.69031">
        <ele>1846</ele>
        <time>2010-03-31T13:09:31Z</time>
      </trkpt>
      <trkpt lat="45.47369" lon="6.68999">
        <ele>1832</ele>
        <time>2010-03-31T13:09:35Z</time>
      </trkpt>
      <trkpt lat="45.47359" lon="6.6898">
        <ele>1831</ele>
        <time>2010-03-31T13:09:37Z</time>
      </trkpt>
      <trkpt lat="45.47361" lon="6.68958">
        <ele>1829</ele>
        <time>2010-03-31T13:09:39Z</time>
      </trkpt>
      <trkpt lat="45.47356" lon="6.68946">
        <ele>1827</ele>
        <time>2010-03-31T13:09:41Z</time>
      </trkpt>
      <trkpt lat="45.47342" lon="6.6893">
        <ele>1823</ele>
        <time>2010-03-31T13:09:44Z</time>
      </trkpt>
      <trkpt lat="45.47339" lon="6.68913">
        <ele>1815</ele>
        <time>2010-03-31T13:09:46Z</time>
      </trkpt>
      <trkpt lat="45.47332" lon="6.68906">
        <ele>1813</ele>
        <time>2010-03-31T13:09:48Z</time>
      </trkpt>
      <trkpt lat="45.47325" lon="6.6891">
        <ele>1813</ele>
        <time>2010-03-31T13:09:51Z</time>
      </trkpt>
      <trkpt lat="45.47325" lon="6.68911">
        <ele>1813</ele>
        <time>2010-03-31T13:09:56Z</time>
      </trkpt>
      <trkpt lat="45.47326" lon="6.68912">
        <ele>1814</ele>
        <time>2010-03-31T13:10:10Z</time>
      </trkpt>
      <trkpt lat="45.47326" lon="6.68912">
        <ele>1814</ele>
        <time>2010-03-31T13:10:19Z</time>
      </trkpt>
      <trkpt lat="45.47326" lon="6.68912">
        <ele>1814</ele>
        <time>2010-03-31T13:10:29Z</time>
      </trkpt>
      <trkpt lat="45.47326" lon="6.68913">
        <ele>1814</ele>
        <time>2010-03-31T13:10:42Z</time>
      </trkpt>
      <trkpt lat="45.47326" lon="6.68914">
        <ele>1814</ele>
        <time>2010-03-31T13:10:52Z</time>
      </trkpt>
      <trkpt lat="45.47324" lon="6.68916">
        <ele>1814</ele>
        <time>2010-03-31T13:11:03Z</time>
      </trkpt>
      <trkpt lat="45.47324" lon="6.6892">
        <ele>1820</ele>
        <time>2010-03-31T13:11:13Z</time>
      </trkpt>
      <trkpt lat="45.47324" lon="6.68921">
        <ele>1820</ele>
        <time>2010-03-31T13:11:14Z</time>
      </trkpt>
      <trkpt lat="45.47317" lon="6.68931">
        <ele>1822</ele>
        <time>2010-03-31T13:11:20Z</time>
      </trkpt>
      <trkpt lat="45.47309" lon="6.68934">
        <ele>1822</ele>
        <time>2010-03-31T13:11:25Z</time>
      </trkpt>
      <trkpt lat="45.47306" lon="6.68936">
        <ele>1822</ele>
        <time>2010-03-31T13:11:33Z</time>
      </trkpt>
      <trkpt lat="45.47304" lon="6.68939">
        <ele>1823</ele>
        <time>2010-03-31T13:11:41Z</time>
      </trkpt>
      <trkpt lat="45.47304" lon="6.68942">
        <ele>1823</ele>
        <time>2010-03-31T13:11:47Z</time>
      </trkpt>
      <trkpt lat="45.47304" lon="6.68945">
        <ele>1823</ele>
        <time>2010-03-31T13:11:56Z</time>
      </trkpt>
      <trkpt lat="45.47304" lon="6.68945">
        <ele>1823</ele>
        <time>2010-03-31T13:11:58Z</time>
      </trkpt>
      <trkpt lat="45.47304" lon="6.68949">
        <ele>1824</ele>
        <time>2010-03-31T13:12:05Z</time>
      </trkpt>
      <trkpt lat="45.47304" lon="6.6895">
        <ele>1824</ele>
        <time>2010-03-31T13:12:06Z</time>
      </trkpt>
      <trkpt lat="45.47306" lon="6.68968">
        <ele>1826</ele>
        <time>2010-03-31T13:12:11Z</time>
      </trkpt>
      <trkpt lat="45.47309" lon="6.68991">
        <ele>1828</ele>
        <time>2010-03-31T13:12:16Z</time>
      </trkpt>
      <trkpt lat="45.47313" lon="6.69013">
        <ele>1839</ele>
        <time>2010-03-31T13:12:21Z</time>
      </trkpt>
      <trkpt lat="45.47317" lon="6.6904">
        <ele>1843</ele>
        <time>2010-03-31T13:12:28Z</time>
      </trkpt>
      <trkpt lat="45.47322" lon="6.69068">
        <ele>1847</ele>
        <time>2010-03-31T13:12:35Z</time>
      </trkpt>
      <trkpt lat="45.47327" lon="6.691">
        <ele>1857</ele>
        <time>2010-03-31T13:12:43Z</time>
      </trkpt>
      <trkpt lat="45.47331" lon="6.69129">
        <ele>1862</ele>
        <time>2010-03-31T13:12:50Z</time>
      </trkpt>
      <trkpt lat="45.47338" lon="6.69168">
        <ele>1871</ele>
        <time>2010-03-31T13:12:59Z</time>
      </trkpt>
      <trkpt lat="45.47346" lon="6.69219">
        <ele>1882</ele>
        <time>2010-03-31T13:13:11Z</time>
      </trkpt>
      <trkpt lat="45.47352" lon="6.69257">
        <ele>1895</ele>
        <time>2010-03-31T13:13:20Z</time>
      </trkpt>
      <trkpt lat="45.4736" lon="6.69307">
        <ele>1904</ele>
        <time>2010-03-31T13:13:32Z</time>
      </trkpt>
      <trkpt lat="45.47367" lon="6.69353">
        <ele>1920</ele>
        <time>2010-03-31T13:13:43Z</time>
      </trkpt>
      <trkpt lat="45.47373" lon="6.69387">
        <ele>1924</ele>
        <time>2010-03-31T13:13:51Z</time>
      </trkpt>
      <trkpt lat="45.47381" lon="6.69437">
        <ele>1939</ele>
        <time>2010-03-31T13:14:03Z</time>
      </trkpt>
      <trkpt lat="45.4739" lon="6.6949">
        <ele>1945</ele>
        <time>2010-03-31T13:14:16Z</time>
      </trkpt>
      <trkpt lat="45.47397" lon="6.69534">
        <ele>1959</ele>
        <time>2010-03-31T13:14:27Z</time>
      </trkpt>
      <trkpt lat="45.47403" lon="6.69572">
        <ele>1966</ele>
        <time>2010-03-31T13:14:36Z</time>
      </trkpt>
      <trkpt lat="45.4741" lon="6.69621">
        <ele>1979</ele>
        <time>2010-03-31T13:14:48Z</time>
      </trkpt>
      <trkpt lat="45.47416" lon="6.69655">
        <ele>1987</ele>
        <time>2010-03-31T13:14:56Z</time>
      </trkpt>
      <trkpt lat="45.47423" lon="6.697">
        <ele>2005</ele>
        <time>2010-03-31T13:15:07Z</time>
      </trkpt>
      <trkpt lat="45.47435" lon="6.69779">
        <ele>2025</ele>
        <time>2010-03-31T13:15:26Z</time>
      </trkpt>
      <trkpt lat="45.47441" lon="6.69816">
        <ele>2030</ele>
        <time>2010-03-31T13:15:35Z</time>
      </trkpt>
      <trkpt lat="45.47453" lon="6.69895">
        <ele>2051</ele>
        <time>2010-03-31T13:15:54Z</time>
      </trkpt>
      <trkpt lat="45.4746" lon="6.6994">
        <ele>2069</ele>
        <time>2010-03-31T13:16:05Z</time>
      </trkpt>
      <trkpt lat="45.47468" lon="6.6999">
        <ele>2076</ele>
        <time>2010-03-31T13:16:17Z</time>
      </trkpt>
      <trkpt lat="45.47475" lon="6.70039">
        <ele>2091</ele>
        <time>2010-03-31T13:16:29Z</time>
      </trkpt>
      <trkpt lat="45.47479" lon="6.7006">
        <ele>2095</ele>
        <time>2010-03-31T13:16:34Z</time>
      </trkpt>
      <trkpt lat="45.47483" lon="6.70084">
        <ele>2103</ele>
        <time>2010-03-31T13:16:41Z</time>
      </trkpt>
      <trkpt lat="45.47482" lon="6.70099">
        <ele>2102</ele>
        <time>2010-03-31T13:16:46Z</time>
      </trkpt>
      <trkpt lat="45.47482" lon="6.70103">
        <ele>2102</ele>
        <time>2010-03-31T13:16:47Z</time>
      </trkpt>
      <trkpt lat="45.47472" lon="6.70136">
        <ele>2100</ele>
        <time>2010-03-31T13:16:54Z</time>
      </trkpt>
      <trkpt lat="45.47461" lon="6.70158">
        <ele>2098</ele>
        <time>2010-03-31T13:16:58Z</time>
      </trkpt>
      <trkpt lat="45.47455" lon="6.70183">
        <ele>2099</ele>
        <time>2010-03-31T13:17:01Z</time>
      </trkpt>
      <trkpt lat="45.47441" lon="6.70196">
        <ele>2097</ele>
        <time>2010-03-31T13:17:04Z</time>
      </trkpt>
      <trkpt lat="45.47419" lon="6.70182">
        <ele>2091</ele>
        <time>2010-03-31T13:17:07Z</time>
      </trkpt>
      <trkpt lat="45.47411" lon="6.70173">
        <ele>2082</ele>
        <time>2010-03-31T13:17:08Z</time>
      </trkpt>
      <trkpt lat="45.47395" lon="6.70155">
        <ele>2078</ele>
        <time>2010-03-31T13:17:10Z</time>
      </trkpt>
      <trkpt lat="45.47353" lon="6.70116">
        <ele>2073</ele>
        <time>2010-03-31T13:17:15Z</time>
      </trkpt>
      <trkpt lat="45.47339" lon="6.70098">
        <ele>2070</ele>
        <time>2010-03-31T13:17:17Z</time>
      </trkpt>
      <trkpt lat="45.47324" lon="6.70094">
        <ele>2062</ele>
        <time>2010-03-31T13:17:20Z</time>
      </trkpt>
      <trkpt lat="45.47311" lon="6.70101">
        <ele>2059</ele>
        <time>2010-03-31T13:17:24Z</time>
      </trkpt>
      <trkpt lat="45.47303" lon="6.70108">
        <ele>2058</ele>
        <time>2010-03-31T13:17:28Z</time>
      </trkpt>
      <trkpt lat="45.47303" lon="6.70111">
        <ele>2058</ele>
        <time>2010-03-31T13:17:34Z</time>
      </trkpt>
      <trkpt lat="45.47305" lon="6.70116">
        <ele>2058</ele>
        <time>2010-03-31T13:17:41Z</time>
      </trkpt>
      <trkpt lat="45.47307" lon="6.7012">
        <ele>2058</ele>
        <time>2010-03-31T13:17:48Z</time>
      </trkpt>
      <trkpt lat="45.47308" lon="6.70122">
        <ele>2058</ele>
        <time>2010-03-31T13:17:55Z</time>
      </trkpt>
      <trkpt lat="45.4731" lon="6.70124">
        <ele>2058</ele>
        <time>2010-03-31T13:18:02Z</time>
      </trkpt>
      <trkpt lat="45.47312" lon="6.70127">
        <ele>2058</ele>
        <time>2010-03-31T13:18:09Z</time>
      </trkpt>
      <trkpt lat="45.47314" lon="6.7013">
        <ele>2059</ele>
        <time>2010-03-31T13:18:13Z</time>
      </trkpt>
      <trkpt lat="45.47328" lon="6.70141">
        <ele>2060</ele>
        <time>2010-03-31T13:18:19Z</time>
      </trkpt>
      <trkpt lat="45.47345" lon="6.70154">
        <ele>2069</ele>
        <time>2010-03-31T13:18:25Z</time>
      </trkpt>
      <trkpt lat="45.47361" lon="6.70167">
        <ele>2074</ele>
        <time>2010-03-31T13:18:31Z</time>
      </trkpt>
      <trkpt lat="45.47375" lon="6.70178">
        <ele>2077</ele>
        <time>2010-03-31T13:18:36Z</time>
      </trkpt>
      <trkpt lat="45.47393" lon="6.70193">
        <ele>2079</ele>
        <time>2010-03-31T13:18:43Z</time>
      </trkpt>
      <trkpt lat="45.47417" lon="6.70212">
        <ele>2096</ele>
        <time>2010-03-31T13:18:52Z</time>
      </trkpt>
      <trkpt lat="45.47446" lon="6.70236">
        <ele>2099</ele>
        <time>2010-03-31T13:19:03Z</time>
      </trkpt>
      <trkpt lat="45.47471" lon="6.70257">
        <ele>2107</ele>
        <time>2010-03-31T13:19:13Z</time>
      </trkpt>
      <trkpt lat="45.4749" lon="6.70272">
        <ele>2109</ele>
        <time>2010-03-31T13:19:20Z</time>
      </trkpt>
      <trkpt lat="45.47519" lon="6.70296">
        <ele>2126</ele>
        <time>2010-03-31T13:19:31Z</time>
      </trkpt>
      <trkpt lat="45.47545" lon="6.70317">
        <ele>2130</ele>
        <time>2010-03-31T13:19:41Z</time>
      </trkpt>
      <trkpt lat="45.47571" lon="6.70338">
        <ele>2141</ele>
        <time>2010-03-31T13:19:51Z</time>
      </trkpt>
      <trkpt lat="45.47597" lon="6.7036">
        <ele>2155</ele>
        <time>2010-03-31T13:20:01Z</time>
      </trkpt>
      <trkpt lat="45.47626" lon="6.70383">
        <ele>2160</ele>
        <time>2010-03-31T13:20:12Z</time>
      </trkpt>
      <trkpt lat="45.47652" lon="6.70405">
        <ele>2168</ele>
        <time>2010-03-31T13:20:22Z</time>
      </trkpt>
      <trkpt lat="45.47683" lon="6.70429">
        <ele>2184</ele>
        <time>2010-03-31T13:20:34Z</time>
      </trkpt>
      <trkpt lat="45.47701" lon="6.70445">
        <ele>2188</ele>
        <time>2010-03-31T13:20:41Z</time>
      </trkpt>
      <trkpt lat="45.47725" lon="6.70464">
        <ele>2192</ele>
        <time>2010-03-31T13:20:50Z</time>
      </trkpt>
      <trkpt lat="45.47741" lon="6.70478">
        <ele>2195</ele>
        <time>2010-03-31T13:20:56Z</time>
      </trkpt>
      <trkpt lat="45.47766" lon="6.70498">
        <ele>2204</ele>
        <time>2010-03-31T13:21:05Z</time>
      </trkpt>
      <trkpt lat="45.47795" lon="6.70521">
        <ele>2213</ele>
        <time>2010-03-31T13:21:16Z</time>
      </trkpt>
      <trkpt lat="45.4783" lon="6.70549">
        <ele>2217</ele>
        <time>2010-03-31T13:21:29Z</time>
      </trkpt>
      <trkpt lat="45.47857" lon="6.70571">
        <ele>2226</ele>
        <time>2010-03-31T13:21:39Z</time>
      </trkpt>
      <trkpt lat="45.47879" lon="6.70589">
        <ele>2229</ele>
        <time>2010-03-31T13:21:47Z</time>
      </trkpt>
      <trkpt lat="45.47927" lon="6.70628">
        <ele>2240</ele>
        <time>2010-03-31T13:22:05Z</time>
      </trkpt>
      <trkpt lat="45.47965" lon="6.70659">
        <ele>2244</ele>
        <time>2010-03-31T13:22:19Z</time>
      </trkpt>
      <trkpt lat="45.47992" lon="6.70681">
        <ele>2247</ele>
        <time>2010-03-31T13:22:29Z</time>
      </trkpt>
      <trkpt lat="45.48024" lon="6.70707">
        <ele>2261</ele>
        <time>2010-03-31T13:22:41Z</time>
      </trkpt>
      <trkpt lat="45.48054" lon="6.70731">
        <ele>2266</ele>
        <time>2010-03-31T13:22:52Z</time>
      </trkpt>
      <trkpt lat="45.48088" lon="6.70759">
        <ele>2279</ele>
        <time>2010-03-31T13:23:05Z</time>
      </trkpt>
      <trkpt lat="45.48115" lon="6.7078">
        <ele>2285</ele>
        <time>2010-03-31T13:23:15Z</time>
      </trkpt>
      <trkpt lat="45.4815" lon="6.70809">
        <ele>2291</ele>
        <time>2010-03-31T13:23:28Z</time>
      </trkpt>
      <trkpt lat="45.48192" lon="6.70843">
        <ele>2309</ele>
        <time>2010-03-31T13:23:44Z</time>
      </trkpt>
      <trkpt lat="45.48216" lon="6.70863">
        <ele>2313</ele>
        <time>2010-03-31T13:23:53Z</time>
      </trkpt>
      <trkpt lat="45.48243" lon="6.70885">
        <ele>2316</ele>
        <time>2010-03-31T13:24:03Z</time>
      </trkpt>
      <trkpt lat="45.4827" lon="6.70906">
        <ele>2327</ele>
        <time>2010-03-31T13:24:13Z</time>
      </trkpt>
      <trkpt lat="45.48302" lon="6.70932">
        <ele>2333</ele>
        <time>2010-03-31T13:24:25Z</time>
      </trkpt>
      <trkpt lat="45.48326" lon="6.70952">
        <ele>2335</ele>
        <time>2010-03-31T13:24:34Z</time>
      </trkpt>
      <trkpt lat="45.48358" lon="6.70979">
        <ele>2342</ele>
        <time>2010-03-31T13:24:46Z</time>
      </trkpt>
      <trkpt lat="45.48395" lon="6.7101">
        <ele>2352</ele>
        <time>2010-03-31T13:25:00Z</time>
      </trkpt>
      <trkpt lat="45.48438" lon="6.71044">
        <ele>2362</ele>
        <time>2010-03-31T13:25:16Z</time>
      </trkpt>
      <trkpt lat="45.48457" lon="6.7106">
        <ele>2364</ele>
        <time>2010-03-31T13:25:23Z</time>
      </trkpt>
      <trkpt lat="45.48485" lon="6.71082">
        <ele>2368</ele>
        <time>2010-03-31T13:25:33Z</time>
      </trkpt>
      <trkpt lat="45.48501" lon="6.71094">
        <ele>2371</ele>
        <time>2010-03-31T13:25:39Z</time>
      </trkpt>
      <trkpt lat="45.48503" lon="6.71095">
        <ele>2371</ele>
        <time>2010-03-31T13:25:40Z</time>
      </trkpt>
      <trkpt lat="45.48511" lon="6.711">
        <ele>2371</ele>
        <time>2010-03-31T13:25:44Z</time>
      </trkpt>
      <trkpt lat="45.48519" lon="6.71101">
        <ele>2371</ele>
        <time>2010-03-31T13:25:50Z</time>
      </trkpt>
      <trkpt lat="45.48521" lon="6.71101">
        <ele>2370</ele>
        <time>2010-03-31T13:25:55Z</time>
      </trkpt>
      <trkpt lat="45.48528" lon="6.71103">
        <ele>2370</ele>
        <time>2010-03-31T13:26:01Z</time>
      </trkpt>
      <trkpt lat="45.48538" lon="6.71103">
        <ele>2369</ele>
        <time>2010-03-31T13:26:08Z</time>
      </trkpt>
      <trkpt lat="45.48556" lon="6.71108">
        <ele>2368</ele>
        <time>2010-03-31T13:26:16Z</time>
      </trkpt>
      <trkpt lat="45.48578" lon="6.71118">
        <ele>2367</ele>
        <time>2010-03-31T13:26:23Z</time>
      </trkpt>
      <trkpt lat="45.48601" lon="6.71133">
        <ele>2360</ele>
        <time>2010-03-31T13:26:29Z</time>
      </trkpt>
      <trkpt lat="45.48605" lon="6.71138">
        <ele>2360</ele>
        <time>2010-03-31T13:26:30Z</time>
      </trkpt>
      <trkpt lat="45.48619" lon="6.71154">
        <ele>2360</ele>
        <time>2010-03-31T13:26:34Z</time>
      </trkpt>
      <trkpt lat="45.48634" lon="6.71166">
        <ele>2358</ele>
        <time>2010-03-31T13:26:37Z</time>
      </trkpt>
      <trkpt lat="45.4866" lon="6.71172">
        <ele>2357</ele>
        <time>2010-03-31T13:26:40Z</time>
      </trkpt>
      <trkpt lat="45.48669" lon="6.71171">
        <ele>2354</ele>
        <time>2010-03-31T13:26:41Z</time>
      </trkpt>
      <trkpt lat="45.48712" lon="6.71163">
        <ele>2345</ele>
        <time>2010-03-31T13:26:46Z</time>
      </trkpt>
      <trkpt lat="45.48726" lon="6.7116">
        <ele>2343</ele>
        <time>2010-03-31T13:26:49Z</time>
      </trkpt>
      <trkpt lat="45.48741" lon="6.71152">
        <ele>2342</ele>
        <time>2010-03-31T13:26:54Z</time>
      </trkpt>
      <trkpt lat="45.48752" lon="6.7114">
        <ele>2333</ele>
        <time>2010-03-31T13:27:01Z</time>
      </trkpt>
      <trkpt lat="45.48756" lon="6.71134">
        <ele>2332</ele>
        <time>2010-03-31T13:27:03Z</time>
      </trkpt>
      <trkpt lat="45.48759" lon="6.71117">
        <ele>2330</ele>
        <time>2010-03-31T13:27:08Z</time>
      </trkpt>
      <trkpt lat="45.4876" lon="6.71116">
        <ele>2330</ele>
        <time>2010-03-31T13:27:15Z</time>
      </trkpt>
      <trkpt lat="45.48761" lon="6.71116">
        <ele>2330</ele>
        <time>2010-03-31T13:27:17Z</time>
      </trkpt>
      <trkpt lat="45.48765" lon="6.71102">
        <ele>2330</ele>
        <time>2010-03-31T13:27:21Z</time>
      </trkpt>
      <trkpt lat="45.48772" lon="6.71089">
        <ele>2329</ele>
        <time>2010-03-31T13:27:24Z</time>
      </trkpt>
      <trkpt lat="45.4878" lon="6.71076">
        <ele>2322</ele>
        <time>2010-03-31T13:27:27Z</time>
      </trkpt>
      <trkpt lat="45.48787" lon="6.71059">
        <ele>2319</ele>
        <time>2010-03-31T13:27:30Z</time>
      </trkpt>
      <trkpt lat="45.48796" lon="6.71049">
        <ele>2318</ele>
        <time>2010-03-31T13:27:33Z</time>
      </trkpt>
      <trkpt lat="45.48805" lon="6.71037">
        <ele>2316</ele>
        <time>2010-03-31T13:27:38Z</time>
      </trkpt>
      <trkpt lat="45.48831" lon="6.71028">
        <ele>2314</ele>
        <time>2010-03-31T13:27:42Z</time>
      </trkpt>
      <trkpt lat="45.48862" lon="6.71016">
        <ele>2307</ele>
        <time>2010-03-31T13:27:46Z</time>
      </trkpt>
      <trkpt lat="45.48873" lon="6.71026">
        <ele>2307</ele>
        <time>2010-03-31T13:27:48Z</time>
      </trkpt>
      <trkpt lat="45.48902" lon="6.7106">
        <ele>2307</ele>
        <time>2010-03-31T13:27:55Z</time>
      </trkpt>
      <trkpt lat="45.48913" lon="6.71069">
        <ele>2307</ele>
        <time>2010-03-31T13:27:59Z</time>
      </trkpt>
      <trkpt lat="45.48921" lon="6.71072">
        <ele>2310</ele>
        <time>2010-03-31T13:28:03Z</time>
      </trkpt>
      <trkpt lat="45.48932" lon="6.71074">
        <ele>2311</ele>
        <time>2010-03-31T13:28:10Z</time>
      </trkpt>
      <trkpt lat="45.48933" lon="6.71074">
        <ele>2311</ele>
        <time>2010-03-31T13:28:16Z</time>
      </trkpt>
      <trkpt lat="45.48933" lon="6.71073">
        <ele>2311</ele>
        <time>2010-03-31T13:28:29Z</time>
      </trkpt>
      <trkpt lat="45.48938" lon="6.71071">
        <ele>2312</ele>
        <time>2010-03-31T13:28:34Z</time>
      </trkpt>
      <trkpt lat="45.48941" lon="6.71071">
        <ele>2313</ele>
        <time>2010-03-31T13:28:40Z</time>
      </trkpt>
      <trkpt lat="45.48942" lon="6.7107">
        <ele>2313</ele>
        <time>2010-03-31T13:28:41Z</time>
      </trkpt>
      <trkpt lat="45.48949" lon="6.71065">
        <ele>2314</ele>
        <time>2010-03-31T13:28:47Z</time>
      </trkpt>
      <trkpt lat="45.48952" lon="6.71063">
        <ele>2314</ele>
        <time>2010-03-31T13:28:49Z</time>
      </trkpt>
      <trkpt lat="45.4897" lon="6.71053">
        <ele>2317</ele>
        <time>2010-03-31T13:29:01Z</time>
      </trkpt>
      <trkpt lat="45.48981" lon="6.71046">
        <ele>2317</ele>
        <time>2010-03-31T13:29:09Z</time>
      </trkpt>
      <trkpt lat="45.48998" lon="6.71038">
        <ele>2318</ele>
        <time>2010-03-31T13:29:21Z</time>
      </trkpt>
      <trkpt lat="45.49017" lon="6.71028">
        <ele>2332</ele>
        <time>2010-03-31T13:29:34Z</time>
      </trkpt>
      <trkpt lat="45.49041" lon="6.71014">
        <ele>2336</ele>
        <time>2010-03-31T13:29:52Z</time>
      </trkpt>
      <trkpt lat="45.49069" lon="6.71">
        <ele>2340</ele>
        <time>2010-03-31T13:30:11Z</time>
      </trkpt>
      <trkpt lat="45.49085" lon="6.70991">
        <ele>2350</ele>
        <time>2010-03-31T13:30:23Z</time>
      </trkpt>
      <trkpt lat="45.49111" lon="6.70977">
        <ele>2352</ele>
        <time>2010-03-31T13:30:41Z</time>
      </trkpt>
      <trkpt lat="45.49134" lon="6.70965">
        <ele>2353</ele>
        <time>2010-03-31T13:30:56Z</time>
      </trkpt>
      <trkpt lat="45.49148" lon="6.70956">
        <ele>2354</ele>
        <time>2010-03-31T13:31:06Z</time>
      </trkpt>
      <trkpt lat="45.49164" lon="6.70948">
        <ele>2355</ele>
        <time>2010-03-31T13:31:17Z</time>
      </trkpt>
      <trkpt lat="45.49173" lon="6.70942">
        <ele>2357</ele>
        <time>2010-03-31T13:31:24Z</time>
      </trkpt>
      <trkpt lat="45.49189" lon="6.70938">
        <ele>2357</ele>
        <time>2010-03-31T13:31:28Z</time>
      </trkpt>
      <trkpt lat="45.49212" lon="6.70926">
        <ele>2356</ele>
        <time>2010-03-31T13:31:33Z</time>
      </trkpt>
      <trkpt lat="45.49208" lon="6.70907">
        <ele>2348</ele>
        <time>2010-03-31T13:31:37Z</time>
      </trkpt>
      <trkpt lat="45.49208" lon="6.70889">
        <ele>2346</ele>
        <time>2010-03-31T13:31:40Z</time>
      </trkpt>
      <trkpt lat="45.49216" lon="6.70878">
        <ele>2345</ele>
        <time>2010-03-31T13:31:43Z</time>
      </trkpt>
      <trkpt lat="45.49212" lon="6.70869">
        <ele>2344</ele>
        <time>2010-03-31T13:31:45Z</time>
      </trkpt>
      <trkpt lat="45.49202" lon="6.70858">
        <ele>2343</ele>
        <time>2010-03-31T13:31:48Z</time>
      </trkpt>
      <trkpt lat="45.49205" lon="6.7085">
        <ele>2342</ele>
        <time>2010-03-31T13:31:50Z</time>
      </trkpt>
      <trkpt lat="45.49207" lon="6.70848">
        <ele>2342</ele>
        <time>2010-03-31T13:31:54Z</time>
      </trkpt>
      <trkpt lat="45.49207" lon="6.70848">
        <ele>2342</ele>
        <time>2010-03-31T13:32:04Z</time>
      </trkpt>
      <trkpt lat="45.49207" lon="6.70847">
        <ele>2342</ele>
        <time>2010-03-31T13:32:07Z</time>
      </trkpt>
      <trkpt lat="45.49205" lon="6.70824">
        <ele>2330</ele>
        <time>2010-03-31T13:32:11Z</time>
      </trkpt>
      <trkpt lat="45.49208" lon="6.70804">
        <ele>2328</ele>
        <time>2010-03-31T13:32:13Z</time>
      </trkpt>
      <trkpt lat="45.49221" lon="6.70794">
        <ele>2327</ele>
        <time>2010-03-31T13:32:15Z</time>
      </trkpt>
      <trkpt lat="45.49232" lon="6.70778">
        <ele>2325</ele>
        <time>2010-03-31T13:32:18Z</time>
      </trkpt>
      <trkpt lat="45.49246" lon="6.7076">
        <ele>2321</ele>
        <time>2010-03-31T13:32:21Z</time>
      </trkpt>
      <trkpt lat="45.49253" lon="6.70759">
        <ele>2317</ele>
        <time>2010-03-31T13:32:22Z</time>
      </trkpt>
      <trkpt lat="45.49289" lon="6.70752">
        <ele>2313</ele>
        <time>2010-03-31T13:32:26Z</time>
      </trkpt>
      <trkpt lat="45.49311" lon="6.70754">
        <ele>2309</ele>
        <time>2010-03-31T13:32:29Z</time>
      </trkpt>
      <trkpt lat="45.49318" lon="6.70756">
        <ele>2308</ele>
        <time>2010-03-31T13:32:30Z</time>
      </trkpt>
      <trkpt lat="45.49344" lon="6.70747">
        <ele>2298</ele>
        <time>2010-03-31T13:32:34Z</time>
      </trkpt>
      <trkpt lat="45.49362" lon="6.70739">
        <ele>2294</ele>
        <time>2010-03-31T13:32:38Z</time>
      </trkpt>
      <trkpt lat="45.49368" lon="6.70736">
        <ele>2293</ele>
        <time>2010-03-31T13:32:41Z</time>
      </trkpt>
      <trkpt lat="45.49368" lon="6.70735">
        <ele>2293</ele>
        <time>2010-03-31T13:32:48Z</time>
      </trkpt>
      <trkpt lat="45.49368" lon="6.70737">
        <ele>2293</ele>
        <time>2010-03-31T13:32:57Z</time>
      </trkpt>
      <trkpt lat="45.49378" lon="6.70734">
        <ele>2292</ele>
        <time>2010-03-31T13:33:01Z</time>
      </trkpt>
      <trkpt lat="45.49388" lon="6.70734">
        <ele>2290</ele>
        <time>2010-03-31T13:33:03Z</time>
      </trkpt>
      <trkpt lat="45.49414" lon="6.70725">
        <ele>2288</ele>
        <time>2010-03-31T13:33:08Z</time>
      </trkpt>
      <trkpt lat="45.49432" lon="6.70714">
        <ele>2275</ele>
        <time>2010-03-31T13:33:11Z</time>
      </trkpt>
      <trkpt lat="45.49454" lon="6.70698">
        <ele>2273</ele>
        <time>2010-03-31T13:33:14Z</time>
      </trkpt>
      <trkpt lat="45.49483" lon="6.70684">
        <ele>2267</ele>
        <time>2010-03-31T13:33:17Z</time>
      </trkpt>
      <trkpt lat="45.49493" lon="6.70677">
        <ele>2265</ele>
        <time>2010-03-31T13:33:18Z</time>
      </trkpt>
      <trkpt lat="45.49555" lon="6.7063">
        <ele>2256</ele>
        <time>2010-03-31T13:33:25Z</time>
      </trkpt>
      <trkpt lat="45.496" lon="6.70598">
        <ele>2251</ele>
        <time>2010-03-31T13:33:31Z</time>
      </trkpt>
      <trkpt lat="45.49619" lon="6.70585">
        <ele>2250</ele>
        <time>2010-03-31T13:33:35Z</time>
      </trkpt>
      <trkpt lat="45.4963" lon="6.70579">
        <ele>2251</ele>
        <time>2010-03-31T13:33:38Z</time>
      </trkpt>
      <trkpt lat="45.4964" lon="6.7057">
        <ele>2250</ele>
        <time>2010-03-31T13:33:41Z</time>
      </trkpt>
      <trkpt lat="45.49647" lon="6.70561">
        <ele>2250</ele>
        <time>2010-03-31T13:33:44Z</time>
      </trkpt>
      <trkpt lat="45.4965" lon="6.70559">
        <ele>2250</ele>
        <time>2010-03-31T13:33:45Z</time>
      </trkpt>
      <trkpt lat="45.49672" lon="6.70542">
        <ele>2245</ele>
        <time>2010-03-31T13:33:52Z</time>
      </trkpt>
      <trkpt lat="45.49674" lon="6.70538">
        <ele>2245</ele>
        <time>2010-03-31T13:33:53Z</time>
      </trkpt>
      <trkpt lat="45.497" lon="6.70532">
        <ele>2244</ele>
        <time>2010-03-31T13:33:59Z</time>
      </trkpt>
      <trkpt lat="45.49732" lon="6.70522">
        <ele>2242</ele>
        <time>2010-03-31T13:34:05Z</time>
      </trkpt>
      <trkpt lat="45.49751" lon="6.70505">
        <ele>2239</ele>
        <time>2010-03-31T13:34:11Z</time>
      </trkpt>
      <trkpt lat="45.49761" lon="6.70495">
        <ele>2238</ele>
        <time>2010-03-31T13:34:17Z</time>
      </trkpt>
      <trkpt lat="45.49769" lon="6.70489">
        <ele>2238</ele>
        <time>2010-03-31T13:34:22Z</time>
      </trkpt>
      <trkpt lat="45.49773" lon="6.70487">
        <ele>2237</ele>
        <time>2010-03-31T13:34:25Z</time>
      </trkpt>
      <trkpt lat="45.49779" lon="6.70484">
        <ele>2237</ele>
        <time>2010-03-31T13:34:28Z</time>
      </trkpt>
      <trkpt lat="45.49791" lon="6.70475">
        <ele>2237</ele>
        <time>2010-03-31T13:34:34Z</time>
      </trkpt>
      <trkpt lat="45.49817" lon="6.70456">
        <ele>2236</ele>
        <time>2010-03-31T13:34:44Z</time>
      </trkpt>
      <trkpt lat="45.49838" lon="6.7044">
        <ele>2227</ele>
        <time>2010-03-31T13:34:49Z</time>
      </trkpt>
      <trkpt lat="45.49849" lon="6.70443">
        <ele>2226</ele>
        <time>2010-03-31T13:34:53Z</time>
      </trkpt>
      <trkpt lat="45.49851" lon="6.70443">
        <ele>2226</ele>
        <time>2010-03-31T13:34:59Z</time>
      </trkpt>
      <trkpt lat="45.49851" lon="6.7044">
        <ele>2226</ele>
        <time>2010-03-31T13:35:05Z</time>
      </trkpt>
      <trkpt lat="45.49851" lon="6.70433">
        <ele>2226</ele>
        <time>2010-03-31T13:35:10Z</time>
      </trkpt>
      <trkpt lat="45.49852" lon="6.70424">
        <ele>2227</ele>
        <time>2010-03-31T13:35:14Z</time>
      </trkpt>
      <trkpt lat="45.49856" lon="6.70412">
        <ele>2226</ele>
        <time>2010-03-31T13:35:19Z</time>
      </trkpt>
      <trkpt lat="45.49861" lon="6.70399">
        <ele>2224</ele>
        <time>2010-03-31T13:35:26Z</time>
      </trkpt>
      <trkpt lat="45.49867" lon="6.70388">
        <ele>2223</ele>
        <time>2010-03-31T13:35:34Z</time>
      </trkpt>
      <trkpt lat="45.49877" lon="6.70372">
        <ele>2222</ele>
        <time>2010-03-31T13:35:39Z</time>
      </trkpt>
      <trkpt lat="45.49892" lon="6.70352">
        <ele>2221</ele>
        <time>2010-03-31T13:35:43Z</time>
      </trkpt>
      <trkpt lat="45.49902" lon="6.70341">
        <ele>2219</ele>
        <time>2010-03-31T13:35:45Z</time>
      </trkpt>
      <trkpt lat="45.49931" lon="6.70302">
        <ele>2207</ele>
        <time>2010-03-31T13:35:51Z</time>
      </trkpt>
      <trkpt lat="45.49967" lon="6.70257">
        <ele>2202</ele>
        <time>2010-03-31T13:35:56Z</time>
      </trkpt>
      <trkpt lat="45.49991" lon="6.70216">
        <ele>2198</ele>
        <time>2010-03-31T13:36:00Z</time>
      </trkpt>
      <trkpt lat="45.50009" lon="6.70181">
        <ele>2189</ele>
        <time>2010-03-31T13:36:04Z</time>
      </trkpt>
      <trkpt lat="45.50027" lon="6.70141">
        <ele>2183</ele>
        <time>2010-03-31T13:36:10Z</time>
      </trkpt>
      <trkpt lat="45.5004" lon="6.70095">
        <ele>2180</ele>
        <time>2010-03-31T13:36:15Z</time>
      </trkpt>
      <trkpt lat="45.50057" lon="6.70048">
        <ele>2173</ele>
        <time>2010-03-31T13:36:19Z</time>
      </trkpt>
      <trkpt lat="45.50082" lon="6.69979">
        <ele>2166</ele>
        <time>2010-03-31T13:36:24Z</time>
      </trkpt>
      <trkpt lat="45.50099" lon="6.69928">
        <ele>2160</ele>
        <time>2010-03-31T13:36:28Z</time>
      </trkpt>
      <trkpt lat="45.50105" lon="6.69911">
        <ele>2157</ele>
        <time>2010-03-31T13:36:30Z</time>
      </trkpt>
      <trkpt lat="45.5012" lon="6.69867">
        <ele>2155</ele>
        <time>2010-03-31T13:36:35Z</time>
      </trkpt>
      <trkpt lat="45.50139" lon="6.69814">
        <ele>2149</ele>
        <time>2010-03-31T13:36:41Z</time>
      </trkpt>
      <trkpt lat="45.5016" lon="6.69761">
        <ele>2145</ele>
        <time>2010-03-31T13:36:47Z</time>
      </trkpt>
      <trkpt lat="45.50177" lon="6.69724">
        <ele>2139</ele>
        <time>2010-03-31T13:36:52Z</time>
      </trkpt>
      <trkpt lat="45.50185" lon="6.6971">
        <ele>2138</ele>
        <time>2010-03-31T13:36:54Z</time>
      </trkpt>
      <trkpt lat="45.5021" lon="6.69685">
        <ele>2136</ele>
        <time>2010-03-31T13:36:58Z</time>
      </trkpt>
      <trkpt lat="45.50256" lon="6.69664">
        <ele>2129</ele>
        <time>2010-03-31T13:37:04Z</time>
      </trkpt>
      <trkpt lat="45.50286" lon="6.69658">
        <ele>2127</ele>
        <time>2010-03-31T13:37:09Z</time>
      </trkpt>
      <trkpt lat="45.50306" lon="6.69661">
        <ele>2126</ele>
        <time>2010-03-31T13:37:14Z</time>
      </trkpt>
      <trkpt lat="45.50311" lon="6.69663">
        <ele>2126</ele>
        <time>2010-03-31T13:37:16Z</time>
      </trkpt>
      <trkpt lat="45.50322" lon="6.69672">
        <ele>2125</ele>
        <time>2010-03-31T13:37:22Z</time>
      </trkpt>
      <trkpt lat="45.50324" lon="6.69673">
        <ele>2125</ele>
        <time>2010-03-31T13:37:23Z</time>
      </trkpt>
      <trkpt lat="45.50333" lon="6.69681">
        <ele>2125</ele>
        <time>2010-03-31T13:37:29Z</time>
      </trkpt>
      <trkpt lat="45.50342" lon="6.6969">
        <ele>2120</ele>
        <time>2010-03-31T13:37:38Z</time>
      </trkpt>
      <trkpt lat="45.5035" lon="6.69699">
        <ele>2120</ele>
        <time>2010-03-31T13:37:47Z</time>
      </trkpt>
      <trkpt lat="45.50361" lon="6.69711">
        <ele>2119</ele>
        <time>2010-03-31T13:37:53Z</time>
      </trkpt>
      <trkpt lat="45.5038" lon="6.69733">
        <ele>2118</ele>
        <time>2010-03-31T13:38:00Z</time>
      </trkpt>
      <trkpt lat="45.50403" lon="6.6976">
        <ele>2117</ele>
        <time>2010-03-31T13:38:06Z</time>
      </trkpt>
      <trkpt lat="45.50423" lon="6.6978">
        <ele>2113</ele>
        <time>2010-03-31T13:38:11Z</time>
      </trkpt>
      <trkpt lat="45.50434" lon="6.6979">
        <ele>2114</ele>
        <time>2010-03-31T13:38:15Z</time>
      </trkpt>
      <trkpt lat="45.50449" lon="6.69798">
        <ele>2113</ele>
        <time>2010-03-31T13:38:20Z</time>
      </trkpt>
      <trkpt lat="45.5046" lon="6.69805">
        <ele>2113</ele>
        <time>2010-03-31T13:38:25Z</time>
      </trkpt>
      <trkpt lat="45.50468" lon="6.6981">
        <ele>2113</ele>
        <time>2010-03-31T13:38:30Z</time>
      </trkpt>
      <trkpt lat="45.5048" lon="6.69814">
        <ele>2113</ele>
        <time>2010-03-31T13:38:36Z</time>
      </trkpt>
      <trkpt lat="45.50487" lon="6.69817">
        <ele>2113</ele>
        <time>2010-03-31T13:38:39Z</time>
      </trkpt>
      <trkpt lat="45.50496" lon="6.69821">
        <ele>2112</ele>
        <time>2010-03-31T13:38:46Z</time>
      </trkpt>
      <trkpt lat="45.50509" lon="6.69824">
        <ele>2109</ele>
        <time>2010-03-31T13:38:53Z</time>
      </trkpt>
      <trkpt lat="45.50524" lon="6.69826">
        <ele>2108</ele>
        <time>2010-03-31T13:38:57Z</time>
      </trkpt>
      <trkpt lat="45.50549" lon="6.69821">
        <ele>2105</ele>
        <time>2010-03-31T13:39:02Z</time>
      </trkpt>
      <trkpt lat="45.50562" lon="6.69817">
        <ele>2104</ele>
        <time>2010-03-31T13:39:05Z</time>
      </trkpt>
      <trkpt lat="45.50564" lon="6.69815">
        <ele>2104</ele>
        <time>2010-03-31T13:39:06Z</time>
      </trkpt>
      <trkpt lat="45.50578" lon="6.69814">
        <ele>2103</ele>
        <time>2010-03-31T13:39:10Z</time>
      </trkpt>
      <trkpt lat="45.50588" lon="6.69813">
        <ele>2098</ele>
        <time>2010-03-31T13:39:13Z</time>
      </trkpt>
      <trkpt lat="45.5059" lon="6.69814">
        <ele>2098</ele>
        <time>2010-03-31T13:39:14Z</time>
      </trkpt>
      <trkpt lat="45.50592" lon="6.69817">
        <ele>2098</ele>
        <time>2010-03-31T13:39:20Z</time>
      </trkpt>
      <trkpt lat="45.50593" lon="6.69819">
        <ele>2098</ele>
        <time>2010-03-31T13:39:26Z</time>
      </trkpt>
      <trkpt lat="45.50593" lon="6.69825">
        <ele>2098</ele>
        <time>2010-03-31T13:39:29Z</time>
      </trkpt>
      <trkpt lat="45.50595" lon="6.69831">
        <ele>2098</ele>
        <time>2010-03-31T13:39:34Z</time>
      </trkpt>
      <trkpt lat="45.50609" lon="6.69839">
        <ele>2092</ele>
        <time>2010-03-31T13:39:39Z</time>
      </trkpt>
      <trkpt lat="45.50616" lon="6.69839">
        <ele>2091</ele>
        <time>2010-03-31T13:39:42Z</time>
      </trkpt>
      <trkpt lat="45.50617" lon="6.69836">
        <ele>2091</ele>
        <time>2010-03-31T13:39:43Z</time>
      </trkpt>
      <trkpt lat="45.5062" lon="6.69829">
        <ele>2095</ele>
        <time>2010-03-31T13:39:45Z</time>
      </trkpt>
      <trkpt lat="45.50629" lon="6.69825">
        <ele>2094</ele>
        <time>2010-03-31T13:39:49Z</time>
      </trkpt>
      <trkpt lat="45.50629" lon="6.69825">
        <ele>2094</ele>
        <time>2010-03-31T13:39:55Z</time>
      </trkpt>
      <trkpt lat="45.50629" lon="6.69824">
        <ele>2094</ele>
        <time>2010-03-31T13:40:02Z</time>
      </trkpt>
      <trkpt lat="45.50629" lon="6.69819">
        <ele>2094</ele>
        <time>2010-03-31T13:40:08Z</time>
      </trkpt>
      <trkpt lat="45.50629" lon="6.69814">
        <ele>2094</ele>
        <time>2010-03-31T13:40:10Z</time>
      </trkpt>
      <trkpt lat="45.50629" lon="6.69802">
        <ele>2095</ele>
        <time>2010-03-31T13:40:15Z</time>
      </trkpt>
      <trkpt lat="45.5063" lon="6.698">
        <ele>2095</ele>
        <time>2010-03-31T13:40:17Z</time>
      </trkpt>
      <trkpt lat="45.50642" lon="6.69801">
        <ele>2094</ele>
        <time>2010-03-31T13:40:20Z</time>
      </trkpt>
      <trkpt lat="45.50648" lon="6.6981">
        <ele>2093</ele>
        <time>2010-03-31T13:40:22Z</time>
      </trkpt>
      <trkpt lat="45.50661" lon="6.69826">
        <ele>2088</ele>
        <time>2010-03-31T13:40:27Z</time>
      </trkpt>
      <trkpt lat="45.50677" lon="6.69844">
        <ele>2078</ele>
        <time>2010-03-31T13:40:31Z</time>
      </trkpt>
      <trkpt lat="45.50679" lon="6.69867">
        <ele>2073</ele>
        <time>2010-03-31T13:40:35Z</time>
      </trkpt>
      <trkpt lat="45.5068" lon="6.69869">
        <ele>2073</ele>
        <time>2010-03-31T13:40:36Z</time>
      </trkpt>
      <trkpt lat="45.50681" lon="6.69868">
        <ele>2073</ele>
        <time>2010-03-31T13:40:44Z</time>
      </trkpt>
      <trkpt lat="45.50681" lon="6.69868">
        <ele>2073</ele>
        <time>2010-03-31T13:40:48Z</time>
      </trkpt>
      <trkpt lat="45.50693" lon="6.69861">
        <ele>2072</ele>
        <time>2010-03-31T13:40:51Z</time>
      </trkpt>
      <trkpt lat="45.507" lon="6.69855">
        <ele>2072</ele>
        <time>2010-03-31T13:40:52Z</time>
      </trkpt>
      <trkpt lat="45.5071" lon="6.69869">
        <ele>2069</ele>
        <time>2010-03-31T13:40:55Z</time>
      </trkpt>
      <trkpt lat="45.50708" lon="6.69879">
        <ele>2069</ele>
        <time>2010-03-31T13:40:56Z</time>
      </trkpt>
      <trkpt lat="45.50706" lon="6.69896">
        <ele>2068</ele>
        <time>2010-03-31T13:40:58Z</time>
      </trkpt>
      <trkpt lat="45.50721" lon="6.69896">
        <ele>2065</ele>
        <time>2010-03-31T13:41:01Z</time>
      </trkpt>
      <trkpt lat="45.50737" lon="6.69897">
        <ele>2062</ele>
        <time>2010-03-31T13:41:04Z</time>
      </trkpt>
      <trkpt lat="45.50735" lon="6.69916">
        <ele>2059</ele>
        <time>2010-03-31T13:41:06Z</time>
      </trkpt>
      <trkpt lat="45.50731" lon="6.69937">
        <ele>2054</ele>
        <time>2010-03-31T13:41:08Z</time>
      </trkpt>
      <trkpt lat="45.50734" lon="6.69961">
        <ele>2052</ele>
        <time>2010-03-31T13:41:12Z</time>
      </trkpt>
      <trkpt lat="45.50743" lon="6.69957">
        <ele>2052</ele>
        <time>2010-03-31T13:41:14Z</time>
      </trkpt>
      <trkpt lat="45.50748" lon="6.69951">
        <ele>2052</ele>
        <time>2010-03-31T13:41:15Z</time>
      </trkpt>
      <trkpt lat="45.50773" lon="6.69921">
        <ele>2040</ele>
        <time>2010-03-31T13:41:20Z</time>
      </trkpt>
      <trkpt lat="45.50785" lon="6.69925">
        <ele>2037</ele>
        <time>2010-03-31T13:41:23Z</time>
      </trkpt>
      <trkpt lat="45.50787" lon="6.69948">
        <ele>2035</ele>
        <time>2010-03-31T13:41:26Z</time>
      </trkpt>
      <trkpt lat="45.50797" lon="6.69947">
        <ele>2034</ele>
        <time>2010-03-31T13:41:28Z</time>
      </trkpt>
      <trkpt lat="45.50801" lon="6.69933">
        <ele>2034</ele>
        <time>2010-03-31T13:41:30Z</time>
      </trkpt>
      <trkpt lat="45.5081" lon="6.69923">
        <ele>2032</ele>
        <time>2010-03-31T13:41:33Z</time>
      </trkpt>
      <trkpt lat="45.50818" lon="6.69935">
        <ele>2031</ele>
        <time>2010-03-31T13:41:35Z</time>
      </trkpt>
      <trkpt lat="45.50833" lon="6.69934">
        <ele>2030</ele>
        <time>2010-03-31T13:41:38Z</time>
      </trkpt>
      <trkpt lat="45.50834" lon="6.69916">
        <ele>2027</ele>
        <time>2010-03-31T13:41:40Z</time>
      </trkpt>
      <trkpt lat="45.50841" lon="6.69913">
        <ele>2024</ele>
        <time>2010-03-31T13:41:42Z</time>
      </trkpt>
      <trkpt lat="45.5085" lon="6.69926">
        <ele>2016</ele>
        <time>2010-03-31T13:41:45Z</time>
      </trkpt>
      <trkpt lat="45.5086" lon="6.69919">
        <ele>2013</ele>
        <time>2010-03-31T13:41:47Z</time>
      </trkpt>
      <trkpt lat="45.50866" lon="6.699">
        <ele>2018</ele>
        <time>2010-03-31T13:41:50Z</time>
      </trkpt>
      <trkpt lat="45.50873" lon="6.69908">
        <ele>2015</ele>
        <time>2010-03-31T13:41:52Z</time>
      </trkpt>
      <trkpt lat="45.5088" lon="6.69924">
        <ele>2007</ele>
        <time>2010-03-31T13:41:55Z</time>
      </trkpt>
      <trkpt lat="45.50888" lon="6.69948">
        <ele>2005</ele>
        <time>2010-03-31T13:41:59Z</time>
      </trkpt>
      <trkpt lat="45.50893" lon="6.69959">
        <ele>2003</ele>
        <time>2010-03-31T13:42:02Z</time>
      </trkpt>
      <trkpt lat="45.50894" lon="6.69959">
        <ele>2003</ele>
        <time>2010-03-31T13:42:06Z</time>
      </trkpt>
      <trkpt lat="45.50894" lon="6.69957">
        <ele>2003</ele>
        <time>2010-03-31T13:42:38Z</time>
      </trkpt>
      <trkpt lat="45.50895" lon="6.69956">
        <ele>2003</ele>
        <time>2010-03-31T13:42:45Z</time>
      </trkpt>
      <trkpt lat="45.50915" lon="6.6995">
        <ele>2001</ele>
        <time>2010-03-31T13:42:49Z</time>
      </trkpt>
      <trkpt lat="45.50945" lon="6.69963">
        <ele>1981</ele>
        <time>2010-03-31T13:42:53Z</time>
      </trkpt>
      <trkpt lat="45.50958" lon="6.69953">
        <ele>1980</ele>
        <time>2010-03-31T13:42:55Z</time>
      </trkpt>
      <trkpt lat="45.50979" lon="6.69944">
        <ele>1977</ele>
        <time>2010-03-31T13:42:58Z</time>
      </trkpt>
      <trkpt lat="45.50985" lon="6.69947">
        <ele>1976</ele>
        <time>2010-03-31T13:42:59Z</time>
      </trkpt>
      <trkpt lat="45.51021" lon="6.69963">
        <ele>1962</ele>
        <time>2010-03-31T13:43:03Z</time>
      </trkpt>
      <trkpt lat="45.51066" lon="6.69962">
        <ele>1958</ele>
        <time>2010-03-31T13:43:07Z</time>
      </trkpt>
      <trkpt lat="45.51077" lon="6.69959">
        <ele>1957</ele>
        <time>2010-03-31T13:43:08Z</time>
      </trkpt>
      <trkpt lat="45.5111" lon="6.69946">
        <ele>1947</ele>
        <time>2010-03-31T13:43:11Z</time>
      </trkpt>
      <trkpt lat="45.51142" lon="6.6992">
        <ele>1944</ele>
        <time>2010-03-31T13:43:15Z</time>
      </trkpt>
      <trkpt lat="45.5115" lon="6.69916">
        <ele>1942</ele>
        <time>2010-03-31T13:43:16Z</time>
      </trkpt>
      <trkpt lat="45.51179" lon="6.699">
        <ele>1938</ele>
        <time>2010-03-31T13:43:20Z</time>
      </trkpt>
      <trkpt lat="45.51196" lon="6.69874">
        <ele>1937</ele>
        <time>2010-03-31T13:43:24Z</time>
      </trkpt>
      <trkpt lat="45.51197" lon="6.69868">
        <ele>1937</ele>
        <time>2010-03-31T13:43:25Z</time>
      </trkpt>
      <trkpt lat="45.51202" lon="6.6984">
        <ele>1936</ele>
        <time>2010-03-31T13:43:30Z</time>
      </trkpt>
      <trkpt lat="45.51204" lon="6.6982">
        <ele>1935</ele>
        <time>2010-03-31T13:43:37Z</time>
      </trkpt>
      <trkpt lat="45.51204" lon="6.69819">
        <ele>1935</ele>
        <time>2010-03-31T13:43:38Z</time>
      </trkpt>
      <trkpt lat="45.51202" lon="6.69817">
        <ele>1935</ele>
        <time>2010-03-31T13:43:47Z</time>
      </trkpt>
      <trkpt lat="45.51198" lon="6.69814">
        <ele>1935</ele>
        <time>2010-03-31T13:43:52Z</time>
      </trkpt>
      <trkpt lat="45.51196" lon="6.69811">
        <ele>1935</ele>
        <time>2010-03-31T13:43:58Z</time>
      </trkpt>
      <trkpt lat="45.51195" lon="6.6981">
        <ele>1935</ele>
        <time>2010-03-31T13:44:05Z</time>
      </trkpt>
      <trkpt lat="45.51193" lon="6.69807">
        <ele>1935</ele>
        <time>2010-03-31T13:44:15Z</time>
      </trkpt>
      <trkpt lat="45.51192" lon="6.69806">
        <ele>1935</ele>
        <time>2010-03-31T13:44:23Z</time>
      </trkpt>
      <trkpt lat="45.51191" lon="6.69806">
        <ele>1935</ele>
        <time>2010-03-31T13:44:32Z</time>
      </trkpt>
      <trkpt lat="45.51191" lon="6.69805">
        <ele>1935</ele>
        <time>2010-03-31T13:44:41Z</time>
      </trkpt>
      <trkpt lat="45.51191" lon="6.69805">
        <ele>1935</ele>
        <time>2010-03-31T13:45:00Z</time>
      </trkpt>
      <trkpt lat="45.51189" lon="6.69804">
        <ele>1935</ele>
        <time>2010-03-31T13:45:08Z</time>
      </trkpt>
      <trkpt lat="45.51187" lon="6.69802">
        <ele>1935</ele>
        <time>2010-03-31T13:45:17Z</time>
      </trkpt>
      <trkpt lat="45.51186" lon="6.69802">
        <ele>1935</ele>
        <time>2010-03-31T13:45:26Z</time>
      </trkpt>
      <trkpt lat="45.51184" lon="6.698">
        <ele>1935</ele>
        <time>2010-03-31T13:45:34Z</time>
      </trkpt>
      <trkpt lat="45.51183" lon="6.69799">
        <ele>1935</ele>
        <time>2010-03-31T13:45:44Z</time>
      </trkpt>
      <trkpt lat="45.51182" lon="6.69796">
        <ele>1935</ele>
        <time>2010-03-31T13:46:06Z</time>
      </trkpt>
      <trkpt lat="45.51182" lon="6.69796">
        <ele>1935</ele>
        <time>2010-03-31T13:46:14Z</time>
      </trkpt>
      <trkpt lat="45.51181" lon="6.69796">
        <ele>1935</ele>
        <time>2010-03-31T13:46:30Z</time>
      </trkpt>
      <trkpt lat="45.51179" lon="6.69794">
        <ele>1936</ele>
        <time>2010-03-31T13:46:42Z</time>
      </trkpt>
      <trkpt lat="45.51179" lon="6.69794">
        <ele>1936</ele>
        <time>2010-03-31T13:46:50Z</time>
      </trkpt>
      <trkpt lat="45.51178" lon="6.69793">
        <ele>1936</ele>
        <time>2010-03-31T13:47:01Z</time>
      </trkpt>
      <trkpt lat="45.51178" lon="6.69792">
        <ele>1936</ele>
        <time>2010-03-31T13:47:16Z</time>
      </trkpt>
      <trkpt lat="45.51177" lon="6.6979">
        <ele>1936</ele>
        <time>2010-03-31T13:47:26Z</time>
      </trkpt>
      <trkpt lat="45.51175" lon="6.69789">
        <ele>1936</ele>
        <time>2010-03-31T13:47:34Z</time>
      </trkpt>
      <trkpt lat="45.51173" lon="6.69788">
        <ele>1936</ele>
        <time>2010-03-31T13:47:44Z</time>
      </trkpt>
      <trkpt lat="45.51171" lon="6.69786">
        <ele>1936</ele>
        <time>2010-03-31T13:48:01Z</time>
      </trkpt>
      <trkpt lat="45.51169" lon="6.69786">
        <ele>1936</ele>
        <time>2010-03-31T13:48:09Z</time>
      </trkpt>
      <trkpt lat="45.51168" lon="6.69784">
        <ele>1936</ele>
        <time>2010-03-31T13:48:11Z</time>
      </trkpt>
      <trkpt lat="45.51151" lon="6.69779">
        <ele>1943</ele>
        <time>2010-03-31T13:48:16Z</time>
      </trkpt>
      <trkpt lat="45.51135" lon="6.69775">
        <ele>1945</ele>
        <time>2010-03-31T13:48:21Z</time>
      </trkpt>
      <trkpt lat="45.51117" lon="6.6977">
        <ele>1947</ele>
        <time>2010-03-31T13:48:27Z</time>
      </trkpt>
      <trkpt lat="45.51101" lon="6.69765">
        <ele>1949</ele>
        <time>2010-03-31T13:48:32Z</time>
      </trkpt>
      <trkpt lat="45.51083" lon="6.6976">
        <ele>1959</ele>
        <time>2010-03-31T13:48:38Z</time>
      </trkpt>
      <trkpt lat="45.51059" lon="6.69752">
        <ele>1963</ele>
        <time>2010-03-31T13:48:46Z</time>
      </trkpt>
      <trkpt lat="45.5103" lon="6.69744">
        <ele>1980</ele>
        <time>2010-03-31T13:48:56Z</time>
      </trkpt>
      <trkpt lat="45.51001" lon="6.69735">
        <ele>1984</ele>
        <time>2010-03-31T13:49:06Z</time>
      </trkpt>
      <trkpt lat="45.50974" lon="6.69726">
        <ele>2009</ele>
        <time>2010-03-31T13:49:15Z</time>
      </trkpt>
      <trkpt lat="45.50946" lon="6.69717">
        <ele>2017</ele>
        <time>2010-03-31T13:49:25Z</time>
      </trkpt>
      <trkpt lat="45.50923" lon="6.69711">
        <ele>2021</ele>
        <time>2010-03-31T13:49:33Z</time>
      </trkpt>
      <trkpt lat="45.50901" lon="6.69704">
        <ele>2048</ele>
        <time>2010-03-31T13:49:41Z</time>
      </trkpt>
      <trkpt lat="45.50881" lon="6.69698">
        <ele>2053</ele>
        <time>2010-03-31T13:49:48Z</time>
      </trkpt>
      <trkpt lat="45.50864" lon="6.69693">
        <ele>2058</ele>
        <time>2010-03-31T13:49:54Z</time>
      </trkpt>
      <trkpt lat="45.50839" lon="6.69685">
        <ele>2067</ele>
        <time>2010-03-31T13:50:03Z</time>
      </trkpt>
      <trkpt lat="45.50813" lon="6.69677">
        <ele>2082</ele>
        <time>2010-03-31T13:50:12Z</time>
      </trkpt>
      <trkpt lat="45.50792" lon="6.6967">
        <ele>2084</ele>
        <time>2010-03-31T13:50:19Z</time>
      </trkpt>
      <trkpt lat="45.50764" lon="6.69662">
        <ele>2096</ele>
        <time>2010-03-31T13:50:28Z</time>
      </trkpt>
      <trkpt lat="45.50736" lon="6.69654">
        <ele>2101</ele>
        <time>2010-03-31T13:50:37Z</time>
      </trkpt>
      <trkpt lat="45.50704" lon="6.69644">
        <ele>2104</ele>
        <time>2010-03-31T13:50:47Z</time>
      </trkpt>
      <trkpt lat="45.5067" lon="6.69634">
        <ele>2105</ele>
        <time>2010-03-31T13:50:58Z</time>
      </trkpt>
      <trkpt lat="45.50639" lon="6.69624">
        <ele>2109</ele>
        <time>2010-03-31T13:51:08Z</time>
      </trkpt>
      <trkpt lat="45.50605" lon="6.69614">
        <ele>2109</ele>
        <time>2010-03-31T13:51:19Z</time>
      </trkpt>
      <trkpt lat="45.50562" lon="6.69601">
        <ele>2110</ele>
        <time>2010-03-31T13:51:33Z</time>
      </trkpt>
      <trkpt lat="45.50518" lon="6.69588">
        <ele>2110</ele>
        <time>2010-03-31T13:51:47Z</time>
      </trkpt>
      <trkpt lat="45.50472" lon="6.69574">
        <ele>2115</ele>
        <time>2010-03-31T13:52:02Z</time>
      </trkpt>
      <trkpt lat="45.50428" lon="6.6956">
        <ele>2118</ele>
        <time>2010-03-31T13:52:16Z</time>
      </trkpt>
      <trkpt lat="45.50385" lon="6.69547">
        <ele>2124</ele>
        <time>2010-03-31T13:52:30Z</time>
      </trkpt>
      <trkpt lat="45.50357" lon="6.69539">
        <ele>2126</ele>
        <time>2010-03-31T13:52:39Z</time>
      </trkpt>
      <trkpt lat="45.50313" lon="6.69526">
        <ele>2132</ele>
        <time>2010-03-31T13:52:53Z</time>
      </trkpt>
      <trkpt lat="45.50273" lon="6.69514">
        <ele>2136</ele>
        <time>2010-03-31T13:53:06Z</time>
      </trkpt>
      <trkpt lat="45.50229" lon="6.69501">
        <ele>2143</ele>
        <time>2010-03-31T13:53:20Z</time>
      </trkpt>
      <trkpt lat="45.50183" lon="6.69487">
        <ele>2155</ele>
        <time>2010-03-31T13:53:35Z</time>
      </trkpt>
      <trkpt lat="45.50147" lon="6.69476">
        <ele>2168</ele>
        <time>2010-03-31T13:53:47Z</time>
      </trkpt>
      <trkpt lat="45.50112" lon="6.69465">
        <ele>2174</ele>
        <time>2010-03-31T13:53:59Z</time>
      </trkpt>
      <trkpt lat="45.50088" lon="6.69457">
        <ele>2176</ele>
        <time>2010-03-31T13:54:07Z</time>
      </trkpt>
      <trkpt lat="45.50045" lon="6.69444">
        <ele>2192</ele>
        <time>2010-03-31T13:54:21Z</time>
      </trkpt>
      <trkpt lat="45.50014" lon="6.69434">
        <ele>2195</ele>
        <time>2010-03-31T13:54:31Z</time>
      </trkpt>
      <trkpt lat="45.49989" lon="6.69427">
        <ele>2203</ele>
        <time>2010-03-31T13:54:39Z</time>
      </trkpt>
      <trkpt lat="45.49953" lon="6.69416">
        <ele>2208</ele>
        <time>2010-03-31T13:54:51Z</time>
      </trkpt>
      <trkpt lat="45.49907" lon="6.69402">
        <ele>2221</ele>
        <time>2010-03-31T13:55:06Z</time>
      </trkpt>
      <trkpt lat="45.49877" lon="6.69393">
        <ele>2227</ele>
        <time>2010-03-31T13:55:16Z</time>
      </trkpt>
      <trkpt lat="45.49841" lon="6.69382">
        <ele>2231</ele>
        <time>2010-03-31T13:55:28Z</time>
      </trkpt>
      <trkpt lat="45.49823" lon="6.69376">
        <ele>2239</ele>
        <time>2010-03-31T13:55:34Z</time>
      </trkpt>
      <trkpt lat="45.49802" lon="6.69369">
        <ele>2240</ele>
        <time>2010-03-31T13:55:41Z</time>
      </trkpt>
      <trkpt lat="45.49795" lon="6.69362">
        <ele>2240</ele>
        <time>2010-03-31T13:55:45Z</time>
      </trkpt>
      <trkpt lat="45.49788" lon="6.69346">
        <ele>2240</ele>
        <time>2010-03-31T13:55:50Z</time>
      </trkpt>
      <trkpt lat="45.49787" lon="6.69347">
        <ele>2240</ele>
        <time>2010-03-31T13:55:55Z</time>
      </trkpt>
      <trkpt lat="45.49784" lon="6.69346">
        <ele>2240</ele>
        <time>2010-03-31T13:56:01Z</time>
      </trkpt>
      <trkpt lat="45.49773" lon="6.69337">
        <ele>2241</ele>
        <time>2010-03-31T13:56:07Z</time>
      </trkpt>
      <trkpt lat="45.49755" lon="6.69323">
        <ele>2240</ele>
        <time>2010-03-31T13:56:11Z</time>
      </trkpt>
      <trkpt lat="45.49745" lon="6.69309">
        <ele>2245</ele>
        <time>2010-03-31T13:56:13Z</time>
      </trkpt>
      <trkpt lat="45.49737" lon="6.69279">
        <ele>2244</ele>
        <time>2010-03-31T13:56:17Z</time>
      </trkpt>
      <trkpt lat="45.49743" lon="6.69265">
        <ele>2242</ele>
        <time>2010-03-31T13:56:19Z</time>
      </trkpt>
      <trkpt lat="45.49773" lon="6.6922">
        <ele>2232</ele>
        <time>2010-03-31T13:56:26Z</time>
      </trkpt>
      <trkpt lat="45.49787" lon="6.69206">
        <ele>2231</ele>
        <time>2010-03-31T13:56:31Z</time>
      </trkpt>
      <trkpt lat="45.49802" lon="6.69192">
        <ele>2230</ele>
        <time>2010-03-31T13:56:38Z</time>
      </trkpt>
      <trkpt lat="45.49822" lon="6.69174">
        <ele>2229</ele>
        <time>2010-03-31T13:56:46Z</time>
      </trkpt>
      <trkpt lat="45.49838" lon="6.6916">
        <ele>2226</ele>
        <time>2010-03-31T13:56:52Z</time>
      </trkpt>
      <trkpt lat="45.49861" lon="6.69148">
        <ele>2222</ele>
        <time>2010-03-31T13:56:59Z</time>
      </trkpt>
      <trkpt lat="45.49883" lon="6.69133">
        <ele>2220</ele>
        <time>2010-03-31T13:57:05Z</time>
      </trkpt>
      <trkpt lat="45.49906" lon="6.69111">
        <ele>2219</ele>
        <time>2010-03-31T13:57:13Z</time>
      </trkpt>
      <trkpt lat="45.49916" lon="6.69104">
        <ele>2219</ele>
        <time>2010-03-31T13:57:15Z</time>
      </trkpt>
      <trkpt lat="45.49941" lon="6.69087">
        <ele>2211</ele>
        <time>2010-03-31T13:57:19Z</time>
      </trkpt>
      <trkpt lat="45.49948" lon="6.69086">
        <ele>2210</ele>
        <time>2010-03-31T13:57:20Z</time>
      </trkpt>
      <trkpt lat="45.49976" lon="6.69078">
        <ele>2209</ele>
        <time>2010-03-31T13:57:24Z</time>
      </trkpt>
      <trkpt lat="45.50003" lon="6.69082">
        <ele>2204</ele>
        <time>2010-03-31T13:57:28Z</time>
      </trkpt>
      <trkpt lat="45.50024" lon="6.69081">
        <ele>2199</ele>
        <time>2010-03-31T13:57:31Z</time>
      </trkpt>
      <trkpt lat="45.5004" lon="6.69054">
        <ele>2196</ele>
        <time>2010-03-31T13:57:34Z</time>
      </trkpt>
      <trkpt lat="45.50067" lon="6.69031">
        <ele>2193</ele>
        <time>2010-03-31T13:57:37Z</time>
      </trkpt>
      <trkpt lat="45.50089" lon="6.69027">
        <ele>2182</ele>
        <time>2010-03-31T13:57:39Z</time>
      </trkpt>
      <trkpt lat="45.50131" lon="6.6902">
        <ele>2178</ele>
        <time>2010-03-31T13:57:43Z</time>
      </trkpt>
      <trkpt lat="45.50165" lon="6.68998">
        <ele>2169</ele>
        <time>2010-03-31T13:57:47Z</time>
      </trkpt>
      <trkpt lat="45.5018" lon="6.68982">
        <ele>2162</ele>
        <time>2010-03-31T13:57:49Z</time>
      </trkpt>
      <trkpt lat="45.50196" lon="6.6896">
        <ele>2160</ele>
        <time>2010-03-31T13:57:52Z</time>
      </trkpt>
      <trkpt lat="45.50204" lon="6.68952">
        <ele>2159</ele>
        <time>2010-03-31T13:57:55Z</time>
      </trkpt>
      <trkpt lat="45.50209" lon="6.68942">
        <ele>2158</ele>
        <time>2010-03-31T13:57:59Z</time>
      </trkpt>
      <trkpt lat="45.5021" lon="6.68942">
        <ele>2158</ele>
        <time>2010-03-31T13:58:07Z</time>
      </trkpt>
      <trkpt lat="45.50209" lon="6.68942">
        <ele>2158</ele>
        <time>2010-03-31T13:58:14Z</time>
      </trkpt>
      <trkpt lat="45.50208" lon="6.68942">
        <ele>2158</ele>
        <time>2010-03-31T13:58:27Z</time>
      </trkpt>
      <trkpt lat="45.50208" lon="6.68943">
        <ele>2158</ele>
        <time>2010-03-31T13:58:40Z</time>
      </trkpt>
      <trkpt lat="45.50207" lon="6.68942">
        <ele>2158</ele>
        <time>2010-03-31T13:58:46Z</time>
      </trkpt>
      <trkpt lat="45.50207" lon="6.68944">
        <ele>2158</ele>
        <time>2010-03-31T13:58:54Z</time>
      </trkpt>
      <trkpt lat="45.50208" lon="6.6895">
        <ele>2158</ele>
        <time>2010-03-31T13:58:58Z</time>
      </trkpt>
      <trkpt lat="45.50208" lon="6.68963">
        <ele>2159</ele>
        <time>2010-03-31T13:59:06Z</time>
      </trkpt>
      <trkpt lat="45.50208" lon="6.68964">
        <ele>2159</ele>
        <time>2010-03-31T13:59:15Z</time>
      </trkpt>
      <trkpt lat="45.50209" lon="6.68961">
        <ele>2158</ele>
        <time>2010-03-31T13:59:22Z</time>
      </trkpt>
      <trkpt lat="45.5021" lon="6.6896">
        <ele>2158</ele>
        <time>2010-03-31T13:59:27Z</time>
      </trkpt>
      <trkpt lat="45.50212" lon="6.68957">
        <ele>2158</ele>
        <time>2010-03-31T13:59:33Z</time>
      </trkpt>
      <trkpt lat="45.50213" lon="6.68957">
        <ele>2158</ele>
        <time>2010-03-31T13:59:39Z</time>
      </trkpt>
      <trkpt lat="45.50214" lon="6.68956">
        <ele>2158</ele>
        <time>2010-03-31T13:59:44Z</time>
      </trkpt>
      <trkpt lat="45.50215" lon="6.68954">
        <ele>2158</ele>
        <time>2010-03-31T13:59:51Z</time>
      </trkpt>
      <trkpt lat="45.50217" lon="6.68953">
        <ele>2158</ele>
        <time>2010-03-31T13:59:59Z</time>
      </trkpt>
      <trkpt lat="45.50218" lon="6.68951">
        <ele>2158</ele>
        <time>2010-03-31T14:00:04Z</time>
      </trkpt>
      <trkpt lat="45.50219" lon="6.68947">
        <ele>2157</ele>
        <time>2010-03-31T14:00:11Z</time>
      </trkpt>
      <trkpt lat="45.5022" lon="6.68945">
        <ele>2157</ele>
        <time>2010-03-31T14:00:17Z</time>
      </trkpt>
      <trkpt lat="45.50217" lon="6.68938">
        <ele>2157</ele>
        <time>2010-03-31T14:00:21Z</time>
      </trkpt>
      <trkpt lat="45.50217" lon="6.68935">
        <ele>2157</ele>
        <time>2010-03-31T14:00:26Z</time>
      </trkpt>
      <trkpt lat="45.50208" lon="6.68921">
        <ele>2158</ele>
        <time>2010-03-31T14:00:42Z</time>
      </trkpt>
      <trkpt lat="45.50217" lon="6.6895">
        <ele>2158</ele>
        <time>2010-03-31T14:13:15Z</time>
      </trkpt>
      <trkpt lat="45.50217" lon="6.68951">
        <ele>2158</ele>
        <time>2010-03-31T14:13:16Z</time>
      </trkpt>
      <trkpt lat="45.50212" lon="6.68958">
        <ele>2158</ele>
        <time>2010-03-31T14:13:24Z</time>
      </trkpt>
      <trkpt lat="45.50208" lon="6.68962">
        <ele>2159</ele>
        <time>2010-03-31T14:13:30Z</time>
      </trkpt>
      <trkpt lat="45.50208" lon="6.68962">
        <ele>2159</ele>
        <time>2010-03-31T14:13:36Z</time>
      </trkpt>
      <trkpt lat="45.50208" lon="6.6896">
        <ele>2159</ele>
        <time>2010-03-31T14:13:37Z</time>
      </trkpt>
      <trkpt lat="45.50207" lon="6.68949">
        <ele>2158</ele>
        <time>2010-03-31T14:13:44Z</time>
      </trkpt>
      <trkpt lat="45.50207" lon="6.68942">
        <ele>2158</ele>
        <time>2010-03-31T14:13:51Z</time>
      </trkpt>
      <trkpt lat="45.50207" lon="6.6894">
        <ele>2158</ele>
        <time>2010-03-31T14:13:58Z</time>
      </trkpt>
      <trkpt lat="45.50208" lon="6.6894">
        <ele>2158</ele>
        <time>2010-03-31T14:14:02Z</time>
      </trkpt>
      <trkpt lat="45.50208" lon="6.6894">
        <ele>2158</ele>
        <time>2010-03-31T14:14:11Z</time>
      </trkpt>
      <trkpt lat="45.50206" lon="6.68937">
        <ele>2158</ele>
        <time>2010-03-31T14:14:27Z</time>
      </trkpt>
      <trkpt lat="45.50205" lon="6.68935">
        <ele>2158</ele>
        <time>2010-03-31T14:14:32Z</time>
      </trkpt>
      <trkpt lat="45.50206" lon="6.68928">
        <ele>2158</ele>
        <time>2010-03-31T14:14:39Z</time>
      </trkpt>
      <trkpt lat="45.50209" lon="6.68917">
        <ele>2158</ele>
        <time>2010-03-31T14:14:45Z</time>
      </trkpt>
      <trkpt lat="45.50215" lon="6.68894">
        <ele>2155</ele>
        <time>2010-03-31T14:14:48Z</time>
      </trkpt>
      <trkpt lat="45.50225" lon="6.68869">
        <ele>2154</ele>
        <time>2010-03-31T14:14:51Z</time>
      </trkpt>
      <trkpt lat="45.50243" lon="6.68837">
        <ele>2149</ele>
        <time>2010-03-31T14:14:55Z</time>
      </trkpt>
      <trkpt lat="45.50257" lon="6.68803">
        <ele>2139</ele>
        <time>2010-03-31T14:15:00Z</time>
      </trkpt>
      <trkpt lat="45.50261" lon="6.68791">
        <ele>2138</ele>
        <time>2010-03-31T14:15:02Z</time>
      </trkpt>
      <trkpt lat="45.50272" lon="6.68769">
        <ele>2137</ele>
        <time>2010-03-31T14:15:06Z</time>
      </trkpt>
      <trkpt lat="45.50286" lon="6.68753">
        <ele>2136</ele>
        <time>2010-03-31T14:15:09Z</time>
      </trkpt>
      <trkpt lat="45.50293" lon="6.68746">
        <ele>2131</ele>
        <time>2010-03-31T14:15:10Z</time>
      </trkpt>
      <trkpt lat="45.50316" lon="6.68726">
        <ele>2129</ele>
        <time>2010-03-31T14:15:13Z</time>
      </trkpt>
      <trkpt lat="45.50351" lon="6.68698">
        <ele>2122</ele>
        <time>2010-03-31T14:15:18Z</time>
      </trkpt>
      <trkpt lat="45.50361" lon="6.68674">
        <ele>2121</ele>
        <time>2010-03-31T14:15:21Z</time>
      </trkpt>
      <trkpt lat="45.50364" lon="6.68655">
        <ele>2116</ele>
        <time>2010-03-31T14:15:23Z</time>
      </trkpt>
      <trkpt lat="45.50371" lon="6.68609">
        <ele>2113</ele>
        <time>2010-03-31T14:15:28Z</time>
      </trkpt>
      <trkpt lat="45.50393" lon="6.6854">
        <ele>2108</ele>
        <time>2010-03-31T14:15:35Z</time>
      </trkpt>
      <trkpt lat="45.50409" lon="6.6848">
        <ele>2104</ele>
        <time>2010-03-31T14:15:40Z</time>
      </trkpt>
      <trkpt lat="45.50411" lon="6.6847">
        <ele>2104</ele>
        <time>2010-03-31T14:15:41Z</time>
      </trkpt>
      <trkpt lat="45.50418" lon="6.6844">
        <ele>2093</ele>
        <time>2010-03-31T14:15:45Z</time>
      </trkpt>
      <trkpt lat="45.50419" lon="6.68403">
        <ele>2091</ele>
        <time>2010-03-31T14:15:50Z</time>
      </trkpt>
      <trkpt lat="45.50414" lon="6.68382">
        <ele>2096</ele>
        <time>2010-03-31T14:15:54Z</time>
      </trkpt>
      <trkpt lat="45.50408" lon="6.68365">
        <ele>2094</ele>
        <time>2010-03-31T14:15:57Z</time>
      </trkpt>
      <trkpt lat="45.50391" lon="6.68335">
        <ele>2093</ele>
        <time>2010-03-31T14:16:02Z</time>
      </trkpt>
      <trkpt lat="45.50378" lon="6.68314">
        <ele>2086</ele>
        <time>2010-03-31T14:16:05Z</time>
      </trkpt>
      <trkpt lat="45.50371" lon="6.68297">
        <ele>2085</ele>
        <time>2010-03-31T14:16:07Z</time>
      </trkpt>
      <trkpt lat="45.50361" lon="6.68271">
        <ele>2083</ele>
        <time>2010-03-31T14:16:10Z</time>
      </trkpt>
      <trkpt lat="45.50356" lon="6.68254">
        <ele>2082</ele>
        <time>2010-03-31T14:16:12Z</time>
      </trkpt>
      <trkpt lat="45.50354" lon="6.68225">
        <ele>2074</ele>
        <time>2010-03-31T14:16:15Z</time>
      </trkpt>
      <trkpt lat="45.50351" lon="6.68214">
        <ele>2073</ele>
        <time>2010-03-31T14:16:16Z</time>
      </trkpt>
      <trkpt lat="45.50336" lon="6.68163">
        <ele>2065</ele>
        <time>2010-03-31T14:16:20Z</time>
      </trkpt>
      <trkpt lat="45.5032" lon="6.68133">
        <ele>2066</ele>
        <time>2010-03-31T14:16:24Z</time>
      </trkpt>
      <trkpt lat="45.50322" lon="6.68114">
        <ele>2065</ele>
        <time>2010-03-31T14:16:26Z</time>
      </trkpt>
      <trkpt lat="45.50335" lon="6.68073">
        <ele>2055</ele>
        <time>2010-03-31T14:16:30Z</time>
      </trkpt>
      <trkpt lat="45.50336" lon="6.68063">
        <ele>2053</ele>
        <time>2010-03-31T14:16:31Z</time>
      </trkpt>
      <trkpt lat="45.50345" lon="6.6804">
        <ele>2051</ele>
        <time>2010-03-31T14:16:34Z</time>
      </trkpt>
      <trkpt lat="45.50351" lon="6.68028">
        <ele>2051</ele>
        <time>2010-03-31T14:16:36Z</time>
      </trkpt>
      <trkpt lat="45.50354" lon="6.68007">
        <ele>2050</ele>
        <time>2010-03-31T14:16:39Z</time>
      </trkpt>
      <trkpt lat="45.50362" lon="6.67989">
        <ele>2039</ele>
        <time>2010-03-31T14:16:42Z</time>
      </trkpt>
      <trkpt lat="45.50369" lon="6.67976">
        <ele>2037</ele>
        <time>2010-03-31T14:16:44Z</time>
      </trkpt>
      <trkpt lat="45.50368" lon="6.67962">
        <ele>2036</ele>
        <time>2010-03-31T14:16:46Z</time>
      </trkpt>
      <trkpt lat="45.50367" lon="6.67943">
        <ele>2033</ele>
        <time>2010-03-31T14:16:49Z</time>
      </trkpt>
      <trkpt lat="45.50372" lon="6.67919">
        <ele>2031</ele>
        <time>2010-03-31T14:16:52Z</time>
      </trkpt>
      <trkpt lat="45.50379" lon="6.67864">
        <ele>2017</ele>
        <time>2010-03-31T14:16:57Z</time>
      </trkpt>
      <trkpt lat="45.50392" lon="6.67817">
        <ele>2010</ele>
        <time>2010-03-31T14:17:01Z</time>
      </trkpt>
      <trkpt lat="45.50402" lon="6.67795">
        <ele>2009</ele>
        <time>2010-03-31T14:17:03Z</time>
      </trkpt>
      <trkpt lat="45.50413" lon="6.67751">
        <ele>2002</ele>
        <time>2010-03-31T14:17:08Z</time>
      </trkpt>
      <trkpt lat="45.50416" lon="6.67733">
        <ele>2006</ele>
        <time>2010-03-31T14:17:12Z</time>
      </trkpt>
      <trkpt lat="45.50416" lon="6.6773">
        <ele>2007</ele>
        <time>2010-03-31T14:17:13Z</time>
      </trkpt>
      <trkpt lat="45.50421" lon="6.67726">
        <ele>1998</ele>
        <time>2010-03-31T14:17:18Z</time>
      </trkpt>
      <trkpt lat="45.50422" lon="6.67725">
        <ele>1998</ele>
        <time>2010-03-31T14:17:27Z</time>
      </trkpt>
      <trkpt lat="45.50433" lon="6.67719">
        <ele>1997</ele>
        <time>2010-03-31T14:17:34Z</time>
      </trkpt>
      <trkpt lat="45.50451" lon="6.67712">
        <ele>1996</ele>
        <time>2010-03-31T14:17:38Z</time>
      </trkpt>
      <trkpt lat="45.50477" lon="6.67703">
        <ele>1994</ele>
        <time>2010-03-31T14:17:42Z</time>
      </trkpt>
      <trkpt lat="45.50493" lon="6.67679">
        <ele>1992</ele>
        <time>2010-03-31T14:17:46Z</time>
      </trkpt>
      <trkpt lat="45.50492" lon="6.67665">
        <ele>1990</ele>
        <time>2010-03-31T14:17:48Z</time>
      </trkpt>
      <trkpt lat="45.5049" lon="6.67653">
        <ele>1992</ele>
        <time>2010-03-31T14:17:50Z</time>
      </trkpt>
      <trkpt lat="45.50489" lon="6.6764">
        <ele>1992</ele>
        <time>2010-03-31T14:17:52Z</time>
      </trkpt>
      <trkpt lat="45.50491" lon="6.67597">
        <ele>1991</ele>
        <time>2010-03-31T14:17:58Z</time>
      </trkpt>
      <trkpt lat="45.50491" lon="6.67563">
        <ele>1992</ele>
        <time>2010-03-31T14:18:03Z</time>
      </trkpt>
      <trkpt lat="45.50491" lon="6.67555">
        <ele>1992</ele>
        <time>2010-03-31T14:18:04Z</time>
      </trkpt>
      <trkpt lat="45.50491" lon="6.67526">
        <ele>1992</ele>
        <time>2010-03-31T14:18:08Z</time>
      </trkpt>
      <trkpt lat="45.50491" lon="6.67498">
        <ele>1990</ele>
        <time>2010-03-31T14:18:12Z</time>
      </trkpt>
      <trkpt lat="45.50491" lon="6.67493">
        <ele>1991</ele>
        <time>2010-03-31T14:18:13Z</time>
      </trkpt>
      <trkpt lat="45.50491" lon="6.67481">
        <ele>1992</ele>
        <time>2010-03-31T14:18:18Z</time>
      </trkpt>
      <trkpt lat="45.50492" lon="6.6748">
        <ele>1992</ele>
        <time>2010-03-31T14:18:26Z</time>
      </trkpt>
      <trkpt lat="45.50493" lon="6.67484">
        <ele>1992</ele>
        <time>2010-03-31T14:18:39Z</time>
      </trkpt>
      <trkpt lat="45.50496" lon="6.67485">
        <ele>1991</ele>
        <time>2010-03-31T14:19:13Z</time>
      </trkpt>
      <trkpt lat="45.50495" lon="6.67488">
        <ele>1991</ele>
        <time>2010-03-31T14:19:44Z</time>
      </trkpt>
      <trkpt lat="45.50495" lon="6.6749">
        <ele>1991</ele>
        <time>2010-03-31T14:19:54Z</time>
      </trkpt>
      <trkpt lat="45.50496" lon="6.67493">
        <ele>1990</ele>
        <time>2010-03-31T14:20:00Z</time>
      </trkpt>
      <trkpt lat="45.50498" lon="6.67505">
        <ele>1989</ele>
        <time>2010-03-31T14:20:04Z</time>
      </trkpt>
      <trkpt lat="45.50499" lon="6.67511">
        <ele>1990</ele>
        <time>2010-03-31T14:20:06Z</time>
      </trkpt>
      <trkpt lat="45.50498" lon="6.67519">
        <ele>1991</ele>
        <time>2010-03-31T14:20:09Z</time>
      </trkpt>
      <trkpt lat="45.50496" lon="6.67529">
        <ele>1992</ele>
        <time>2010-03-31T14:20:13Z</time>
      </trkpt>
      <trkpt lat="45.50494" lon="6.67534">
        <ele>1992</ele>
        <time>2010-03-31T14:20:16Z</time>
      </trkpt>
      <trkpt lat="45.50493" lon="6.67537">
        <ele>1993</ele>
        <time>2010-03-31T14:20:19Z</time>
      </trkpt>
      <trkpt lat="45.50488" lon="6.67538">
        <ele>1993</ele>
        <time>2010-03-31T14:20:27Z</time>
      </trkpt>
      <trkpt lat="45.50487" lon="6.67534">
        <ele>1993</ele>
        <time>2010-03-31T14:20:32Z</time>
      </trkpt>
      <trkpt lat="45.50486" lon="6.67527">
        <ele>1993</ele>
        <time>2010-03-31T14:20:38Z</time>
      </trkpt>
      <trkpt lat="45.50485" lon="6.67526">
        <ele>1993</ele>
        <time>2010-03-31T14:20:44Z</time>
      </trkpt>
      <trkpt lat="45.50486" lon="6.67525">
        <ele>1993</ele>
        <time>2010-03-31T14:20:54Z</time>
      </trkpt>
      <trkpt lat="45.50485" lon="6.67523">
        <ele>1992</ele>
        <time>2010-03-31T14:21:02Z</time>
      </trkpt>
      <trkpt lat="45.50484" lon="6.67524">
        <ele>1993</ele>
        <time>2010-03-31T14:21:09Z</time>
      </trkpt>
      <trkpt lat="45.50483" lon="6.67521">
        <ele>1993</ele>
        <time>2010-03-31T14:21:27Z</time>
      </trkpt>
      <trkpt lat="45.50482" lon="6.67521">
        <ele>1993</ele>
        <time>2010-03-31T14:21:43Z</time>
      </trkpt>
      <trkpt lat="45.5048" lon="6.67522">
        <ele>1993</ele>
        <time>2010-03-31T14:21:55Z</time>
      </trkpt>
      <trkpt lat="45.50479" lon="6.67521">
        <ele>1993</ele>
        <time>2010-03-31T14:22:05Z</time>
      </trkpt>
      <trkpt lat="45.5047" lon="6.67518">
        <ele>1994</ele>
        <time>2010-03-31T14:22:09Z</time>
      </trkpt>
      <trkpt lat="45.50458" lon="6.67513">
        <ele>1996</ele>
        <time>2010-03-31T14:22:14Z</time>
      </trkpt>
      <trkpt lat="45.50434" lon="6.67503">
        <ele>2000</ele>
        <time>2010-03-31T14:22:24Z</time>
      </trkpt>
      <trkpt lat="45.50412" lon="6.67493">
        <ele>2010</ele>
        <time>2010-03-31T14:22:33Z</time>
      </trkpt>
      <trkpt lat="45.50382" lon="6.67482">
        <ele>2019</ele>
        <time>2010-03-31T14:22:45Z</time>
      </trkpt>
      <trkpt lat="45.5036" lon="6.67475">
        <ele>2024</ele>
        <time>2010-03-31T14:22:54Z</time>
      </trkpt>
      <trkpt lat="45.50349" lon="6.67477">
        <ele>2026</ele>
        <time>2010-03-31T14:22:59Z</time>
      </trkpt>
      <trkpt lat="45.50323" lon="6.67481">
        <ele>2043</ele>
        <time>2010-03-31T14:23:09Z</time>
      </trkpt>
      <trkpt lat="45.50321" lon="6.67481">
        <ele>2044</ele>
        <time>2010-03-31T14:23:10Z</time>
      </trkpt>
      <trkpt lat="45.50318" lon="6.67463">
        <ele>2044</ele>
        <time>2010-03-31T14:23:14Z</time>
      </trkpt>
      <trkpt lat="45.5032" lon="6.67453">
        <ele>2043</ele>
        <time>2010-03-31T14:23:16Z</time>
      </trkpt>
      <trkpt lat="45.50323" lon="6.67447">
        <ele>2041</ele>
        <time>2010-03-31T14:23:20Z</time>
      </trkpt>
      <trkpt lat="45.50325" lon="6.67445">
        <ele>2041</ele>
        <time>2010-03-31T14:23:25Z</time>
      </trkpt>
      <trkpt lat="45.50342" lon="6.67437">
        <ele>2024</ele>
        <time>2010-03-31T14:23:30Z</time>
      </trkpt>
      <trkpt lat="45.50363" lon="6.67431">
        <ele>2021</ele>
        <time>2010-03-31T14:23:34Z</time>
      </trkpt>
      <trkpt lat="45.50365" lon="6.67432">
        <ele>2021</ele>
        <time>2010-03-31T14:23:37Z</time>
      </trkpt>
      <trkpt lat="45.50368" lon="6.67433">
        <ele>2020</ele>
        <time>2010-03-31T14:23:44Z</time>
      </trkpt>
      <trkpt lat="45.50372" lon="6.67438">
        <ele>2020</ele>
        <time>2010-03-31T14:23:51Z</time>
      </trkpt>
      <trkpt lat="45.50373" lon="6.67438">
        <ele>2019</ele>
        <time>2010-03-31T14:24:19Z</time>
      </trkpt>
      <trkpt lat="45.50372" lon="6.67438">
        <ele>2020</ele>
        <time>2010-03-31T14:24:42Z</time>
      </trkpt>
      <trkpt lat="45.50372" lon="6.67438">
        <ele>2019</ele>
        <time>2010-03-31T14:24:52Z</time>
      </trkpt>
      <trkpt lat="45.50372" lon="6.67439">
        <ele>2020</ele>
        <time>2010-03-31T14:25:37Z</time>
      </trkpt>
      <trkpt lat="45.50372" lon="6.6744">
        <ele>2020</ele>
        <time>2010-03-31T14:25:49Z</time>
      </trkpt>
      <trkpt lat="45.50373" lon="6.67439">
        <ele>2019</ele>
        <time>2010-03-31T14:26:05Z</time>
      </trkpt>
      <trkpt lat="45.50373" lon="6.67439">
        <ele>2019</ele>
        <time>2010-03-31T14:26:15Z</time>
      </trkpt>
      <trkpt lat="45.50374" lon="6.67439">
        <ele>2019</ele>
        <time>2010-03-31T14:26:28Z</time>
      </trkpt>
      <trkpt lat="45.50375" lon="6.67439">
        <ele>2019</ele>
        <time>2010-03-31T14:26:37Z</time>
      </trkpt>
      <trkpt lat="45.50376" lon="6.67439">
        <ele>2019</ele>
        <time>2010-03-31T14:26:45Z</time>
      </trkpt>
      <trkpt lat="45.50374" lon="6.67434">
        <ele>2019</ele>
        <time>2010-03-31T14:27:04Z</time>
      </trkpt>
      <trkpt lat="45.50375" lon="6.67433">
        <ele>2019</ele>
        <time>2010-03-31T14:27:05Z</time>
      </trkpt>
      <trkpt lat="45.50394" lon="6.67428">
        <ele>2015</ele>
        <time>2010-03-31T14:27:09Z</time>
      </trkpt>
      <trkpt lat="45.50402" lon="6.67435">
        <ele>2014</ele>
        <time>2010-03-31T14:27:11Z</time>
      </trkpt>
      <trkpt lat="45.50412" lon="6.67443">
        <ele>2013</ele>
        <time>2010-03-31T14:27:14Z</time>
      </trkpt>
      <trkpt lat="45.50412" lon="6.67446">
        <ele>2014</ele>
        <time>2010-03-31T14:27:17Z</time>
      </trkpt>
      <trkpt lat="45.50412" lon="6.67447">
        <ele>2014</ele>
        <time>2010-03-31T14:27:23Z</time>
      </trkpt>
      <trkpt lat="45.50413" lon="6.67447">
        <ele>2014</ele>
        <time>2010-03-31T14:27:30Z</time>
      </trkpt>
      <trkpt lat="45.50413" lon="6.67448">
        <ele>2014</ele>
        <time>2010-03-31T14:27:43Z</time>
      </trkpt>
      <trkpt lat="45.50413" lon="6.67448">
        <ele>2014</ele>
        <time>2010-03-31T14:27:52Z</time>
      </trkpt>
      <trkpt lat="45.50414" lon="6.6745">
        <ele>2014</ele>
        <time>2010-03-31T14:28:10Z</time>
      </trkpt>
      <trkpt lat="45.50415" lon="6.6745">
        <ele>2014</ele>
        <time>2010-03-31T14:28:19Z</time>
      </trkpt>
      <trkpt lat="45.50414" lon="6.67449">
        <ele>2014</ele>
        <time>2010-03-31T14:28:32Z</time>
      </trkpt>
      <trkpt lat="45.50413" lon="6.67449">
        <ele>2014</ele>
        <time>2010-03-31T14:28:42Z</time>
      </trkpt>
      <trkpt lat="45.50413" lon="6.67449">
        <ele>2014</ele>
        <time>2010-03-31T14:28:48Z</time>
      </trkpt>
      <trkpt lat="45.50414" lon="6.67448">
        <ele>2014</ele>
        <time>2010-03-31T14:28:53Z</time>
      </trkpt>
      <trkpt lat="45.50423" lon="6.67449">
        <ele>2000</ele>
        <time>2010-03-31T14:28:57Z</time>
      </trkpt>
      <trkpt lat="45.50424" lon="6.67451">
        <ele>2000</ele>
        <time>2010-03-31T14:29:03Z</time>
      </trkpt>
      <trkpt lat="45.50423" lon="6.67452">
        <ele>2000</ele>
        <time>2010-03-31T14:29:10Z</time>
      </trkpt>
      <trkpt lat="45.50423" lon="6.67453">
        <ele>2000</ele>
        <time>2010-03-31T14:29:18Z</time>
      </trkpt>
      <trkpt lat="45.50424" lon="6.67453">
        <ele>2000</ele>
        <time>2010-03-31T14:29:45Z</time>
      </trkpt>
      <trkpt lat="45.50424" lon="6.67454">
        <ele>2000</ele>
        <time>2010-03-31T14:30:33Z</time>
      </trkpt>
      <trkpt lat="45.50424" lon="6.67453">
        <ele>2000</ele>
        <time>2010-03-31T14:30:38Z</time>
      </trkpt>
      <trkpt lat="45.50428" lon="6.6745">
        <ele>2000</ele>
        <time>2010-03-31T14:30:43Z</time>
      </trkpt>
      <trkpt lat="45.5044" lon="6.67452">
        <ele>1999</ele>
        <time>2010-03-31T14:30:46Z</time>
      </trkpt>
      <trkpt lat="45.50443" lon="6.67452">
        <ele>1999</ele>
        <time>2010-03-31T14:30:48Z</time>
      </trkpt>
      <trkpt lat="45.50447" lon="6.67453">
        <ele>1998</ele>
        <time>2010-03-31T14:30:51Z</time>
      </trkpt>
      <trkpt lat="45.50453" lon="6.67453">
        <ele>1998</ele>
        <time>2010-03-31T14:30:57Z</time>
      </trkpt>
      <trkpt lat="45.50456" lon="6.67453">
        <ele>1997</ele>
        <time>2010-03-31T14:31:02Z</time>
      </trkpt>
      <trkpt lat="45.50456" lon="6.67455">
        <ele>1997</ele>
        <time>2010-03-31T14:31:10Z</time>
      </trkpt>
      <trkpt lat="45.50457" lon="6.67455">
        <ele>1997</ele>
        <time>2010-03-31T14:31:18Z</time>
      </trkpt>
      <trkpt lat="45.50456" lon="6.67456">
        <ele>1997</ele>
        <time>2010-03-31T14:31:43Z</time>
      </trkpt>
      <trkpt lat="45.50457" lon="6.67456">
        <ele>1997</ele>
        <time>2010-03-31T14:33:04Z</time>
      </trkpt>
      <trkpt lat="45.50456" lon="6.67454">
        <ele>1997</ele>
        <time>2010-03-31T14:33:51Z</time>
      </trkpt>
      <trkpt lat="45.50457" lon="6.67454">
        <ele>1997</ele>
        <time>2010-03-31T14:33:52Z</time>
      </trkpt>
      <trkpt lat="45.50462" lon="6.67442">
        <ele>1997</ele>
        <time>2010-03-31T14:33:56Z</time>
      </trkpt>
      <trkpt lat="45.50464" lon="6.67424">
        <ele>1996</ele>
        <time>2010-03-31T14:33:59Z</time>
      </trkpt>
      <trkpt lat="45.50459" lon="6.67405">
        <ele>1997</ele>
        <time>2010-03-31T14:34:03Z</time>
      </trkpt>
      <trkpt lat="45.50457" lon="6.67394">
        <ele>1998</ele>
        <time>2010-03-31T14:34:09Z</time>
      </trkpt>
      <trkpt lat="45.50456" lon="6.67391">
        <ele>1998</ele>
        <time>2010-03-31T14:34:16Z</time>
      </trkpt>
      <trkpt lat="45.50455" lon="6.67385">
        <ele>1998</ele>
        <time>2010-03-31T14:34:20Z</time>
      </trkpt>
      <trkpt lat="45.50454" lon="6.67383">
        <ele>1998</ele>
        <time>2010-03-31T14:34:27Z</time>
      </trkpt>
      <trkpt lat="45.50452" lon="6.67378">
        <ele>1998</ele>
        <time>2010-03-31T14:34:34Z</time>
      </trkpt>
      <trkpt lat="45.50452" lon="6.67373">
        <ele>1998</ele>
        <time>2010-03-31T14:34:39Z</time>
      </trkpt>
      <trkpt lat="45.5045" lon="6.67363">
        <ele>1998</ele>
        <time>2010-03-31T14:34:43Z</time>
      </trkpt>
      <trkpt lat="45.50449" lon="6.67354">
        <ele>1998</ele>
        <time>2010-03-31T14:34:47Z</time>
      </trkpt>
      <trkpt lat="45.50446" lon="6.67344">
        <ele>1999</ele>
        <time>2010-03-31T14:34:51Z</time>
      </trkpt>
      <trkpt lat="45.50444" lon="6.67334">
        <ele>1999</ele>
        <time>2010-03-31T14:34:55Z</time>
      </trkpt>
      <trkpt lat="45.50441" lon="6.67324">
        <ele>2002</ele>
        <time>2010-03-31T14:34:59Z</time>
      </trkpt>
      <trkpt lat="45.50438" lon="6.67311">
        <ele>2003</ele>
        <time>2010-03-31T14:35:04Z</time>
      </trkpt>
      <trkpt lat="45.50435" lon="6.67296">
        <ele>2004</ele>
        <time>2010-03-31T14:35:10Z</time>
      </trkpt>
      <trkpt lat="45.50431" lon="6.67277">
        <ele>2006</ele>
        <time>2010-03-31T14:35:18Z</time>
      </trkpt>
      <trkpt lat="45.50426" lon="6.67256">
        <ele>2010</ele>
        <time>2010-03-31T14:35:27Z</time>
      </trkpt>
      <trkpt lat="45.5042" lon="6.67227">
        <ele>2017</ele>
        <time>2010-03-31T14:35:40Z</time>
      </trkpt>
      <trkpt lat="45.50415" lon="6.67207">
        <ele>2027</ele>
        <time>2010-03-31T14:35:49Z</time>
      </trkpt>
      <trkpt lat="45.50412" lon="6.67193">
        <ele>2030</ele>
        <time>2010-03-31T14:35:55Z</time>
      </trkpt>
      <trkpt lat="45.50408" lon="6.67173">
        <ele>2033</ele>
        <time>2010-03-31T14:36:03Z</time>
      </trkpt>
      <trkpt lat="45.50403" lon="6.67149">
        <ele>2043</ele>
        <time>2010-03-31T14:36:13Z</time>
      </trkpt>
      <trkpt lat="45.50396" lon="6.67122">
        <ele>2049</ele>
        <time>2010-03-31T14:36:24Z</time>
      </trkpt>
      <trkpt lat="45.50392" lon="6.67099">
        <ele>2052</ele>
        <time>2010-03-31T14:36:33Z</time>
      </trkpt>
      <trkpt lat="45.50386" lon="6.67072">
        <ele>2069</ele>
        <time>2010-03-31T14:36:44Z</time>
      </trkpt>
      <trkpt lat="45.50381" lon="6.67049">
        <ele>2072</ele>
        <time>2010-03-31T14:36:53Z</time>
      </trkpt>
      <trkpt lat="45.50373" lon="6.67012">
        <ele>2077</ele>
        <time>2010-03-31T14:37:08Z</time>
      </trkpt>
      <trkpt lat="45.50368" lon="6.66985">
        <ele>2094</ele>
        <time>2010-03-31T14:37:19Z</time>
      </trkpt>
      <trkpt lat="45.50362" lon="6.66955">
        <ele>2098</ele>
        <time>2010-03-31T14:37:32Z</time>
      </trkpt>
      <trkpt lat="45.50354" lon="6.66917">
        <ele>2105</ele>
        <time>2010-03-31T14:37:48Z</time>
      </trkpt>
      <trkpt lat="45.50346" lon="6.66881">
        <ele>2121</ele>
        <time>2010-03-31T14:38:03Z</time>
      </trkpt>
      <trkpt lat="45.50338" lon="6.66843">
        <ele>2132</ele>
        <time>2010-03-31T14:38:19Z</time>
      </trkpt>
      <trkpt lat="45.50331" lon="6.6681">
        <ele>2143</ele>
        <time>2010-03-31T14:38:33Z</time>
      </trkpt>
      <trkpt lat="45.50319" lon="6.66754">
        <ele>2151</ele>
        <time>2010-03-31T14:38:56Z</time>
      </trkpt>
      <trkpt lat="45.5031" lon="6.66717">
        <ele>2161</ele>
        <time>2010-03-31T14:39:11Z</time>
      </trkpt>
      <trkpt lat="45.50303" lon="6.66684">
        <ele>2163</ele>
        <time>2010-03-31T14:39:24Z</time>
      </trkpt>
      <trkpt lat="45.50292" lon="6.66637">
        <ele>2177</ele>
        <time>2010-03-31T14:39:43Z</time>
      </trkpt>
      <trkpt lat="45.50284" lon="6.66598">
        <ele>2182</ele>
        <time>2010-03-31T14:39:59Z</time>
      </trkpt>
      <trkpt lat="45.50277" lon="6.66564">
        <ele>2199</ele>
        <time>2010-03-31T14:40:13Z</time>
      </trkpt>
      <trkpt lat="45.50268" lon="6.66521">
        <ele>2208</ele>
        <time>2010-03-31T14:40:31Z</time>
      </trkpt>
      <trkpt lat="45.50261" lon="6.66492">
        <ele>2222</ele>
        <time>2010-03-31T14:40:43Z</time>
      </trkpt>
      <trkpt lat="45.50254" lon="6.6646">
        <ele>2226</ele>
        <time>2010-03-31T14:40:56Z</time>
      </trkpt>
      <trkpt lat="45.50245" lon="6.66418">
        <ele>2239</ele>
        <time>2010-03-31T14:41:14Z</time>
      </trkpt>
      <trkpt lat="45.50235" lon="6.66372">
        <ele>2256</ele>
        <time>2010-03-31T14:41:34Z</time>
      </trkpt>
      <trkpt lat="45.50226" lon="6.66331">
        <ele>2276</ele>
        <time>2010-03-31T14:41:51Z</time>
      </trkpt>
      <trkpt lat="45.50217" lon="6.66292">
        <ele>2282</ele>
        <time>2010-03-31T14:42:08Z</time>
      </trkpt>
      <trkpt lat="45.50208" lon="6.66251">
        <ele>2288</ele>
        <time>2010-03-31T14:42:26Z</time>
      </trkpt>
      <trkpt lat="45.502" lon="6.66211">
        <ele>2310</ele>
        <time>2010-03-31T14:42:44Z</time>
      </trkpt>
      <trkpt lat="45.50194" lon="6.66186">
        <ele>2316</ele>
        <time>2010-03-31T14:42:55Z</time>
      </trkpt>
      <trkpt lat="45.5019" lon="6.66165">
        <ele>2326</ele>
        <time>2010-03-31T14:43:03Z</time>
      </trkpt>
      <trkpt lat="45.50187" lon="6.66154">
        <ele>2326</ele>
        <time>2010-03-31T14:43:07Z</time>
      </trkpt>
      <trkpt lat="45.50194" lon="6.66134">
        <ele>2324</ele>
        <time>2010-03-31T14:43:11Z</time>
      </trkpt>
      <trkpt lat="45.50211" lon="6.66129">
        <ele>2323</ele>
        <time>2010-03-31T14:43:15Z</time>
      </trkpt>
      <trkpt lat="45.50215" lon="6.66129">
        <ele>2322</ele>
        <time>2010-03-31T14:43:16Z</time>
      </trkpt>
      <trkpt lat="45.50243" lon="6.66128">
        <ele>2321</ele>
        <time>2010-03-31T14:43:23Z</time>
      </trkpt>
      <trkpt lat="45.5027" lon="6.66117">
        <ele>2313</ele>
        <time>2010-03-31T14:43:29Z</time>
      </trkpt>
      <trkpt lat="45.50279" lon="6.66113">
        <ele>2313</ele>
        <time>2010-03-31T14:43:32Z</time>
      </trkpt>
      <trkpt lat="45.50301" lon="6.66104">
        <ele>2312</ele>
        <time>2010-03-31T14:43:37Z</time>
      </trkpt>
      <trkpt lat="45.50314" lon="6.661">
        <ele>2311</ele>
        <time>2010-03-31T14:43:39Z</time>
      </trkpt>
      <trkpt lat="45.50345" lon="6.66099">
        <ele>2309</ele>
        <time>2010-03-31T14:43:43Z</time>
      </trkpt>
      <trkpt lat="45.50392" lon="6.66095">
        <ele>2309</ele>
        <time>2010-03-31T14:43:48Z</time>
      </trkpt>
      <trkpt lat="45.5042" lon="6.66085">
        <ele>2310</ele>
        <time>2010-03-31T14:43:52Z</time>
      </trkpt>
      <trkpt lat="45.50444" lon="6.66082">
        <ele>2300</ele>
        <time>2010-03-31T14:43:57Z</time>
      </trkpt>
      <trkpt lat="45.50451" lon="6.66081">
        <ele>2298</ele>
        <time>2010-03-31T14:43:59Z</time>
      </trkpt>
      <trkpt lat="45.50471" lon="6.6608">
        <ele>2298</ele>
        <time>2010-03-31T14:44:05Z</time>
      </trkpt>
      <trkpt lat="45.50483" lon="6.66077">
        <ele>2299</ele>
        <time>2010-03-31T14:44:09Z</time>
      </trkpt>
      <trkpt lat="45.50493" lon="6.66074">
        <ele>2300</ele>
        <time>2010-03-31T14:44:12Z</time>
      </trkpt>
      <trkpt lat="45.50498" lon="6.66073">
        <ele>2300</ele>
        <time>2010-03-31T14:44:13Z</time>
      </trkpt>
      <trkpt lat="45.50505" lon="6.66076">
        <ele>2298</ele>
        <time>2010-03-31T14:44:16Z</time>
      </trkpt>
      <trkpt lat="45.50505" lon="6.66076">
        <ele>2298</ele>
        <time>2010-03-31T14:44:24Z</time>
      </trkpt>
      <trkpt lat="45.50507" lon="6.66077">
        <ele>2298</ele>
        <time>2010-03-31T14:44:31Z</time>
      </trkpt>
      <trkpt lat="45.50516" lon="6.66081">
        <ele>2294</ele>
        <time>2010-03-31T14:44:34Z</time>
      </trkpt>
      <trkpt lat="45.50536" lon="6.66088">
        <ele>2296</ele>
        <time>2010-03-31T14:44:37Z</time>
      </trkpt>
      <trkpt lat="45.50575" lon="6.661">
        <ele>2291</ele>
        <time>2010-03-31T14:44:41Z</time>
      </trkpt>
      <trkpt lat="45.50596" lon="6.66107">
        <ele>2282</ele>
        <time>2010-03-31T14:44:43Z</time>
      </trkpt>
      <trkpt lat="45.50623" lon="6.66128">
        <ele>2278</ele>
        <time>2010-03-31T14:44:46Z</time>
      </trkpt>
      <trkpt lat="45.50647" lon="6.66138">
        <ele>2277</ele>
        <time>2010-03-31T14:44:49Z</time>
      </trkpt>
      <trkpt lat="45.50659" lon="6.66146">
        <ele>2276</ele>
        <time>2010-03-31T14:44:52Z</time>
      </trkpt>
      <trkpt lat="45.50659" lon="6.66153">
        <ele>2276</ele>
        <time>2010-03-31T14:44:56Z</time>
      </trkpt>
      <trkpt lat="45.50667" lon="6.66155">
        <ele>2275</ele>
        <time>2010-03-31T14:44:59Z</time>
      </trkpt>
      <trkpt lat="45.50675" lon="6.66164">
        <ele>2269</ele>
        <time>2010-03-31T14:45:01Z</time>
      </trkpt>
      <trkpt lat="45.50678" lon="6.66188">
        <ele>2259</ele>
        <time>2010-03-31T14:45:04Z</time>
      </trkpt>
      <trkpt lat="45.50685" lon="6.66199">
        <ele>2256</ele>
        <time>2010-03-31T14:45:06Z</time>
      </trkpt>
      <trkpt lat="45.50692" lon="6.66203">
        <ele>2254</ele>
        <time>2010-03-31T14:45:08Z</time>
      </trkpt>
      <trkpt lat="45.50703" lon="6.66207">
        <ele>2252</ele>
        <time>2010-03-31T14:45:12Z</time>
      </trkpt>
      <trkpt lat="45.50706" lon="6.66224">
        <ele>2250</ele>
        <time>2010-03-31T14:45:15Z</time>
      </trkpt>
      <trkpt lat="45.50695" lon="6.66248">
        <ele>2249</ele>
        <time>2010-03-31T14:45:19Z</time>
      </trkpt>
      <trkpt lat="45.50692" lon="6.66265">
        <ele>2238</ele>
        <time>2010-03-31T14:45:21Z</time>
      </trkpt>
      <trkpt lat="45.50698" lon="6.66278">
        <ele>2235</ele>
        <time>2010-03-31T14:45:23Z</time>
      </trkpt>
      <trkpt lat="45.50713" lon="6.66292">
        <ele>2233</ele>
        <time>2010-03-31T14:45:26Z</time>
      </trkpt>
      <trkpt lat="45.50715" lon="6.66302">
        <ele>2232</ele>
        <time>2010-03-31T14:45:27Z</time>
      </trkpt>
      <trkpt lat="45.50735" lon="6.66353">
        <ele>2218</ele>
        <time>2010-03-31T14:45:32Z</time>
      </trkpt>
      <trkpt lat="45.50748" lon="6.66363">
        <ele>2217</ele>
        <time>2010-03-31T14:45:34Z</time>
      </trkpt>
      <trkpt lat="45.5076" lon="6.66378">
        <ele>2203</ele>
        <time>2010-03-31T14:45:37Z</time>
      </trkpt>
      <trkpt lat="45.50762" lon="6.66376">
        <ele>2203</ele>
        <time>2010-03-31T14:45:40Z</time>
      </trkpt>
      <trkpt lat="45.50762" lon="6.66375">
        <ele>2203</ele>
        <time>2010-03-31T14:45:47Z</time>
      </trkpt>
      <trkpt lat="45.50761" lon="6.66375">
        <ele>2203</ele>
        <time>2010-03-31T14:45:58Z</time>
      </trkpt>
      <trkpt lat="45.50763" lon="6.66379">
        <ele>2202</ele>
        <time>2010-03-31T14:46:08Z</time>
      </trkpt>
      <trkpt lat="45.50771" lon="6.66388">
        <ele>2201</ele>
        <time>2010-03-31T14:46:11Z</time>
      </trkpt>
      <trkpt lat="45.50783" lon="6.66402">
        <ele>2199</ele>
        <time>2010-03-31T14:46:14Z</time>
      </trkpt>
      <trkpt lat="45.50788" lon="6.66389">
        <ele>2198</ele>
        <time>2010-03-31T14:46:16Z</time>
      </trkpt>
      <trkpt lat="45.50794" lon="6.66357">
        <ele>2197</ele>
        <time>2010-03-31T14:46:21Z</time>
      </trkpt>
      <trkpt lat="45.50804" lon="6.66352">
        <ele>2195</ele>
        <time>2010-03-31T14:46:24Z</time>
      </trkpt>
      <trkpt lat="45.50809" lon="6.66366">
        <ele>2194</ele>
        <time>2010-03-31T14:46:26Z</time>
      </trkpt>
      <trkpt lat="45.5082" lon="6.66408">
        <ele>2188</ele>
        <time>2010-03-31T14:46:32Z</time>
      </trkpt>
      <trkpt lat="45.50828" lon="6.66406">
        <ele>2187</ele>
        <time>2010-03-31T14:46:35Z</time>
      </trkpt>
      <trkpt lat="45.50832" lon="6.66381">
        <ele>2191</ele>
        <time>2010-03-31T14:46:38Z</time>
      </trkpt>
      <trkpt lat="45.50835" lon="6.66366">
        <ele>2168</ele>
        <time>2010-03-31T14:46:40Z</time>
      </trkpt>
      <trkpt lat="45.50847" lon="6.66367">
        <ele>2166</ele>
        <time>2010-03-31T14:46:43Z</time>
      </trkpt>
      <trkpt lat="45.50851" lon="6.66381">
        <ele>2166</ele>
        <time>2010-03-31T14:46:45Z</time>
      </trkpt>
      <trkpt lat="45.50859" lon="6.66398">
        <ele>2165</ele>
        <time>2010-03-31T14:46:49Z</time>
      </trkpt>
      <trkpt lat="45.50867" lon="6.66378">
        <ele>2162</ele>
        <time>2010-03-31T14:46:52Z</time>
      </trkpt>
      <trkpt lat="45.50872" lon="6.66358">
        <ele>2161</ele>
        <time>2010-03-31T14:46:55Z</time>
      </trkpt>
      <trkpt lat="45.50885" lon="6.66357">
        <ele>2157</ele>
        <time>2010-03-31T14:46:58Z</time>
      </trkpt>
      <trkpt lat="45.50901" lon="6.66382">
        <ele>2155</ele>
        <time>2010-03-31T14:47:02Z</time>
      </trkpt>
      <trkpt lat="45.50906" lon="6.66395">
        <ele>2153</ele>
        <time>2010-03-31T14:47:04Z</time>
      </trkpt>
      <trkpt lat="45.5091" lon="6.66413">
        <ele>2148</ele>
        <time>2010-03-31T14:47:07Z</time>
      </trkpt>
      <trkpt lat="45.50918" lon="6.66423">
        <ele>2140</ele>
        <time>2010-03-31T14:47:11Z</time>
      </trkpt>
      <trkpt lat="45.50923" lon="6.66406">
        <ele>2138</ele>
        <time>2010-03-31T14:47:14Z</time>
      </trkpt>
      <trkpt lat="45.50924" lon="6.664">
        <ele>2137</ele>
        <time>2010-03-31T14:47:15Z</time>
      </trkpt>
      <trkpt lat="45.50928" lon="6.66388">
        <ele>2135</ele>
        <time>2010-03-31T14:47:17Z</time>
      </trkpt>
      <trkpt lat="45.50941" lon="6.66375">
        <ele>2132</ele>
        <time>2010-03-31T14:47:20Z</time>
      </trkpt>
      <trkpt lat="45.50957" lon="6.66384">
        <ele>2131</ele>
        <time>2010-03-31T14:47:22Z</time>
      </trkpt>
      <trkpt lat="45.50983" lon="6.66382">
        <ele>2128</ele>
        <time>2010-03-31T14:47:25Z</time>
      </trkpt>
      <trkpt lat="45.51007" lon="6.66367">
        <ele>2117</ele>
        <time>2010-03-31T14:47:28Z</time>
      </trkpt>
      <trkpt lat="45.51032" lon="6.66363">
        <ele>2115</ele>
        <time>2010-03-31T14:47:32Z</time>
      </trkpt>
      <trkpt lat="45.51036" lon="6.66366">
        <ele>2115</ele>
        <time>2010-03-31T14:47:33Z</time>
      </trkpt>
      <trkpt lat="45.51042" lon="6.66372">
        <ele>2115</ele>
        <time>2010-03-31T14:47:35Z</time>
      </trkpt>
      <trkpt lat="45.51045" lon="6.66374">
        <ele>2115</ele>
        <time>2010-03-31T14:47:40Z</time>
      </trkpt>
      <trkpt lat="45.51046" lon="6.66382">
        <ele>2115</ele>
        <time>2010-03-31T14:47:47Z</time>
      </trkpt>
      <trkpt lat="45.51047" lon="6.66391">
        <ele>2116</ele>
        <time>2010-03-31T14:47:52Z</time>
      </trkpt>
      <trkpt lat="45.51049" lon="6.66403">
        <ele>2116</ele>
        <time>2010-03-31T14:47:59Z</time>
      </trkpt>
      <trkpt lat="45.51049" lon="6.66405">
        <ele>2116</ele>
        <time>2010-03-31T14:48:00Z</time>
      </trkpt>
      <trkpt lat="45.51052" lon="6.66416">
        <ele>2116</ele>
        <time>2010-03-31T14:48:09Z</time>
      </trkpt>
      <trkpt lat="45.51055" lon="6.66423">
        <ele>2117</ele>
        <time>2010-03-31T14:48:12Z</time>
      </trkpt>
      <trkpt lat="45.51057" lon="6.66425">
        <ele>2117</ele>
        <time>2010-03-31T14:48:14Z</time>
      </trkpt>
      <trkpt lat="45.51058" lon="6.66427">
        <ele>2116</ele>
        <time>2010-03-31T14:48:18Z</time>
      </trkpt>
      <trkpt lat="45.51066" lon="6.66433">
        <ele>2116</ele>
        <time>2010-03-31T14:48:23Z</time>
      </trkpt>
      <trkpt lat="45.51082" lon="6.66444">
        <ele>2116</ele>
        <time>2010-03-31T14:48:27Z</time>
      </trkpt>
      <trkpt lat="45.511" lon="6.66459">
        <ele>2106</ele>
        <time>2010-03-31T14:48:31Z</time>
      </trkpt>
      <trkpt lat="45.51124" lon="6.66466">
        <ele>2103</ele>
        <time>2010-03-31T14:48:35Z</time>
      </trkpt>
      <trkpt lat="45.51148" lon="6.66471">
        <ele>2101</ele>
        <time>2010-03-31T14:48:40Z</time>
      </trkpt>
      <trkpt lat="45.51152" lon="6.66469">
        <ele>2100</ele>
        <time>2010-03-31T14:48:41Z</time>
      </trkpt>
      <trkpt lat="45.51171" lon="6.66472">
        <ele>2089</ele>
        <time>2010-03-31T14:48:45Z</time>
      </trkpt>
      <trkpt lat="45.51183" lon="6.66492">
        <ele>2089</ele>
        <time>2010-03-31T14:48:48Z</time>
      </trkpt>
      <trkpt lat="45.51193" lon="6.66491">
        <ele>2087</ele>
        <time>2010-03-31T14:48:51Z</time>
      </trkpt>
      <trkpt lat="45.51196" lon="6.66493">
        <ele>2087</ele>
        <time>2010-03-31T14:48:52Z</time>
      </trkpt>
      <trkpt lat="45.51217" lon="6.66518">
        <ele>2081</ele>
        <time>2010-03-31T14:48:57Z</time>
      </trkpt>
      <trkpt lat="45.51222" lon="6.66518">
        <ele>2080</ele>
        <time>2010-03-31T14:48:58Z</time>
      </trkpt>
      <trkpt lat="45.51245" lon="6.66515">
        <ele>2079</ele>
        <time>2010-03-31T14:49:02Z</time>
      </trkpt>
      <trkpt lat="45.51273" lon="6.66531">
        <ele>2066</ele>
        <time>2010-03-31T14:49:06Z</time>
      </trkpt>
      <trkpt lat="45.51278" lon="6.66557">
        <ele>2064</ele>
        <time>2010-03-31T14:49:08Z</time>
      </trkpt>
      <trkpt lat="45.51301" lon="6.66598">
        <ele>2052</ele>
        <time>2010-03-31T14:49:12Z</time>
      </trkpt>
      <trkpt lat="45.51337" lon="6.66613">
        <ele>2040</ele>
        <time>2010-03-31T14:49:15Z</time>
      </trkpt>
      <trkpt lat="45.51347" lon="6.66639">
        <ele>2037</ele>
        <time>2010-03-31T14:49:17Z</time>
      </trkpt>
      <trkpt lat="45.51354" lon="6.66666">
        <ele>2036</ele>
        <time>2010-03-31T14:49:19Z</time>
      </trkpt>
      <trkpt lat="45.51374" lon="6.66694">
        <ele>2027</ele>
        <time>2010-03-31T14:49:22Z</time>
      </trkpt>
      <trkpt lat="45.51392" lon="6.66699">
        <ele>2026</ele>
        <time>2010-03-31T14:49:24Z</time>
      </trkpt>
      <trkpt lat="45.51419" lon="6.66725">
        <ele>2012</ele>
        <time>2010-03-31T14:49:28Z</time>
      </trkpt>
      <trkpt lat="45.5143" lon="6.66741">
        <ele>2013</ele>
        <time>2010-03-31T14:49:30Z</time>
      </trkpt>
      <trkpt lat="45.51455" lon="6.66759">
        <ele>2004</ele>
        <time>2010-03-31T14:49:34Z</time>
      </trkpt>
      <trkpt lat="45.51471" lon="6.66777">
        <ele>2001</ele>
        <time>2010-03-31T14:49:37Z</time>
      </trkpt>
      <trkpt lat="45.51476" lon="6.66801">
        <ele>2000</ele>
        <time>2010-03-31T14:49:40Z</time>
      </trkpt>
      <trkpt lat="45.51482" lon="6.66806">
        <ele>2000</ele>
        <time>2010-03-31T14:49:42Z</time>
      </trkpt>
      <trkpt lat="45.51482" lon="6.66807">
        <ele>1999</ele>
        <time>2010-03-31T14:49:46Z</time>
      </trkpt>
      <trkpt lat="45.51482" lon="6.66806">
        <ele>1999</ele>
        <time>2010-03-31T14:49:50Z</time>
      </trkpt>
      <trkpt lat="45.51494" lon="6.66813">
        <ele>1998</ele>
        <time>2010-03-31T14:49:54Z</time>
      </trkpt>
      <trkpt lat="45.5151" lon="6.66832">
        <ele>1988</ele>
        <time>2010-03-31T14:49:57Z</time>
      </trkpt>
      <trkpt lat="45.5153" lon="6.66837">
        <ele>1981</ele>
        <time>2010-03-31T14:50:00Z</time>
      </trkpt>
      <trkpt lat="45.51549" lon="6.66841">
        <ele>1977</ele>
        <time>2010-03-31T14:50:03Z</time>
      </trkpt>
      <trkpt lat="45.51564" lon="6.6683">
        <ele>1975</ele>
        <time>2010-03-31T14:50:05Z</time>
      </trkpt>
      <trkpt lat="45.51573" lon="6.66801">
        <ele>1975</ele>
        <time>2010-03-31T14:50:08Z</time>
      </trkpt>
      <trkpt lat="45.51579" lon="6.66772">
        <ele>1971</ele>
        <time>2010-03-31T14:50:11Z</time>
      </trkpt>
      <trkpt lat="45.51594" lon="6.66773">
        <ele>1955</ele>
        <time>2010-03-31T14:50:13Z</time>
      </trkpt>
      <trkpt lat="45.5161" lon="6.66752">
        <ele>1953</ele>
        <time>2010-03-31T14:50:17Z</time>
      </trkpt>
      <trkpt lat="45.51608" lon="6.66742">
        <ele>1949</ele>
        <time>2010-03-31T14:50:18Z</time>
      </trkpt>
      <trkpt lat="45.51615" lon="6.66704">
        <ele>1944</ele>
        <time>2010-03-31T14:50:22Z</time>
      </trkpt>
      <trkpt lat="45.51624" lon="6.66698">
        <ele>1942</ele>
        <time>2010-03-31T14:50:23Z</time>
      </trkpt>
      <trkpt lat="45.51639" lon="6.66662">
        <ele>1931</ele>
        <time>2010-03-31T14:50:26Z</time>
      </trkpt>
      <trkpt lat="45.51641" lon="6.66613">
        <ele>1929</ele>
        <time>2010-03-31T14:50:30Z</time>
      </trkpt>
      <trkpt lat="45.51648" lon="6.66592">
        <ele>1924</ele>
        <time>2010-03-31T14:50:33Z</time>
      </trkpt>
      <trkpt lat="45.51648" lon="6.66592">
        <ele>1924</ele>
        <time>2010-03-31T14:50:36Z</time>
      </trkpt>
      <trkpt lat="45.51646" lon="6.66591">
        <ele>1925</ele>
        <time>2010-03-31T14:50:46Z</time>
      </trkpt>
      <trkpt lat="45.51647" lon="6.6659">
        <ele>1925</ele>
        <time>2010-03-31T14:50:52Z</time>
      </trkpt>
      <trkpt lat="45.51648" lon="6.6659">
        <ele>1924</ele>
        <time>2010-03-31T14:51:01Z</time>
      </trkpt>
      <trkpt lat="45.5165" lon="6.66591">
        <ele>1923</ele>
        <time>2010-03-31T14:51:21Z</time>
      </trkpt>
      <trkpt lat="45.51651" lon="6.6659">
        <ele>1923</ele>
        <time>2010-03-31T14:51:47Z</time>
      </trkpt>
      <trkpt lat="45.5165" lon="6.66588">
        <ele>1923</ele>
        <time>2010-03-31T14:51:49Z</time>
      </trkpt>
      <trkpt lat="45.51647" lon="6.66568">
        <ele>1922</ele>
        <time>2010-03-31T14:51:54Z</time>
      </trkpt>
      <trkpt lat="45.51646" lon="6.66562">
        <ele>1923</ele>
        <time>2010-03-31T14:51:55Z</time>
      </trkpt>
      <trkpt lat="45.51649" lon="6.66548">
        <ele>1923</ele>
        <time>2010-03-31T14:51:57Z</time>
      </trkpt>
      <trkpt lat="45.51647" lon="6.66517">
        <ele>1920</ele>
        <time>2010-03-31T14:52:01Z</time>
      </trkpt>
      <trkpt lat="45.51648" lon="6.66487">
        <ele>1914</ele>
        <time>2010-03-31T14:52:04Z</time>
      </trkpt>
      <trkpt lat="45.51645" lon="6.66452">
        <ele>1914</ele>
        <time>2010-03-31T14:52:07Z</time>
      </trkpt>
      <trkpt lat="45.51645" lon="6.6644">
        <ele>1912</ele>
        <time>2010-03-31T14:52:08Z</time>
      </trkpt>
      <trkpt lat="45.51643" lon="6.66356">
        <ele>1898</ele>
        <time>2010-03-31T14:52:15Z</time>
      </trkpt>
      <trkpt lat="45.51634" lon="6.66295">
        <ele>1885</ele>
        <time>2010-03-31T14:52:20Z</time>
      </trkpt>
      <trkpt lat="45.51626" lon="6.66272">
        <ele>1883</ele>
        <time>2010-03-31T14:52:22Z</time>
      </trkpt>
      <trkpt lat="45.51609" lon="6.66228">
        <ele>1870</ele>
        <time>2010-03-31T14:52:26Z</time>
      </trkpt>
      <trkpt lat="45.51581" lon="6.6618">
        <ele>1877</ele>
        <time>2010-03-31T14:52:31Z</time>
      </trkpt>
      <trkpt lat="45.51555" lon="6.6613">
        <ele>1868</ele>
        <time>2010-03-31T14:52:37Z</time>
      </trkpt>
      <trkpt lat="45.51542" lon="6.66111">
        <ele>1867</ele>
        <time>2010-03-31T14:52:40Z</time>
      </trkpt>
      <trkpt lat="45.51536" lon="6.66098">
        <ele>1867</ele>
        <time>2010-03-31T14:52:42Z</time>
      </trkpt>
      <trkpt lat="45.51507" lon="6.66063">
        <ele>1858</ele>
        <time>2010-03-31T14:52:48Z</time>
      </trkpt>
      <trkpt lat="45.51501" lon="6.66035">
        <ele>1855</ele>
        <time>2010-03-31T14:52:51Z</time>
      </trkpt>
      <trkpt lat="45.51512" lon="6.66019">
        <ele>1853</ele>
        <time>2010-03-31T14:52:53Z</time>
      </trkpt>
      <trkpt lat="45.51535" lon="6.66007">
        <ele>1850</ele>
        <time>2010-03-31T14:52:56Z</time>
      </trkpt>
      <trkpt lat="45.51568" lon="6.65987">
        <ele>1837</ele>
        <time>2010-03-31T14:53:00Z</time>
      </trkpt>
      <trkpt lat="45.5159" lon="6.65968">
        <ele>1823</ele>
        <time>2010-03-31T14:53:03Z</time>
      </trkpt>
      <trkpt lat="45.51599" lon="6.6597">
        <ele>1822</ele>
        <time>2010-03-31T14:53:04Z</time>
      </trkpt>
      <trkpt lat="45.51628" lon="6.65955">
        <ele>1818</ele>
        <time>2010-03-31T14:53:08Z</time>
      </trkpt>
      <trkpt lat="45.51655" lon="6.65953">
        <ele>1815</ele>
        <time>2010-03-31T14:53:11Z</time>
      </trkpt>
      <trkpt lat="45.5167" lon="6.65966">
        <ele>1807</ele>
        <time>2010-03-31T14:53:13Z</time>
      </trkpt>
      <trkpt lat="45.5171" lon="6.65999">
        <ele>1804</ele>
        <time>2010-03-31T14:53:18Z</time>
      </trkpt>
      <trkpt lat="45.51732" lon="6.66003">
        <ele>1799</ele>
        <time>2010-03-31T14:53:22Z</time>
      </trkpt>
      <trkpt lat="45.51735" lon="6.66">
        <ele>1798</ele>
        <time>2010-03-31T14:53:26Z</time>
      </trkpt>
      <trkpt lat="45.51737" lon="6.65997">
        <ele>1800</ele>
        <time>2010-03-31T14:53:31Z</time>
      </trkpt>
      <trkpt lat="45.51743" lon="6.65993">
        <ele>1799</ele>
        <time>2010-03-31T14:53:37Z</time>
      </trkpt>
      <trkpt lat="45.51744" lon="6.6599">
        <ele>1799</ele>
        <time>2010-03-31T14:53:48Z</time>
      </trkpt>
      <trkpt lat="45.51745" lon="6.65989">
        <ele>1799</ele>
        <time>2010-03-31T14:53:50Z</time>
      </trkpt>
      <trkpt lat="45.51746" lon="6.65982">
        <ele>1801</ele>
        <time>2010-03-31T14:54:01Z</time>
      </trkpt>
      <trkpt lat="45.51744" lon="6.65971">
        <ele>1803</ele>
        <time>2010-03-31T14:54:09Z</time>
      </trkpt>
      <trkpt lat="45.51745" lon="6.65964">
        <ele>1804</ele>
        <time>2010-03-31T14:54:13Z</time>
      </trkpt>
      <trkpt lat="45.51743" lon="6.65951">
        <ele>1806</ele>
        <time>2010-03-31T14:54:17Z</time>
      </trkpt>
      <trkpt lat="45.51743" lon="6.65942">
        <ele>1807</ele>
        <time>2010-03-31T14:54:21Z</time>
      </trkpt>
      <trkpt lat="45.51743" lon="6.65931">
        <ele>1808</ele>
        <time>2010-03-31T14:54:26Z</time>
      </trkpt>
      <trkpt lat="45.51743" lon="6.65919">
        <ele>1810</ele>
        <time>2010-03-31T14:54:32Z</time>
      </trkpt>
      <trkpt lat="45.51742" lon="6.65905">
        <ele>1814</ele>
        <time>2010-03-31T14:54:38Z</time>
      </trkpt>
      <trkpt lat="45.51742" lon="6.65891">
        <ele>1817</ele>
        <time>2010-03-31T14:54:44Z</time>
      </trkpt>
      <trkpt lat="45.51741" lon="6.65869">
        <ele>1821</ele>
        <time>2010-03-31T14:54:54Z</time>
      </trkpt>
      <trkpt lat="45.51741" lon="6.65851">
        <ele>1825</ele>
        <time>2010-03-31T14:55:02Z</time>
      </trkpt>
      <trkpt lat="45.5174" lon="6.65833">
        <ele>1835</ele>
        <time>2010-03-31T14:55:10Z</time>
      </trkpt>
      <trkpt lat="45.51739" lon="6.65817">
        <ele>1837</ele>
        <time>2010-03-31T14:55:17Z</time>
      </trkpt>
      <trkpt lat="45.51738" lon="6.65798">
        <ele>1840</ele>
        <time>2010-03-31T14:55:25Z</time>
      </trkpt>
      <trkpt lat="45.51738" lon="6.65777">
        <ele>1845</ele>
        <time>2010-03-31T14:55:34Z</time>
      </trkpt>
      <trkpt lat="45.51737" lon="6.65759">
        <ele>1851</ele>
        <time>2010-03-31T14:55:42Z</time>
      </trkpt>
      <trkpt lat="45.51736" lon="6.65744">
        <ele>1863</ele>
        <time>2010-03-31T14:55:49Z</time>
      </trkpt>
      <trkpt lat="45.51735" lon="6.65707">
        <ele>1867</ele>
        <time>2010-03-31T14:56:06Z</time>
      </trkpt>
      <trkpt lat="45.51734" lon="6.65687">
        <ele>1872</ele>
        <time>2010-03-31T14:56:15Z</time>
      </trkpt>
      <trkpt lat="45.51732" lon="6.65653">
        <ele>1889</ele>
        <time>2010-03-31T14:56:30Z</time>
      </trkpt>
      <trkpt lat="45.51731" lon="6.65622">
        <ele>1895</ele>
        <time>2010-03-31T14:56:44Z</time>
      </trkpt>
      <trkpt lat="45.5173" lon="6.65587">
        <ele>1903</ele>
        <time>2010-03-31T14:57:00Z</time>
      </trkpt>
      <trkpt lat="45.51729" lon="6.65566">
        <ele>1917</ele>
        <time>2010-03-31T14:57:09Z</time>
      </trkpt>
      <trkpt lat="45.51728" lon="6.65532">
        <ele>1922</ele>
        <time>2010-03-31T14:57:24Z</time>
      </trkpt>
      <trkpt lat="45.51726" lon="6.65497">
        <ele>1937</ele>
        <time>2010-03-31T14:57:39Z</time>
      </trkpt>
      <trkpt lat="45.51726" lon="6.65477">
        <ele>1937</ele>
        <time>2010-03-31T14:57:47Z</time>
      </trkpt>
      <trkpt lat="45.51725" lon="6.65426">
        <ele>1941</ele>
        <time>2010-03-31T14:58:08Z</time>
      </trkpt>
      <trkpt lat="45.51723" lon="6.65372">
        <ele>1946</ele>
        <time>2010-03-31T14:58:31Z</time>
      </trkpt>
      <trkpt lat="45.51721" lon="6.65345">
        <ele>1947</ele>
        <time>2010-03-31T14:58:42Z</time>
      </trkpt>
      <trkpt lat="45.51721" lon="6.65313">
        <ele>1951</ele>
        <time>2010-03-31T14:58:55Z</time>
      </trkpt>
      <trkpt lat="45.5172" lon="6.65287">
        <ele>1952</ele>
        <time>2010-03-31T14:59:06Z</time>
      </trkpt>
      <trkpt lat="45.5172" lon="6.65266">
        <ele>1953</ele>
        <time>2010-03-31T14:59:15Z</time>
      </trkpt>
      <trkpt lat="45.51718" lon="6.65225">
        <ele>1959</ele>
        <time>2010-03-31T14:59:32Z</time>
      </trkpt>
      <trkpt lat="45.51715" lon="6.65162">
        <ele>1964</ele>
        <time>2010-03-31T14:59:58Z</time>
      </trkpt>
      <trkpt lat="45.51713" lon="6.65128">
        <ele>1965</ele>
        <time>2010-03-31T15:00:12Z</time>
      </trkpt>
      <trkpt lat="45.51713" lon="6.65102">
        <ele>1965</ele>
        <time>2010-03-31T15:00:21Z</time>
      </trkpt>
      <trkpt lat="45.51711" lon="6.65073">
        <ele>1966</ele>
        <time>2010-03-31T15:00:26Z</time>
      </trkpt>
      <trkpt lat="45.51711" lon="6.65068">
        <ele>1966</ele>
        <time>2010-03-31T15:00:27Z</time>
      </trkpt>
      <trkpt lat="45.51721" lon="6.65046">
        <ele>1966</ele>
        <time>2010-03-31T15:00:31Z</time>
      </trkpt>
      <trkpt lat="45.51724" lon="6.65037">
        <ele>1965</ele>
        <time>2010-03-31T15:00:32Z</time>
      </trkpt>
      <trkpt lat="45.51737" lon="6.64987">
        <ele>1961</ele>
        <time>2010-03-31T15:00:36Z</time>
      </trkpt>
      <trkpt lat="45.51757" lon="6.64912">
        <ele>1954</ele>
        <time>2010-03-31T15:00:41Z</time>
      </trkpt>
      <trkpt lat="45.51765" lon="6.64882">
        <ele>1953</ele>
        <time>2010-03-31T15:00:44Z</time>
      </trkpt>
      <trkpt lat="45.51773" lon="6.64846">
        <ele>1953</ele>
        <time>2010-03-31T15:00:49Z</time>
      </trkpt>
      <trkpt lat="45.5178" lon="6.64822">
        <ele>1951</ele>
        <time>2010-03-31T15:00:52Z</time>
      </trkpt>
      <trkpt lat="45.51799" lon="6.6478">
        <ele>1949</ele>
        <time>2010-03-31T15:00:56Z</time>
      </trkpt>
      <trkpt lat="45.51833" lon="6.64736">
        <ele>1942</ele>
        <time>2010-03-31T15:01:01Z</time>
      </trkpt>
      <trkpt lat="45.51844" lon="6.64701">
        <ele>1943</ele>
        <time>2010-03-31T15:01:05Z</time>
      </trkpt>
      <trkpt lat="45.51847" lon="6.64657">
        <ele>1931</ele>
        <time>2010-03-31T15:01:10Z</time>
      </trkpt>
      <trkpt lat="45.51852" lon="6.64628">
        <ele>1929</ele>
        <time>2010-03-31T15:01:14Z</time>
      </trkpt>
      <trkpt lat="45.51855" lon="6.6462">
        <ele>1928</ele>
        <time>2010-03-31T15:01:16Z</time>
      </trkpt>
      <trkpt lat="45.51858" lon="6.64609">
        <ele>1926</ele>
        <time>2010-03-31T15:01:22Z</time>
      </trkpt>
      <trkpt lat="45.51863" lon="6.64592">
        <ele>1925</ele>
        <time>2010-03-31T15:01:25Z</time>
      </trkpt>
      <trkpt lat="45.51878" lon="6.6456">
        <ele>1909</ele>
        <time>2010-03-31T15:01:30Z</time>
      </trkpt>
      <trkpt lat="45.519" lon="6.64544">
        <ele>1909</ele>
        <time>2010-03-31T15:01:34Z</time>
      </trkpt>
      <trkpt lat="45.51948" lon="6.6452">
        <ele>1910</ele>
        <time>2010-03-31T15:01:41Z</time>
      </trkpt>
      <trkpt lat="45.51972" lon="6.64507">
        <ele>1908</ele>
        <time>2010-03-31T15:01:44Z</time>
      </trkpt>
      <trkpt lat="45.52" lon="6.64507">
        <ele>1900</ele>
        <time>2010-03-31T15:01:47Z</time>
      </trkpt>
      <trkpt lat="45.52022" lon="6.64509">
        <ele>1896</ele>
        <time>2010-03-31T15:01:50Z</time>
      </trkpt>
      <trkpt lat="45.52028" lon="6.64491">
        <ele>1886</ele>
        <time>2010-03-31T15:01:52Z</time>
      </trkpt>
      <trkpt lat="45.52027" lon="6.64459">
        <ele>1883</ele>
        <time>2010-03-31T15:01:55Z</time>
      </trkpt>
      <trkpt lat="45.52029" lon="6.6445">
        <ele>1882</ele>
        <time>2010-03-31T15:01:57Z</time>
      </trkpt>
      <trkpt lat="45.52029" lon="6.64449">
        <ele>1882</ele>
        <time>2010-03-31T15:02:01Z</time>
      </trkpt>
      <trkpt lat="45.5203" lon="6.64449">
        <ele>1882</ele>
        <time>2010-03-31T15:02:08Z</time>
      </trkpt>
      <trkpt lat="45.52034" lon="6.64439">
        <ele>1881</ele>
        <time>2010-03-31T15:02:11Z</time>
      </trkpt>
      <trkpt lat="45.52055" lon="6.64437">
        <ele>1877</ele>
        <time>2010-03-31T15:02:15Z</time>
      </trkpt>
      <trkpt lat="45.52061" lon="6.6442">
        <ele>1874</ele>
        <time>2010-03-31T15:02:17Z</time>
      </trkpt>
      <trkpt lat="45.52075" lon="6.64412">
        <ele>1867</ele>
        <time>2010-03-31T15:02:20Z</time>
      </trkpt>
      <trkpt lat="45.52091" lon="6.64405">
        <ele>1858</ele>
        <time>2010-03-31T15:02:23Z</time>
      </trkpt>
      <trkpt lat="45.52104" lon="6.64383">
        <ele>1851</ele>
        <time>2010-03-31T15:02:26Z</time>
      </trkpt>
      <trkpt lat="45.52119" lon="6.64381">
        <ele>1849</ele>
        <time>2010-03-31T15:02:28Z</time>
      </trkpt>
      <trkpt lat="45.52131" lon="6.64367">
        <ele>1846</ele>
        <time>2010-03-31T15:02:30Z</time>
      </trkpt>
      <trkpt lat="45.52148" lon="6.64349">
        <ele>1841</ele>
        <time>2010-03-31T15:02:33Z</time>
      </trkpt>
      <trkpt lat="45.52164" lon="6.64332">
        <ele>1832</ele>
        <time>2010-03-31T15:02:36Z</time>
      </trkpt>
      <trkpt lat="45.52202" lon="6.64288">
        <ele>1820</ele>
        <time>2010-03-31T15:02:41Z</time>
      </trkpt>
      <trkpt lat="45.5221" lon="6.64279">
        <ele>1819</ele>
        <time>2010-03-31T15:02:42Z</time>
      </trkpt>
      <trkpt lat="45.52237" lon="6.64249">
        <ele>1818</ele>
        <time>2010-03-31T15:02:46Z</time>
      </trkpt>
      <trkpt lat="45.52248" lon="6.64237">
        <ele>1819</ele>
        <time>2010-03-31T15:02:48Z</time>
      </trkpt>
      <trkpt lat="45.52267" lon="6.64223">
        <ele>1812</ele>
        <time>2010-03-31T15:02:52Z</time>
      </trkpt>
      <trkpt lat="45.52281" lon="6.642">
        <ele>1812</ele>
        <time>2010-03-31T15:02:57Z</time>
      </trkpt>
      <trkpt lat="45.52303" lon="6.64166">
        <ele>1811</ele>
        <time>2010-03-31T15:03:02Z</time>
      </trkpt>
      <trkpt lat="45.52318" lon="6.64142">
        <ele>1809</ele>
        <time>2010-03-31T15:03:05Z</time>
      </trkpt>
      <trkpt lat="45.52324" lon="6.64135">
        <ele>1809</ele>
        <time>2010-03-31T15:03:06Z</time>
      </trkpt>
      <trkpt lat="45.52335" lon="6.6412">
        <ele>1792</ele>
        <time>2010-03-31T15:03:08Z</time>
      </trkpt>
      <trkpt lat="45.5236" lon="6.64088">
        <ele>1791</ele>
        <time>2010-03-31T15:03:12Z</time>
      </trkpt>
      <trkpt lat="45.52366" lon="6.64078">
        <ele>1789</ele>
        <time>2010-03-31T15:03:13Z</time>
      </trkpt>
      <trkpt lat="45.52394" lon="6.6403">
        <ele>1783</ele>
        <time>2010-03-31T15:03:18Z</time>
      </trkpt>
      <trkpt lat="45.52406" lon="6.64023">
        <ele>1780</ele>
        <time>2010-03-31T15:03:20Z</time>
      </trkpt>
      <trkpt lat="45.52415" lon="6.6401">
        <ele>1775</ele>
        <time>2010-03-31T15:03:22Z</time>
      </trkpt>
      <trkpt lat="45.52431" lon="6.63982">
        <ele>1761</ele>
        <time>2010-03-31T15:03:25Z</time>
      </trkpt>
      <trkpt lat="45.52449" lon="6.63954">
        <ele>1756</ele>
        <time>2010-03-31T15:03:28Z</time>
      </trkpt>
      <trkpt lat="45.52461" lon="6.63947">
        <ele>1753</ele>
        <time>2010-03-31T15:03:30Z</time>
      </trkpt>
      <trkpt lat="45.5247" lon="6.63936">
        <ele>1751</ele>
        <time>2010-03-31T15:03:33Z</time>
      </trkpt>
      <trkpt lat="45.52474" lon="6.63934">
        <ele>1750</ele>
        <time>2010-03-31T15:03:36Z</time>
      </trkpt>
      <trkpt lat="45.52474" lon="6.63936">
        <ele>1750</ele>
        <time>2010-03-31T15:03:44Z</time>
      </trkpt>
      <trkpt lat="45.52475" lon="6.63936">
        <ele>1750</ele>
        <time>2010-03-31T15:03:46Z</time>
      </trkpt>
      <trkpt lat="45.52483" lon="6.63925">
        <ele>1746</ele>
        <time>2010-03-31T15:03:50Z</time>
      </trkpt>
      <trkpt lat="45.52508" lon="6.63893">
        <ele>1726</ele>
        <time>2010-03-31T15:03:55Z</time>
      </trkpt>
      <trkpt lat="45.52512" lon="6.6386">
        <ele>1723</ele>
        <time>2010-03-31T15:03:59Z</time>
      </trkpt>
      <trkpt lat="45.52518" lon="6.63854">
        <ele>1723</ele>
        <time>2010-03-31T15:04:01Z</time>
      </trkpt>
      <trkpt lat="45.52516" lon="6.63854">
        <ele>1723</ele>
        <time>2010-03-31T15:04:06Z</time>
      </trkpt>
      <trkpt lat="45.52516" lon="6.63854">
        <ele>1723</ele>
        <time>2010-03-31T15:04:12Z</time>
      </trkpt>
      <trkpt lat="45.52533" lon="6.6384">
        <ele>1719</ele>
        <time>2010-03-31T15:04:16Z</time>
      </trkpt>
      <trkpt lat="45.52556" lon="6.63826">
        <ele>1705</ele>
        <time>2010-03-31T15:04:19Z</time>
      </trkpt>
      <trkpt lat="45.52561" lon="6.63807">
        <ele>1704</ele>
        <time>2010-03-31T15:04:21Z</time>
      </trkpt>
      <trkpt lat="45.52573" lon="6.63789">
        <ele>1701</ele>
        <time>2010-03-31T15:04:24Z</time>
      </trkpt>
      <trkpt lat="45.52579" lon="6.6379">
        <ele>1700</ele>
        <time>2010-03-31T15:04:25Z</time>
      </trkpt>
      <trkpt lat="45.52588" lon="6.63771">
        <ele>1679</ele>
        <time>2010-03-31T15:04:29Z</time>
      </trkpt>
      <trkpt lat="45.52586" lon="6.63767">
        <ele>1679</ele>
        <time>2010-03-31T15:04:30Z</time>
      </trkpt>
      <trkpt lat="45.52593" lon="6.63759">
        <ele>1679</ele>
        <time>2010-03-31T15:04:34Z</time>
      </trkpt>
      <trkpt lat="45.52595" lon="6.6375">
        <ele>1672</ele>
        <time>2010-03-31T15:04:36Z</time>
      </trkpt>
      <trkpt lat="45.52589" lon="6.63735">
        <ele>1670</ele>
        <time>2010-03-31T15:04:39Z</time>
      </trkpt>
      <trkpt lat="45.52589" lon="6.63723">
        <ele>1666</ele>
        <time>2010-03-31T15:04:41Z</time>
      </trkpt>
      <trkpt lat="45.52595" lon="6.63718">
        <ele>1664</ele>
        <time>2010-03-31T15:04:43Z</time>
      </trkpt>
      <trkpt lat="45.526" lon="6.63712">
        <ele>1663</ele>
        <time>2010-03-31T15:04:45Z</time>
      </trkpt>
      <trkpt lat="45.52599" lon="6.63694">
        <ele>1661</ele>
        <time>2010-03-31T15:04:48Z</time>
      </trkpt>
      <trkpt lat="45.52605" lon="6.63682">
        <ele>1660</ele>
        <time>2010-03-31T15:04:50Z</time>
      </trkpt>
      <trkpt lat="45.52618" lon="6.63671">
        <ele>1657</ele>
        <time>2010-03-31T15:04:53Z</time>
      </trkpt>
      <trkpt lat="45.52622" lon="6.63655">
        <ele>1646</ele>
        <time>2010-03-31T15:04:55Z</time>
      </trkpt>
      <trkpt lat="45.52627" lon="6.63627">
        <ele>1643</ele>
        <time>2010-03-31T15:04:59Z</time>
      </trkpt>
      <trkpt lat="45.5263" lon="6.63603">
        <ele>1641</ele>
        <time>2010-03-31T15:05:03Z</time>
      </trkpt>
      <trkpt lat="45.52637" lon="6.63607">
        <ele>1639</ele>
        <time>2010-03-31T15:05:05Z</time>
      </trkpt>
      <trkpt lat="45.52647" lon="6.63604">
        <ele>1637</ele>
        <time>2010-03-31T15:05:08Z</time>
      </trkpt>
      <trkpt lat="45.52668" lon="6.63601">
        <ele>1622</ele>
        <time>2010-03-31T15:05:11Z</time>
      </trkpt>
      <trkpt lat="45.52697" lon="6.63605">
        <ele>1621</ele>
        <time>2010-03-31T15:05:14Z</time>
      </trkpt>
      <trkpt lat="45.52727" lon="6.63614">
        <ele>1618</ele>
        <time>2010-03-31T15:05:17Z</time>
      </trkpt>
      <trkpt lat="45.52748" lon="6.63638">
        <ele>1616</ele>
        <time>2010-03-31T15:05:20Z</time>
      </trkpt>
      <trkpt lat="45.5275" lon="6.63666">
        <ele>1608</ele>
        <time>2010-03-31T15:05:23Z</time>
      </trkpt>
      <trkpt lat="45.52757" lon="6.63678">
        <ele>1606</ele>
        <time>2010-03-31T15:05:26Z</time>
      </trkpt>
      <trkpt lat="45.52764" lon="6.63675">
        <ele>1606</ele>
        <time>2010-03-31T15:05:28Z</time>
      </trkpt>
      <trkpt lat="45.52765" lon="6.63675">
        <ele>1606</ele>
        <time>2010-03-31T15:05:35Z</time>
      </trkpt>
      <trkpt lat="45.52765" lon="6.63674">
        <ele>1606</ele>
        <time>2010-03-31T15:05:42Z</time>
      </trkpt>
      <trkpt lat="45.52767" lon="6.63677">
        <ele>1605</ele>
        <time>2010-03-31T15:05:48Z</time>
      </trkpt>
      <trkpt lat="45.52781" lon="6.6368">
        <ele>1604</ele>
        <time>2010-03-31T15:05:52Z</time>
      </trkpt>
      <trkpt lat="45.52795" lon="6.63685">
        <ele>1602</ele>
        <time>2010-03-31T15:05:55Z</time>
      </trkpt>
      <trkpt lat="45.52809" lon="6.63697">
        <ele>1601</ele>
        <time>2010-03-31T15:05:57Z</time>
      </trkpt>
      <trkpt lat="45.52828" lon="6.63693">
        <ele>1599</ele>
        <time>2010-03-31T15:06:00Z</time>
      </trkpt>
      <trkpt lat="45.52849" lon="6.63703">
        <ele>1581</ele>
        <time>2010-03-31T15:06:03Z</time>
      </trkpt>
      <trkpt lat="45.5286" lon="6.63702">
        <ele>1580</ele>
        <time>2010-03-31T15:06:06Z</time>
      </trkpt>
      <trkpt lat="45.52871" lon="6.63718">
        <ele>1577</ele>
        <time>2010-03-31T15:06:09Z</time>
      </trkpt>
      <trkpt lat="45.52886" lon="6.63723">
        <ele>1573</ele>
        <time>2010-03-31T15:06:12Z</time>
      </trkpt>
      <trkpt lat="45.52894" lon="6.63715">
        <ele>1572</ele>
        <time>2010-03-31T15:06:14Z</time>
      </trkpt>
      <trkpt lat="45.52896" lon="6.63709">
        <ele>1573</ele>
        <time>2010-03-31T15:06:16Z</time>
      </trkpt>
      <trkpt lat="45.52899" lon="6.63716">
        <ele>1571</ele>
        <time>2010-03-31T15:06:19Z</time>
      </trkpt>
      <trkpt lat="45.52899" lon="6.63719">
        <ele>1571</ele>
        <time>2010-03-31T15:06:24Z</time>
      </trkpt>
      <trkpt lat="45.52904" lon="6.63719">
        <ele>1570</ele>
        <time>2010-03-31T15:06:34Z</time>
      </trkpt>
      <trkpt lat="45.52905" lon="6.63726">
        <ele>1569</ele>
        <time>2010-03-31T15:06:43Z</time>
      </trkpt>
      <trkpt lat="45.52906" lon="6.63741">
        <ele>1565</ele>
        <time>2010-03-31T15:06:47Z</time>
      </trkpt>
      <trkpt lat="45.52924" lon="6.63727">
        <ele>1547</ele>
        <time>2010-03-31T15:06:51Z</time>
      </trkpt>
      <trkpt lat="45.52934" lon="6.63743">
        <ele>1547</ele>
        <time>2010-03-31T15:06:54Z</time>
      </trkpt>
      <trkpt lat="45.52935" lon="6.63748">
        <ele>1547</ele>
        <time>2010-03-31T15:06:55Z</time>
      </trkpt>
      <trkpt lat="45.52945" lon="6.63755">
        <ele>1542</ele>
        <time>2010-03-31T15:06:59Z</time>
      </trkpt>
      <trkpt lat="45.52962" lon="6.63747">
        <ele>1538</ele>
        <time>2010-03-31T15:07:02Z</time>
      </trkpt>
      <trkpt lat="45.52966" lon="6.63753">
        <ele>1536</ele>
        <time>2010-03-31T15:07:03Z</time>
      </trkpt>
      <trkpt lat="45.52985" lon="6.6377">
        <ele>1531</ele>
        <time>2010-03-31T15:07:07Z</time>
      </trkpt>
      <trkpt lat="45.52995" lon="6.63758">
        <ele>1526</ele>
        <time>2010-03-31T15:07:10Z</time>
      </trkpt>
      <trkpt lat="45.52996" lon="6.63758">
        <ele>1525</ele>
        <time>2010-03-31T15:07:11Z</time>
      </trkpt>
      <trkpt lat="45.53007" lon="6.63778">
        <ele>1510</ele>
        <time>2010-03-31T15:07:17Z</time>
      </trkpt>
      <trkpt lat="45.53009" lon="6.63787">
        <ele>1510</ele>
        <time>2010-03-31T15:07:19Z</time>
      </trkpt>
      <trkpt lat="45.53017" lon="6.63788">
        <ele>1509</ele>
        <time>2010-03-31T15:07:23Z</time>
      </trkpt>
      <trkpt lat="45.53029" lon="6.63768">
        <ele>1507</ele>
        <time>2010-03-31T15:07:27Z</time>
      </trkpt>
      <trkpt lat="45.5305" lon="6.63764">
        <ele>1501</ele>
        <time>2010-03-31T15:07:30Z</time>
      </trkpt>
      <trkpt lat="45.5307" lon="6.63782">
        <ele>1498</ele>
        <time>2010-03-31T15:07:33Z</time>
      </trkpt>
      <trkpt lat="45.53084" lon="6.63795">
        <ele>1477</ele>
        <time>2010-03-31T15:07:36Z</time>
      </trkpt>
      <trkpt lat="45.53107" lon="6.63792">
        <ele>1473</ele>
        <time>2010-03-31T15:07:40Z</time>
      </trkpt>
      <trkpt lat="45.53119" lon="6.63771">
        <ele>1471</ele>
        <time>2010-03-31T15:07:43Z</time>
      </trkpt>
      <trkpt lat="45.53122" lon="6.63758">
        <ele>1470</ele>
        <time>2010-03-31T15:07:45Z</time>
      </trkpt>
      <trkpt lat="45.53138" lon="6.63748">
        <ele>1463</ele>
        <time>2010-03-31T15:07:48Z</time>
      </trkpt>
      <trkpt lat="45.53146" lon="6.63758">
        <ele>1463</ele>
        <time>2010-03-31T15:07:50Z</time>
      </trkpt>
      <trkpt lat="45.53147" lon="6.63762">
        <ele>1463</ele>
        <time>2010-03-31T15:07:53Z</time>
      </trkpt>
      <trkpt lat="45.53147" lon="6.63762">
        <ele>1463</ele>
        <time>2010-03-31T15:08:02Z</time>
      </trkpt>
      <trkpt lat="45.53147" lon="6.63763">
        <ele>1463</ele>
        <time>2010-03-31T15:08:06Z</time>
      </trkpt>
      <trkpt lat="45.53153" lon="6.63774">
        <ele>1464</ele>
        <time>2010-03-31T15:08:09Z</time>
      </trkpt>
      <trkpt lat="45.53158" lon="6.63792">
        <ele>1464</ele>
        <time>2010-03-31T15:08:13Z</time>
      </trkpt>
      <trkpt lat="45.5317" lon="6.63821">
        <ele>1447</ele>
        <time>2010-03-31T15:08:17Z</time>
      </trkpt>
      <trkpt lat="45.53174" lon="6.63845">
        <ele>1447</ele>
        <time>2010-03-31T15:08:22Z</time>
      </trkpt>
      <trkpt lat="45.53175" lon="6.6385">
        <ele>1446</ele>
        <time>2010-03-31T15:08:23Z</time>
      </trkpt>
      <trkpt lat="45.53175" lon="6.63866">
        <ele>1443</ele>
        <time>2010-03-31T15:08:28Z</time>
      </trkpt>
      <trkpt lat="45.53174" lon="6.63868">
        <ele>1443</ele>
        <time>2010-03-31T15:08:32Z</time>
      </trkpt>
      <trkpt lat="45.53174" lon="6.6387">
        <ele>1443</ele>
        <time>2010-03-31T15:08:40Z</time>
      </trkpt>
      <trkpt lat="45.53178" lon="6.63867">
        <ele>1443</ele>
        <time>2010-03-31T15:08:53Z</time>
      </trkpt>
      <trkpt lat="45.5318" lon="6.63866">
        <ele>1443</ele>
        <time>2010-03-31T15:09:02Z</time>
      </trkpt>
      <trkpt lat="45.53179" lon="6.63866">
        <ele>1443</ele>
        <time>2010-03-31T15:09:11Z</time>
      </trkpt>
      <trkpt lat="45.53178" lon="6.63865">
        <ele>1443</ele>
        <time>2010-03-31T15:09:24Z</time>
      </trkpt>
      <trkpt lat="45.53177" lon="6.63865">
        <ele>1443</ele>
        <time>2010-03-31T15:09:36Z</time>
      </trkpt>
      <trkpt lat="45.53178" lon="6.63865">
        <ele>1443</ele>
        <time>2010-03-31T15:09:47Z</time>
      </trkpt>
      <trkpt lat="45.53178" lon="6.63865">
        <ele>1443</ele>
        <time>2010-03-31T15:09:54Z</time>
      </trkpt>
      <trkpt lat="45.53179" lon="6.63864">
        <ele>1443</ele>
        <time>2010-03-31T15:09:56Z</time>
      </trkpt>
      <trkpt lat="45.53192" lon="6.63855">
        <ele>1441</ele>
        <time>2010-03-31T15:10:01Z</time>
      </trkpt>
      <trkpt lat="45.53203" lon="6.63861">
        <ele>1439</ele>
        <time>2010-03-31T15:10:04Z</time>
      </trkpt>
      <trkpt lat="45.53211" lon="6.63861">
        <ele>1437</ele>
        <time>2010-03-31T15:10:07Z</time>
      </trkpt>
      <trkpt lat="45.53219" lon="6.63862">
        <ele>1436</ele>
        <time>2010-03-31T15:10:10Z</time>
      </trkpt>
      <trkpt lat="45.53218" lon="6.63863">
        <ele>1436</ele>
        <time>2010-03-31T15:10:17Z</time>
      </trkpt>
      <trkpt lat="45.53218" lon="6.63867">
        <ele>1436</ele>
        <time>2010-03-31T15:10:25Z</time>
      </trkpt>
      <trkpt lat="45.53217" lon="6.63871">
        <ele>1436</ele>
        <time>2010-03-31T15:10:27Z</time>
      </trkpt>
      <trkpt lat="45.53215" lon="6.63889">
        <ele>1436</ele>
        <time>2010-03-31T15:10:32Z</time>
      </trkpt>
      <trkpt lat="45.53211" lon="6.63924">
        <ele>1436</ele>
        <time>2010-03-31T15:10:39Z</time>
      </trkpt>
      <trkpt lat="45.53212" lon="6.63956">
        <ele>1436</ele>
        <time>2010-03-31T15:10:45Z</time>
      </trkpt>
      <trkpt lat="45.53218" lon="6.6397">
        <ele>1435</ele>
        <time>2010-03-31T15:10:48Z</time>
      </trkpt>
      <trkpt lat="45.53238" lon="6.63956">
        <ele>1432</ele>
        <time>2010-03-31T15:10:52Z</time>
      </trkpt>
      <trkpt lat="45.5325" lon="6.6393">
        <ele>1417</ele>
        <time>2010-03-31T15:10:55Z</time>
      </trkpt>
      <trkpt lat="45.5326" lon="6.63932">
        <ele>1416</ele>
        <time>2010-03-31T15:10:57Z</time>
      </trkpt>
      <trkpt lat="45.53263" lon="6.63945">
        <ele>1414</ele>
        <time>2010-03-31T15:10:59Z</time>
      </trkpt>
      <trkpt lat="45.53263" lon="6.63947">
        <ele>1414</ele>
        <time>2010-03-31T15:11:02Z</time>
      </trkpt>
      <trkpt lat="45.53264" lon="6.63946">
        <ele>1414</ele>
        <time>2010-03-31T15:11:03Z</time>
      </trkpt>
      <trkpt lat="45.53275" lon="6.63944">
        <ele>1412</ele>
        <time>2010-03-31T15:11:07Z</time>
      </trkpt>
      <trkpt lat="45.53284" lon="6.63955">
        <ele>1411</ele>
        <time>2010-03-31T15:11:10Z</time>
      </trkpt>
      <trkpt lat="45.53291" lon="6.63973">
        <ele>1410</ele>
        <time>2010-03-31T15:11:13Z</time>
      </trkpt>
      <trkpt lat="45.53299" lon="6.63969">
        <ele>1409</ele>
        <time>2010-03-31T15:11:15Z</time>
      </trkpt>
      <trkpt lat="45.53307" lon="6.6395">
        <ele>1407</ele>
        <time>2010-03-31T15:11:18Z</time>
      </trkpt>
      <trkpt lat="45.53331" lon="6.63927">
        <ele>1401</ele>
        <time>2010-03-31T15:11:23Z</time>
      </trkpt>
      <trkpt lat="45.53339" lon="6.63914">
        <ele>1395</ele>
        <time>2010-03-31T15:11:25Z</time>
      </trkpt>
      <trkpt lat="45.53346" lon="6.63884">
        <ele>1391</ele>
        <time>2010-03-31T15:11:29Z</time>
      </trkpt>
      <trkpt lat="45.5336" lon="6.63869">
        <ele>1390</ele>
        <time>2010-03-31T15:11:32Z</time>
      </trkpt>
      <trkpt lat="45.53373" lon="6.63861">
        <ele>1388</ele>
        <time>2010-03-31T15:11:35Z</time>
      </trkpt>
      <trkpt lat="45.53385" lon="6.63847">
        <ele>1386</ele>
        <time>2010-03-31T15:11:38Z</time>
      </trkpt>
      <trkpt lat="45.53388" lon="6.63845">
        <ele>1385</ele>
        <time>2010-03-31T15:11:40Z</time>
      </trkpt>
      <trkpt lat="45.53388" lon="6.63845">
        <ele>1385</ele>
        <time>2010-03-31T15:11:46Z</time>
      </trkpt>
      <trkpt lat="45.53389" lon="6.63845">
        <ele>1385</ele>
        <time>2010-03-31T15:11:47Z</time>
      </trkpt>
      <trkpt lat="45.53402" lon="6.63845">
        <ele>1383</ele>
        <time>2010-03-31T15:11:51Z</time>
      </trkpt>
      <trkpt lat="45.53404" lon="6.63849">
        <ele>1383</ele>
        <time>2010-03-31T15:11:52Z</time>
      </trkpt>
      <trkpt lat="45.5341" lon="6.63866">
        <ele>1384</ele>
        <time>2010-03-31T15:11:59Z</time>
      </trkpt>
      <trkpt lat="45.5341" lon="6.63866">
        <ele>1384</ele>
        <time>2010-03-31T15:12:06Z</time>
      </trkpt>
      <trkpt lat="45.53411" lon="6.63867">
        <ele>1384</ele>
        <time>2010-03-31T15:12:14Z</time>
      </trkpt>
      <trkpt lat="45.53411" lon="6.63867">
        <ele>1384</ele>
        <time>2010-03-31T15:12:24Z</time>
      </trkpt>
      <trkpt lat="45.53413" lon="6.63869">
        <ele>1384</ele>
        <time>2010-03-31T15:12:41Z</time>
      </trkpt>
      <trkpt lat="45.53414" lon="6.63874">
        <ele>1385</ele>
        <time>2010-03-31T15:12:47Z</time>
      </trkpt>
      <trkpt lat="45.53415" lon="6.63878">
        <ele>1385</ele>
        <time>2010-03-31T15:12:52Z</time>
      </trkpt>
      <trkpt lat="45.53414" lon="6.63881">
        <ele>1385</ele>
        <time>2010-03-31T15:12:57Z</time>
      </trkpt>
      <trkpt lat="45.53413" lon="6.63887">
        <ele>1385</ele>
        <time>2010-03-31T15:13:02Z</time>
      </trkpt>
      <trkpt lat="45.53415" lon="6.63896">
        <ele>1385</ele>
        <time>2010-03-31T15:13:09Z</time>
      </trkpt>
      <trkpt lat="45.53416" lon="6.63897">
        <ele>1385</ele>
        <time>2010-03-31T15:13:10Z</time>
      </trkpt>
      <trkpt lat="45.53421" lon="6.63906">
        <ele>1378</ele>
        <time>2010-03-31T15:13:19Z</time>
      </trkpt>
      <trkpt lat="45.53425" lon="6.63915">
        <ele>1379</ele>
        <time>2010-03-31T15:13:26Z</time>
      </trkpt>
      <trkpt lat="45.53427" lon="6.63931">
        <ele>1378</ele>
        <time>2010-03-31T15:13:36Z</time>
      </trkpt>
      <trkpt lat="45.53427" lon="6.63948">
        <ele>1376</ele>
        <time>2010-03-31T15:13:46Z</time>
      </trkpt>
      <trkpt lat="45.53427" lon="6.63962">
        <ele>1376</ele>
        <time>2010-03-31T15:13:55Z</time>
      </trkpt>
      <trkpt lat="45.53427" lon="6.6398">
        <ele>1378</ele>
        <time>2010-03-31T15:14:06Z</time>
      </trkpt>
      <trkpt lat="45.53427" lon="6.63996">
        <ele>1380</ele>
        <time>2010-03-31T15:14:17Z</time>
      </trkpt>
      <trkpt lat="45.53425" lon="6.64008">
        <ele>1379</ele>
        <time>2010-03-31T15:14:25Z</time>
      </trkpt>
      <trkpt lat="45.53421" lon="6.64015">
        <ele>1378</ele>
        <time>2010-03-31T15:14:32Z</time>
      </trkpt>
      <trkpt lat="45.53421" lon="6.64027">
        <ele>1376</ele>
        <time>2010-03-31T15:14:40Z</time>
      </trkpt>
      <trkpt lat="45.53417" lon="6.64034">
        <ele>1375</ele>
        <time>2010-03-31T15:14:46Z</time>
      </trkpt>
      <trkpt lat="45.53413" lon="6.64041">
        <ele>1387</ele>
        <time>2010-03-31T15:14:53Z</time>
      </trkpt>
      <trkpt lat="45.53421" lon="6.64048">
        <ele>1375</ele>
        <time>2010-03-31T15:14:58Z</time>
      </trkpt>
      <trkpt lat="45.53423" lon="6.64054">
        <ele>1374</ele>
        <time>2010-03-31T15:15:02Z</time>
      </trkpt>
      <trkpt lat="45.53428" lon="6.64058">
        <ele>1374</ele>
        <time>2010-03-31T15:15:07Z</time>
      </trkpt>
    </trkseg>
  </trk>
</gpx>